<gpx xmlns="http://www.topografix.com/GPX/1/1" xmlns:xsi="http://www.w3.org/2001/XMLSchema-instance" version="1.1" xsi:schemaLocation="http://www.topografix.com/GPX/1/1 http://www.topografix.com/GPX/1/1/gpx.xsd" creator="MotionXGPSFull 24.1 Build 5049R64">
<trk>
<name>Blackbutt Pie Run</name>
<desc>17 Jul 2016  7:08 am</desc>
<trkseg>
<trkpt lat="-27.3415794" lon="153.0107470">
<ele>19.591</ele>
<time>2016-07-16T21:08:32.410Z</time>
</trkpt>
<trkpt lat="-27.3410459" lon="153.0107372">
<ele>19.577</ele>
<time>2016-07-16T21:09:11.099Z</time>
</trkpt>
<trkpt lat="-27.3404833" lon="153.0105892">
<ele>19.562</ele>
<time>2016-07-16T21:09:52.986Z</time>
</trkpt>
<trkpt lat="-27.3402378" lon="153.0105333">
<ele>19.686</ele>
<time>2016-07-16T21:10:11.139Z</time>
</trkpt>
<trkpt lat="-27.3396667" lon="153.0103661">
<ele>20.478</ele>
<time>2016-07-16T21:10:53.925Z</time>
</trkpt>
<trkpt lat="-27.3391024" lon="153.0101743">
<ele>22.112</ele>
<time>2016-07-16T21:11:36.659Z</time>
</trkpt>
<trkpt lat="-27.3386986" lon="153.0100405">
<ele>23.998</ele>
<time>2016-07-16T21:12:07.174Z</time>
</trkpt>
<trkpt lat="-27.3382811" lon="153.0098932">
<ele>25.775</ele>
<time>2016-07-16T21:12:38.894Z</time>
</trkpt>
<trkpt lat="-27.3377179" lon="153.0097145">
<ele>27.318</ele>
<time>2016-07-16T21:13:21.322Z</time>
</trkpt>
<trkpt lat="-27.3372346" lon="153.0095900">
<ele>27.690</ele>
<time>2016-07-16T21:13:57.262Z</time>
</trkpt>
<trkpt lat="-27.3369545" lon="153.0095035">
<ele>26.113</ele>
<time>2016-07-16T21:14:18.320Z</time>
</trkpt>
<trkpt lat="-27.3367023" lon="153.0094378">
<ele>23.399</ele>
<time>2016-07-16T21:14:37.078Z</time>
</trkpt>
<trkpt lat="-27.3363224" lon="153.0093034">
<ele>21.103</ele>
<time>2016-07-16T21:15:05.952Z</time>
</trkpt>
<trkpt lat="-27.3360403" lon="153.0092240">
<ele>19.872</ele>
<time>2016-07-16T21:15:27.029Z</time>
</trkpt>
<trkpt lat="-27.3355729" lon="153.0091003">
<ele>19.512</ele>
<time>2016-07-16T21:16:01.843Z</time>
</trkpt>
<trkpt lat="-27.3350612" lon="153.0089915">
<ele>19.675</ele>
<time>2016-07-16T21:16:39.594Z</time>
</trkpt>
<trkpt lat="-27.3347323" lon="153.0088940">
<ele>20.019</ele>
<time>2016-07-16T21:17:04.253Z</time>
</trkpt>
<trkpt lat="-27.3344087" lon="153.0087953">
<ele>20.068</ele>
<time>2016-07-16T21:17:28.561Z</time>
</trkpt>
<trkpt lat="-27.3338883" lon="153.0086460">
<ele>19.639</ele>
<time>2016-07-16T21:18:07.491Z</time>
</trkpt>
<trkpt lat="-27.3335264" lon="153.0085675">
<ele>19.000</ele>
<time>2016-07-16T21:18:34.216Z</time>
</trkpt>
<trkpt lat="-27.3330065" lon="153.0084295">
<ele>18.377</ele>
<time>2016-07-16T21:19:12.944Z</time>
</trkpt>
<trkpt lat="-27.3326993" lon="153.0083486">
<ele>17.602</ele>
<time>2016-07-16T21:19:35.819Z</time>
</trkpt>
<trkpt lat="-27.3324035" lon="153.0082583">
<ele>16.514</ele>
<time>2016-07-16T21:19:58.036Z</time>
</trkpt>
<trkpt lat="-27.3321197" lon="153.0082111">
<ele>15.213</ele>
<time>2016-07-16T21:20:18.839Z</time>
</trkpt>
<trkpt lat="-27.3317369" lon="153.0082151">
<ele>14.009</ele>
<time>2016-07-16T21:20:46.586Z</time>
</trkpt>
<trkpt lat="-27.3314191" lon="153.0082511">
<ele>13.070</ele>
<time>2016-07-16T21:21:09.747Z</time>
</trkpt>
<trkpt lat="-27.3312554" lon="153.0082739">
<ele>12.227</ele>
<time>2016-07-16T21:21:21.706Z</time>
</trkpt>
<trkpt lat="-27.3310862" lon="153.0081807">
<ele>11.257</ele>
<time>2016-07-16T21:21:35.358Z</time>
</trkpt>
<trkpt lat="-27.3310040" lon="153.0078523">
<ele>10.365</ele>
<time>2016-07-16T21:21:57.327Z</time>
</trkpt>
<trkpt lat="-27.3309513" lon="153.0075120">
<ele>10.151</ele>
<time>2016-07-16T21:22:19.570Z</time>
</trkpt>
<trkpt lat="-27.3308978" lon="153.0068522">
<ele>11.301</ele>
<time>2016-07-16T21:23:02.246Z</time>
</trkpt>
<trkpt lat="-27.3309902" lon="153.0061462">
<ele>13.900</ele>
<time>2016-07-16T21:23:48.210Z</time>
</trkpt>
<trkpt lat="-27.3310815" lon="153.0057415">
<ele>16.823</ele>
<time>2016-07-16T21:24:15.097Z</time>
</trkpt>
<trkpt lat="-27.3311830" lon="153.0052271">
<ele>18.379</ele>
<time>2016-07-16T21:24:49.038Z</time>
</trkpt>
<trkpt lat="-27.3312461" lon="153.0048657">
<ele>17.762</ele>
<time>2016-07-16T21:25:12.760Z</time>
</trkpt>
<trkpt lat="-27.3312869" lon="153.0045916">
<ele>15.283</ele>
<time>2016-07-16T21:25:30.659Z</time>
</trkpt>
<trkpt lat="-27.3313218" lon="153.0043799">
<ele>11.952</ele>
<time>2016-07-16T21:25:44.525Z</time>
</trkpt>
<trkpt lat="-27.3313594" lon="153.0041620">
<ele>9.195</ele>
<time>2016-07-16T21:25:58.816Z</time>
</trkpt>
<trkpt lat="-27.3313210" lon="153.0037793">
<ele>7.900</ele>
<time>2016-07-16T21:26:23.618Z</time>
</trkpt>
<trkpt lat="-27.3312836" lon="153.0034195">
<ele>8.128</ele>
<time>2016-07-16T21:26:46.949Z</time>
</trkpt>
<trkpt lat="-27.3312322" lon="153.0030050">
<ele>9.847</ele>
<time>2016-07-16T21:27:13.908Z</time>
</trkpt>
<trkpt lat="-27.3311421" lon="153.0023598">
<ele>12.622</ele>
<time>2016-07-16T21:27:55.971Z</time>
</trkpt>
<trkpt lat="-27.3310446" lon="153.0016947">
<ele>15.347</ele>
<time>2016-07-16T21:28:39.389Z</time>
</trkpt>
<trkpt lat="-27.3309181" lon="153.0010222">
<ele>17.073</ele>
<time>2016-07-16T21:29:23.667Z</time>
</trkpt>
<trkpt lat="-27.3308397" lon="153.0005715">
<ele>17.683</ele>
<time>2016-07-16T21:29:53.244Z</time>
</trkpt>
<trkpt lat="-27.3307461" lon="153.0000622">
<ele>17.464</ele>
<time>2016-07-16T21:30:26.742Z</time>
</trkpt>
<trkpt lat="-27.3306803" lon="152.9995791">
<ele>16.426</ele>
<time>2016-07-16T21:30:58.227Z</time>
</trkpt>
<trkpt lat="-27.3305881" lon="152.9990154">
<ele>14.791</ele>
<time>2016-07-16T21:31:22.441Z</time>
</trkpt>
<trkpt lat="-27.3305194" lon="152.9984480">
<ele>13.350</ele>
<time>2016-07-16T21:31:28.563Z</time>
</trkpt>
<trkpt lat="-27.3304470" lon="152.9979530">
<ele>12.628</ele>
<time>2016-07-16T21:31:32.277Z</time>
</trkpt>
<trkpt lat="-27.3303794" lon="152.9974800">
<ele>12.251</ele>
<time>2016-07-16T21:31:35.483Z</time>
</trkpt>
<trkpt lat="-27.3303317" lon="152.9971503">
<ele>11.718</ele>
<time>2016-07-16T21:31:37.987Z</time>
</trkpt>
<trkpt lat="-27.3302766" lon="152.9968462">
<ele>11.028</ele>
<time>2016-07-16T21:31:40.600Z</time>
</trkpt>
<trkpt lat="-27.3301646" lon="152.9963669">
<ele>10.538</ele>
<time>2016-07-16T21:31:45.552Z</time>
</trkpt>
<trkpt lat="-27.3300836" lon="152.9960242">
<ele>10.565</ele>
<time>2016-07-16T21:31:49.009Z</time>
</trkpt>
<trkpt lat="-27.3299303" lon="152.9955120">
<ele>11.195</ele>
<time>2016-07-16T21:31:53.696Z</time>
</trkpt>
<trkpt lat="-27.3298213" lon="152.9951787">
<ele>12.117</ele>
<time>2016-07-16T21:31:56.574Z</time>
</trkpt>
<trkpt lat="-27.3296340" lon="152.9946892">
<ele>12.874</ele>
<time>2016-07-16T21:32:00.800Z</time>
</trkpt>
<trkpt lat="-27.3295003" lon="152.9943665">
<ele>13.219</ele>
<time>2016-07-16T21:32:03.559Z</time>
</trkpt>
<trkpt lat="-27.3293399" lon="152.9940341">
<ele>13.253</ele>
<time>2016-07-16T21:32:06.537Z</time>
</trkpt>
<trkpt lat="-27.3291058" lon="152.9935636">
<ele>13.248</ele>
<time>2016-07-16T21:32:11.205Z</time>
</trkpt>
<trkpt lat="-27.3288469" lon="152.9930371">
<ele>13.427</ele>
<time>2016-07-16T21:32:17.688Z</time>
</trkpt>
<trkpt lat="-27.3285967" lon="152.9925249">
<ele>13.784</ele>
<time>2016-07-16T21:32:26.691Z</time>
</trkpt>
<trkpt lat="-27.3284506" lon="152.9921870">
<ele>14.187</ele>
<time>2016-07-16T21:32:30.021Z</time>
</trkpt>
<trkpt lat="-27.3283118" lon="152.9918284">
<ele>14.480</ele>
<time>2016-07-16T21:32:32.882Z</time>
</trkpt>
<trkpt lat="-27.3281995" lon="152.9914871">
<ele>14.594</ele>
<time>2016-07-16T21:32:35.439Z</time>
</trkpt>
<trkpt lat="-27.3280559" lon="152.9907423">
<ele>14.615</ele>
<time>2016-07-16T21:32:42.614Z</time>
</trkpt>
<trkpt lat="-27.3280246" lon="152.9903580">
<ele>14.620</ele>
<time>2016-07-16T21:32:49.404Z</time>
</trkpt>
<trkpt lat="-27.3279763" lon="152.9898299">
<ele>14.559</ele>
<time>2016-07-16T21:32:56.425Z</time>
</trkpt>
<trkpt lat="-27.3279365" lon="152.9893299">
<ele>14.120</ele>
<time>2016-07-16T21:33:00.220Z</time>
</trkpt>
<trkpt lat="-27.3279079" lon="152.9889970">
<ele>13.000</ele>
<time>2016-07-16T21:33:02.583Z</time>
</trkpt>
<trkpt lat="-27.3278694" lon="152.9885270">
<ele>11.421</ele>
<time>2016-07-16T21:33:05.813Z</time>
</trkpt>
<trkpt lat="-27.3278412" lon="152.9882084">
<ele>10.004</ele>
<time>2016-07-16T21:33:07.987Z</time>
</trkpt>
<trkpt lat="-27.3277990" lon="152.9878579">
<ele>9.384</ele>
<time>2016-07-16T21:33:10.508Z</time>
</trkpt>
<trkpt lat="-27.3277281" lon="152.9873161">
<ele>9.788</ele>
<time>2016-07-16T21:33:14.711Z</time>
</trkpt>
<trkpt lat="-27.3276516" lon="152.9867550">
<ele>11.030</ele>
<time>2016-07-16T21:33:19.227Z</time>
</trkpt>
<trkpt lat="-27.3275972" lon="152.9863536">
<ele>12.757</ele>
<time>2016-07-16T21:33:22.691Z</time>
</trkpt>
<trkpt lat="-27.3275127" lon="152.9857907">
<ele>14.323</ele>
<time>2016-07-16T21:33:28.051Z</time>
</trkpt>
<trkpt lat="-27.3274461" lon="152.9854162">
<ele>15.164</ele>
<time>2016-07-16T21:33:31.734Z</time>
</trkpt>
<trkpt lat="-27.3273757" lon="152.9848249">
<ele>15.392</ele>
<time>2016-07-16T21:33:37.122Z</time>
</trkpt>
<trkpt lat="-27.3272906" lon="152.9842487">
<ele>15.404</ele>
<time>2016-07-16T21:33:42.222Z</time>
</trkpt>
<trkpt lat="-27.3272352" lon="152.9838775">
<ele>15.340</ele>
<time>2016-07-16T21:33:45.481Z</time>
</trkpt>
<trkpt lat="-27.3271429" lon="152.9833325">
<ele>15.110</ele>
<time>2016-07-16T21:33:50.137Z</time>
</trkpt>
<trkpt lat="-27.3270824" lon="152.9827890">
<ele>14.743</ele>
<time>2016-07-16T21:33:54.536Z</time>
</trkpt>
<trkpt lat="-27.3270398" lon="152.9824355">
<ele>14.445</ele>
<time>2016-07-16T21:33:57.387Z</time>
</trkpt>
<trkpt lat="-27.3269921" lon="152.9821011">
<ele>14.324</ele>
<time>2016-07-16T21:34:00.158Z</time>
</trkpt>
<trkpt lat="-27.3269151" lon="152.9815876">
<ele>14.315</ele>
<time>2016-07-16T21:34:04.521Z</time>
</trkpt>
<trkpt lat="-27.3268705" lon="152.9812542">
<ele>14.342</ele>
<time>2016-07-16T21:34:07.314Z</time>
</trkpt>
<trkpt lat="-27.3268315" lon="152.9809534">
<ele>14.275</ele>
<time>2016-07-16T21:34:09.830Z</time>
</trkpt>
<trkpt lat="-27.3267897" lon="152.9806301">
<ele>13.833</ele>
<time>2016-07-16T21:34:12.661Z</time>
</trkpt>
<trkpt lat="-27.3267644" lon="152.9804702">
<ele>12.593</ele>
<time>2016-07-16T21:34:14.117Z</time>
</trkpt>
<trkpt lat="-27.3267461" lon="152.9803186">
<ele>10.744</ele>
<time>2016-07-16T21:34:15.559Z</time>
</trkpt>
<trkpt lat="-27.3267226" lon="152.9802174">
<ele>9.226</ele>
<time>2016-07-16T21:34:16.557Z</time>
</trkpt>
<trkpt lat="-27.3266961" lon="152.9800292">
<ele>8.591</ele>
<time>2016-07-16T21:34:18.402Z</time>
</trkpt>
<trkpt lat="-27.3266412" lon="152.9795892">
<ele>8.833</ele>
<time>2016-07-16T21:34:22.618Z</time>
</trkpt>
<trkpt lat="-27.3265876" lon="152.9792167">
<ele>10.244</ele>
<time>2016-07-16T21:34:25.891Z</time>
</trkpt>
<trkpt lat="-27.3264960" lon="152.9786057">
<ele>13.042</ele>
<time>2016-07-16T21:34:30.894Z</time>
</trkpt>
<trkpt lat="-27.3264486" lon="152.9781618">
<ele>16.407</ele>
<time>2016-07-16T21:34:34.487Z</time>
</trkpt>
<trkpt lat="-27.3263756" lon="152.9776699">
<ele>19.024</ele>
<time>2016-07-16T21:34:38.473Z</time>
</trkpt>
<trkpt lat="-27.3262987" lon="152.9771472">
<ele>20.868</ele>
<time>2016-07-16T21:34:42.714Z</time>
</trkpt>
<trkpt lat="-27.3261825" lon="152.9763822">
<ele>22.550</ele>
<time>2016-07-16T21:34:49.164Z</time>
</trkpt>
<trkpt lat="-27.3261080" lon="152.9759259">
<ele>23.717</ele>
<time>2016-07-16T21:34:53.141Z</time>
</trkpt>
<trkpt lat="-27.3260421" lon="152.9755051">
<ele>23.896</ele>
<time>2016-07-16T21:34:56.939Z</time>
</trkpt>
<trkpt lat="-27.3259981" lon="152.9750842">
<ele>22.980</ele>
<time>2016-07-16T21:35:00.872Z</time>
</trkpt>
<trkpt lat="-27.3259324" lon="152.9745831">
<ele>20.904</ele>
<time>2016-07-16T21:35:08.891Z</time>
</trkpt>
<trkpt lat="-27.3258733" lon="152.9740894">
<ele>18.467</ele>
<time>2016-07-16T21:35:16.811Z</time>
</trkpt>
<trkpt lat="-27.3258214" lon="152.9736984">
<ele>16.897</ele>
<time>2016-07-16T21:35:20.115Z</time>
</trkpt>
<trkpt lat="-27.3257513" lon="152.9731147">
<ele>16.456</ele>
<time>2016-07-16T21:35:24.542Z</time>
</trkpt>
<trkpt lat="-27.3256946" lon="152.9727077">
<ele>16.662</ele>
<time>2016-07-16T21:35:27.206Z</time>
</trkpt>
<trkpt lat="-27.3256339" lon="152.9722746">
<ele>17.072</ele>
<time>2016-07-16T21:35:29.862Z</time>
</trkpt>
<trkpt lat="-27.3255487" lon="152.9716370">
<ele>17.579</ele>
<time>2016-07-16T21:35:34.052Z</time>
</trkpt>
<trkpt lat="-27.3254923" lon="152.9711887">
<ele>18.193</ele>
<time>2016-07-16T21:35:37.421Z</time>
</trkpt>
<trkpt lat="-27.3254220" lon="152.9707541">
<ele>18.726</ele>
<time>2016-07-16T21:35:40.822Z</time>
</trkpt>
<trkpt lat="-27.3253270" lon="152.9700833">
<ele>18.996</ele>
<time>2016-07-16T21:35:46.078Z</time>
</trkpt>
<trkpt lat="-27.3252182" lon="152.9694313">
<ele>19.067</ele>
<time>2016-07-16T21:35:51.022Z</time>
</trkpt>
<trkpt lat="-27.3251457" lon="152.9690021">
<ele>19.087</ele>
<time>2016-07-16T21:35:54.123Z</time>
</trkpt>
<trkpt lat="-27.3250581" lon="152.9683460">
<ele>19.087</ele>
<time>2016-07-16T21:35:58.736Z</time>
</trkpt>
<trkpt lat="-27.3249776" lon="152.9677132">
<ele>18.899</ele>
<time>2016-07-16T21:36:03.164Z</time>
</trkpt>
<trkpt lat="-27.3249157" lon="152.9672877">
<ele>18.431</ele>
<time>2016-07-16T21:36:06.193Z</time>
</trkpt>
<trkpt lat="-27.3248244" lon="152.9666574">
<ele>17.697</ele>
<time>2016-07-16T21:36:10.717Z</time>
</trkpt>
<trkpt lat="-27.3247656" lon="152.9662419">
<ele>16.846</ele>
<time>2016-07-16T21:36:13.762Z</time>
</trkpt>
<trkpt lat="-27.3246890" lon="152.9657007">
<ele>16.299</ele>
<time>2016-07-16T21:36:17.790Z</time>
</trkpt>
<trkpt lat="-27.3246204" lon="152.9652155">
<ele>16.263</ele>
<time>2016-07-16T21:36:21.725Z</time>
</trkpt>
<trkpt lat="-27.3245741" lon="152.9648083">
<ele>16.964</ele>
<time>2016-07-16T21:36:25.653Z</time>
</trkpt>
<trkpt lat="-27.3245635" lon="152.9646076">
<ele>18.742</ele>
<time>2016-07-16T21:36:27.965Z</time>
</trkpt>
<trkpt lat="-27.3245821" lon="152.9644126">
<ele>21.128</ele>
<time>2016-07-16T21:36:31.122Z</time>
</trkpt>
<trkpt lat="-27.3245992" lon="152.9642806">
<ele>23.084</ele>
<time>2016-07-16T21:36:34.314Z</time>
</trkpt>
<trkpt lat="-27.3246214" lon="152.9641668">
<ele>24.204</ele>
<time>2016-07-16T21:36:39.055Z</time>
</trkpt>
<trkpt lat="-27.3246214" lon="152.9641668">
<ele>24.685</ele>
<time>2016-07-16T21:36:42.129Z</time>
</trkpt>
<trkpt lat="-27.3246214" lon="152.9641668">
<ele>24.811</ele>
<time>2016-07-16T21:36:55.481Z</time>
</trkpt>
<trkpt lat="-27.3246709" lon="152.9639842">
<ele>24.766</ele>
<time>2016-07-16T21:37:00.469Z</time>
</trkpt>
<trkpt lat="-27.3244703" lon="152.9637850">
<ele>25.223</ele>
<time>2016-07-16T21:37:03.814Z</time>
</trkpt>
<trkpt lat="-27.3241477" lon="152.9636525">
<ele>26.851</ele>
<time>2016-07-16T21:37:06.915Z</time>
</trkpt>
<trkpt lat="-27.3238970" lon="152.9635753">
<ele>29.086</ele>
<time>2016-07-16T21:37:08.923Z</time>
</trkpt>
<trkpt lat="-27.3237526" lon="152.9635325">
<ele>30.740</ele>
<time>2016-07-16T21:37:09.972Z</time>
</trkpt>
<trkpt lat="-27.3230599" lon="152.9634643">
<ele>31.454</ele>
<time>2016-07-16T21:37:14.400Z</time>
</trkpt>
<trkpt lat="-27.3223984" lon="152.9634988">
<ele>31.578</ele>
<time>2016-07-16T21:37:17.872Z</time>
</trkpt>
<trkpt lat="-27.3217121" lon="152.9635250">
<ele>31.522</ele>
<time>2016-07-16T21:37:20.957Z</time>
</trkpt>
<trkpt lat="-27.3212269" lon="152.9635398">
<ele>31.251</ele>
<time>2016-07-16T21:37:23.108Z</time>
</trkpt>
<trkpt lat="-27.3207666" lon="152.9635473">
<ele>30.368</ele>
<time>2016-07-16T21:37:25.192Z</time>
</trkpt>
<trkpt lat="-27.3200964" lon="152.9635595">
<ele>29.018</ele>
<time>2016-07-16T21:37:28.473Z</time>
</trkpt>
<trkpt lat="-27.3194845" lon="152.9635773">
<ele>27.779</ele>
<time>2016-07-16T21:37:31.863Z</time>
</trkpt>
<trkpt lat="-27.3189818" lon="152.9636168">
<ele>27.079</ele>
<time>2016-07-16T21:37:34.887Z</time>
</trkpt>
<trkpt lat="-27.3184962" lon="152.9636333">
<ele>27.415</ele>
<time>2016-07-16T21:37:38.051Z</time>
</trkpt>
<trkpt lat="-27.3176941" lon="152.9636179">
<ele>29.085</ele>
<time>2016-07-16T21:37:44.200Z</time>
</trkpt>
<trkpt lat="-27.3174499" lon="152.9636269">
<ele>31.413</ele>
<time>2016-07-16T21:37:46.027Z</time>
</trkpt>
<trkpt lat="-27.3172231" lon="152.9636312">
<ele>33.314</ele>
<time>2016-07-16T21:37:47.667Z</time>
</trkpt>
<trkpt lat="-27.3169504" lon="152.9636364">
<ele>34.398</ele>
<time>2016-07-16T21:37:49.591Z</time>
</trkpt>
<trkpt lat="-27.3165308" lon="152.9636398">
<ele>35.162</ele>
<time>2016-07-16T21:37:52.562Z</time>
</trkpt>
<trkpt lat="-27.3160851" lon="152.9636100">
<ele>36.030</ele>
<time>2016-07-16T21:37:56.041Z</time>
</trkpt>
<trkpt lat="-27.3158267" lon="152.9635879">
<ele>36.825</ele>
<time>2016-07-16T21:37:58.405Z</time>
</trkpt>
<trkpt lat="-27.3154821" lon="152.9635125">
<ele>37.068</ele>
<time>2016-07-16T21:38:02.006Z</time>
</trkpt>
<trkpt lat="-27.3151815" lon="152.9633973">
<ele>36.429</ele>
<time>2016-07-16T21:38:05.556Z</time>
</trkpt>
<trkpt lat="-27.3149965" lon="152.9633082">
<ele>35.036</ele>
<time>2016-07-16T21:38:07.566Z</time>
</trkpt>
<trkpt lat="-27.3148165" lon="152.9631139">
<ele>33.501</ele>
<time>2016-07-16T21:38:09.521Z</time>
</trkpt>
<trkpt lat="-27.3147578" lon="152.9627927">
<ele>32.431</ele>
<time>2016-07-16T21:38:11.430Z</time>
</trkpt>
<trkpt lat="-27.3147277" lon="152.9624897">
<ele>32.154</ele>
<time>2016-07-16T21:38:13.050Z</time>
</trkpt>
<trkpt lat="-27.3146995" lon="152.9621176">
<ele>32.916</ele>
<time>2016-07-16T21:38:15.021Z</time>
</trkpt>
<trkpt lat="-27.3146454" lon="152.9615366">
<ele>34.554</ele>
<time>2016-07-16T21:38:18.156Z</time>
</trkpt>
<trkpt lat="-27.3145848" lon="152.9611620">
<ele>36.193</ele>
<time>2016-07-16T21:38:20.233Z</time>
</trkpt>
<trkpt lat="-27.3144914" lon="152.9606332">
<ele>36.863</ele>
<time>2016-07-16T21:38:23.159Z</time>
</trkpt>
<trkpt lat="-27.3143911" lon="152.9600933">
<ele>36.456</ele>
<time>2016-07-16T21:38:26.060Z</time>
</trkpt>
<trkpt lat="-27.3143335" lon="152.9597230">
<ele>35.710</ele>
<time>2016-07-16T21:38:27.967Z</time>
</trkpt>
<trkpt lat="-27.3142771" lon="152.9591442">
<ele>35.430</ele>
<time>2016-07-16T21:38:30.776Z</time>
</trkpt>
<trkpt lat="-27.3142237" lon="152.9585260">
<ele>36.331</ele>
<time>2016-07-16T21:38:33.540Z</time>
</trkpt>
<trkpt lat="-27.3141614" lon="152.9580752">
<ele>38.979</ele>
<time>2016-07-16T21:38:35.540Z</time>
</trkpt>
<trkpt lat="-27.3140694" lon="152.9573944">
<ele>43.139</ele>
<time>2016-07-16T21:38:38.625Z</time>
</trkpt>
<trkpt lat="-27.3139660" lon="152.9567557">
<ele>47.970</ele>
<time>2016-07-16T21:38:41.594Z</time>
</trkpt>
<trkpt lat="-27.3138889" lon="152.9563276">
<ele>52.537</ele>
<time>2016-07-16T21:38:43.624Z</time>
</trkpt>
<trkpt lat="-27.3138074" lon="152.9556947">
<ele>56.521</ele>
<time>2016-07-16T21:38:46.695Z</time>
</trkpt>
<trkpt lat="-27.3137135" lon="152.9550884">
<ele>59.820</ele>
<time>2016-07-16T21:38:49.504Z</time>
</trkpt>
<trkpt lat="-27.3135850" lon="152.9546882">
<ele>61.694</ele>
<time>2016-07-16T21:38:51.307Z</time>
</trkpt>
<trkpt lat="-27.3132451" lon="152.9540447">
<ele>61.580</ele>
<time>2016-07-16T21:38:54.140Z</time>
</trkpt>
<trkpt lat="-27.3129835" lon="152.9536000">
<ele>60.114</ele>
<time>2016-07-16T21:38:56.101Z</time>
</trkpt>
<trkpt lat="-27.3127165" lon="152.9531519">
<ele>58.244</ele>
<time>2016-07-16T21:38:58.082Z</time>
</trkpt>
<trkpt lat="-27.3123211" lon="152.9524697">
<ele>55.765</ele>
<time>2016-07-16T21:39:01.209Z</time>
</trkpt>
<trkpt lat="-27.3119427" lon="152.9518469">
<ele>52.263</ele>
<time>2016-07-16T21:39:04.327Z</time>
</trkpt>
<trkpt lat="-27.3117703" lon="152.9514345">
<ele>48.729</ele>
<time>2016-07-16T21:39:06.284Z</time>
</trkpt>
<trkpt lat="-27.3114463" lon="152.9508737">
<ele>46.615</ele>
<time>2016-07-16T21:39:09.193Z</time>
</trkpt>
<trkpt lat="-27.3112320" lon="152.9504895">
<ele>46.376</ele>
<time>2016-07-16T21:39:11.071Z</time>
</trkpt>
<trkpt lat="-27.3109953" lon="152.9500745">
<ele>47.305</ele>
<time>2016-07-16T21:39:13.076Z</time>
</trkpt>
<trkpt lat="-27.3106401" lon="152.9494507">
<ele>48.017</ele>
<time>2016-07-16T21:39:16.144Z</time>
</trkpt>
<trkpt lat="-27.3104187" lon="152.9490511">
<ele>47.405</ele>
<time>2016-07-16T21:39:18.139Z</time>
</trkpt>
<trkpt lat="-27.3100871" lon="152.9484598">
<ele>45.610</ele>
<time>2016-07-16T21:39:21.268Z</time>
</trkpt>
<trkpt lat="-27.3098798" lon="152.9480873">
<ele>44.043</ele>
<time>2016-07-16T21:39:23.335Z</time>
</trkpt>
<trkpt lat="-27.3096760" lon="152.9477344">
<ele>43.996</ele>
<time>2016-07-16T21:39:25.341Z</time>
</trkpt>
<trkpt lat="-27.3093752" lon="152.9472081">
<ele>45.624</ele>
<time>2016-07-16T21:39:28.339Z</time>
</trkpt>
<trkpt lat="-27.3091780" lon="152.9468721">
<ele>48.244</ele>
<time>2016-07-16T21:39:30.256Z</time>
</trkpt>
<trkpt lat="-27.3088589" lon="152.9463262">
<ele>50.718</ele>
<time>2016-07-16T21:39:33.308Z</time>
</trkpt>
<trkpt lat="-27.3085468" lon="152.9457939">
<ele>51.546</ele>
<time>2016-07-16T21:39:36.262Z</time>
</trkpt>
<trkpt lat="-27.3082464" lon="152.9452558">
<ele>50.160</ele>
<time>2016-07-16T21:39:39.183Z</time>
</trkpt>
<trkpt lat="-27.3080969" lon="152.9449663">
<ele>47.608</ele>
<time>2016-07-16T21:39:40.641Z</time>
</trkpt>
<trkpt lat="-27.3079140" lon="152.9444505">
<ele>45.047</ele>
<time>2016-07-16T21:39:42.919Z</time>
</trkpt>
<trkpt lat="-27.3078315" lon="152.9439427">
<ele>43.130</ele>
<time>2016-07-16T21:39:45.017Z</time>
</trkpt>
<trkpt lat="-27.3077637" lon="152.9434629">
<ele>42.114</ele>
<time>2016-07-16T21:39:47.025Z</time>
</trkpt>
<trkpt lat="-27.3076715" lon="152.9427741">
<ele>41.664</ele>
<time>2016-07-16T21:39:50.087Z</time>
</trkpt>
<trkpt lat="-27.3075823" lon="152.9421240">
<ele>41.225</ele>
<time>2016-07-16T21:39:53.136Z</time>
</trkpt>
<trkpt lat="-27.3075523" lon="152.9419150">
<ele>40.191</ele>
<time>2016-07-16T21:39:54.108Z</time>
</trkpt>
<trkpt lat="-27.3074404" lon="152.9410299">
<ele>38.644</ele>
<time>2016-07-16T21:39:58.127Z</time>
</trkpt>
<trkpt lat="-27.3073919" lon="152.9405945">
<ele>37.694</ele>
<time>2016-07-16T21:40:00.093Z</time>
</trkpt>
<trkpt lat="-27.3072939" lon="152.9399443">
<ele>38.104</ele>
<time>2016-07-16T21:40:03.190Z</time>
</trkpt>
<trkpt lat="-27.3071668" lon="152.9393269">
<ele>39.525</ele>
<time>2016-07-16T21:40:06.710Z</time>
</trkpt>
<trkpt lat="-27.3071255" lon="152.9388218">
<ele>41.516</ele>
<time>2016-07-16T21:40:09.953Z</time>
</trkpt>
<trkpt lat="-27.3071345" lon="152.9385324">
<ele>43.756</ele>
<time>2016-07-16T21:40:11.843Z</time>
</trkpt>
<trkpt lat="-27.3071992" lon="152.9380802">
<ele>45.618</ele>
<time>2016-07-16T21:40:15.032Z</time>
</trkpt>
<trkpt lat="-27.3073202" lon="152.9377921">
<ele>46.992</ele>
<time>2016-07-16T21:40:17.690Z</time>
</trkpt>
<trkpt lat="-27.3074065" lon="152.9375449">
<ele>48.197</ele>
<time>2016-07-16T21:40:20.467Z</time>
</trkpt>
<trkpt lat="-27.3075453" lon="152.9372551">
<ele>48.661</ele>
<time>2016-07-16T21:40:25.115Z</time>
</trkpt>
<trkpt lat="-27.3076624" lon="152.9370450">
<ele>47.606</ele>
<time>2016-07-16T21:40:27.533Z</time>
</trkpt>
<trkpt lat="-27.3076230" lon="152.9369358">
<ele>45.637</ele>
<time>2016-07-16T21:40:28.464Z</time>
</trkpt>
<trkpt lat="-27.3074852" lon="152.9369075">
<ele>44.110</ele>
<time>2016-07-16T21:40:29.710Z</time>
</trkpt>
<trkpt lat="-27.3072799" lon="152.9369017">
<ele>43.693</ele>
<time>2016-07-16T21:40:31.247Z</time>
</trkpt>
<trkpt lat="-27.3069330" lon="152.9369026">
<ele>44.466</ele>
<time>2016-07-16T21:40:33.636Z</time>
</trkpt>
<trkpt lat="-27.3064781" lon="152.9369570">
<ele>46.629</ele>
<time>2016-07-16T21:40:36.384Z</time>
</trkpt>
<trkpt lat="-27.3059021" lon="152.9370506">
<ele>50.624</ele>
<time>2016-07-16T21:40:39.545Z</time>
</trkpt>
<trkpt lat="-27.3052527" lon="152.9371655">
<ele>56.656</ele>
<time>2016-07-16T21:40:43.032Z</time>
</trkpt>
<trkpt lat="-27.3046905" lon="152.9372800">
<ele>63.085</ele>
<time>2016-07-16T21:40:46.146Z</time>
</trkpt>
<trkpt lat="-27.3041616" lon="152.9373874">
<ele>66.850</ele>
<time>2016-07-16T21:40:49.013Z</time>
</trkpt>
<trkpt lat="-27.3037893" lon="152.9374532">
<ele>66.554</ele>
<time>2016-07-16T21:40:51.032Z</time>
</trkpt>
<trkpt lat="-27.3034176" lon="152.9375128">
<ele>63.774</ele>
<time>2016-07-16T21:40:53.189Z</time>
</trkpt>
<trkpt lat="-27.3030412" lon="152.9375555">
<ele>60.719</ele>
<time>2016-07-16T21:40:55.537Z</time>
</trkpt>
<trkpt lat="-27.3025466" lon="152.9376413">
<ele>58.092</ele>
<time>2016-07-16T21:40:59.000Z</time>
</trkpt>
<trkpt lat="-27.3021384" lon="152.9377242">
<ele>55.514</ele>
<time>2016-07-16T21:41:02.101Z</time>
</trkpt>
<trkpt lat="-27.3017256" lon="152.9377705">
<ele>52.945</ele>
<time>2016-07-16T21:41:05.197Z</time>
</trkpt>
<trkpt lat="-27.3014627" lon="152.9378149">
<ele>50.777</ele>
<time>2016-07-16T21:41:07.168Z</time>
</trkpt>
<trkpt lat="-27.3011881" lon="152.9378563">
<ele>49.405</ele>
<time>2016-07-16T21:41:09.244Z</time>
</trkpt>
<trkpt lat="-27.3007913" lon="152.9379364">
<ele>48.863</ele>
<time>2016-07-16T21:41:12.389Z</time>
</trkpt>
<trkpt lat="-27.3005230" lon="152.9379915">
<ele>48.849</ele>
<time>2016-07-16T21:41:14.612Z</time>
</trkpt>
<trkpt lat="-27.3001407" lon="152.9380502">
<ele>48.936</ele>
<time>2016-07-16T21:41:17.960Z</time>
</trkpt>
<trkpt lat="-27.2997769" lon="152.9381075">
<ele>48.601</ele>
<time>2016-07-16T21:41:21.415Z</time>
</trkpt>
<trkpt lat="-27.2994534" lon="152.9381798">
<ele>47.343</ele>
<time>2016-07-16T21:41:24.169Z</time>
</trkpt>
<trkpt lat="-27.2992465" lon="152.9382029">
<ele>45.253</ele>
<time>2016-07-16T21:41:25.732Z</time>
</trkpt>
<trkpt lat="-27.2990333" lon="152.9382342">
<ele>43.025</ele>
<time>2016-07-16T21:41:27.221Z</time>
</trkpt>
<trkpt lat="-27.2986147" lon="152.9383127">
<ele>41.365</ele>
<time>2016-07-16T21:41:30.085Z</time>
</trkpt>
<trkpt lat="-27.2983088" lon="152.9383706">
<ele>40.741</ele>
<time>2016-07-16T21:41:32.175Z</time>
</trkpt>
<trkpt lat="-27.2978716" lon="152.9384473">
<ele>41.058</ele>
<time>2016-07-16T21:41:35.316Z</time>
</trkpt>
<trkpt lat="-27.2975808" lon="152.9385098">
<ele>41.534</ele>
<time>2016-07-16T21:41:37.700Z</time>
</trkpt>
<trkpt lat="-27.2972922" lon="152.9385581">
<ele>41.377</ele>
<time>2016-07-16T21:41:40.563Z</time>
</trkpt>
<trkpt lat="-27.2969385" lon="152.9386456">
<ele>40.231</ele>
<time>2016-07-16T21:41:44.451Z</time>
</trkpt>
<trkpt lat="-27.2966548" lon="152.9386838">
<ele>37.867</ele>
<time>2016-07-16T21:41:46.870Z</time>
</trkpt>
<trkpt lat="-27.2964002" lon="152.9386338">
<ele>34.484</ele>
<time>2016-07-16T21:41:48.768Z</time>
</trkpt>
<trkpt lat="-27.2961895" lon="152.9386700">
<ele>31.261</ele>
<time>2016-07-16T21:41:50.132Z</time>
</trkpt>
<trkpt lat="-27.2957961" lon="152.9387931">
<ele>29.597</ele>
<time>2016-07-16T21:41:52.376Z</time>
</trkpt>
<trkpt lat="-27.2954775" lon="152.9388707">
<ele>29.951</ele>
<time>2016-07-16T21:41:54.003Z</time>
</trkpt>
<trkpt lat="-27.2951143" lon="152.9389418">
<ele>31.893</ele>
<time>2016-07-16T21:41:55.776Z</time>
</trkpt>
<trkpt lat="-27.2944522" lon="152.9390549">
<ele>34.626</ele>
<time>2016-07-16T21:41:58.830Z</time>
</trkpt>
<trkpt lat="-27.2937524" lon="152.9391737">
<ele>37.691</ele>
<time>2016-07-16T21:42:02.112Z</time>
</trkpt>
<trkpt lat="-27.2933054" lon="152.9392535">
<ele>40.610</ele>
<time>2016-07-16T21:42:04.391Z</time>
</trkpt>
<trkpt lat="-27.2929021" lon="152.9393208">
<ele>41.840</ele>
<time>2016-07-16T21:42:06.553Z</time>
</trkpt>
<trkpt lat="-27.2925284" lon="152.9393874">
<ele>40.410</ele>
<time>2016-07-16T21:42:08.680Z</time>
</trkpt>
<trkpt lat="-27.2921518" lon="152.9394520">
<ele>37.732</ele>
<time>2016-07-16T21:42:10.982Z</time>
</trkpt>
<trkpt lat="-27.2916408" lon="152.9395358">
<ele>35.746</ele>
<time>2016-07-16T21:42:14.298Z</time>
</trkpt>
<trkpt lat="-27.2911753" lon="152.9396310">
<ele>34.991</ele>
<time>2016-07-16T21:42:17.640Z</time>
</trkpt>
<trkpt lat="-27.2907237" lon="152.9397030">
<ele>35.029</ele>
<time>2016-07-16T21:42:21.177Z</time>
</trkpt>
<trkpt lat="-27.2904597" lon="152.9397496">
<ele>35.237</ele>
<time>2016-07-16T21:42:23.588Z</time>
</trkpt>
<trkpt lat="-27.2899581" lon="152.9398341">
<ele>35.077</ele>
<time>2016-07-16T21:42:30.117Z</time>
</trkpt>
<trkpt lat="-27.2897512" lon="152.9398649">
<ele>34.185</ele>
<time>2016-07-16T21:42:32.656Z</time>
</trkpt>
<trkpt lat="-27.2895646" lon="152.9398969">
<ele>32.527</ele>
<time>2016-07-16T21:42:34.304Z</time>
</trkpt>
<trkpt lat="-27.2894293" lon="152.9399113">
<ele>30.512</ele>
<time>2016-07-16T21:42:35.268Z</time>
</trkpt>
<trkpt lat="-27.2893207" lon="152.9398884">
<ele>28.493</ele>
<time>2016-07-16T21:42:36.044Z</time>
</trkpt>
<trkpt lat="-27.2892095" lon="152.9396485">
<ele>26.718</ele>
<time>2016-07-16T21:42:37.482Z</time>
</trkpt>
<trkpt lat="-27.2891324" lon="152.9393891">
<ele>25.627</ele>
<time>2016-07-16T21:42:38.842Z</time>
</trkpt>
<trkpt lat="-27.2890335" lon="152.9390520">
<ele>25.591</ele>
<time>2016-07-16T21:42:40.540Z</time>
</trkpt>
<trkpt lat="-27.2888803" lon="152.9386467">
<ele>26.349</ele>
<time>2016-07-16T21:42:42.545Z</time>
</trkpt>
<trkpt lat="-27.2886896" lon="152.9380375">
<ele>27.194</ele>
<time>2016-07-16T21:42:45.388Z</time>
</trkpt>
<trkpt lat="-27.2885790" lon="152.9375865">
<ele>27.628</ele>
<time>2016-07-16T21:42:47.475Z</time>
</trkpt>
<trkpt lat="-27.2885182" lon="152.9371532">
<ele>27.632</ele>
<time>2016-07-16T21:42:49.463Z</time>
</trkpt>
<trkpt lat="-27.2884790" lon="152.9367140">
<ele>27.359</ele>
<time>2016-07-16T21:42:51.474Z</time>
</trkpt>
<trkpt lat="-27.2884796" lon="152.9360595">
<ele>27.071</ele>
<time>2016-07-16T21:42:54.422Z</time>
</trkpt>
<trkpt lat="-27.2884722" lon="152.9354122">
<ele>26.907</ele>
<time>2016-07-16T21:42:57.188Z</time>
</trkpt>
<trkpt lat="-27.2883613" lon="152.9349809">
<ele>26.863</ele>
<time>2016-07-16T21:42:59.070Z</time>
</trkpt>
<trkpt lat="-27.2880765" lon="152.9343357">
<ele>27.402</ele>
<time>2016-07-16T21:43:02.155Z</time>
</trkpt>
<trkpt lat="-27.2878801" lon="152.9339277">
<ele>29.873</ele>
<time>2016-07-16T21:43:04.256Z</time>
</trkpt>
<trkpt lat="-27.2877044" lon="152.9335371">
<ele>34.746</ele>
<time>2016-07-16T21:43:06.261Z</time>
</trkpt>
<trkpt lat="-27.2875115" lon="152.9329343">
<ele>39.937</ele>
<time>2016-07-16T21:43:09.217Z</time>
</trkpt>
<trkpt lat="-27.2873580" lon="152.9325335">
<ele>43.245</ele>
<time>2016-07-16T21:43:11.253Z</time>
</trkpt>
<trkpt lat="-27.2871056" lon="152.9319375">
<ele>44.691</ele>
<time>2016-07-16T21:43:14.351Z</time>
</trkpt>
<trkpt lat="-27.2869549" lon="152.9315715">
<ele>45.158</ele>
<time>2016-07-16T21:43:16.212Z</time>
</trkpt>
<trkpt lat="-27.2867316" lon="152.9309929">
<ele>44.853</ele>
<time>2016-07-16T21:43:19.062Z</time>
</trkpt>
<trkpt lat="-27.2865657" lon="152.9305925">
<ele>43.616</ele>
<time>2016-07-16T21:43:21.019Z</time>
</trkpt>
<trkpt lat="-27.2862162" lon="152.9300494">
<ele>41.689</ele>
<time>2016-07-16T21:43:23.903Z</time>
</trkpt>
<trkpt lat="-27.2859322" lon="152.9297046">
<ele>39.879</ele>
<time>2016-07-16T21:43:25.930Z</time>
</trkpt>
<trkpt lat="-27.2854982" lon="152.9292045">
<ele>38.931</ele>
<time>2016-07-16T21:43:29.028Z</time>
</trkpt>
<trkpt lat="-27.2852779" lon="152.9288501">
<ele>39.042</ele>
<time>2016-07-16T21:43:30.942Z</time>
</trkpt>
<trkpt lat="-27.2850844" lon="152.9284554">
<ele>39.764</ele>
<time>2016-07-16T21:43:32.921Z</time>
</trkpt>
<trkpt lat="-27.2849376" lon="152.9278044">
<ele>40.827</ele>
<time>2016-07-16T21:43:35.807Z</time>
</trkpt>
<trkpt lat="-27.2849321" lon="152.9273386">
<ele>42.500</ele>
<time>2016-07-16T21:43:37.771Z</time>
</trkpt>
<trkpt lat="-27.2851276" lon="152.9266481">
<ele>44.849</ele>
<time>2016-07-16T21:43:40.747Z</time>
</trkpt>
<trkpt lat="-27.2853744" lon="152.9262417">
<ele>47.718</ele>
<time>2016-07-16T21:43:42.763Z</time>
</trkpt>
<trkpt lat="-27.2856785" lon="152.9258937">
<ele>51.060</ele>
<time>2016-07-16T21:43:44.780Z</time>
</trkpt>
<trkpt lat="-27.2860415" lon="152.9256251">
<ele>54.601</ele>
<time>2016-07-16T21:43:46.811Z</time>
</trkpt>
<trkpt lat="-27.2864224" lon="152.9254344">
<ele>57.889</ele>
<time>2016-07-16T21:43:48.744Z</time>
</trkpt>
<trkpt lat="-27.2870112" lon="152.9252017">
<ele>60.594</ele>
<time>2016-07-16T21:43:51.595Z</time>
</trkpt>
<trkpt lat="-27.2876259" lon="152.9249809">
<ele>63.208</ele>
<time>2016-07-16T21:43:54.564Z</time>
</trkpt>
<trkpt lat="-27.2882335" lon="152.9247523">
<ele>66.078</ele>
<time>2016-07-16T21:43:57.616Z</time>
</trkpt>
<trkpt lat="-27.2886202" lon="152.9245864">
<ele>68.163</ele>
<time>2016-07-16T21:43:59.599Z</time>
</trkpt>
<trkpt lat="-27.2891783" lon="152.9242813">
<ele>68.514</ele>
<time>2016-07-16T21:44:02.476Z</time>
</trkpt>
<trkpt lat="-27.2895389" lon="152.9239833">
<ele>67.450</ele>
<time>2016-07-16T21:44:04.440Z</time>
</trkpt>
<trkpt lat="-27.2898681" lon="152.9236374">
<ele>65.893</ele>
<time>2016-07-16T21:44:06.440Z</time>
</trkpt>
<trkpt lat="-27.2902264" lon="152.9232739">
<ele>64.977</ele>
<time>2016-07-16T21:44:08.651Z</time>
</trkpt>
<trkpt lat="-27.2907127" lon="152.9227676">
<ele>65.482</ele>
<time>2016-07-16T21:44:11.868Z</time>
</trkpt>
<trkpt lat="-27.2910111" lon="152.9224715">
<ele>67.128</ele>
<time>2016-07-16T21:44:13.777Z</time>
</trkpt>
<trkpt lat="-27.2914611" lon="152.9220231">
<ele>68.853</ele>
<time>2016-07-16T21:44:16.584Z</time>
</trkpt>
<trkpt lat="-27.2917911" lon="152.9216975">
<ele>70.346</ele>
<time>2016-07-16T21:44:18.632Z</time>
</trkpt>
<trkpt lat="-27.2922829" lon="152.9212200">
<ele>71.851</ele>
<time>2016-07-16T21:44:21.708Z</time>
</trkpt>
<trkpt lat="-27.2925981" lon="152.9209123">
<ele>72.780</ele>
<time>2016-07-16T21:44:23.680Z</time>
</trkpt>
<trkpt lat="-27.2930679" lon="152.9204673">
<ele>72.129</ele>
<time>2016-07-16T21:44:26.439Z</time>
</trkpt>
<trkpt lat="-27.2934070" lon="152.9201485">
<ele>69.460</ele>
<time>2016-07-16T21:44:28.339Z</time>
</trkpt>
<trkpt lat="-27.2939846" lon="152.9196096">
<ele>65.791</ele>
<time>2016-07-16T21:44:31.440Z</time>
</trkpt>
<trkpt lat="-27.2943723" lon="152.9192478">
<ele>63.368</ele>
<time>2016-07-16T21:44:33.590Z</time>
</trkpt>
<trkpt lat="-27.2948907" lon="152.9187642">
<ele>63.437</ele>
<time>2016-07-16T21:44:36.616Z</time>
</trkpt>
<trkpt lat="-27.2952037" lon="152.9184365">
<ele>65.462</ele>
<time>2016-07-16T21:44:38.455Z</time>
</trkpt>
<trkpt lat="-27.2955148" lon="152.9180732">
<ele>68.563</ele>
<time>2016-07-16T21:44:40.351Z</time>
</trkpt>
<trkpt lat="-27.2959359" lon="152.9174167">
<ele>72.594</ele>
<time>2016-07-16T21:44:43.376Z</time>
</trkpt>
<trkpt lat="-27.2961999" lon="152.9169773">
<ele>77.718</ele>
<time>2016-07-16T21:44:45.415Z</time>
</trkpt>
<trkpt lat="-27.2964392" lon="152.9165504">
<ele>82.963</ele>
<time>2016-07-16T21:44:47.367Z</time>
</trkpt>
<trkpt lat="-27.2968367" lon="152.9158929">
<ele>86.581</ele>
<time>2016-07-16T21:44:50.491Z</time>
</trkpt>
<trkpt lat="-27.2972497" lon="152.9153174">
<ele>88.699</ele>
<time>2016-07-16T21:44:53.472Z</time>
</trkpt>
<trkpt lat="-27.2975666" lon="152.9149675">
<ele>90.659</ele>
<time>2016-07-16T21:44:55.576Z</time>
</trkpt>
<trkpt lat="-27.2978835" lon="152.9146298">
<ele>92.684</ele>
<time>2016-07-16T21:44:57.694Z</time>
</trkpt>
<trkpt lat="-27.2982350" lon="152.9140845">
<ele>94.415</ele>
<time>2016-07-16T21:45:00.689Z</time>
</trkpt>
<trkpt lat="-27.2983980" lon="152.9136747">
<ele>95.697</ele>
<time>2016-07-16T21:45:02.677Z</time>
</trkpt>
<trkpt lat="-27.2985332" lon="152.9130408">
<ele>96.251</ele>
<time>2016-07-16T21:45:05.473Z</time>
</trkpt>
<trkpt lat="-27.2985738" lon="152.9123346">
<ele>95.949</ele>
<time>2016-07-16T21:45:08.312Z</time>
</trkpt>
<trkpt lat="-27.2985617" lon="152.9115634">
<ele>95.003</ele>
<time>2016-07-16T21:45:11.469Z</time>
</trkpt>
<trkpt lat="-27.2985708" lon="152.9110790">
<ele>93.703</ele>
<time>2016-07-16T21:45:13.557Z</time>
</trkpt>
<trkpt lat="-27.2985513" lon="152.9104102">
<ele>92.131</ele>
<time>2016-07-16T21:45:16.591Z</time>
</trkpt>
<trkpt lat="-27.2985240" lon="152.9101879">
<ele>90.262</ele>
<time>2016-07-16T21:45:17.612Z</time>
</trkpt>
<trkpt lat="-27.2983186" lon="152.9093544">
<ele>88.441</ele>
<time>2016-07-16T21:45:21.344Z</time>
</trkpt>
<trkpt lat="-27.2982429" lon="152.9089030">
<ele>87.271</ele>
<time>2016-07-16T21:45:23.228Z</time>
</trkpt>
<trkpt lat="-27.2982491" lon="152.9081554">
<ele>87.158</ele>
<time>2016-07-16T21:45:26.130Z</time>
</trkpt>
<trkpt lat="-27.2983318" lon="152.9073724">
<ele>88.617</ele>
<time>2016-07-16T21:45:29.253Z</time>
</trkpt>
<trkpt lat="-27.2983954" lon="152.9066430">
<ele>91.762</ele>
<time>2016-07-16T21:45:32.261Z</time>
</trkpt>
<trkpt lat="-27.2984903" lon="152.9059251">
<ele>95.164</ele>
<time>2016-07-16T21:45:35.243Z</time>
</trkpt>
<trkpt lat="-27.2985967" lon="152.9052007">
<ele>97.263</ele>
<time>2016-07-16T21:45:38.220Z</time>
</trkpt>
<trkpt lat="-27.2987292" lon="152.9044845">
<ele>97.944</ele>
<time>2016-07-16T21:45:41.185Z</time>
</trkpt>
<trkpt lat="-27.2988293" lon="152.9040107">
<ele>97.753</ele>
<time>2016-07-16T21:45:43.239Z</time>
</trkpt>
<trkpt lat="-27.2989300" lon="152.9035452">
<ele>97.222</ele>
<time>2016-07-16T21:45:45.322Z</time>
</trkpt>
<trkpt lat="-27.2990606" lon="152.9028906">
<ele>96.749</ele>
<time>2016-07-16T21:45:48.383Z</time>
</trkpt>
<trkpt lat="-27.2990464" lon="152.9022470">
<ele>96.224</ele>
<time>2016-07-16T21:45:51.283Z</time>
</trkpt>
<trkpt lat="-27.2989621" lon="152.9018172">
<ele>95.432</ele>
<time>2016-07-16T21:45:53.235Z</time>
</trkpt>
<trkpt lat="-27.2986531" lon="152.9012473">
<ele>94.700</ele>
<time>2016-07-16T21:45:56.081Z</time>
</trkpt>
<trkpt lat="-27.2981438" lon="152.9007980">
<ele>94.128</ele>
<time>2016-07-16T21:45:59.113Z</time>
</trkpt>
<trkpt lat="-27.2979450" lon="152.9006947">
<ele>93.444</ele>
<time>2016-07-16T21:46:00.142Z</time>
</trkpt>
<trkpt lat="-27.2971017" lon="152.9005608">
<ele>92.751</ele>
<time>2016-07-16T21:46:04.183Z</time>
</trkpt>
<trkpt lat="-27.2967216" lon="152.9006700">
<ele>92.176</ele>
<time>2016-07-16T21:46:06.027Z</time>
</trkpt>
<trkpt lat="-27.2961611" lon="152.9010236">
<ele>91.370</ele>
<time>2016-07-16T21:46:08.828Z</time>
</trkpt>
<trkpt lat="-27.2957943" lon="152.9013710">
<ele>90.256</ele>
<time>2016-07-16T21:46:10.897Z</time>
</trkpt>
<trkpt lat="-27.2952851" lon="152.9019077">
<ele>89.485</ele>
<time>2016-07-16T21:46:14.076Z</time>
</trkpt>
<trkpt lat="-27.2949767" lon="152.9022607">
<ele>89.478</ele>
<time>2016-07-16T21:46:16.201Z</time>
</trkpt>
<trkpt lat="-27.2946833" lon="152.9025649">
<ele>89.418</ele>
<time>2016-07-16T21:46:18.137Z</time>
</trkpt>
<trkpt lat="-27.2943537" lon="152.9028239">
<ele>88.016</ele>
<time>2016-07-16T21:46:20.020Z</time>
</trkpt>
<trkpt lat="-27.2939700" lon="152.9030075">
<ele>85.140</ele>
<time>2016-07-16T21:46:21.930Z</time>
</trkpt>
<trkpt lat="-27.2933130" lon="152.9031607">
<ele>82.138</ele>
<time>2016-07-16T21:46:24.891Z</time>
</trkpt>
<trkpt lat="-27.2926518" lon="152.9031473">
<ele>79.633</ele>
<time>2016-07-16T21:46:27.766Z</time>
</trkpt>
<trkpt lat="-27.2919902" lon="152.9028978">
<ele>76.382</ele>
<time>2016-07-16T21:46:30.831Z</time>
</trkpt>
<trkpt lat="-27.2914336" lon="152.9024892">
<ele>71.426</ele>
<time>2016-07-16T21:46:33.743Z</time>
</trkpt>
<trkpt lat="-27.2911181" lon="152.9021190">
<ele>65.726</ele>
<time>2016-07-16T21:46:35.699Z</time>
</trkpt>
<trkpt lat="-27.2907575" lon="152.9014236">
<ele>61.183</ele>
<time>2016-07-16T21:46:38.754Z</time>
</trkpt>
<trkpt lat="-27.2905810" lon="152.9006787">
<ele>59.191</ele>
<time>2016-07-16T21:46:41.687Z</time>
</trkpt>
<trkpt lat="-27.2905846" lon="152.9001414">
<ele>59.861</ele>
<time>2016-07-16T21:46:43.743Z</time>
</trkpt>
<trkpt lat="-27.2907729" lon="152.8993837">
<ele>62.719</ele>
<time>2016-07-16T21:46:46.820Z</time>
</trkpt>
<trkpt lat="-27.2909508" lon="152.8989326">
<ele>67.525</ele>
<time>2016-07-16T21:46:48.764Z</time>
</trkpt>
<trkpt lat="-27.2912546" lon="152.8982520">
<ele>73.522</ele>
<time>2016-07-16T21:46:51.872Z</time>
</trkpt>
<trkpt lat="-27.2914162" lon="152.8978234">
<ele>79.715</ele>
<time>2016-07-16T21:46:53.823Z</time>
</trkpt>
<trkpt lat="-27.2915481" lon="152.8971381">
<ele>85.409</ele>
<time>2016-07-16T21:46:56.652Z</time>
</trkpt>
<trkpt lat="-27.2915845" lon="152.8966277">
<ele>89.739</ele>
<time>2016-07-16T21:46:58.599Z</time>
</trkpt>
<trkpt lat="-27.2915803" lon="152.8960851">
<ele>92.606</ele>
<time>2016-07-16T21:47:00.603Z</time>
</trkpt>
<trkpt lat="-27.2914393" lon="152.8952753">
<ele>94.650</ele>
<time>2016-07-16T21:47:03.664Z</time>
</trkpt>
<trkpt lat="-27.2912173" lon="152.8945239">
<ele>95.474</ele>
<time>2016-07-16T21:47:06.685Z</time>
</trkpt>
<trkpt lat="-27.2910391" lon="152.8940680">
<ele>94.726</ele>
<time>2016-07-16T21:47:08.638Z</time>
</trkpt>
<trkpt lat="-27.2908599" lon="152.8933939">
<ele>93.075</ele>
<time>2016-07-16T21:47:11.529Z</time>
</trkpt>
<trkpt lat="-27.2908136" lon="152.8929381">
<ele>91.158</ele>
<time>2016-07-16T21:47:13.475Z</time>
</trkpt>
<trkpt lat="-27.2908005" lon="152.8924897">
<ele>89.223</ele>
<time>2016-07-16T21:47:15.360Z</time>
</trkpt>
<trkpt lat="-27.2909142" lon="152.8919795">
<ele>87.484</ele>
<time>2016-07-16T21:47:17.528Z</time>
</trkpt>
<trkpt lat="-27.2910678" lon="152.8912561">
<ele>86.186</ele>
<time>2016-07-16T21:47:20.607Z</time>
</trkpt>
<trkpt lat="-27.2911340" lon="152.8907929">
<ele>85.034</ele>
<time>2016-07-16T21:47:22.567Z</time>
</trkpt>
<trkpt lat="-27.2910583" lon="152.8900798">
<ele>83.275</ele>
<time>2016-07-16T21:47:25.481Z</time>
</trkpt>
<trkpt lat="-27.2907682" lon="152.8893855">
<ele>80.538</ele>
<time>2016-07-16T21:47:28.458Z</time>
</trkpt>
<trkpt lat="-27.2905074" lon="152.8889313">
<ele>77.434</ele>
<time>2016-07-16T21:47:30.530Z</time>
</trkpt>
<trkpt lat="-27.2902126" lon="152.8882423">
<ele>75.209</ele>
<time>2016-07-16T21:47:33.512Z</time>
</trkpt>
<trkpt lat="-27.2899846" lon="152.8875442">
<ele>73.931</ele>
<time>2016-07-16T21:47:36.523Z</time>
</trkpt>
<trkpt lat="-27.2896841" lon="152.8869318">
<ele>71.563</ele>
<time>2016-07-16T21:47:39.265Z</time>
</trkpt>
<trkpt lat="-27.2891750" lon="152.8863824">
<ele>66.761</ele>
<time>2016-07-16T21:47:42.055Z</time>
</trkpt>
<trkpt lat="-27.2887048" lon="152.8860113">
<ele>61.215</ele>
<time>2016-07-16T21:47:44.112Z</time>
</trkpt>
<trkpt lat="-27.2882454" lon="152.8856423">
<ele>58.082</ele>
<time>2016-07-16T21:47:46.113Z</time>
</trkpt>
<trkpt lat="-27.2875421" lon="152.8850785">
<ele>58.190</ele>
<time>2016-07-16T21:47:49.262Z</time>
</trkpt>
<trkpt lat="-27.2871215" lon="152.8847308">
<ele>59.645</ele>
<time>2016-07-16T21:47:51.378Z</time>
</trkpt>
<trkpt lat="-27.2865645" lon="152.8842663">
<ele>60.241</ele>
<time>2016-07-16T21:47:54.414Z</time>
</trkpt>
<trkpt lat="-27.2862042" lon="152.8839884">
<ele>59.061</ele>
<time>2016-07-16T21:47:56.419Z</time>
</trkpt>
<trkpt lat="-27.2856909" lon="152.8835577">
<ele>56.896</ele>
<time>2016-07-16T21:47:59.385Z</time>
</trkpt>
<trkpt lat="-27.2851678" lon="152.8831303">
<ele>55.370</ele>
<time>2016-07-16T21:48:02.309Z</time>
</trkpt>
<trkpt lat="-27.2848491" lon="152.8827661">
<ele>55.346</ele>
<time>2016-07-16T21:48:04.297Z</time>
</trkpt>
<trkpt lat="-27.2844723" lon="152.8821043">
<ele>56.921</ele>
<time>2016-07-16T21:48:07.321Z</time>
</trkpt>
<trkpt lat="-27.2842718" lon="152.8816341">
<ele>59.342</ele>
<time>2016-07-16T21:48:09.283Z</time>
</trkpt>
<trkpt lat="-27.2841793" lon="152.8808502">
<ele>61.233</ele>
<time>2016-07-16T21:48:12.174Z</time>
</trkpt>
<trkpt lat="-27.2842177" lon="152.8802871">
<ele>61.889</ele>
<time>2016-07-16T21:48:14.171Z</time>
</trkpt>
<trkpt lat="-27.2842742" lon="152.8797280">
<ele>61.356</ele>
<time>2016-07-16T21:48:16.187Z</time>
</trkpt>
<trkpt lat="-27.2843361" lon="152.8789144">
<ele>60.012</ele>
<time>2016-07-16T21:48:19.202Z</time>
</trkpt>
<trkpt lat="-27.2843791" lon="152.8784022">
<ele>58.347</ele>
<time>2016-07-16T21:48:21.175Z</time>
</trkpt>
<trkpt lat="-27.2844270" lon="152.8778917">
<ele>56.744</ele>
<time>2016-07-16T21:48:23.172Z</time>
</trkpt>
<trkpt lat="-27.2844562" lon="152.8773813">
<ele>56.005</ele>
<time>2016-07-16T21:48:25.148Z</time>
</trkpt>
<trkpt lat="-27.2843900" lon="152.8766136">
<ele>56.920</ele>
<time>2016-07-16T21:48:28.068Z</time>
</trkpt>
<trkpt lat="-27.2842115" lon="152.8758297">
<ele>59.090</ele>
<time>2016-07-16T21:48:31.061Z</time>
</trkpt>
<trkpt lat="-27.2840418" lon="152.8753431">
<ele>61.279</ele>
<time>2016-07-16T21:48:32.958Z</time>
</trkpt>
<trkpt lat="-27.2837983" lon="152.8748673">
<ele>62.580</ele>
<time>2016-07-16T21:48:34.965Z</time>
</trkpt>
<trkpt lat="-27.2833471" lon="152.8742262">
<ele>62.909</ele>
<time>2016-07-16T21:48:38.021Z</time>
</trkpt>
<trkpt lat="-27.2828889" lon="152.8736512">
<ele>62.670</ele>
<time>2016-07-16T21:48:40.990Z</time>
</trkpt>
<trkpt lat="-27.2825315" lon="152.8730045">
<ele>61.939</ele>
<time>2016-07-16T21:48:43.987Z</time>
</trkpt>
<trkpt lat="-27.2823780" lon="152.8722998">
<ele>60.228</ele>
<time>2016-07-16T21:48:46.854Z</time>
</trkpt>
<trkpt lat="-27.2823426" lon="152.8717750">
<ele>57.795</ele>
<time>2016-07-16T21:48:48.843Z</time>
</trkpt>
<trkpt lat="-27.2824156" lon="152.8712201">
<ele>56.050</ele>
<time>2016-07-16T21:48:50.976Z</time>
</trkpt>
<trkpt lat="-27.2824917" lon="152.8704803">
<ele>55.658</ele>
<time>2016-07-16T21:48:53.987Z</time>
</trkpt>
<trkpt lat="-27.2825910" lon="152.8700439">
<ele>55.636</ele>
<time>2016-07-16T21:48:55.881Z</time>
</trkpt>
<trkpt lat="-27.2827898" lon="152.8693561">
<ele>55.088</ele>
<time>2016-07-16T21:48:58.863Z</time>
</trkpt>
<trkpt lat="-27.2829706" lon="152.8689108">
<ele>55.236</ele>
<time>2016-07-16T21:49:00.839Z</time>
</trkpt>
<trkpt lat="-27.2833264" lon="152.8682842">
<ele>57.409</ele>
<time>2016-07-16T21:49:03.822Z</time>
</trkpt>
<trkpt lat="-27.2837277" lon="152.8676682">
<ele>61.078</ele>
<time>2016-07-16T21:49:06.896Z</time>
</trkpt>
<trkpt lat="-27.2841601" lon="152.8671231">
<ele>65.119</ele>
<time>2016-07-16T21:49:09.934Z</time>
</trkpt>
<trkpt lat="-27.2844867" lon="152.8668515">
<ele>68.592</ele>
<time>2016-07-16T21:49:11.970Z</time>
</trkpt>
<trkpt lat="-27.2848337" lon="152.8667060">
<ele>70.904</ele>
<time>2016-07-16T21:49:13.903Z</time>
</trkpt>
<trkpt lat="-27.2854044" lon="152.8666534">
<ele>72.675</ele>
<time>2016-07-16T21:49:16.970Z</time>
</trkpt>
<trkpt lat="-27.2857709" lon="152.8666320">
<ele>75.042</ele>
<time>2016-07-16T21:49:19.142Z</time>
</trkpt>
<trkpt lat="-27.2862224" lon="152.8664315">
<ele>77.995</ele>
<time>2016-07-16T21:49:22.092Z</time>
</trkpt>
<trkpt lat="-27.2865832" lon="152.8660489">
<ele>80.211</ele>
<time>2016-07-16T21:49:25.040Z</time>
</trkpt>
<trkpt lat="-27.2867394" lon="152.8657006">
<ele>81.017</ele>
<time>2016-07-16T21:49:26.974Z</time>
</trkpt>
<trkpt lat="-27.2869328" lon="152.8651235">
<ele>80.951</ele>
<time>2016-07-16T21:49:29.986Z</time>
</trkpt>
<trkpt lat="-27.2869637" lon="152.8649163">
<ele>80.059</ele>
<time>2016-07-16T21:49:30.936Z</time>
</trkpt>
<trkpt lat="-27.2869587" lon="152.8639975">
<ele>78.221</ele>
<time>2016-07-16T21:49:34.922Z</time>
</trkpt>
<trkpt lat="-27.2868865" lon="152.8633009">
<ele>76.239</ele>
<time>2016-07-16T21:49:37.903Z</time>
</trkpt>
<trkpt lat="-27.2868196" lon="152.8626208">
<ele>74.802</ele>
<time>2016-07-16T21:49:40.845Z</time>
</trkpt>
<trkpt lat="-27.2867793" lon="152.8621550">
<ele>73.436</ele>
<time>2016-07-16T21:49:42.799Z</time>
</trkpt>
<trkpt lat="-27.2867508" lon="152.8616698">
<ele>71.755</ele>
<time>2016-07-16T21:49:44.764Z</time>
</trkpt>
<trkpt lat="-27.2867497" lon="152.8609095">
<ele>70.050</ele>
<time>2016-07-16T21:49:47.860Z</time>
</trkpt>
<trkpt lat="-27.2867534" lon="152.8606704">
<ele>68.228</ele>
<time>2016-07-16T21:49:48.846Z</time>
</trkpt>
<trkpt lat="-27.2868638" lon="152.8597100">
<ele>65.867</ele>
<time>2016-07-16T21:49:52.803Z</time>
</trkpt>
<trkpt lat="-27.2869833" lon="152.8589863">
<ele>63.285</ele>
<time>2016-07-16T21:49:55.753Z</time>
</trkpt>
<trkpt lat="-27.2872082" lon="152.8582657">
<ele>60.846</ele>
<time>2016-07-16T21:49:58.771Z</time>
</trkpt>
<trkpt lat="-27.2873877" lon="152.8578086">
<ele>58.699</ele>
<time>2016-07-16T21:50:00.796Z</time>
</trkpt>
<trkpt lat="-27.2876925" lon="152.8571683">
<ele>57.324</ele>
<time>2016-07-16T21:50:03.921Z</time>
</trkpt>
<trkpt lat="-27.2879551" lon="152.8566141">
<ele>56.830</ele>
<time>2016-07-16T21:50:06.874Z</time>
</trkpt>
<trkpt lat="-27.2881478" lon="152.8563113">
<ele>56.751</ele>
<time>2016-07-16T21:50:08.640Z</time>
</trkpt>
<trkpt lat="-27.2884448" lon="152.8560139">
<ele>56.847</ele>
<time>2016-07-16T21:50:10.618Z</time>
</trkpt>
<trkpt lat="-27.2886085" lon="152.8558541">
<ele>57.430</ele>
<time>2016-07-16T21:50:11.661Z</time>
</trkpt>
<trkpt lat="-27.2891901" lon="152.8551542">
<ele>58.584</ele>
<time>2016-07-16T21:50:15.773Z</time>
</trkpt>
<trkpt lat="-27.2894237" lon="152.8547950">
<ele>59.730</ele>
<time>2016-07-16T21:50:17.800Z</time>
</trkpt>
<trkpt lat="-27.2897597" lon="152.8543036">
<ele>60.312</ele>
<time>2016-07-16T21:50:20.609Z</time>
</trkpt>
<trkpt lat="-27.2900678" lon="152.8539913">
<ele>60.174</ele>
<time>2016-07-16T21:50:22.606Z</time>
</trkpt>
<trkpt lat="-27.2905942" lon="152.8535728">
<ele>59.203</ele>
<time>2016-07-16T21:50:25.632Z</time>
</trkpt>
<trkpt lat="-27.2909642" lon="152.8533072">
<ele>57.279</ele>
<time>2016-07-16T21:50:27.682Z</time>
</trkpt>
<trkpt lat="-27.2914930" lon="152.8529297">
<ele>54.810</ele>
<time>2016-07-16T21:50:30.608Z</time>
</trkpt>
<trkpt lat="-27.2918527" lon="152.8526722">
<ele>52.690</ele>
<time>2016-07-16T21:50:32.555Z</time>
</trkpt>
<trkpt lat="-27.2922412" lon="152.8524182">
<ele>51.381</ele>
<time>2016-07-16T21:50:34.571Z</time>
</trkpt>
<trkpt lat="-27.2926383" lon="152.8522061">
<ele>50.785</ele>
<time>2016-07-16T21:50:36.604Z</time>
</trkpt>
<trkpt lat="-27.2932141" lon="152.8519433">
<ele>50.649</ele>
<time>2016-07-16T21:50:39.638Z</time>
</trkpt>
<trkpt lat="-27.2933867" lon="152.8518589">
<ele>50.263</ele>
<time>2016-07-16T21:50:40.601Z</time>
</trkpt>
<trkpt lat="-27.2941393" lon="152.8516012">
<ele>49.234</ele>
<time>2016-07-16T21:50:44.596Z</time>
</trkpt>
<trkpt lat="-27.2945445" lon="152.8515291">
<ele>48.320</ele>
<time>2016-07-16T21:50:46.634Z</time>
</trkpt>
<trkpt lat="-27.2951442" lon="152.8514165">
<ele>48.317</ele>
<time>2016-07-16T21:50:49.767Z</time>
</trkpt>
<trkpt lat="-27.2956621" lon="152.8513256">
<ele>49.333</ele>
<time>2016-07-16T21:50:52.716Z</time>
</trkpt>
<trkpt lat="-27.2959607" lon="152.8512076">
<ele>51.604</ele>
<time>2016-07-16T21:50:54.602Z</time>
</trkpt>
<trkpt lat="-27.2963770" lon="152.8508664">
<ele>54.651</ele>
<time>2016-07-16T21:50:57.643Z</time>
</trkpt>
<trkpt lat="-27.2965768" lon="152.8505546">
<ele>57.412</ele>
<time>2016-07-16T21:50:59.591Z</time>
</trkpt>
<trkpt lat="-27.2967340" lon="152.8499640">
<ele>59.489</ele>
<time>2016-07-16T21:51:02.625Z</time>
</trkpt>
<trkpt lat="-27.2968259" lon="152.8495593">
<ele>61.098</ele>
<time>2016-07-16T21:51:04.595Z</time>
</trkpt>
<trkpt lat="-27.2970644" lon="152.8489603">
<ele>62.355</ele>
<time>2016-07-16T21:51:07.628Z</time>
</trkpt>
<trkpt lat="-27.2972404" lon="152.8485671">
<ele>62.997</ele>
<time>2016-07-16T21:51:09.623Z</time>
</trkpt>
<trkpt lat="-27.2974756" lon="152.8479655">
<ele>62.241</ele>
<time>2016-07-16T21:51:12.632Z</time>
</trkpt>
<trkpt lat="-27.2978058" lon="152.8474597">
<ele>59.813</ele>
<time>2016-07-16T21:51:15.528Z</time>
</trkpt>
<trkpt lat="-27.2981473" lon="152.8472031">
<ele>56.130</ele>
<time>2016-07-16T21:51:17.509Z</time>
</trkpt>
<trkpt lat="-27.2985581" lon="152.8469930">
<ele>52.324</ele>
<time>2016-07-16T21:51:19.548Z</time>
</trkpt>
<trkpt lat="-27.2989785" lon="152.8468033">
<ele>50.273</ele>
<time>2016-07-16T21:51:21.617Z</time>
</trkpt>
<trkpt lat="-27.2993711" lon="152.8466363">
<ele>50.694</ele>
<time>2016-07-16T21:51:23.723Z</time>
</trkpt>
<trkpt lat="-27.2996711" lon="152.8464570">
<ele>51.464</ele>
<time>2016-07-16T21:51:25.571Z</time>
</trkpt>
<trkpt lat="-27.2999944" lon="152.8459562">
<ele>50.383</ele>
<time>2016-07-16T21:51:28.491Z</time>
</trkpt>
<trkpt lat="-27.3003178" lon="152.8453528">
<ele>47.967</ele>
<time>2016-07-16T21:51:31.700Z</time>
</trkpt>
<trkpt lat="-27.3006145" lon="152.8448144">
<ele>46.038</ele>
<time>2016-07-16T21:51:34.697Z</time>
</trkpt>
<trkpt lat="-27.3009474" lon="152.8443375">
<ele>44.920</ele>
<time>2016-07-16T21:51:37.789Z</time>
</trkpt>
<trkpt lat="-27.3011671" lon="152.8440780">
<ele>43.833</ele>
<time>2016-07-16T21:51:40.004Z</time>
</trkpt>
<trkpt lat="-27.3014399" lon="152.8437941">
<ele>42.549</ele>
<time>2016-07-16T21:51:43.257Z</time>
</trkpt>
<trkpt lat="-27.3015565" lon="152.8436453">
<ele>40.952</ele>
<time>2016-07-16T21:51:46.097Z</time>
</trkpt>
<trkpt lat="-27.3016224" lon="152.8435350">
<ele>39.051</ele>
<time>2016-07-16T21:51:48.000Z</time>
</trkpt>
<trkpt lat="-27.3016224" lon="152.8435350">
<ele>37.661</ele>
<time>2016-07-16T21:51:53.000Z</time>
</trkpt>
<trkpt lat="-27.3016224" lon="152.8435350">
<ele>37.281</ele>
<time>2016-07-16T21:51:56.626Z</time>
</trkpt>
<trkpt lat="-27.3015048" lon="152.8433442">
<ele>37.622</ele>
<time>2016-07-16T21:52:01.195Z</time>
</trkpt>
<trkpt lat="-27.3012950" lon="152.8433564">
<ele>38.521</ele>
<time>2016-07-16T21:52:03.127Z</time>
</trkpt>
<trkpt lat="-27.3008287" lon="152.8434051">
<ele>39.844</ele>
<time>2016-07-16T21:52:06.638Z</time>
</trkpt>
<trkpt lat="-27.3004677" lon="152.8434249">
<ele>41.515</ele>
<time>2016-07-16T21:52:09.050Z</time>
</trkpt>
<trkpt lat="-27.2998527" lon="152.8433446">
<ele>43.369</ele>
<time>2016-07-16T21:52:12.799Z</time>
</trkpt>
<trkpt lat="-27.2992500" lon="152.8431966">
<ele>45.098</ele>
<time>2016-07-16T21:52:15.950Z</time>
</trkpt>
<trkpt lat="-27.2986176" lon="152.8430337">
<ele>46.600</ele>
<time>2016-07-16T21:52:18.836Z</time>
</trkpt>
<trkpt lat="-27.2979225" lon="152.8428686">
<ele>47.761</ele>
<time>2016-07-16T21:52:21.786Z</time>
</trkpt>
<trkpt lat="-27.2974555" lon="152.8427703">
<ele>48.657</ele>
<time>2016-07-16T21:52:23.707Z</time>
</trkpt>
<trkpt lat="-27.2967313" lon="152.8426003">
<ele>49.611</ele>
<time>2016-07-16T21:52:26.640Z</time>
</trkpt>
<trkpt lat="-27.2959898" lon="152.8424368">
<ele>50.520</ele>
<time>2016-07-16T21:52:29.675Z</time>
</trkpt>
<trkpt lat="-27.2954940" lon="152.8423173">
<ele>51.146</ele>
<time>2016-07-16T21:52:31.705Z</time>
</trkpt>
<trkpt lat="-27.2947439" lon="152.8421695">
<ele>51.284</ele>
<time>2016-07-16T21:52:34.649Z</time>
</trkpt>
<trkpt lat="-27.2939557" lon="152.8420684">
<ele>50.862</ele>
<time>2016-07-16T21:52:37.663Z</time>
</trkpt>
<trkpt lat="-27.2931624" lon="152.8420396">
<ele>50.244</ele>
<time>2016-07-16T21:52:40.679Z</time>
</trkpt>
<trkpt lat="-27.2923787" lon="152.8420801">
<ele>49.866</ele>
<time>2016-07-16T21:52:43.604Z</time>
</trkpt>
<trkpt lat="-27.2918444" lon="152.8421513">
<ele>49.875</ele>
<time>2016-07-16T21:52:45.555Z</time>
</trkpt>
<trkpt lat="-27.2910135" lon="152.8423293">
<ele>50.174</ele>
<time>2016-07-16T21:52:48.567Z</time>
</trkpt>
<trkpt lat="-27.2904538" lon="152.8424621">
<ele>50.710</ele>
<time>2016-07-16T21:52:50.612Z</time>
</trkpt>
<trkpt lat="-27.2896390" lon="152.8426727">
<ele>51.411</ele>
<time>2016-07-16T21:52:53.674Z</time>
</trkpt>
<trkpt lat="-27.2891245" lon="152.8427952">
<ele>51.614</ele>
<time>2016-07-16T21:52:55.620Z</time>
</trkpt>
<trkpt lat="-27.2883441" lon="152.8429959">
<ele>50.952</ele>
<time>2016-07-16T21:52:58.566Z</time>
</trkpt>
<trkpt lat="-27.2878158" lon="152.8431278">
<ele>50.110</ele>
<time>2016-07-16T21:53:00.557Z</time>
</trkpt>
<trkpt lat="-27.2870196" lon="152.8433285">
<ele>49.764</ele>
<time>2016-07-16T21:53:03.614Z</time>
</trkpt>
<trkpt lat="-27.2864856" lon="152.8434649">
<ele>49.846</ele>
<time>2016-07-16T21:53:05.665Z</time>
</trkpt>
<trkpt lat="-27.2854454" lon="152.8438378">
<ele>50.048</ele>
<time>2016-07-16T21:53:09.723Z</time>
</trkpt>
<trkpt lat="-27.2849533" lon="152.8440794">
<ele>50.057</ele>
<time>2016-07-16T21:53:11.753Z</time>
</trkpt>
<trkpt lat="-27.2842403" lon="152.8444584">
<ele>49.746</ele>
<time>2016-07-16T21:53:14.810Z</time>
</trkpt>
<trkpt lat="-27.2837734" lon="152.8447064">
<ele>48.649</ele>
<time>2016-07-16T21:53:16.812Z</time>
</trkpt>
<trkpt lat="-27.2830755" lon="152.8450836">
<ele>46.630</ele>
<time>2016-07-16T21:53:19.766Z</time>
</trkpt>
<trkpt lat="-27.2823630" lon="152.8454713">
<ele>44.850</ele>
<time>2016-07-16T21:53:22.863Z</time>
</trkpt>
<trkpt lat="-27.2819196" lon="152.8457179">
<ele>44.310</ele>
<time>2016-07-16T21:53:24.877Z</time>
</trkpt>
<trkpt lat="-27.2814806" lon="152.8459557">
<ele>44.619</ele>
<time>2016-07-16T21:53:26.853Z</time>
</trkpt>
<trkpt lat="-27.2810423" lon="152.8461956">
<ele>44.979</ele>
<time>2016-07-16T21:53:28.774Z</time>
</trkpt>
<trkpt lat="-27.2805607" lon="152.8464592">
<ele>44.994</ele>
<time>2016-07-16T21:53:30.842Z</time>
</trkpt>
<trkpt lat="-27.2798708" lon="152.8468468">
<ele>45.312</ele>
<time>2016-07-16T21:53:33.839Z</time>
</trkpt>
<trkpt lat="-27.2794203" lon="152.8470982">
<ele>46.939</ele>
<time>2016-07-16T21:53:35.849Z</time>
</trkpt>
<trkpt lat="-27.2789756" lon="152.8473449">
<ele>49.468</ele>
<time>2016-07-16T21:53:37.857Z</time>
</trkpt>
<trkpt lat="-27.2783084" lon="152.8477080">
<ele>51.464</ele>
<time>2016-07-16T21:53:40.827Z</time>
</trkpt>
<trkpt lat="-27.2778514" lon="152.8479294">
<ele>52.325</ele>
<time>2016-07-16T21:53:42.779Z</time>
</trkpt>
<trkpt lat="-27.2773758" lon="152.8481490">
<ele>52.642</ele>
<time>2016-07-16T21:53:44.793Z</time>
</trkpt>
<trkpt lat="-27.2768900" lon="152.8483472">
<ele>53.216</ele>
<time>2016-07-16T21:53:46.835Z</time>
</trkpt>
<trkpt lat="-27.2759558" lon="152.8487283">
<ele>54.109</ele>
<time>2016-07-16T21:53:50.723Z</time>
</trkpt>
<trkpt lat="-27.2754753" lon="152.8488845">
<ele>54.590</ele>
<time>2016-07-16T21:53:52.583Z</time>
</trkpt>
<trkpt lat="-27.2749571" lon="152.8490473">
<ele>54.308</ele>
<time>2016-07-16T21:53:54.514Z</time>
</trkpt>
<trkpt lat="-27.2741203" lon="152.8492694">
<ele>53.749</ele>
<time>2016-07-16T21:53:57.613Z</time>
</trkpt>
<trkpt lat="-27.2733100" lon="152.8494580">
<ele>53.286</ele>
<time>2016-07-16T21:54:00.723Z</time>
</trkpt>
<trkpt lat="-27.2725333" lon="152.8496086">
<ele>52.420</ele>
<time>2016-07-16T21:54:03.895Z</time>
</trkpt>
<trkpt lat="-27.2720744" lon="152.8496977">
<ele>50.800</ele>
<time>2016-07-16T21:54:05.795Z</time>
</trkpt>
<trkpt lat="-27.2715969" lon="152.8497914">
<ele>49.094</ele>
<time>2016-07-16T21:54:07.729Z</time>
</trkpt>
<trkpt lat="-27.2708411" lon="152.8499402">
<ele>48.093</ele>
<time>2016-07-16T21:54:10.685Z</time>
</trkpt>
<trkpt lat="-27.2700575" lon="152.8500748">
<ele>48.290</ele>
<time>2016-07-16T21:54:13.683Z</time>
</trkpt>
<trkpt lat="-27.2695366" lon="152.8501629">
<ele>49.793</ele>
<time>2016-07-16T21:54:15.639Z</time>
</trkpt>
<trkpt lat="-27.2687376" lon="152.8503049">
<ele>51.840</ele>
<time>2016-07-16T21:54:18.647Z</time>
</trkpt>
<trkpt lat="-27.2682186" lon="152.8504025">
<ele>53.829</ele>
<time>2016-07-16T21:54:20.662Z</time>
</trkpt>
<trkpt lat="-27.2677030" lon="152.8505034">
<ele>55.645</ele>
<time>2016-07-16T21:54:22.695Z</time>
</trkpt>
<trkpt lat="-27.2666799" lon="152.8507014">
<ele>56.840</ele>
<time>2016-07-16T21:54:26.734Z</time>
</trkpt>
<trkpt lat="-27.2661869" lon="152.8507928">
<ele>57.236</ele>
<time>2016-07-16T21:54:28.692Z</time>
</trkpt>
<trkpt lat="-27.2656957" lon="152.8508845">
<ele>57.347</ele>
<time>2016-07-16T21:54:30.637Z</time>
</trkpt>
<trkpt lat="-27.2651992" lon="152.8509725">
<ele>57.565</ele>
<time>2016-07-16T21:54:32.559Z</time>
</trkpt>
<trkpt lat="-27.2646859" lon="152.8510674">
<ele>57.823</ele>
<time>2016-07-16T21:54:34.505Z</time>
</trkpt>
<trkpt lat="-27.2638909" lon="152.8512198">
<ele>57.884</ele>
<time>2016-07-16T21:54:37.490Z</time>
</trkpt>
<trkpt lat="-27.2630891" lon="152.8513670">
<ele>57.613</ele>
<time>2016-07-16T21:54:40.515Z</time>
</trkpt>
<trkpt lat="-27.2625686" lon="152.8514653">
<ele>56.759</ele>
<time>2016-07-16T21:54:42.492Z</time>
</trkpt>
<trkpt lat="-27.2617787" lon="152.8516162">
<ele>54.932</ele>
<time>2016-07-16T21:54:45.502Z</time>
</trkpt>
<trkpt lat="-27.2612512" lon="152.8516822">
<ele>51.869</ele>
<time>2016-07-16T21:54:47.504Z</time>
</trkpt>
<trkpt lat="-27.2607203" lon="152.8517082">
<ele>48.234</ele>
<time>2016-07-16T21:54:49.530Z</time>
</trkpt>
<trkpt lat="-27.2599333" lon="152.8516848">
<ele>45.475</ele>
<time>2016-07-16T21:54:52.619Z</time>
</trkpt>
<trkpt lat="-27.2594348" lon="152.8516272">
<ele>44.367</ele>
<time>2016-07-16T21:54:54.612Z</time>
</trkpt>
<trkpt lat="-27.2587074" lon="152.8514714">
<ele>44.476</ele>
<time>2016-07-16T21:54:57.591Z</time>
</trkpt>
<trkpt lat="-27.2579985" lon="152.8512345">
<ele>45.470</ele>
<time>2016-07-16T21:55:00.550Z</time>
</trkpt>
<trkpt lat="-27.2572850" lon="152.8509392">
<ele>47.244</ele>
<time>2016-07-16T21:55:03.528Z</time>
</trkpt>
<trkpt lat="-27.2568251" lon="152.8506799">
<ele>49.424</ele>
<time>2016-07-16T21:55:05.540Z</time>
</trkpt>
<trkpt lat="-27.2563700" lon="152.8504095">
<ele>51.384</ele>
<time>2016-07-16T21:55:07.559Z</time>
</trkpt>
<trkpt lat="-27.2557339" lon="152.8499279">
<ele>52.451</ele>
<time>2016-07-16T21:55:10.573Z</time>
</trkpt>
<trkpt lat="-27.2553248" lon="152.8495988">
<ele>52.449</ele>
<time>2016-07-16T21:55:12.536Z</time>
</trkpt>
<trkpt lat="-27.2549354" lon="152.8492308">
<ele>51.964</ele>
<time>2016-07-16T21:55:14.479Z</time>
</trkpt>
<trkpt lat="-27.2543972" lon="152.8485958">
<ele>51.517</ele>
<time>2016-07-16T21:55:17.247Z</time>
</trkpt>
<trkpt lat="-27.2538130" lon="152.8478191">
<ele>51.314</ele>
<time>2016-07-16T21:55:20.267Z</time>
</trkpt>
<trkpt lat="-27.2534459" lon="152.8473054">
<ele>51.511</ele>
<time>2016-07-16T21:55:22.185Z</time>
</trkpt>
<trkpt lat="-27.2528742" lon="152.8465098">
<ele>52.033</ele>
<time>2016-07-16T21:55:25.208Z</time>
</trkpt>
<trkpt lat="-27.2525221" lon="152.8459946">
<ele>52.512</ele>
<time>2016-07-16T21:55:27.224Z</time>
</trkpt>
<trkpt lat="-27.2519954" lon="152.8452614">
<ele>52.496</ele>
<time>2016-07-16T21:55:30.253Z</time>
</trkpt>
<trkpt lat="-27.2516682" lon="152.8447978">
<ele>51.805</ele>
<time>2016-07-16T21:55:32.202Z</time>
</trkpt>
<trkpt lat="-27.2512130" lon="152.8440514">
<ele>50.506</ele>
<time>2016-07-16T21:55:35.186Z</time>
</trkpt>
<trkpt lat="-27.2508436" lon="152.8432387">
<ele>49.013</ele>
<time>2016-07-16T21:55:38.225Z</time>
</trkpt>
<trkpt lat="-27.2506449" lon="152.8426792">
<ele>48.241</ele>
<time>2016-07-16T21:55:40.258Z</time>
</trkpt>
<trkpt lat="-27.2504846" lon="152.8421156">
<ele>48.983</ele>
<time>2016-07-16T21:55:42.266Z</time>
</trkpt>
<trkpt lat="-27.2503682" lon="152.8415467">
<ele>50.866</ele>
<time>2016-07-16T21:55:44.219Z</time>
</trkpt>
<trkpt lat="-27.2502170" lon="152.8406497">
<ele>53.308</ele>
<time>2016-07-16T21:55:47.264Z</time>
</trkpt>
<trkpt lat="-27.2501185" lon="152.8400860">
<ele>56.229</ele>
<time>2016-07-16T21:55:49.246Z</time>
</trkpt>
<trkpt lat="-27.2499813" lon="152.8395243">
<ele>59.086</ele>
<time>2016-07-16T21:55:51.253Z</time>
</trkpt>
<trkpt lat="-27.2496939" lon="152.8387003">
<ele>60.937</ele>
<time>2016-07-16T21:55:54.235Z</time>
</trkpt>
<trkpt lat="-27.2493056" lon="152.8379151">
<ele>61.358</ele>
<time>2016-07-16T21:55:57.236Z</time>
</trkpt>
<trkpt lat="-27.2490057" lon="152.8374361">
<ele>59.833</ele>
<time>2016-07-16T21:55:59.193Z</time>
</trkpt>
<trkpt lat="-27.2484542" lon="152.8367893">
<ele>56.690</ele>
<time>2016-07-16T21:56:02.159Z</time>
</trkpt>
<trkpt lat="-27.2480644" lon="152.8363635">
<ele>53.807</ele>
<time>2016-07-16T21:56:04.177Z</time>
</trkpt>
<trkpt lat="-27.2478682" lon="152.8361499">
<ele>52.779</ele>
<time>2016-07-16T21:56:05.172Z</time>
</trkpt>
<trkpt lat="-27.2470747" lon="152.8352637">
<ele>53.439</ele>
<time>2016-07-16T21:56:09.279Z</time>
</trkpt>
<trkpt lat="-27.2467029" lon="152.8348658">
<ele>55.409</ele>
<time>2016-07-16T21:56:11.311Z</time>
</trkpt>
<trkpt lat="-27.2463338" lon="152.8345245">
<ele>58.208</ele>
<time>2016-07-16T21:56:13.257Z</time>
</trkpt>
<trkpt lat="-27.2459205" lon="152.8342337">
<ele>60.612</ele>
<time>2016-07-16T21:56:15.236Z</time>
</trkpt>
<trkpt lat="-27.2454668" lon="152.8339912">
<ele>62.339</ele>
<time>2016-07-16T21:56:17.259Z</time>
</trkpt>
<trkpt lat="-27.2447397" lon="152.8337575">
<ele>64.105</ele>
<time>2016-07-16T21:56:20.210Z</time>
</trkpt>
<trkpt lat="-27.2439507" lon="152.8336022">
<ele>65.692</ele>
<time>2016-07-16T21:56:23.284Z</time>
</trkpt>
<trkpt lat="-27.2434364" lon="152.8335174">
<ele>66.886</ele>
<time>2016-07-16T21:56:25.362Z</time>
</trkpt>
<trkpt lat="-27.2429491" lon="152.8334016">
<ele>67.865</ele>
<time>2016-07-16T21:56:27.373Z</time>
</trkpt>
<trkpt lat="-27.2420076" lon="152.8330411">
<ele>68.460</ele>
<time>2016-07-16T21:56:31.417Z</time>
</trkpt>
<trkpt lat="-27.2415438" lon="152.8328464">
<ele>68.552</ele>
<time>2016-07-16T21:56:33.488Z</time>
</trkpt>
<trkpt lat="-27.2411011" lon="152.8326859">
<ele>68.310</ele>
<time>2016-07-16T21:56:35.420Z</time>
</trkpt>
<trkpt lat="-27.2403835" lon="152.8325259">
<ele>68.025</ele>
<time>2016-07-16T21:56:38.380Z</time>
</trkpt>
<trkpt lat="-27.2396416" lon="152.8324938">
<ele>68.240</ele>
<time>2016-07-16T21:56:41.332Z</time>
</trkpt>
<trkpt lat="-27.2391272" lon="152.8324893">
<ele>69.460</ele>
<time>2016-07-16T21:56:43.387Z</time>
</trkpt>
<trkpt lat="-27.2383892" lon="152.8324533">
<ele>71.249</ele>
<time>2016-07-16T21:56:46.297Z</time>
</trkpt>
<trkpt lat="-27.2376099" lon="152.8323168">
<ele>72.747</ele>
<time>2016-07-16T21:56:49.325Z</time>
</trkpt>
<trkpt lat="-27.2370912" lon="152.8321627">
<ele>74.033</ele>
<time>2016-07-16T21:56:51.406Z</time>
</trkpt>
<trkpt lat="-27.2363821" lon="152.8318450">
<ele>75.735</ele>
<time>2016-07-16T21:56:54.368Z</time>
</trkpt>
<trkpt lat="-27.2356958" lon="152.8314740">
<ele>77.691</ele>
<time>2016-07-16T21:56:57.276Z</time>
</trkpt>
<trkpt lat="-27.2352060" lon="152.8312281">
<ele>79.775</ele>
<time>2016-07-16T21:56:59.344Z</time>
</trkpt>
<trkpt lat="-27.2347470" lon="152.8309997">
<ele>82.259</ele>
<time>2016-07-16T21:57:01.302Z</time>
</trkpt>
<trkpt lat="-27.2340627" lon="152.8306379">
<ele>84.625</ele>
<time>2016-07-16T21:57:04.209Z</time>
</trkpt>
<trkpt lat="-27.2335543" lon="152.8304646">
<ele>85.992</ele>
<time>2016-07-16T21:57:06.197Z</time>
</trkpt>
<trkpt lat="-27.2327766" lon="152.8302102">
<ele>86.612</ele>
<time>2016-07-16T21:57:09.154Z</time>
</trkpt>
<trkpt lat="-27.2319638" lon="152.8300217">
<ele>87.144</ele>
<time>2016-07-16T21:57:12.068Z</time>
</trkpt>
<trkpt lat="-27.2310979" lon="152.8299055">
<ele>87.712</ele>
<time>2016-07-16T21:57:15.054Z</time>
</trkpt>
<trkpt lat="-27.2305028" lon="152.8298611">
<ele>87.851</ele>
<time>2016-07-16T21:57:17.088Z</time>
</trkpt>
<trkpt lat="-27.2296277" lon="152.8297844">
<ele>87.251</ele>
<time>2016-07-16T21:57:20.073Z</time>
</trkpt>
<trkpt lat="-27.2287296" lon="152.8297434">
<ele>85.625</ele>
<time>2016-07-16T21:57:23.147Z</time>
</trkpt>
<trkpt lat="-27.2281522" lon="152.8297190">
<ele>82.646</ele>
<time>2016-07-16T21:57:25.195Z</time>
</trkpt>
<trkpt lat="-27.2273232" lon="152.8296596">
<ele>78.927</ele>
<time>2016-07-16T21:57:28.219Z</time>
</trkpt>
<trkpt lat="-27.2267785" lon="152.8296431">
<ele>75.540</ele>
<time>2016-07-16T21:57:30.269Z</time>
</trkpt>
<trkpt lat="-27.2262503" lon="152.8296511">
<ele>72.719</ele>
<time>2016-07-16T21:57:32.290Z</time>
</trkpt>
<trkpt lat="-27.2257365" lon="152.8296956">
<ele>70.316</ele>
<time>2016-07-16T21:57:34.271Z</time>
</trkpt>
<trkpt lat="-27.2252409" lon="152.8297827">
<ele>68.195</ele>
<time>2016-07-16T21:57:36.146Z</time>
</trkpt>
<trkpt lat="-27.2244360" lon="152.8300004">
<ele>66.411</ele>
<time>2016-07-16T21:57:39.122Z</time>
</trkpt>
<trkpt lat="-27.2239029" lon="152.8302046">
<ele>65.219</ele>
<time>2016-07-16T21:57:41.042Z</time>
</trkpt>
<trkpt lat="-27.2230976" lon="152.8306023">
<ele>64.577</ele>
<time>2016-07-16T21:57:44.023Z</time>
</trkpt>
<trkpt lat="-27.2222919" lon="152.8309990">
<ele>64.001</ele>
<time>2016-07-16T21:57:47.057Z</time>
</trkpt>
<trkpt lat="-27.2217915" lon="152.8312548">
<ele>62.454</ele>
<time>2016-07-16T21:57:49.010Z</time>
</trkpt>
<trkpt lat="-27.2212766" lon="152.8315056">
<ele>59.558</ele>
<time>2016-07-16T21:57:51.060Z</time>
</trkpt>
<trkpt lat="-27.2210205" lon="152.8316325">
<ele>56.487</ele>
<time>2016-07-16T21:57:52.087Z</time>
</trkpt>
<trkpt lat="-27.2200059" lon="152.8321015">
<ele>54.345</ele>
<time>2016-07-16T21:57:56.129Z</time>
</trkpt>
<trkpt lat="-27.2195237" lon="152.8323382">
<ele>53.103</ele>
<time>2016-07-16T21:57:58.154Z</time>
</trkpt>
<trkpt lat="-27.2188340" lon="152.8326757">
<ele>51.817</ele>
<time>2016-07-16T21:58:01.048Z</time>
</trkpt>
<trkpt lat="-27.2180822" lon="152.8329657">
<ele>49.939</ele>
<time>2016-07-16T21:58:04.037Z</time>
</trkpt>
<trkpt lat="-27.2172641" lon="152.8331530">
<ele>48.279</ele>
<time>2016-07-16T21:58:07.136Z</time>
</trkpt>
<trkpt lat="-27.2167373" lon="152.8332245">
<ele>47.559</ele>
<time>2016-07-16T21:58:09.070Z</time>
</trkpt>
<trkpt lat="-27.2159088" lon="152.8332369">
<ele>47.604</ele>
<time>2016-07-16T21:58:11.971Z</time>
</trkpt>
<trkpt lat="-27.2152973" lon="152.8331742">
<ele>48.092</ele>
<time>2016-07-16T21:58:14.070Z</time>
</trkpt>
<trkpt lat="-27.2144493" lon="152.8329851">
<ele>48.635</ele>
<time>2016-07-16T21:58:17.170Z</time>
</trkpt>
<trkpt lat="-27.2136977" lon="152.8327158">
<ele>48.724</ele>
<time>2016-07-16T21:58:20.231Z</time>
</trkpt>
<trkpt lat="-27.2130165" lon="152.8324330">
<ele>47.320</ele>
<time>2016-07-16T21:58:23.289Z</time>
</trkpt>
<trkpt lat="-27.2123902" lon="152.8321802">
<ele>43.886</ele>
<time>2016-07-16T21:58:26.333Z</time>
</trkpt>
<trkpt lat="-27.2120068" lon="152.8320280">
<ele>39.567</ele>
<time>2016-07-16T21:58:28.292Z</time>
</trkpt>
<trkpt lat="-27.2114208" lon="152.8317968">
<ele>36.110</ele>
<time>2016-07-16T21:58:31.274Z</time>
</trkpt>
<trkpt lat="-27.2108183" lon="152.8315402">
<ele>34.553</ele>
<time>2016-07-16T21:58:34.394Z</time>
</trkpt>
<trkpt lat="-27.2102676" lon="152.8312922">
<ele>35.110</ele>
<time>2016-07-16T21:58:37.335Z</time>
</trkpt>
<trkpt lat="-27.2099001" lon="152.8311223">
<ele>37.125</ele>
<time>2016-07-16T21:58:39.305Z</time>
</trkpt>
<trkpt lat="-27.2095308" lon="152.8309354">
<ele>39.646</ele>
<time>2016-07-16T21:58:41.287Z</time>
</trkpt>
<trkpt lat="-27.2091697" lon="152.8307367">
<ele>41.910</ele>
<time>2016-07-16T21:58:43.239Z</time>
</trkpt>
<trkpt lat="-27.2086196" lon="152.8304190">
<ele>43.567</ele>
<time>2016-07-16T21:58:46.218Z</time>
</trkpt>
<trkpt lat="-27.2082474" lon="152.8301924">
<ele>44.565</ele>
<time>2016-07-16T21:58:48.245Z</time>
</trkpt>
<trkpt lat="-27.2076994" lon="152.8298622">
<ele>44.944</ele>
<time>2016-07-16T21:58:51.222Z</time>
</trkpt>
<trkpt lat="-27.2073431" lon="152.8296209">
<ele>44.579</ele>
<time>2016-07-16T21:58:53.221Z</time>
</trkpt>
<trkpt lat="-27.2070008" lon="152.8293555">
<ele>43.594</ele>
<time>2016-07-16T21:58:55.246Z</time>
</trkpt>
<trkpt lat="-27.2066671" lon="152.8290942">
<ele>42.544</ele>
<time>2016-07-16T21:58:57.295Z</time>
</trkpt>
<trkpt lat="-27.2061627" lon="152.8287714">
<ele>41.724</ele>
<time>2016-07-16T21:59:00.359Z</time>
</trkpt>
<trkpt lat="-27.2058352" lon="152.8285952">
<ele>40.968</ele>
<time>2016-07-16T21:59:02.331Z</time>
</trkpt>
<trkpt lat="-27.2053659" lon="152.8282885">
<ele>40.183</ele>
<time>2016-07-16T21:59:05.273Z</time>
</trkpt>
<trkpt lat="-27.2050694" lon="152.8280359">
<ele>39.469</ele>
<time>2016-07-16T21:59:07.329Z</time>
</trkpt>
<trkpt lat="-27.2047831" lon="152.8278020">
<ele>39.024</ele>
<time>2016-07-16T21:59:09.348Z</time>
</trkpt>
<trkpt lat="-27.2043699" lon="152.8274665">
<ele>38.858</ele>
<time>2016-07-16T21:59:12.286Z</time>
</trkpt>
<trkpt lat="-27.2040964" lon="152.8272378">
<ele>38.792</ele>
<time>2016-07-16T21:59:14.201Z</time>
</trkpt>
<trkpt lat="-27.2036726" lon="152.8268447">
<ele>39.038</ele>
<time>2016-07-16T21:59:17.240Z</time>
</trkpt>
<trkpt lat="-27.2032629" lon="152.8264549">
<ele>39.769</ele>
<time>2016-07-16T21:59:20.247Z</time>
</trkpt>
<trkpt lat="-27.2028606" lon="152.8260838">
<ele>40.474</ele>
<time>2016-07-16T21:59:23.332Z</time>
</trkpt>
<trkpt lat="-27.2026107" lon="152.8258525">
<ele>40.671</ele>
<time>2016-07-16T21:59:25.462Z</time>
</trkpt>
<trkpt lat="-27.2023911" lon="152.8256361">
<ele>40.413</ele>
<time>2016-07-16T21:59:27.497Z</time>
</trkpt>
<trkpt lat="-27.2019748" lon="152.8252371">
<ele>39.836</ele>
<time>2016-07-16T21:59:31.423Z</time>
</trkpt>
<trkpt lat="-27.2016552" lon="152.8249268">
<ele>39.177</ele>
<time>2016-07-16T21:59:34.419Z</time>
</trkpt>
<trkpt lat="-27.2014322" lon="152.8247255">
<ele>38.804</ele>
<time>2016-07-16T21:59:36.439Z</time>
</trkpt>
<trkpt lat="-27.2011062" lon="152.8244271">
<ele>38.908</ele>
<time>2016-07-16T21:59:39.493Z</time>
</trkpt>
<trkpt lat="-27.2009073" lon="152.8242361">
<ele>39.318</ele>
<time>2016-07-16T21:59:41.453Z</time>
</trkpt>
<trkpt lat="-27.2006091" lon="152.8239585">
<ele>39.777</ele>
<time>2016-07-16T21:59:44.423Z</time>
</trkpt>
<trkpt lat="-27.2004051" lon="152.8237791">
<ele>40.165</ele>
<time>2016-07-16T21:59:46.474Z</time>
</trkpt>
<trkpt lat="-27.2000796" lon="152.8235803">
<ele>40.473</ele>
<time>2016-07-16T21:59:49.425Z</time>
</trkpt>
<trkpt lat="-27.1998311" lon="152.8234994">
<ele>40.841</ele>
<time>2016-07-16T21:59:51.451Z</time>
</trkpt>
<trkpt lat="-27.1995891" lon="152.8234415">
<ele>41.640</ele>
<time>2016-07-16T21:59:53.367Z</time>
</trkpt>
<trkpt lat="-27.1992154" lon="152.8233419">
<ele>42.910</ele>
<time>2016-07-16T21:59:56.322Z</time>
</trkpt>
<trkpt lat="-27.1989599" lon="152.8232797">
<ele>44.165</ele>
<time>2016-07-16T21:59:58.335Z</time>
</trkpt>
<trkpt lat="-27.1985882" lon="152.8231714">
<ele>44.998</ele>
<time>2016-07-16T22:00:01.327Z</time>
</trkpt>
<trkpt lat="-27.1983401" lon="152.8231123">
<ele>45.408</ele>
<time>2016-07-16T22:00:03.351Z</time>
</trkpt>
<trkpt lat="-27.1980921" lon="152.8230634">
<ele>45.591</ele>
<time>2016-07-16T22:00:05.426Z</time>
</trkpt>
<trkpt lat="-27.1977521" lon="152.8229480">
<ele>45.850</ele>
<time>2016-07-16T22:00:08.497Z</time>
</trkpt>
<trkpt lat="-27.1974443" lon="152.8227931">
<ele>46.403</ele>
<time>2016-07-16T22:00:11.959Z</time>
</trkpt>
<trkpt lat="-27.1972769" lon="152.8226887">
<ele>47.118</ele>
<time>2016-07-16T22:00:14.471Z</time>
</trkpt>
<trkpt lat="-27.1971089" lon="152.8227109">
<ele>47.573</ele>
<time>2016-07-16T22:00:16.758Z</time>
</trkpt>
<trkpt lat="-27.1969670" lon="152.8229560">
<ele>47.236</ele>
<time>2016-07-16T22:00:19.316Z</time>
</trkpt>
<trkpt lat="-27.1968543" lon="152.8231811">
<ele>46.130</ele>
<time>2016-07-16T22:00:21.247Z</time>
</trkpt>
<trkpt lat="-27.1966560" lon="152.8235412">
<ele>45.034</ele>
<time>2016-07-16T22:00:24.348Z</time>
</trkpt>
<trkpt lat="-27.1964844" lon="152.8238733">
<ele>44.566</ele>
<time>2016-07-16T22:00:27.176Z</time>
</trkpt>
<trkpt lat="-27.1963582" lon="152.8241049">
<ele>44.621</ele>
<time>2016-07-16T22:00:29.170Z</time>
</trkpt>
<trkpt lat="-27.1961461" lon="152.8244599">
<ele>44.944</ele>
<time>2016-07-16T22:00:32.345Z</time>
</trkpt>
<trkpt lat="-27.1960384" lon="152.8247035">
<ele>45.452</ele>
<time>2016-07-16T22:00:34.476Z</time>
</trkpt>
<trkpt lat="-27.1959924" lon="152.8249494">
<ele>46.039</ele>
<time>2016-07-16T22:00:36.509Z</time>
</trkpt>
<trkpt lat="-27.1959783" lon="152.8253097">
<ele>46.453</ele>
<time>2016-07-16T22:00:39.527Z</time>
</trkpt>
<trkpt lat="-27.1959334" lon="152.8256429">
<ele>46.715</ele>
<time>2016-07-16T22:00:42.519Z</time>
</trkpt>
<trkpt lat="-27.1957341" lon="152.8259114">
<ele>47.008</ele>
<time>2016-07-16T22:00:45.442Z</time>
</trkpt>
<trkpt lat="-27.1955201" lon="152.8259749">
<ele>47.268</ele>
<time>2016-07-16T22:00:47.175Z</time>
</trkpt>
<trkpt lat="-27.1951115" lon="152.8260583">
<ele>47.576</ele>
<time>2016-07-16T22:00:50.048Z</time>
</trkpt>
<trkpt lat="-27.1948079" lon="152.8261210">
<ele>48.439</ele>
<time>2016-07-16T22:00:51.998Z</time>
</trkpt>
<trkpt lat="-27.1944871" lon="152.8262042">
<ele>50.049</ele>
<time>2016-07-16T22:00:54.070Z</time>
</trkpt>
<trkpt lat="-27.1940322" lon="152.8263451">
<ele>51.799</ele>
<time>2016-07-16T22:00:57.006Z</time>
</trkpt>
<trkpt lat="-27.1937100" lon="152.8264289">
<ele>52.952</ele>
<time>2016-07-16T22:00:59.036Z</time>
</trkpt>
<trkpt lat="-27.1933878" lon="152.8265251">
<ele>53.444</ele>
<time>2016-07-16T22:01:01.132Z</time>
</trkpt>
<trkpt lat="-27.1929419" lon="152.8266041">
<ele>53.634</ele>
<time>2016-07-16T22:01:03.981Z</time>
</trkpt>
<trkpt lat="-27.1926267" lon="152.8266020">
<ele>53.872</ele>
<time>2016-07-16T22:01:05.928Z</time>
</trkpt>
<trkpt lat="-27.1922954" lon="152.8265875">
<ele>54.323</ele>
<time>2016-07-16T22:01:08.030Z</time>
</trkpt>
<trkpt lat="-27.1918390" lon="152.8265558">
<ele>54.823</ele>
<time>2016-07-16T22:01:11.018Z</time>
</trkpt>
<trkpt lat="-27.1913813" lon="152.8265070">
<ele>54.935</ele>
<time>2016-07-16T22:01:14.064Z</time>
</trkpt>
<trkpt lat="-27.1910789" lon="152.8264965">
<ele>54.549</ele>
<time>2016-07-16T22:01:15.947Z</time>
</trkpt>
<trkpt lat="-27.1907509" lon="152.8264931">
<ele>54.079</ele>
<time>2016-07-16T22:01:17.728Z</time>
</trkpt>
<trkpt lat="-27.1901599" lon="152.8264255">
<ele>54.365</ele>
<time>2016-07-16T22:01:20.802Z</time>
</trkpt>
<trkpt lat="-27.1897687" lon="152.8263979">
<ele>56.067</ele>
<time>2016-07-16T22:01:22.831Z</time>
</trkpt>
<trkpt lat="-27.1891955" lon="152.8263602">
<ele>58.551</ele>
<time>2016-07-16T22:01:25.915Z</time>
</trkpt>
<trkpt lat="-27.1888232" lon="152.8263864">
<ele>60.155</ele>
<time>2016-07-16T22:01:28.074Z</time>
</trkpt>
<trkpt lat="-27.1883654" lon="152.8265758">
<ele>60.050</ele>
<time>2016-07-16T22:01:30.910Z</time>
</trkpt>
<trkpt lat="-27.1880799" lon="152.8268235">
<ele>58.776</ele>
<time>2016-07-16T22:01:32.782Z</time>
</trkpt>
<trkpt lat="-27.1876348" lon="152.8273160">
<ele>57.389</ele>
<time>2016-07-16T22:01:35.788Z</time>
</trkpt>
<trkpt lat="-27.1872846" lon="152.8276422">
<ele>57.201</ele>
<time>2016-07-16T22:01:37.808Z</time>
</trkpt>
<trkpt lat="-27.1869078" lon="152.8279107">
<ele>58.796</ele>
<time>2016-07-16T22:01:39.770Z</time>
</trkpt>
<trkpt lat="-27.1865298" lon="152.8281649">
<ele>61.006</ele>
<time>2016-07-16T22:01:41.752Z</time>
</trkpt>
<trkpt lat="-27.1859661" lon="152.8285351">
<ele>62.214</ele>
<time>2016-07-16T22:01:44.780Z</time>
</trkpt>
<trkpt lat="-27.1856195" lon="152.8287681">
<ele>61.920</ele>
<time>2016-07-16T22:01:46.817Z</time>
</trkpt>
<trkpt lat="-27.1852753" lon="152.8289121">
<ele>60.543</ele>
<time>2016-07-16T22:01:48.817Z</time>
</trkpt>
<trkpt lat="-27.1847494" lon="152.8288461">
<ele>58.960</ele>
<time>2016-07-16T22:01:51.769Z</time>
</trkpt>
<trkpt lat="-27.1844477" lon="152.8286222">
<ele>57.892</ele>
<time>2016-07-16T22:01:53.714Z</time>
</trkpt>
<trkpt lat="-27.1841310" lon="152.8283583">
<ele>57.692</ele>
<time>2016-07-16T22:01:55.746Z</time>
</trkpt>
<trkpt lat="-27.1836175" lon="152.8280485">
<ele>58.902</ele>
<time>2016-07-16T22:01:58.669Z</time>
</trkpt>
<trkpt lat="-27.1830167" lon="152.8278594">
<ele>61.525</ele>
<time>2016-07-16T22:02:01.694Z</time>
</trkpt>
<trkpt lat="-27.1824117" lon="152.8276952">
<ele>64.995</ele>
<time>2016-07-16T22:02:04.691Z</time>
</trkpt>
<trkpt lat="-27.1820186" lon="152.8275968">
<ele>68.838</ele>
<time>2016-07-16T22:02:06.639Z</time>
</trkpt>
<trkpt lat="-27.1814108" lon="152.8275075">
<ele>72.191</ele>
<time>2016-07-16T22:02:09.618Z</time>
</trkpt>
<trkpt lat="-27.1810237" lon="152.8275155">
<ele>74.147</ele>
<time>2016-07-16T22:02:11.581Z</time>
</trkpt>
<trkpt lat="-27.1806679" lon="152.8274606">
<ele>75.280</ele>
<time>2016-07-16T22:02:13.469Z</time>
</trkpt>
<trkpt lat="-27.1801184" lon="152.8273266">
<ele>76.476</ele>
<time>2016-07-16T22:02:16.469Z</time>
</trkpt>
<trkpt lat="-27.1797561" lon="152.8272372">
<ele>77.638</ele>
<time>2016-07-16T22:02:18.483Z</time>
</trkpt>
<trkpt lat="-27.1794126" lon="152.8271507">
<ele>78.422</ele>
<time>2016-07-16T22:02:20.403Z</time>
</trkpt>
<trkpt lat="-27.1790511" lon="152.8270580">
<ele>79.294</ele>
<time>2016-07-16T22:02:22.393Z</time>
</trkpt>
<trkpt lat="-27.1786770" lon="152.8269579">
<ele>80.802</ele>
<time>2016-07-16T22:02:24.419Z</time>
</trkpt>
<trkpt lat="-27.1781104" lon="152.8268152">
<ele>82.624</ele>
<time>2016-07-16T22:02:27.447Z</time>
</trkpt>
<trkpt lat="-27.1775376" lon="152.8266729">
<ele>83.931</ele>
<time>2016-07-16T22:02:30.446Z</time>
</trkpt>
<trkpt lat="-27.1771509" lon="152.8265649">
<ele>84.288</ele>
<time>2016-07-16T22:02:32.390Z</time>
</trkpt>
<trkpt lat="-27.1767434" lon="152.8264677">
<ele>83.906</ele>
<time>2016-07-16T22:02:34.342Z</time>
</trkpt>
<trkpt lat="-27.1760955" lon="152.8263060">
<ele>83.510</ele>
<time>2016-07-16T22:02:37.417Z</time>
</trkpt>
<trkpt lat="-27.1756907" lon="152.8261847">
<ele>83.729</ele>
<time>2016-07-16T22:02:39.438Z</time>
</trkpt>
<trkpt lat="-27.1751847" lon="152.8258514">
<ele>84.418</ele>
<time>2016-07-16T22:02:42.345Z</time>
</trkpt>
<trkpt lat="-27.1747481" lon="152.8253764">
<ele>85.018</ele>
<time>2016-07-16T22:02:45.452Z</time>
</trkpt>
<trkpt lat="-27.1742905" lon="152.8250163">
<ele>85.891</ele>
<time>2016-07-16T22:02:48.446Z</time>
</trkpt>
<trkpt lat="-27.1737511" lon="152.8249547">
<ele>87.590</ele>
<time>2016-07-16T22:02:51.438Z</time>
</trkpt>
<trkpt lat="-27.1731940" lon="152.8249124">
<ele>89.857</ele>
<time>2016-07-16T22:02:54.543Z</time>
</trkpt>
<trkpt lat="-27.1726783" lon="152.8249353">
<ele>92.432</ele>
<time>2016-07-16T22:02:57.475Z</time>
</trkpt>
<trkpt lat="-27.1723403" lon="152.8250101">
<ele>95.075</ele>
<time>2016-07-16T22:02:59.484Z</time>
</trkpt>
<trkpt lat="-27.1720202" lon="152.8251014">
<ele>97.252</ele>
<time>2016-07-16T22:03:01.392Z</time>
</trkpt>
<trkpt lat="-27.1714928" lon="152.8250833">
<ele>98.979</ele>
<time>2016-07-16T22:03:04.329Z</time>
</trkpt>
<trkpt lat="-27.1711013" lon="152.8250159">
<ele>101.117</ele>
<time>2016-07-16T22:03:06.405Z</time>
</trkpt>
<trkpt lat="-27.1707248" lon="152.8250215">
<ele>104.517</ele>
<time>2016-07-16T22:03:08.414Z</time>
</trkpt>
<trkpt lat="-27.1702392" lon="152.8252633">
<ele>108.380</ele>
<time>2016-07-16T22:03:11.249Z</time>
</trkpt>
<trkpt lat="-27.1698978" lon="152.8255289">
<ele>111.324</ele>
<time>2016-07-16T22:03:13.395Z</time>
</trkpt>
<trkpt lat="-27.1694683" lon="152.8259626">
<ele>113.309</ele>
<time>2016-07-16T22:03:16.437Z</time>
</trkpt>
<trkpt lat="-27.1692832" lon="152.8262902">
<ele>114.683</ele>
<time>2016-07-16T22:03:18.431Z</time>
</trkpt>
<trkpt lat="-27.1692204" lon="152.8268233">
<ele>115.395</ele>
<time>2016-07-16T22:03:21.371Z</time>
</trkpt>
<trkpt lat="-27.1690051" lon="152.8270466">
<ele>116.038</ele>
<time>2016-07-16T22:03:23.291Z</time>
</trkpt>
<trkpt lat="-27.1687340" lon="152.8272099">
<ele>117.384</ele>
<time>2016-07-16T22:03:25.251Z</time>
</trkpt>
<trkpt lat="-27.1682413" lon="152.8269255">
<ele>119.392</ele>
<time>2016-07-16T22:03:28.480Z</time>
</trkpt>
<trkpt lat="-27.1678738" lon="152.8267194">
<ele>122.228</ele>
<time>2016-07-16T22:03:30.561Z</time>
</trkpt>
<trkpt lat="-27.1674881" lon="152.8265845">
<ele>126.316</ele>
<time>2016-07-16T22:03:32.579Z</time>
</trkpt>
<trkpt lat="-27.1670904" lon="152.8265469">
<ele>130.551</ele>
<time>2016-07-16T22:03:34.516Z</time>
</trkpt>
<trkpt lat="-27.1664618" lon="152.8266786">
<ele>133.437</ele>
<time>2016-07-16T22:03:37.486Z</time>
</trkpt>
<trkpt lat="-27.1658051" lon="152.8268719">
<ele>136.187</ele>
<time>2016-07-16T22:03:40.556Z</time>
</trkpt>
<trkpt lat="-27.1654119" lon="152.8269835">
<ele>140.534</ele>
<time>2016-07-16T22:03:42.522Z</time>
</trkpt>
<trkpt lat="-27.1650376" lon="152.8270409">
<ele>145.153</ele>
<time>2016-07-16T22:03:44.501Z</time>
</trkpt>
<trkpt lat="-27.1646854" lon="152.8269869">
<ele>147.869</ele>
<time>2016-07-16T22:03:46.512Z</time>
</trkpt>
<trkpt lat="-27.1643667" lon="152.8268570">
<ele>148.644</ele>
<time>2016-07-16T22:03:48.651Z</time>
</trkpt>
<trkpt lat="-27.1641107" lon="152.8267391">
<ele>148.511</ele>
<time>2016-07-16T22:03:50.708Z</time>
</trkpt>
<trkpt lat="-27.1639384" lon="152.8263957">
<ele>148.301</ele>
<time>2016-07-16T22:03:53.493Z</time>
</trkpt>
<trkpt lat="-27.1639036" lon="152.8261157">
<ele>148.241</ele>
<time>2016-07-16T22:03:55.376Z</time>
</trkpt>
<trkpt lat="-27.1639441" lon="152.8257831">
<ele>148.430</ele>
<time>2016-07-16T22:03:57.280Z</time>
</trkpt>
<trkpt lat="-27.1640978" lon="152.8253864">
<ele>149.716</ele>
<time>2016-07-16T22:03:59.554Z</time>
</trkpt>
<trkpt lat="-27.1642702" lon="152.8248585">
<ele>153.021</ele>
<time>2016-07-16T22:04:02.647Z</time>
</trkpt>
<trkpt lat="-27.1641753" lon="152.8243708">
<ele>157.554</ele>
<time>2016-07-16T22:04:05.454Z</time>
</trkpt>
<trkpt lat="-27.1639700" lon="152.8240731">
<ele>161.227</ele>
<time>2016-07-16T22:04:07.339Z</time>
</trkpt>
<trkpt lat="-27.1636895" lon="152.8237702">
<ele>163.656</ele>
<time>2016-07-16T22:04:09.407Z</time>
</trkpt>
<trkpt lat="-27.1634043" lon="152.8235064">
<ele>166.785</ele>
<time>2016-07-16T22:04:11.449Z</time>
</trkpt>
<trkpt lat="-27.1630294" lon="152.8231807">
<ele>171.142</ele>
<time>2016-07-16T22:04:14.234Z</time>
</trkpt>
<trkpt lat="-27.1627662" lon="152.8230606">
<ele>174.831</ele>
<time>2016-07-16T22:04:16.023Z</time>
</trkpt>
<trkpt lat="-27.1622831" lon="152.8230334">
<ele>176.752</ele>
<time>2016-07-16T22:04:19.101Z</time>
</trkpt>
<trkpt lat="-27.1619858" lon="152.8231368">
<ele>177.797</ele>
<time>2016-07-16T22:04:21.027Z</time>
</trkpt>
<trkpt lat="-27.1616836" lon="152.8233227">
<ele>179.057</ele>
<time>2016-07-16T22:04:23.102Z</time>
</trkpt>
<trkpt lat="-27.1613065" lon="152.8237185">
<ele>181.278</ele>
<time>2016-07-16T22:04:26.239Z</time>
</trkpt>
<trkpt lat="-27.1609830" lon="152.8240965">
<ele>184.336</ele>
<time>2016-07-16T22:04:29.162Z</time>
</trkpt>
<trkpt lat="-27.1605250" lon="152.8242809">
<ele>187.335</ele>
<time>2016-07-16T22:04:32.168Z</time>
</trkpt>
<trkpt lat="-27.1601194" lon="152.8246127">
<ele>190.308</ele>
<time>2016-07-16T22:04:35.113Z</time>
</trkpt>
<trkpt lat="-27.1598440" lon="152.8248738">
<ele>194.207</ele>
<time>2016-07-16T22:04:37.216Z</time>
</trkpt>
<trkpt lat="-27.1594499" lon="152.8251756">
<ele>198.486</ele>
<time>2016-07-16T22:04:40.249Z</time>
</trkpt>
<trkpt lat="-27.1590768" lon="152.8252127">
<ele>201.677</ele>
<time>2016-07-16T22:04:43.037Z</time>
</trkpt>
<trkpt lat="-27.1589143" lon="152.8250157">
<ele>203.228</ele>
<time>2016-07-16T22:04:45.011Z</time>
</trkpt>
<trkpt lat="-27.1587446" lon="152.8248154">
<ele>203.778</ele>
<time>2016-07-16T22:04:47.042Z</time>
</trkpt>
<trkpt lat="-27.1583809" lon="152.8247841">
<ele>204.310</ele>
<time>2016-07-16T22:04:50.034Z</time>
</trkpt>
<trkpt lat="-27.1580142" lon="152.8249169">
<ele>205.495</ele>
<time>2016-07-16T22:04:53.152Z</time>
</trkpt>
<trkpt lat="-27.1577647" lon="152.8248386">
<ele>207.597</ele>
<time>2016-07-16T22:04:55.096Z</time>
</trkpt>
<trkpt lat="-27.1574953" lon="152.8246912">
<ele>210.289</ele>
<time>2016-07-16T22:04:57.170Z</time>
</trkpt>
<trkpt lat="-27.1572082" lon="152.8246064">
<ele>213.079</ele>
<time>2016-07-16T22:04:59.198Z</time>
</trkpt>
<trkpt lat="-27.1567857" lon="152.8245544">
<ele>215.810</ele>
<time>2016-07-16T22:05:02.218Z</time>
</trkpt>
<trkpt lat="-27.1564047" lon="152.8244924">
<ele>218.312</ele>
<time>2016-07-16T22:05:05.139Z</time>
</trkpt>
<trkpt lat="-27.1562006" lon="152.8246331">
<ele>220.565</ele>
<time>2016-07-16T22:05:06.977Z</time>
</trkpt>
<trkpt lat="-27.1560647" lon="152.8249181">
<ele>222.897</ele>
<time>2016-07-16T22:05:09.075Z</time>
</trkpt>
<trkpt lat="-27.1559468" lon="152.8251979">
<ele>225.560</ele>
<time>2016-07-16T22:05:11.096Z</time>
</trkpt>
<trkpt lat="-27.1557428" lon="152.8253761">
<ele>228.650</ele>
<time>2016-07-16T22:05:13.072Z</time>
</trkpt>
<trkpt lat="-27.1554776" lon="152.8253933">
<ele>231.635</ele>
<time>2016-07-16T22:05:15.012Z</time>
</trkpt>
<trkpt lat="-27.1550066" lon="152.8253960">
<ele>234.020</ele>
<time>2016-07-16T22:05:18.201Z</time>
</trkpt>
<trkpt lat="-27.1545984" lon="152.8256454">
<ele>236.742</ele>
<time>2016-07-16T22:05:21.306Z</time>
</trkpt>
<trkpt lat="-27.1543832" lon="152.8258549">
<ele>240.737</ele>
<time>2016-07-16T22:05:23.430Z</time>
</trkpt>
<trkpt lat="-27.1540061" lon="152.8258900">
<ele>244.844</ele>
<time>2016-07-16T22:05:26.372Z</time>
</trkpt>
<trkpt lat="-27.1537807" lon="152.8255258">
<ele>247.478</ele>
<time>2016-07-16T22:05:29.209Z</time>
</trkpt>
<trkpt lat="-27.1535801" lon="152.8251956">
<ele>249.023</ele>
<time>2016-07-16T22:05:31.271Z</time>
</trkpt>
<trkpt lat="-27.1532363" lon="152.8246677">
<ele>251.099</ele>
<time>2016-07-16T22:05:34.410Z</time>
</trkpt>
<trkpt lat="-27.1529833" lon="152.8243987">
<ele>254.634</ele>
<time>2016-07-16T22:05:36.234Z</time>
</trkpt>
<trkpt lat="-27.1524797" lon="152.8240053">
<ele>258.823</ele>
<time>2016-07-16T22:05:39.398Z</time>
</trkpt>
<trkpt lat="-27.1521886" lon="152.8237576">
<ele>262.609</ele>
<time>2016-07-16T22:05:41.375Z</time>
</trkpt>
<trkpt lat="-27.1519588" lon="152.8232403">
<ele>265.928</ele>
<time>2016-07-16T22:05:44.217Z</time>
</trkpt>
<trkpt lat="-27.1519172" lon="152.8227981">
<ele>268.515</ele>
<time>2016-07-16T22:05:46.216Z</time>
</trkpt>
<trkpt lat="-27.1518610" lon="152.8222847">
<ele>270.741</ele>
<time>2016-07-16T22:05:48.339Z</time>
</trkpt>
<trkpt lat="-27.1517946" lon="152.8217949">
<ele>274.277</ele>
<time>2016-07-16T22:05:50.421Z</time>
</trkpt>
<trkpt lat="-27.1517510" lon="152.8211447">
<ele>278.768</ele>
<time>2016-07-16T22:05:53.409Z</time>
</trkpt>
<trkpt lat="-27.1517658" lon="152.8207896">
<ele>281.760</ele>
<time>2016-07-16T22:05:55.315Z</time>
</trkpt>
<trkpt lat="-27.1516061" lon="152.8203031">
<ele>282.381</ele>
<time>2016-07-16T22:05:58.189Z</time>
</trkpt>
<trkpt lat="-27.1512246" lon="152.8199066">
<ele>282.126</ele>
<time>2016-07-16T22:06:01.477Z</time>
</trkpt>
<trkpt lat="-27.1509323" lon="152.8195770">
<ele>283.023</ele>
<time>2016-07-16T22:06:04.334Z</time>
</trkpt>
<trkpt lat="-27.1508532" lon="152.8192993">
<ele>285.382</ele>
<time>2016-07-16T22:06:06.246Z</time>
</trkpt>
<trkpt lat="-27.1508995" lon="152.8189760">
<ele>287.763</ele>
<time>2016-07-16T22:06:08.410Z</time>
</trkpt>
<trkpt lat="-27.1509980" lon="152.8185417">
<ele>289.638</ele>
<time>2016-07-16T22:06:11.558Z</time>
</trkpt>
<trkpt lat="-27.1509185" lon="152.8183058">
<ele>291.533</ele>
<time>2016-07-16T22:06:13.339Z</time>
</trkpt>
<trkpt lat="-27.1505646" lon="152.8180846">
<ele>293.147</ele>
<time>2016-07-16T22:06:16.200Z</time>
</trkpt>
<trkpt lat="-27.1500783" lon="152.8178649">
<ele>294.580</ele>
<time>2016-07-16T22:06:19.401Z</time>
</trkpt>
<trkpt lat="-27.1497736" lon="152.8177211">
<ele>297.128</ele>
<time>2016-07-16T22:06:21.475Z</time>
</trkpt>
<trkpt lat="-27.1495224" lon="152.8175279">
<ele>300.667</ele>
<time>2016-07-16T22:06:23.374Z</time>
</trkpt>
<trkpt lat="-27.1492807" lon="152.8170303">
<ele>303.360</ele>
<time>2016-07-16T22:06:26.309Z</time>
</trkpt>
<trkpt lat="-27.1491796" lon="152.8166176">
<ele>305.144</ele>
<time>2016-07-16T22:06:28.420Z</time>
</trkpt>
<trkpt lat="-27.1490175" lon="152.8160819">
<ele>307.980</ele>
<time>2016-07-16T22:06:31.413Z</time>
</trkpt>
<trkpt lat="-27.1488217" lon="152.8158323">
<ele>311.929</ele>
<time>2016-07-16T22:06:33.375Z</time>
</trkpt>
<trkpt lat="-27.1484013" lon="152.8156553">
<ele>314.932</ele>
<time>2016-07-16T22:06:36.355Z</time>
</trkpt>
<trkpt lat="-27.1479380" lon="152.8154950">
<ele>316.592</ele>
<time>2016-07-16T22:06:39.475Z</time>
</trkpt>
<trkpt lat="-27.1476299" lon="152.8151012">
<ele>318.552</ele>
<time>2016-07-16T22:06:42.364Z</time>
</trkpt>
<trkpt lat="-27.1476026" lon="152.8146957">
<ele>321.370</ele>
<time>2016-07-16T22:06:44.408Z</time>
</trkpt>
<trkpt lat="-27.1476693" lon="152.8142644">
<ele>324.248</ele>
<time>2016-07-16T22:06:46.536Z</time>
</trkpt>
<trkpt lat="-27.1476769" lon="152.8138714">
<ele>326.677</ele>
<time>2016-07-16T22:06:48.565Z</time>
</trkpt>
<trkpt lat="-27.1474935" lon="152.8133743">
<ele>328.670</ele>
<time>2016-07-16T22:06:51.351Z</time>
</trkpt>
<trkpt lat="-27.1472268" lon="152.8130809">
<ele>330.282</ele>
<time>2016-07-16T22:06:53.236Z</time>
</trkpt>
<trkpt lat="-27.1466605" lon="152.8126358">
<ele>331.920</ele>
<time>2016-07-16T22:06:56.387Z</time>
</trkpt>
<trkpt lat="-27.1461101" lon="152.8121673">
<ele>335.197</ele>
<time>2016-07-16T22:06:59.458Z</time>
</trkpt>
<trkpt lat="-27.1456355" lon="152.8116903">
<ele>340.499</ele>
<time>2016-07-16T22:07:02.542Z</time>
</trkpt>
<trkpt lat="-27.1453248" lon="152.8114937">
<ele>345.381</ele>
<time>2016-07-16T22:07:04.496Z</time>
</trkpt>
<trkpt lat="-27.1448104" lon="152.8113572">
<ele>348.002</ele>
<time>2016-07-16T22:07:07.542Z</time>
</trkpt>
<trkpt lat="-27.1445286" lon="152.8112253">
<ele>349.266</ele>
<time>2016-07-16T22:07:09.398Z</time>
</trkpt>
<trkpt lat="-27.1442815" lon="152.8109718">
<ele>350.341</ele>
<time>2016-07-16T22:07:11.503Z</time>
</trkpt>
<trkpt lat="-27.1439849" lon="152.8105716">
<ele>351.663</ele>
<time>2016-07-16T22:07:14.640Z</time>
</trkpt>
<trkpt lat="-27.1437280" lon="152.8105185">
<ele>353.136</ele>
<time>2016-07-16T22:07:16.680Z</time>
</trkpt>
<trkpt lat="-27.1433562" lon="152.8105286">
<ele>354.341</ele>
<time>2016-07-16T22:07:19.678Z</time>
</trkpt>
<trkpt lat="-27.1431637" lon="152.8103604">
<ele>355.365</ele>
<time>2016-07-16T22:07:21.562Z</time>
</trkpt>
<trkpt lat="-27.1430245" lon="152.8099049">
<ele>356.919</ele>
<time>2016-07-16T22:07:24.771Z</time>
</trkpt>
<trkpt lat="-27.1427651" lon="152.8095768">
<ele>359.435</ele>
<time>2016-07-16T22:07:27.657Z</time>
</trkpt>
<trkpt lat="-27.1423329" lon="152.8094949">
<ele>362.547</ele>
<time>2016-07-16T22:07:30.896Z</time>
</trkpt>
<trkpt lat="-27.1420168" lon="152.8092296">
<ele>365.646</ele>
<time>2016-07-16T22:07:33.821Z</time>
</trkpt>
<trkpt lat="-27.1418086" lon="152.8088324">
<ele>368.606</ele>
<time>2016-07-16T22:07:36.836Z</time>
</trkpt>
<trkpt lat="-27.1414194" lon="152.8086814">
<ele>371.364</ele>
<time>2016-07-16T22:07:39.724Z</time>
</trkpt>
<trkpt lat="-27.1411203" lon="152.8087545">
<ele>373.736</ele>
<time>2016-07-16T22:07:41.669Z</time>
</trkpt>
<trkpt lat="-27.1408034" lon="152.8088843">
<ele>376.081</ele>
<time>2016-07-16T22:07:43.639Z</time>
</trkpt>
<trkpt lat="-27.1402992" lon="152.8087986">
<ele>378.870</ele>
<time>2016-07-16T22:07:46.379Z</time>
</trkpt>
<trkpt lat="-27.1397138" lon="152.8085295">
<ele>382.511</ele>
<time>2016-07-16T22:07:49.477Z</time>
</trkpt>
<trkpt lat="-27.1393298" lon="152.8083457">
<ele>387.771</ele>
<time>2016-07-16T22:07:51.543Z</time>
</trkpt>
<trkpt lat="-27.1388115" lon="152.8080571">
<ele>394.102</ele>
<time>2016-07-16T22:07:54.537Z</time>
</trkpt>
<trkpt lat="-27.1382868" lon="152.8078767">
<ele>399.074</ele>
<time>2016-07-16T22:07:57.420Z</time>
</trkpt>
<trkpt lat="-27.1376907" lon="152.8078963">
<ele>401.791</ele>
<time>2016-07-16T22:08:00.494Z</time>
</trkpt>
<trkpt lat="-27.1371139" lon="152.8080231">
<ele>404.421</ele>
<time>2016-07-16T22:08:03.571Z</time>
</trkpt>
<trkpt lat="-27.1365644" lon="152.8080499">
<ele>407.965</ele>
<time>2016-07-16T22:08:06.435Z</time>
</trkpt>
<trkpt lat="-27.1359714" lon="152.8079274">
<ele>410.880</ele>
<time>2016-07-16T22:08:09.381Z</time>
</trkpt>
<trkpt lat="-27.1355421" lon="152.8078197">
<ele>411.934</ele>
<time>2016-07-16T22:08:11.424Z</time>
</trkpt>
<trkpt lat="-27.1349332" lon="152.8076581">
<ele>411.620</ele>
<time>2016-07-16T22:08:14.345Z</time>
</trkpt>
<trkpt lat="-27.1345307" lon="152.8075241">
<ele>410.125</ele>
<time>2016-07-16T22:08:16.307Z</time>
</trkpt>
<trkpt lat="-27.1341439" lon="152.8072930">
<ele>407.207</ele>
<time>2016-07-16T22:08:18.341Z</time>
</trkpt>
<trkpt lat="-27.1335755" lon="152.8069245">
<ele>403.780</ele>
<time>2016-07-16T22:08:21.499Z</time>
</trkpt>
<trkpt lat="-27.1330238" lon="152.8067495">
<ele>400.500</ele>
<time>2016-07-16T22:08:24.447Z</time>
</trkpt>
<trkpt lat="-27.1324461" lon="152.8067907">
<ele>397.154</ele>
<time>2016-07-16T22:08:27.543Z</time>
</trkpt>
<trkpt lat="-27.1319243" lon="152.8068942">
<ele>394.194</ele>
<time>2016-07-16T22:08:30.690Z</time>
</trkpt>
<trkpt lat="-27.1315311" lon="152.8070609">
<ele>392.197</ele>
<time>2016-07-16T22:08:33.593Z</time>
</trkpt>
<trkpt lat="-27.1311451" lon="152.8069162">
<ele>391.170</ele>
<time>2016-07-16T22:08:36.428Z</time>
</trkpt>
<trkpt lat="-27.1309067" lon="152.8066558">
<ele>390.992</ele>
<time>2016-07-16T22:08:38.356Z</time>
</trkpt>
<trkpt lat="-27.1307311" lon="152.8062284">
<ele>391.358</ele>
<time>2016-07-16T22:08:40.546Z</time>
</trkpt>
<trkpt lat="-27.1305289" lon="152.8056163">
<ele>392.183</ele>
<time>2016-07-16T22:08:43.642Z</time>
</trkpt>
<trkpt lat="-27.1302186" lon="152.8051768">
<ele>393.191</ele>
<time>2016-07-16T22:08:46.420Z</time>
</trkpt>
<trkpt lat="-27.1297560" lon="152.8048453">
<ele>393.893</ele>
<time>2016-07-16T22:08:49.419Z</time>
</trkpt>
<trkpt lat="-27.1294740" lon="152.8045671">
<ele>394.845</ele>
<time>2016-07-16T22:08:51.303Z</time>
</trkpt>
<trkpt lat="-27.1290975" lon="152.8039799">
<ele>396.916</ele>
<time>2016-07-16T22:08:54.408Z</time>
</trkpt>
<trkpt lat="-27.1288630" lon="152.8036072">
<ele>400.464</ele>
<time>2016-07-16T22:08:56.399Z</time>
</trkpt>
<trkpt lat="-27.1284842" lon="152.8031027">
<ele>404.956</ele>
<time>2016-07-16T22:08:59.237Z</time>
</trkpt>
<trkpt lat="-27.1278559" lon="152.8027210">
<ele>408.658</ele>
<time>2016-07-16T22:09:02.423Z</time>
</trkpt>
<trkpt lat="-27.1274127" lon="152.8024822">
<ele>411.339</ele>
<time>2016-07-16T22:09:04.595Z</time>
</trkpt>
<trkpt lat="-27.1268157" lon="152.8021963">
<ele>414.254</ele>
<time>2016-07-16T22:09:07.656Z</time>
</trkpt>
<trkpt lat="-27.1265173" lon="152.8019256">
<ele>416.598</ele>
<time>2016-07-16T22:09:09.618Z</time>
</trkpt>
<trkpt lat="-27.1263024" lon="152.8015720">
<ele>417.270</ele>
<time>2016-07-16T22:09:11.611Z</time>
</trkpt>
<trkpt lat="-27.1261837" lon="152.8011632">
<ele>417.018</ele>
<time>2016-07-16T22:09:13.633Z</time>
</trkpt>
<trkpt lat="-27.1262484" lon="152.8005248">
<ele>417.162</ele>
<time>2016-07-16T22:09:16.710Z</time>
</trkpt>
<trkpt lat="-27.1263344" lon="152.8001156">
<ele>418.768</ele>
<time>2016-07-16T22:09:18.807Z</time>
</trkpt>
<trkpt lat="-27.1262951" lon="152.7997335">
<ele>421.524</ele>
<time>2016-07-16T22:09:20.795Z</time>
</trkpt>
<trkpt lat="-27.1262192" lon="152.7993575">
<ele>423.980</ele>
<time>2016-07-16T22:09:22.983Z</time>
</trkpt>
<trkpt lat="-27.1261340" lon="152.7990514">
<ele>425.336</ele>
<time>2016-07-16T22:09:25.152Z</time>
</trkpt>
<trkpt lat="-27.1258534" lon="152.7987949">
<ele>425.820</ele>
<time>2016-07-16T22:09:28.017Z</time>
</trkpt>
<trkpt lat="-27.1255969" lon="152.7987285">
<ele>425.871</ele>
<time>2016-07-16T22:09:29.858Z</time>
</trkpt>
<trkpt lat="-27.1252912" lon="152.7983769">
<ele>426.050</ele>
<time>2016-07-16T22:09:32.563Z</time>
</trkpt>
<trkpt lat="-27.1251014" lon="152.7979889">
<ele>427.394</ele>
<time>2016-07-16T22:09:34.692Z</time>
</trkpt>
<trkpt lat="-27.1248284" lon="152.7974518">
<ele>430.649</ele>
<time>2016-07-16T22:09:37.725Z</time>
</trkpt>
<trkpt lat="-27.1244540" lon="152.7970814">
<ele>434.653</ele>
<time>2016-07-16T22:09:40.651Z</time>
</trkpt>
<trkpt lat="-27.1240140" lon="152.7968280">
<ele>437.263</ele>
<time>2016-07-16T22:09:43.731Z</time>
</trkpt>
<trkpt lat="-27.1238126" lon="152.7965607">
<ele>437.880</ele>
<time>2016-07-16T22:09:45.865Z</time>
</trkpt>
<trkpt lat="-27.1237537" lon="152.7962629">
<ele>437.539</ele>
<time>2016-07-16T22:09:47.907Z</time>
</trkpt>
<trkpt lat="-27.1238361" lon="152.7959898">
<ele>437.236</ele>
<time>2016-07-16T22:09:49.900Z</time>
</trkpt>
<trkpt lat="-27.1239299" lon="152.7957197">
<ele>437.230</ele>
<time>2016-07-16T22:09:51.863Z</time>
</trkpt>
<trkpt lat="-27.1238098" lon="152.7953135">
<ele>437.354</ele>
<time>2016-07-16T22:09:54.422Z</time>
</trkpt>
<trkpt lat="-27.1234849" lon="152.7948135">
<ele>437.521</ele>
<time>2016-07-16T22:09:57.423Z</time>
</trkpt>
<trkpt lat="-27.1231158" lon="152.7942185">
<ele>439.136</ele>
<time>2016-07-16T22:10:00.405Z</time>
</trkpt>
<trkpt lat="-27.1228241" lon="152.7938074">
<ele>443.663</ele>
<time>2016-07-16T22:10:02.432Z</time>
</trkpt>
<trkpt lat="-27.1223223" lon="152.7932729">
<ele>449.497</ele>
<time>2016-07-16T22:10:05.403Z</time>
</trkpt>
<trkpt lat="-27.1217516" lon="152.7928442">
<ele>454.021</ele>
<time>2016-07-16T22:10:08.355Z</time>
</trkpt>
<trkpt lat="-27.1210985" lon="152.7925396">
<ele>456.883</ele>
<time>2016-07-16T22:10:11.459Z</time>
</trkpt>
<trkpt lat="-27.1207190" lon="152.7923074">
<ele>458.869</ele>
<time>2016-07-16T22:10:13.444Z</time>
</trkpt>
<trkpt lat="-27.1203879" lon="152.7920080">
<ele>460.571</ele>
<time>2016-07-16T22:10:15.466Z</time>
</trkpt>
<trkpt lat="-27.1201169" lon="152.7916618">
<ele>462.012</ele>
<time>2016-07-16T22:10:17.463Z</time>
</trkpt>
<trkpt lat="-27.1199174" lon="152.7912558">
<ele>462.871</ele>
<time>2016-07-16T22:10:19.458Z</time>
</trkpt>
<trkpt lat="-27.1197641" lon="152.7908491">
<ele>463.261</ele>
<time>2016-07-16T22:10:21.402Z</time>
</trkpt>
<trkpt lat="-27.1195605" lon="152.7902571">
<ele>463.526</ele>
<time>2016-07-16T22:10:24.270Z</time>
</trkpt>
<trkpt lat="-27.1193282" lon="152.7899101">
<ele>463.332</ele>
<time>2016-07-16T22:10:26.245Z</time>
</trkpt>
<trkpt lat="-27.1189218" lon="152.7893954">
<ele>462.066</ele>
<time>2016-07-16T22:10:29.425Z</time>
</trkpt>
<trkpt lat="-27.1187366" lon="152.7890771">
<ele>460.146</ele>
<time>2016-07-16T22:10:31.352Z</time>
</trkpt>
<trkpt lat="-27.1184630" lon="152.7888549">
<ele>458.710</ele>
<time>2016-07-16T22:10:33.226Z</time>
</trkpt>
<trkpt lat="-27.1179427" lon="152.7885915">
<ele>458.270</ele>
<time>2016-07-16T22:10:36.169Z</time>
</trkpt>
<trkpt lat="-27.1175337" lon="152.7884083">
<ele>459.791</ele>
<time>2016-07-16T22:10:38.271Z</time>
</trkpt>
<trkpt lat="-27.1171672" lon="152.7881849">
<ele>463.915</ele>
<time>2016-07-16T22:10:40.246Z</time>
</trkpt>
<trkpt lat="-27.1167304" lon="152.7876699">
<ele>468.681</ele>
<time>2016-07-16T22:10:43.216Z</time>
</trkpt>
<trkpt lat="-27.1165022" lon="152.7872552">
<ele>472.277</ele>
<time>2016-07-16T22:10:45.194Z</time>
</trkpt>
<trkpt lat="-27.1162967" lon="152.7865374">
<ele>475.103</ele>
<time>2016-07-16T22:10:48.186Z</time>
</trkpt>
<trkpt lat="-27.1162439" lon="152.7860216">
<ele>477.458</ele>
<time>2016-07-16T22:10:50.114Z</time>
</trkpt>
<trkpt lat="-27.1162245" lon="152.7854060">
<ele>479.345</ele>
<time>2016-07-16T22:10:52.267Z</time>
</trkpt>
<trkpt lat="-27.1162257" lon="152.7848335">
<ele>480.863</ele>
<time>2016-07-16T22:10:54.272Z</time>
</trkpt>
<trkpt lat="-27.1162241" lon="152.7840185">
<ele>481.527</ele>
<time>2016-07-16T22:10:57.145Z</time>
</trkpt>
<trkpt lat="-27.1161698" lon="152.7831411">
<ele>480.328</ele>
<time>2016-07-16T22:11:00.209Z</time>
</trkpt>
<trkpt lat="-27.1161445" lon="152.7823012">
<ele>477.266</ele>
<time>2016-07-16T22:11:03.177Z</time>
</trkpt>
<trkpt lat="-27.1161361" lon="152.7817764">
<ele>473.231</ele>
<time>2016-07-16T22:11:05.168Z</time>
</trkpt>
<trkpt lat="-27.1162434" lon="152.7813291">
<ele>468.800</ele>
<time>2016-07-16T22:11:07.029Z</time>
</trkpt>
<trkpt lat="-27.1164763" lon="152.7809049">
<ele>464.752</ele>
<time>2016-07-16T22:11:09.045Z</time>
</trkpt>
<trkpt lat="-27.1167635" lon="152.7804797">
<ele>462.219</ele>
<time>2016-07-16T22:11:11.124Z</time>
</trkpt>
<trkpt lat="-27.1171393" lon="152.7801709">
<ele>461.894</ele>
<time>2016-07-16T22:11:13.093Z</time>
</trkpt>
<trkpt lat="-27.1176941" lon="152.7796564">
<ele>463.974</ele>
<time>2016-07-16T22:11:16.071Z</time>
</trkpt>
<trkpt lat="-27.1182609" lon="152.7790951">
<ele>467.554</ele>
<time>2016-07-16T22:11:19.186Z</time>
</trkpt>
<trkpt lat="-27.1187547" lon="152.7785657">
<ele>470.921</ele>
<time>2016-07-16T22:11:22.118Z</time>
</trkpt>
<trkpt lat="-27.1190660" lon="152.7782096">
<ele>472.604</ele>
<time>2016-07-16T22:11:24.118Z</time>
</trkpt>
<trkpt lat="-27.1193279" lon="152.7778122">
<ele>472.219</ele>
<time>2016-07-16T22:11:26.110Z</time>
</trkpt>
<trkpt lat="-27.1196608" lon="152.7771049">
<ele>470.781</ele>
<time>2016-07-16T22:11:29.181Z</time>
</trkpt>
<trkpt lat="-27.1198501" lon="152.7766259">
<ele>470.128</ele>
<time>2016-07-16T22:11:31.182Z</time>
</trkpt>
<trkpt lat="-27.1200233" lon="152.7761756">
<ele>471.057</ele>
<time>2016-07-16T22:11:33.150Z</time>
</trkpt>
<trkpt lat="-27.1203932" lon="152.7755862">
<ele>472.285</ele>
<time>2016-07-16T22:11:36.114Z</time>
</trkpt>
<trkpt lat="-27.1207307" lon="152.7752685">
<ele>472.571</ele>
<time>2016-07-16T22:11:38.064Z</time>
</trkpt>
<trkpt lat="-27.1212859" lon="152.7747511">
<ele>472.508</ele>
<time>2016-07-16T22:11:41.119Z</time>
</trkpt>
<trkpt lat="-27.1216481" lon="152.7744164">
<ele>473.205</ele>
<time>2016-07-16T22:11:43.018Z</time>
</trkpt>
<trkpt lat="-27.1220338" lon="152.7739819">
<ele>474.719</ele>
<time>2016-07-16T22:11:45.100Z</time>
</trkpt>
<trkpt lat="-27.1226068" lon="152.7732511">
<ele>476.719</ele>
<time>2016-07-16T22:11:48.324Z</time>
</trkpt>
<trkpt lat="-27.1231121" lon="152.7725964">
<ele>478.898</ele>
<time>2016-07-16T22:11:51.408Z</time>
</trkpt>
<trkpt lat="-27.1236285" lon="152.7721322">
<ele>479.520</ele>
<time>2016-07-16T22:11:54.396Z</time>
</trkpt>
<trkpt lat="-27.1241603" lon="152.7718182">
<ele>476.989</ele>
<time>2016-07-16T22:11:57.408Z</time>
</trkpt>
<trkpt lat="-27.1244723" lon="152.7716185">
<ele>472.858</ele>
<time>2016-07-16T22:11:59.441Z</time>
</trkpt>
<trkpt lat="-27.1248086" lon="152.7712173">
<ele>469.632</ele>
<time>2016-07-16T22:12:02.371Z</time>
</trkpt>
<trkpt lat="-27.1249875" lon="152.7707055">
<ele>467.927</ele>
<time>2016-07-16T22:12:05.315Z</time>
</trkpt>
<trkpt lat="-27.1250798" lon="152.7703106">
<ele>467.281</ele>
<time>2016-07-16T22:12:07.395Z</time>
</trkpt>
<trkpt lat="-27.1252126" lon="152.7699415">
<ele>467.237</ele>
<time>2016-07-16T22:12:09.447Z</time>
</trkpt>
<trkpt lat="-27.1252839" lon="152.7697698">
<ele>467.333</ele>
<time>2016-07-16T22:12:10.432Z</time>
</trkpt>
<trkpt lat="-27.1258406" lon="152.7693102">
<ele>467.171</ele>
<time>2016-07-16T22:12:14.337Z</time>
</trkpt>
<trkpt lat="-27.1262212" lon="152.7692355">
<ele>466.550</ele>
<time>2016-07-16T22:12:16.340Z</time>
</trkpt>
<trkpt lat="-27.1265976" lon="152.7691680">
<ele>465.518</ele>
<time>2016-07-16T22:12:18.378Z</time>
</trkpt>
<trkpt lat="-27.1270872" lon="152.7689644">
<ele>464.412</ele>
<time>2016-07-16T22:12:21.374Z</time>
</trkpt>
<trkpt lat="-27.1273243" lon="152.7687504">
<ele>463.433</ele>
<time>2016-07-16T22:12:23.258Z</time>
</trkpt>
<trkpt lat="-27.1275016" lon="152.7684121">
<ele>462.545</ele>
<time>2016-07-16T22:12:25.439Z</time>
</trkpt>
<trkpt lat="-27.1275614" lon="152.7678795">
<ele>462.334</ele>
<time>2016-07-16T22:12:28.344Z</time>
</trkpt>
<trkpt lat="-27.1273757" lon="152.7672867">
<ele>463.765</ele>
<time>2016-07-16T22:12:31.478Z</time>
</trkpt>
<trkpt lat="-27.1270060" lon="152.7667708">
<ele>467.050</ele>
<time>2016-07-16T22:12:34.487Z</time>
</trkpt>
<trkpt lat="-27.1266156" lon="152.7665177">
<ele>471.744</ele>
<time>2016-07-16T22:12:36.623Z</time>
</trkpt>
<trkpt lat="-27.1260517" lon="152.7661191">
<ele>477.400</ele>
<time>2016-07-16T22:12:39.758Z</time>
</trkpt>
<trkpt lat="-27.1256683" lon="152.7659495">
<ele>483.495</ele>
<time>2016-07-16T22:12:41.828Z</time>
</trkpt>
<trkpt lat="-27.1251387" lon="152.7657128">
<ele>488.715</ele>
<time>2016-07-16T22:12:44.876Z</time>
</trkpt>
<trkpt lat="-27.1248469" lon="152.7655090">
<ele>491.676</ele>
<time>2016-07-16T22:12:46.833Z</time>
</trkpt>
<trkpt lat="-27.1245424" lon="152.7650517">
<ele>492.486</ele>
<time>2016-07-16T22:12:49.562Z</time>
</trkpt>
<trkpt lat="-27.1243073" lon="152.7644066">
<ele>492.634</ele>
<time>2016-07-16T22:12:52.523Z</time>
</trkpt>
<trkpt lat="-27.1241574" lon="152.7639037">
<ele>493.635</ele>
<time>2016-07-16T22:12:54.469Z</time>
</trkpt>
<trkpt lat="-27.1239914" lon="152.7630429">
<ele>495.769</ele>
<time>2016-07-16T22:12:57.497Z</time>
</trkpt>
<trkpt lat="-27.1239230" lon="152.7624338">
<ele>498.745</ele>
<time>2016-07-16T22:12:59.532Z</time>
</trkpt>
<trkpt lat="-27.1237955" lon="152.7615477">
<ele>502.102</ele>
<time>2016-07-16T22:13:02.633Z</time>
</trkpt>
<trkpt lat="-27.1237617" lon="152.7612865">
<ele>504.662</ele>
<time>2016-07-16T22:13:03.611Z</time>
</trkpt>
<trkpt lat="-27.1235408" lon="152.7602752">
<ele>505.363</ele>
<time>2016-07-16T22:13:07.472Z</time>
</trkpt>
<trkpt lat="-27.1232005" lon="152.7594585">
<ele>504.561</ele>
<time>2016-07-16T22:13:10.567Z</time>
</trkpt>
<trkpt lat="-27.1228712" lon="152.7586354">
<ele>503.630</ele>
<time>2016-07-16T22:13:13.661Z</time>
</trkpt>
<trkpt lat="-27.1226682" lon="152.7581555">
<ele>503.518</ele>
<time>2016-07-16T22:13:15.678Z</time>
</trkpt>
<trkpt lat="-27.1223157" lon="152.7575318">
<ele>503.246</ele>
<time>2016-07-16T22:13:18.572Z</time>
</trkpt>
<trkpt lat="-27.1219944" lon="152.7571531">
<ele>501.208</ele>
<time>2016-07-16T22:13:20.539Z</time>
</trkpt>
<trkpt lat="-27.1213854" lon="152.7566412">
<ele>497.869</ele>
<time>2016-07-16T22:13:23.554Z</time>
</trkpt>
<trkpt lat="-27.1208918" lon="152.7563658">
<ele>495.731</ele>
<time>2016-07-16T22:13:25.570Z</time>
</trkpt>
<trkpt lat="-27.1204041" lon="152.7560613">
<ele>496.263</ele>
<time>2016-07-16T22:13:27.610Z</time>
</trkpt>
<trkpt lat="-27.1201724" lon="152.7559021">
<ele>498.978</ele>
<time>2016-07-16T22:13:28.648Z</time>
</trkpt>
<trkpt lat="-27.1195364" lon="152.7554800">
<ele>502.358</ele>
<time>2016-07-16T22:13:31.629Z</time>
</trkpt>
<trkpt lat="-27.1189109" lon="152.7551118">
<ele>504.659</ele>
<time>2016-07-16T22:13:34.528Z</time>
</trkpt>
<trkpt lat="-27.1184428" lon="152.7548952">
<ele>505.261</ele>
<time>2016-07-16T22:13:36.522Z</time>
</trkpt>
<trkpt lat="-27.1176939" lon="152.7546292">
<ele>505.541</ele>
<time>2016-07-16T22:13:39.610Z</time>
</trkpt>
<trkpt lat="-27.1172308" lon="152.7544424">
<ele>507.463</ele>
<time>2016-07-16T22:13:41.657Z</time>
</trkpt>
<trkpt lat="-27.1168282" lon="152.7542284">
<ele>510.930</ele>
<time>2016-07-16T22:13:43.566Z</time>
</trkpt>
<trkpt lat="-27.1162863" lon="152.7537498">
<ele>513.813</ele>
<time>2016-07-16T22:13:46.467Z</time>
</trkpt>
<trkpt lat="-27.1159517" lon="152.7533400">
<ele>515.460</ele>
<time>2016-07-16T22:13:48.509Z</time>
</trkpt>
<trkpt lat="-27.1154791" lon="152.7527487">
<ele>516.740</ele>
<time>2016-07-16T22:13:51.511Z</time>
</trkpt>
<trkpt lat="-27.1151333" lon="152.7524274">
<ele>517.092</ele>
<time>2016-07-16T22:13:53.458Z</time>
</trkpt>
<trkpt lat="-27.1144918" lon="152.7520836">
<ele>515.867</ele>
<time>2016-07-16T22:13:56.314Z</time>
</trkpt>
<trkpt lat="-27.1137080" lon="152.7517366">
<ele>514.782</ele>
<time>2016-07-16T22:13:59.326Z</time>
</trkpt>
<trkpt lat="-27.1131366" lon="152.7514783">
<ele>516.205</ele>
<time>2016-07-16T22:14:01.355Z</time>
</trkpt>
<trkpt lat="-27.1125575" lon="152.7512242">
<ele>519.766</ele>
<time>2016-07-16T22:14:03.393Z</time>
</trkpt>
<trkpt lat="-27.1117002" lon="152.7508453">
<ele>522.924</ele>
<time>2016-07-16T22:14:06.490Z</time>
</trkpt>
<trkpt lat="-27.1111722" lon="152.7506536">
<ele>523.580</ele>
<time>2016-07-16T22:14:08.520Z</time>
</trkpt>
<trkpt lat="-27.1104212" lon="152.7504959">
<ele>520.877</ele>
<time>2016-07-16T22:14:11.433Z</time>
</trkpt>
<trkpt lat="-27.1096571" lon="152.7504346">
<ele>516.000</ele>
<time>2016-07-16T22:14:14.412Z</time>
</trkpt>
<trkpt lat="-27.1091361" lon="152.7504674">
<ele>511.900</ele>
<time>2016-07-16T22:14:16.396Z</time>
</trkpt>
<trkpt lat="-27.1086006" lon="152.7505645">
<ele>510.421</ele>
<time>2016-07-16T22:14:18.321Z</time>
</trkpt>
<trkpt lat="-27.1077063" lon="152.7507560">
<ele>511.456</ele>
<time>2016-07-16T22:14:21.327Z</time>
</trkpt>
<trkpt lat="-27.1070389" lon="152.7508988">
<ele>514.122</ele>
<time>2016-07-16T22:14:23.365Z</time>
</trkpt>
<trkpt lat="-27.1060131" lon="152.7511081">
<ele>517.039</ele>
<time>2016-07-16T22:14:26.459Z</time>
</trkpt>
<trkpt lat="-27.1056914" lon="152.7511704">
<ele>517.778</ele>
<time>2016-07-16T22:14:27.475Z</time>
</trkpt>
<trkpt lat="-27.1045646" lon="152.7513777">
<ele>515.366</ele>
<time>2016-07-16T22:14:31.387Z</time>
</trkpt>
<trkpt lat="-27.1040404" lon="152.7513973">
<ele>511.662</ele>
<time>2016-07-16T22:14:33.348Z</time>
</trkpt>
<trkpt lat="-27.1032737" lon="152.7512647">
<ele>508.280</ele>
<time>2016-07-16T22:14:36.326Z</time>
</trkpt>
<trkpt lat="-27.1025527" lon="152.7510390">
<ele>505.652</ele>
<time>2016-07-16T22:14:39.310Z</time>
</trkpt>
<trkpt lat="-27.1018865" lon="152.7507531">
<ele>503.101</ele>
<time>2016-07-16T22:14:42.225Z</time>
</trkpt>
<trkpt lat="-27.1014487" lon="152.7503846">
<ele>499.091</ele>
<time>2016-07-16T22:14:44.394Z</time>
</trkpt>
<trkpt lat="-27.1010574" lon="152.7499631">
<ele>494.419</ele>
<time>2016-07-16T22:14:46.507Z</time>
</trkpt>
<trkpt lat="-27.1005853" lon="152.7493276">
<ele>491.390</ele>
<time>2016-07-16T22:14:49.397Z</time>
</trkpt>
<trkpt lat="-27.0999820" lon="152.7488098">
<ele>490.471</ele>
<time>2016-07-16T22:14:52.387Z</time>
</trkpt>
<trkpt lat="-27.0995429" lon="152.7485081">
<ele>490.785</ele>
<time>2016-07-16T22:14:54.402Z</time>
</trkpt>
<trkpt lat="-27.0987959" lon="152.7482858">
<ele>491.588</ele>
<time>2016-07-16T22:14:57.409Z</time>
</trkpt>
<trkpt lat="-27.0982878" lon="152.7482079">
<ele>492.286</ele>
<time>2016-07-16T22:14:59.373Z</time>
</trkpt>
<trkpt lat="-27.0977616" lon="152.7482026">
<ele>492.507</ele>
<time>2016-07-16T22:15:01.314Z</time>
</trkpt>
<trkpt lat="-27.0971903" lon="152.7482817">
<ele>492.398</ele>
<time>2016-07-16T22:15:03.319Z</time>
</trkpt>
<trkpt lat="-27.0965928" lon="152.7484067">
<ele>492.757</ele>
<time>2016-07-16T22:15:05.393Z</time>
</trkpt>
<trkpt lat="-27.0954508" lon="152.7486396">
<ele>494.673</ele>
<time>2016-07-16T22:15:09.485Z</time>
</trkpt>
<trkpt lat="-27.0949454" lon="152.7487142">
<ele>497.850</ele>
<time>2016-07-16T22:15:11.486Z</time>
</trkpt>
<trkpt lat="-27.0942311" lon="152.7486586">
<ele>500.503</ele>
<time>2016-07-16T22:15:14.412Z</time>
</trkpt>
<trkpt lat="-27.0937575" lon="152.7485210">
<ele>501.867</ele>
<time>2016-07-16T22:15:16.383Z</time>
</trkpt>
<trkpt lat="-27.0931231" lon="152.7480216">
<ele>503.126</ele>
<time>2016-07-16T22:15:19.447Z</time>
</trkpt>
<trkpt lat="-27.0925119" lon="152.7475280">
<ele>505.580</ele>
<time>2016-07-16T22:15:22.485Z</time>
</trkpt>
<trkpt lat="-27.0919223" lon="152.7470826">
<ele>508.815</ele>
<time>2016-07-16T22:15:25.487Z</time>
</trkpt>
<trkpt lat="-27.0915052" lon="152.7468679">
<ele>511.276</ele>
<time>2016-07-16T22:15:27.508Z</time>
</trkpt>
<trkpt lat="-27.0910819" lon="152.7467531">
<ele>512.399</ele>
<time>2016-07-16T22:15:29.463Z</time>
</trkpt>
<trkpt lat="-27.0906415" lon="152.7467230">
<ele>515.693</ele>
<time>2016-07-16T22:15:31.417Z</time>
</trkpt>
<trkpt lat="-27.0899402" lon="152.7468462">
<ele>523.545</ele>
<time>2016-07-16T22:15:34.531Z</time>
</trkpt>
<trkpt lat="-27.0895309" lon="152.7470323">
<ele>531.669</ele>
<time>2016-07-16T22:15:36.515Z</time>
</trkpt>
<trkpt lat="-27.0889846" lon="152.7474172">
<ele>535.029</ele>
<time>2016-07-16T22:15:39.442Z</time>
</trkpt>
<trkpt lat="-27.0886644" lon="152.7477706">
<ele>534.000</ele>
<time>2016-07-16T22:15:41.443Z</time>
</trkpt>
<trkpt lat="-27.0882996" lon="152.7484123">
<ele>531.569</ele>
<time>2016-07-16T22:15:44.364Z</time>
</trkpt>
<trkpt lat="-27.0881318" lon="152.7489301">
<ele>530.500</ele>
<time>2016-07-16T22:15:46.289Z</time>
</trkpt>
<trkpt lat="-27.0879841" lon="152.7495295">
<ele>531.868</ele>
<time>2016-07-16T22:15:48.237Z</time>
</trkpt>
<trkpt lat="-27.0877349" lon="152.7505262">
<ele>535.629</ele>
<time>2016-07-16T22:15:51.246Z</time>
</trkpt>
<trkpt lat="-27.0875728" lon="152.7512255">
<ele>540.219</ele>
<time>2016-07-16T22:15:53.275Z</time>
</trkpt>
<trkpt lat="-27.0873234" lon="152.7522206">
<ele>543.213</ele>
<time>2016-07-16T22:15:56.236Z</time>
</trkpt>
<trkpt lat="-27.0871609" lon="152.7528537">
<ele>541.443</ele>
<time>2016-07-16T22:15:58.196Z</time>
</trkpt>
<trkpt lat="-27.0868832" lon="152.7537731">
<ele>534.288</ele>
<time>2016-07-16T22:16:01.157Z</time>
</trkpt>
<trkpt lat="-27.0864712" lon="152.7546190">
<ele>524.368</ele>
<time>2016-07-16T22:16:04.219Z</time>
</trkpt>
<trkpt lat="-27.0861226" lon="152.7553871">
<ele>514.319</ele>
<time>2016-07-16T22:16:07.085Z</time>
</trkpt>
<trkpt lat="-27.0858931" lon="152.7562425">
<ele>505.810</ele>
<time>2016-07-16T22:16:10.161Z</time>
</trkpt>
<trkpt lat="-27.0856583" lon="152.7570325">
<ele>499.648</ele>
<time>2016-07-16T22:16:13.085Z</time>
</trkpt>
<trkpt lat="-27.0853249" lon="152.7577955">
<ele>495.658</ele>
<time>2016-07-16T22:16:15.998Z</time>
</trkpt>
<trkpt lat="-27.0847655" lon="152.7585254">
<ele>494.202</ele>
<time>2016-07-16T22:16:19.067Z</time>
</trkpt>
<trkpt lat="-27.0841692" lon="152.7592465">
<ele>494.544</ele>
<time>2016-07-16T22:16:22.232Z</time>
</trkpt>
<trkpt lat="-27.0836831" lon="152.7598354">
<ele>494.846</ele>
<time>2016-07-16T22:16:25.247Z</time>
</trkpt>
<trkpt lat="-27.0833853" lon="152.7600751">
<ele>492.558</ele>
<time>2016-07-16T22:16:27.155Z</time>
</trkpt>
<trkpt lat="-27.0829005" lon="152.7602958">
<ele>487.169</ele>
<time>2016-07-16T22:16:30.137Z</time>
</trkpt>
<trkpt lat="-27.0826239" lon="152.7604832">
<ele>482.915</ele>
<time>2016-07-16T22:16:32.107Z</time>
</trkpt>
<trkpt lat="-27.0824240" lon="152.7607779">
<ele>482.943</ele>
<time>2016-07-16T22:16:34.095Z</time>
</trkpt>
<trkpt lat="-27.0823336" lon="152.7613350">
<ele>485.168</ele>
<time>2016-07-16T22:16:36.968Z</time>
</trkpt>
<trkpt lat="-27.0824221" lon="152.7620261">
<ele>486.862</ele>
<time>2016-07-16T22:16:40.148Z</time>
</trkpt>
<trkpt lat="-27.0824356" lon="152.7624710">
<ele>486.886</ele>
<time>2016-07-16T22:16:42.065Z</time>
</trkpt>
<trkpt lat="-27.0823257" lon="152.7629234">
<ele>485.315</ele>
<time>2016-07-16T22:16:44.049Z</time>
</trkpt>
<trkpt lat="-27.0819643" lon="152.7635391">
<ele>483.492</ele>
<time>2016-07-16T22:16:47.128Z</time>
</trkpt>
<trkpt lat="-27.0815598" lon="152.7640893">
<ele>482.985</ele>
<time>2016-07-16T22:16:50.186Z</time>
</trkpt>
<trkpt lat="-27.0813505" lon="152.7644364">
<ele>484.156</ele>
<time>2016-07-16T22:16:52.062Z</time>
</trkpt>
<trkpt lat="-27.0811978" lon="152.7648501">
<ele>485.987</ele>
<time>2016-07-16T22:16:53.967Z</time>
</trkpt>
<trkpt lat="-27.0810561" lon="152.7656181">
<ele>487.219</ele>
<time>2016-07-16T22:16:57.023Z</time>
</trkpt>
<trkpt lat="-27.0810218" lon="152.7661859">
<ele>487.744</ele>
<time>2016-07-16T22:16:59.092Z</time>
</trkpt>
<trkpt lat="-27.0809874" lon="152.7669951">
<ele>488.275</ele>
<time>2016-07-16T22:17:02.148Z</time>
</trkpt>
<trkpt lat="-27.0809514" lon="152.7674613">
<ele>489.133</ele>
<time>2016-07-16T22:17:04.177Z</time>
</trkpt>
<trkpt lat="-27.0809261" lon="152.7680622">
<ele>489.439</ele>
<time>2016-07-16T22:17:07.111Z</time>
</trkpt>
<trkpt lat="-27.0808950" lon="152.7685855">
<ele>488.457</ele>
<time>2016-07-16T22:17:10.009Z</time>
</trkpt>
<trkpt lat="-27.0808623" lon="152.7690796">
<ele>486.817</ele>
<time>2016-07-16T22:17:12.963Z</time>
</trkpt>
<trkpt lat="-27.0808418" lon="152.7693802">
<ele>484.960</ele>
<time>2016-07-16T22:17:15.028Z</time>
</trkpt>
<trkpt lat="-27.0807678" lon="152.7697261">
<ele>482.552</ele>
<time>2016-07-16T22:17:17.974Z</time>
</trkpt>
<trkpt lat="-27.0806963" lon="152.7698538">
<ele>479.662</ele>
<time>2016-07-16T22:17:19.681Z</time>
</trkpt>
<trkpt lat="-27.0806559" lon="152.7699664">
<ele>477.038</ele>
<time>2016-07-16T22:17:21.459Z</time>
</trkpt>
<trkpt lat="-27.0805808" lon="152.7700651">
<ele>477.565</ele>
<time>2016-07-16T22:17:23.999Z</time>
</trkpt>
<trkpt lat="-27.0805808" lon="152.7700651">
<ele>482.617</ele>
<time>2016-07-16T22:17:29.999Z</time>
</trkpt>
<trkpt lat="-27.0805808" lon="152.7700651">
<ele>487.178</ele>
<time>2016-07-16T22:17:37.991Z</time>
</trkpt>
<trkpt lat="-27.0803344" lon="152.7701560">
<ele>486.348</ele>
<time>2016-07-16T22:17:43.632Z</time>
</trkpt>
<trkpt lat="-27.0801687" lon="152.7702357">
<ele>482.212</ele>
<time>2016-07-16T22:17:45.480Z</time>
</trkpt>
<trkpt lat="-27.0798529" lon="152.7703569">
<ele>478.919</ele>
<time>2016-07-16T22:17:48.493Z</time>
</trkpt>
<trkpt lat="-27.0794819" lon="152.7703417">
<ele>477.720</ele>
<time>2016-07-16T22:17:51.432Z</time>
</trkpt>
<trkpt lat="-27.0791914" lon="152.7701971">
<ele>477.615</ele>
<time>2016-07-16T22:17:53.599Z</time>
</trkpt>
<trkpt lat="-27.0787009" lon="152.7698984">
<ele>477.384</ele>
<time>2016-07-16T22:17:57.046Z</time>
</trkpt>
<trkpt lat="-27.0783715" lon="152.7697592">
<ele>476.376</ele>
<time>2016-07-16T22:17:58.970Z</time>
</trkpt>
<trkpt lat="-27.0778534" lon="152.7696522">
<ele>474.199</ele>
<time>2016-07-16T22:18:01.700Z</time>
</trkpt>
<trkpt lat="-27.0774284" lon="152.7696145">
<ele>470.754</ele>
<time>2016-07-16T22:18:03.745Z</time>
</trkpt>
<trkpt lat="-27.0769953" lon="152.7695880">
<ele>467.166</ele>
<time>2016-07-16T22:18:05.823Z</time>
</trkpt>
<trkpt lat="-27.0763908" lon="152.7695380">
<ele>465.096</ele>
<time>2016-07-16T22:18:08.828Z</time>
</trkpt>
<trkpt lat="-27.0760210" lon="152.7695400">
<ele>464.833</ele>
<time>2016-07-16T22:18:10.778Z</time>
</trkpt>
<trkpt lat="-27.0754802" lon="152.7696353">
<ele>465.377</ele>
<time>2016-07-16T22:18:13.742Z</time>
</trkpt>
<trkpt lat="-27.0751299" lon="152.7697091">
<ele>465.840</ele>
<time>2016-07-16T22:18:15.697Z</time>
</trkpt>
<trkpt lat="-27.0747678" lon="152.7697712">
<ele>465.702</ele>
<time>2016-07-16T22:18:17.734Z</time>
</trkpt>
<trkpt lat="-27.0742288" lon="152.7697884">
<ele>464.857</ele>
<time>2016-07-16T22:18:20.796Z</time>
</trkpt>
<trkpt lat="-27.0739014" lon="152.7696699">
<ele>463.379</ele>
<time>2016-07-16T22:18:22.747Z</time>
</trkpt>
<trkpt lat="-27.0735881" lon="152.7694560">
<ele>461.539</ele>
<time>2016-07-16T22:18:24.906Z</time>
</trkpt>
<trkpt lat="-27.0731797" lon="152.7691599">
<ele>460.076</ele>
<time>2016-07-16T22:18:28.048Z</time>
</trkpt>
<trkpt lat="-27.0729304" lon="152.7690925">
<ele>459.247</ele>
<time>2016-07-16T22:18:29.880Z</time>
</trkpt>
<trkpt lat="-27.0726492" lon="152.7691325">
<ele>458.323</ele>
<time>2016-07-16T22:18:31.814Z</time>
</trkpt>
<trkpt lat="-27.0719937" lon="152.7692293">
<ele>457.150</ele>
<time>2016-07-16T22:18:35.915Z</time>
</trkpt>
<trkpt lat="-27.0716715" lon="152.7692688">
<ele>456.608</ele>
<time>2016-07-16T22:18:38.034Z</time>
</trkpt>
<trkpt lat="-27.0713913" lon="152.7692512">
<ele>457.136</ele>
<time>2016-07-16T22:18:39.946Z</time>
</trkpt>
<trkpt lat="-27.0710064" lon="152.7690070">
<ele>457.766</ele>
<time>2016-07-16T22:18:42.704Z</time>
</trkpt>
<trkpt lat="-27.0705440" lon="152.7686607">
<ele>457.517</ele>
<time>2016-07-16T22:18:45.735Z</time>
</trkpt>
<trkpt lat="-27.0701581" lon="152.7684977">
<ele>456.260</ele>
<time>2016-07-16T22:18:47.631Z</time>
</trkpt>
<trkpt lat="-27.0694622" lon="152.7683652">
<ele>454.474</ele>
<time>2016-07-16T22:18:50.706Z</time>
</trkpt>
<trkpt lat="-27.0687616" lon="152.7682462">
<ele>453.932</ele>
<time>2016-07-16T22:18:53.809Z</time>
</trkpt>
<trkpt lat="-27.0683520" lon="152.7681842">
<ele>455.653</ele>
<time>2016-07-16T22:18:55.738Z</time>
</trkpt>
<trkpt lat="-27.0677543" lon="152.7679305">
<ele>457.953</ele>
<time>2016-07-16T22:18:58.718Z</time>
</trkpt>
<trkpt lat="-27.0673727" lon="152.7676991">
<ele>459.149</ele>
<time>2016-07-16T22:19:00.723Z</time>
</trkpt>
<trkpt lat="-27.0668043" lon="152.7673983">
<ele>459.661</ele>
<time>2016-07-16T22:19:03.621Z</time>
</trkpt>
<trkpt lat="-27.0662192" lon="152.7670673">
<ele>460.311</ele>
<time>2016-07-16T22:19:06.702Z</time>
</trkpt>
<trkpt lat="-27.0658786" lon="152.7668738">
<ele>461.068</ele>
<time>2016-07-16T22:19:08.670Z</time>
</trkpt>
<trkpt lat="-27.0653436" lon="152.7667935">
<ele>460.910</ele>
<time>2016-07-16T22:19:11.477Z</time>
</trkpt>
<trkpt lat="-27.0649429" lon="152.7668180">
<ele>458.861</ele>
<time>2016-07-16T22:19:13.331Z</time>
</trkpt>
<trkpt lat="-27.0642328" lon="152.7668717">
<ele>455.668</ele>
<time>2016-07-16T22:19:16.312Z</time>
</trkpt>
<trkpt lat="-27.0637070" lon="152.7669120">
<ele>453.923</ele>
<time>2016-07-16T22:19:18.373Z</time>
</trkpt>
<trkpt lat="-27.0632185" lon="152.7669553">
<ele>454.932</ele>
<time>2016-07-16T22:19:20.371Z</time>
</trkpt>
<trkpt lat="-27.0625341" lon="152.7670708">
<ele>457.224</ele>
<time>2016-07-16T22:19:23.341Z</time>
</trkpt>
<trkpt lat="-27.0621121" lon="152.7671620">
<ele>458.872</ele>
<time>2016-07-16T22:19:25.356Z</time>
</trkpt>
<trkpt lat="-27.0615294" lon="152.7672911">
<ele>459.320</ele>
<time>2016-07-16T22:19:28.292Z</time>
</trkpt>
<trkpt lat="-27.0611593" lon="152.7673389">
<ele>458.835</ele>
<time>2016-07-16T22:19:30.238Z</time>
</trkpt>
<trkpt lat="-27.0607861" lon="152.7673194">
<ele>458.022</ele>
<time>2016-07-16T22:19:32.204Z</time>
</trkpt>
<trkpt lat="-27.0604126" lon="152.7672149">
<ele>457.383</ele>
<time>2016-07-16T22:19:34.220Z</time>
</trkpt>
<trkpt lat="-27.0600686" lon="152.7670570">
<ele>456.729</ele>
<time>2016-07-16T22:19:36.177Z</time>
</trkpt>
<trkpt lat="-27.0597175" lon="152.7669031">
<ele>455.940</ele>
<time>2016-07-16T22:19:38.272Z</time>
</trkpt>
<trkpt lat="-27.0592763" lon="152.7666866">
<ele>455.346</ele>
<time>2016-07-16T22:19:41.185Z</time>
</trkpt>
<trkpt lat="-27.0590039" lon="152.7666773">
<ele>454.896</ele>
<time>2016-07-16T22:19:42.989Z</time>
</trkpt>
<trkpt lat="-27.0587098" lon="152.7667560">
<ele>454.134</ele>
<time>2016-07-16T22:19:44.896Z</time>
</trkpt>
<trkpt lat="-27.0583552" lon="152.7668792">
<ele>453.112</ele>
<time>2016-07-16T22:19:46.993Z</time>
</trkpt>
<trkpt lat="-27.0579817" lon="152.7670138">
<ele>452.720</ele>
<time>2016-07-16T22:19:49.030Z</time>
</trkpt>
<trkpt lat="-27.0574082" lon="152.7672297">
<ele>453.612</ele>
<time>2016-07-16T22:19:52.071Z</time>
</trkpt>
<trkpt lat="-27.0568319" lon="152.7674347">
<ele>455.056</ele>
<time>2016-07-16T22:19:55.112Z</time>
</trkpt>
<trkpt lat="-27.0564809" lon="152.7675520">
<ele>455.600</ele>
<time>2016-07-16T22:19:56.958Z</time>
</trkpt>
<trkpt lat="-27.0560856" lon="152.7676776">
<ele>454.486</ele>
<time>2016-07-16T22:19:58.932Z</time>
</trkpt>
<trkpt lat="-27.0554542" lon="152.7679180">
<ele>452.114</ele>
<time>2016-07-16T22:20:01.945Z</time>
</trkpt>
<trkpt lat="-27.0547986" lon="152.7682370">
<ele>448.915</ele>
<time>2016-07-16T22:20:05.014Z</time>
</trkpt>
<trkpt lat="-27.0543694" lon="152.7684326">
<ele>444.672</ele>
<time>2016-07-16T22:20:06.982Z</time>
</trkpt>
<trkpt lat="-27.0539353" lon="152.7685973">
<ele>439.407</ele>
<time>2016-07-16T22:20:08.949Z</time>
</trkpt>
<trkpt lat="-27.0532891" lon="152.7688107">
<ele>434.342</ele>
<time>2016-07-16T22:20:11.914Z</time>
</trkpt>
<trkpt lat="-27.0528647" lon="152.7688533">
<ele>430.646</ele>
<time>2016-07-16T22:20:13.855Z</time>
</trkpt>
<trkpt lat="-27.0522101" lon="152.7688630">
<ele>428.095</ele>
<time>2016-07-16T22:20:16.803Z</time>
</trkpt>
<trkpt lat="-27.0517515" lon="152.7689776">
<ele>426.076</ele>
<time>2016-07-16T22:20:18.845Z</time>
</trkpt>
<trkpt lat="-27.0513168" lon="152.7691230">
<ele>424.685</ele>
<time>2016-07-16T22:20:20.885Z</time>
</trkpt>
<trkpt lat="-27.0507871" lon="152.7693942">
<ele>425.018</ele>
<time>2016-07-16T22:20:23.768Z</time>
</trkpt>
<trkpt lat="-27.0504108" lon="152.7697447">
<ele>427.515</ele>
<time>2016-07-16T22:20:26.593Z</time>
</trkpt>
<trkpt lat="-27.0502310" lon="152.7700063">
<ele>430.591</ele>
<time>2016-07-16T22:20:28.542Z</time>
</trkpt>
<trkpt lat="-27.0500312" lon="152.7703673">
<ele>433.053</ele>
<time>2016-07-16T22:20:31.422Z</time>
</trkpt>
<trkpt lat="-27.0499538" lon="152.7705460">
<ele>434.925</ele>
<time>2016-07-16T22:20:33.108Z</time>
</trkpt>
<trkpt lat="-27.0498823" lon="152.7706915">
<ele>435.929</ele>
<time>2016-07-16T22:20:34.868Z</time>
</trkpt>
<trkpt lat="-27.0497180" lon="152.7708313">
<ele>436.026</ele>
<time>2016-07-16T22:20:37.538Z</time>
</trkpt>
<trkpt lat="-27.0493673" lon="152.7709530">
<ele>435.669</ele>
<time>2016-07-16T22:20:41.103Z</time>
</trkpt>
<trkpt lat="-27.0490570" lon="152.7710929">
<ele>435.822</ele>
<time>2016-07-16T22:20:43.294Z</time>
</trkpt>
<trkpt lat="-27.0485259" lon="152.7713492">
<ele>437.512</ele>
<time>2016-07-16T22:20:46.432Z</time>
</trkpt>
<trkpt lat="-27.0481552" lon="152.7715360">
<ele>440.248</ele>
<time>2016-07-16T22:20:48.434Z</time>
</trkpt>
<trkpt lat="-27.0475860" lon="152.7718330">
<ele>442.389</ele>
<time>2016-07-16T22:20:51.438Z</time>
</trkpt>
<trkpt lat="-27.0472033" lon="152.7720259">
<ele>442.954</ele>
<time>2016-07-16T22:20:53.433Z</time>
</trkpt>
<trkpt lat="-27.0468484" lon="152.7722176">
<ele>441.425</ele>
<time>2016-07-16T22:20:55.371Z</time>
</trkpt>
<trkpt lat="-27.0465411" lon="152.7724509">
<ele>437.595</ele>
<time>2016-07-16T22:20:57.329Z</time>
</trkpt>
<trkpt lat="-27.0463309" lon="152.7727482">
<ele>432.361</ele>
<time>2016-07-16T22:20:59.247Z</time>
</trkpt>
<trkpt lat="-27.0461651" lon="152.7732913">
<ele>427.232</ele>
<time>2016-07-16T22:21:02.258Z</time>
</trkpt>
<trkpt lat="-27.0461381" lon="152.7738126">
<ele>423.151</ele>
<time>2016-07-16T22:21:05.130Z</time>
</trkpt>
<trkpt lat="-27.0462499" lon="152.7741174">
<ele>419.372</ele>
<time>2016-07-16T22:21:07.054Z</time>
</trkpt>
<trkpt lat="-27.0463286" lon="152.7746404">
<ele>415.175</ele>
<time>2016-07-16T22:21:10.059Z</time>
</trkpt>
<trkpt lat="-27.0463639" lon="152.7751687">
<ele>411.473</ele>
<time>2016-07-16T22:21:13.003Z</time>
</trkpt>
<trkpt lat="-27.0463007" lon="152.7754912">
<ele>407.844</ele>
<time>2016-07-16T22:21:14.938Z</time>
</trkpt>
<trkpt lat="-27.0459957" lon="152.7757989">
<ele>402.803</ele>
<time>2016-07-16T22:21:17.865Z</time>
</trkpt>
<trkpt lat="-27.0457348" lon="152.7759054">
<ele>396.570</ele>
<time>2016-07-16T22:21:19.939Z</time>
</trkpt>
<trkpt lat="-27.0455736" lon="152.7761018">
<ele>390.738</ele>
<time>2016-07-16T22:21:21.787Z</time>
</trkpt>
<trkpt lat="-27.0455014" lon="152.7765041">
<ele>386.624</ele>
<time>2016-07-16T22:21:24.761Z</time>
</trkpt>
<trkpt lat="-27.0452450" lon="152.7768633">
<ele>383.480</ele>
<time>2016-07-16T22:21:28.037Z</time>
</trkpt>
<trkpt lat="-27.0447283" lon="152.7770610">
<ele>379.801</ele>
<time>2016-07-16T22:21:31.497Z</time>
</trkpt>
<trkpt lat="-27.0443661" lon="152.7772442">
<ele>376.080</ele>
<time>2016-07-16T22:21:33.566Z</time>
</trkpt>
<trkpt lat="-27.0439706" lon="152.7774121">
<ele>373.254</ele>
<time>2016-07-16T22:21:35.668Z</time>
</trkpt>
<trkpt lat="-27.0435884" lon="152.7775281">
<ele>370.986</ele>
<time>2016-07-16T22:21:37.619Z</time>
</trkpt>
<trkpt lat="-27.0429652" lon="152.7775586">
<ele>368.448</ele>
<time>2016-07-16T22:21:40.599Z</time>
</trkpt>
<trkpt lat="-27.0423093" lon="152.7774923">
<ele>365.223</ele>
<time>2016-07-16T22:21:43.626Z</time>
</trkpt>
<trkpt lat="-27.0418533" lon="152.7774741">
<ele>360.950</ele>
<time>2016-07-16T22:21:45.736Z</time>
</trkpt>
<trkpt lat="-27.0411988" lon="152.7774677">
<ele>355.218</ele>
<time>2016-07-16T22:21:48.815Z</time>
</trkpt>
<trkpt lat="-27.0407931" lon="152.7774124">
<ele>347.764</ele>
<time>2016-07-16T22:21:50.801Z</time>
</trkpt>
<trkpt lat="-27.0403945" lon="152.7773315">
<ele>339.624</ele>
<time>2016-07-16T22:21:52.853Z</time>
</trkpt>
<trkpt lat="-27.0400431" lon="152.7772934">
<ele>333.483</ele>
<time>2016-07-16T22:21:54.827Z</time>
</trkpt>
<trkpt lat="-27.0396037" lon="152.7772538">
<ele>331.506</ele>
<time>2016-07-16T22:21:57.665Z</time>
</trkpt>
<trkpt lat="-27.0392284" lon="152.7770603">
<ele>332.948</ele>
<time>2016-07-16T22:22:00.774Z</time>
</trkpt>
<trkpt lat="-27.0390180" lon="152.7769875">
<ele>334.786</ele>
<time>2016-07-16T22:22:02.502Z</time>
</trkpt>
<trkpt lat="-27.0386237" lon="152.7772425">
<ele>334.744</ele>
<time>2016-07-16T22:22:05.919Z</time>
</trkpt>
<trkpt lat="-27.0382030" lon="152.7772800">
<ele>332.469</ele>
<time>2016-07-16T22:22:08.871Z</time>
</trkpt>
<trkpt lat="-27.0378966" lon="152.7772472">
<ele>328.185</ele>
<time>2016-07-16T22:22:10.992Z</time>
</trkpt>
<trkpt lat="-27.0374900" lon="152.7773451">
<ele>322.831</ele>
<time>2016-07-16T22:22:13.913Z</time>
</trkpt>
<trkpt lat="-27.0370804" lon="152.7773243">
<ele>317.960</ele>
<time>2016-07-16T22:22:16.913Z</time>
</trkpt>
<trkpt lat="-27.0368149" lon="152.7772811">
<ele>313.923</ele>
<time>2016-07-16T22:22:18.913Z</time>
</trkpt>
<trkpt lat="-27.0364278" lon="152.7774440">
<ele>309.644</ele>
<time>2016-07-16T22:22:21.921Z</time>
</trkpt>
<trkpt lat="-27.0361523" lon="152.7773740">
<ele>303.546</ele>
<time>2016-07-16T22:22:23.895Z</time>
</trkpt>
<trkpt lat="-27.0356918" lon="152.7771323">
<ele>295.616</ele>
<time>2016-07-16T22:22:27.269Z</time>
</trkpt>
<trkpt lat="-27.0354059" lon="152.7769878">
<ele>287.607</ele>
<time>2016-07-16T22:22:29.402Z</time>
</trkpt>
<trkpt lat="-27.0351515" lon="152.7769445">
<ele>281.305</ele>
<time>2016-07-16T22:22:31.296Z</time>
</trkpt>
<trkpt lat="-27.0349834" lon="152.7767154">
<ele>276.690</ele>
<time>2016-07-16T22:22:33.442Z</time>
</trkpt>
<trkpt lat="-27.0347378" lon="152.7764642">
<ele>272.495</ele>
<time>2016-07-16T22:22:36.469Z</time>
</trkpt>
<trkpt lat="-27.0345432" lon="152.7764379">
<ele>267.797</ele>
<time>2016-07-16T22:22:38.221Z</time>
</trkpt>
<trkpt lat="-27.0341987" lon="152.7768193">
<ele>263.109</ele>
<time>2016-07-16T22:22:41.813Z</time>
</trkpt>
<trkpt lat="-27.0337776" lon="152.7771058">
<ele>258.329</ele>
<time>2016-07-16T22:22:44.919Z</time>
</trkpt>
<trkpt lat="-27.0333901" lon="152.7774263">
<ele>252.545</ele>
<time>2016-07-16T22:22:47.955Z</time>
</trkpt>
<trkpt lat="-27.0331506" lon="152.7776182">
<ele>245.792</ele>
<time>2016-07-16T22:22:49.960Z</time>
</trkpt>
<trkpt lat="-27.0329008" lon="152.7777396">
<ele>239.130</ele>
<time>2016-07-16T22:22:51.876Z</time>
</trkpt>
<trkpt lat="-27.0326879" lon="152.7779362">
<ele>233.251</ele>
<time>2016-07-16T22:22:53.759Z</time>
</trkpt>
<trkpt lat="-27.0324083" lon="152.7780830">
<ele>228.386</ele>
<time>2016-07-16T22:22:55.573Z</time>
</trkpt>
<trkpt lat="-27.0318342" lon="152.7781352">
<ele>224.578</ele>
<time>2016-07-16T22:22:58.657Z</time>
</trkpt>
<trkpt lat="-27.0312395" lon="152.7781895">
<ele>221.697</ele>
<time>2016-07-16T22:23:01.568Z</time>
</trkpt>
<trkpt lat="-27.0306759" lon="152.7785330">
<ele>218.541</ele>
<time>2016-07-16T22:23:04.494Z</time>
</trkpt>
<trkpt lat="-27.0302994" lon="152.7788508">
<ele>213.804</ele>
<time>2016-07-16T22:23:06.547Z</time>
</trkpt>
<trkpt lat="-27.0299326" lon="152.7791113">
<ele>207.812</ele>
<time>2016-07-16T22:23:08.462Z</time>
</trkpt>
<trkpt lat="-27.0295279" lon="152.7792913">
<ele>202.088</ele>
<time>2016-07-16T22:23:10.451Z</time>
</trkpt>
<trkpt lat="-27.0288992" lon="152.7792825">
<ele>198.082</ele>
<time>2016-07-16T22:23:13.445Z</time>
</trkpt>
<trkpt lat="-27.0284975" lon="152.7791754">
<ele>196.994</ele>
<time>2016-07-16T22:23:15.601Z</time>
</trkpt>
<trkpt lat="-27.0281566" lon="152.7791307">
<ele>198.572</ele>
<time>2016-07-16T22:23:17.507Z</time>
</trkpt>
<trkpt lat="-27.0278152" lon="152.7792159">
<ele>200.974</ele>
<time>2016-07-16T22:23:19.517Z</time>
</trkpt>
<trkpt lat="-27.0274904" lon="152.7793074">
<ele>203.520</ele>
<time>2016-07-16T22:23:21.562Z</time>
</trkpt>
<trkpt lat="-27.0270259" lon="152.7792632">
<ele>206.818</ele>
<time>2016-07-16T22:23:24.463Z</time>
</trkpt>
<trkpt lat="-27.0267857" lon="152.7789316">
<ele>210.547</ele>
<time>2016-07-16T22:23:26.643Z</time>
</trkpt>
<trkpt lat="-27.0265212" lon="152.7786014">
<ele>214.385</ele>
<time>2016-07-16T22:23:28.812Z</time>
</trkpt>
<trkpt lat="-27.0262561" lon="152.7783423">
<ele>218.951</ele>
<time>2016-07-16T22:23:30.997Z</time>
</trkpt>
<trkpt lat="-27.0260156" lon="152.7781652">
<ele>223.738</ele>
<time>2016-07-16T22:23:33.287Z</time>
</trkpt>
<trkpt lat="-27.0256954" lon="152.7781946">
<ele>226.949</ele>
<time>2016-07-16T22:23:36.167Z</time>
</trkpt>
<trkpt lat="-27.0255764" lon="152.7783934">
<ele>227.926</ele>
<time>2016-07-16T22:23:37.996Z</time>
</trkpt>
<trkpt lat="-27.0255669" lon="152.7788115">
<ele>227.617</ele>
<time>2016-07-16T22:23:40.937Z</time>
</trkpt>
<trkpt lat="-27.0255039" lon="152.7791165">
<ele>227.151</ele>
<time>2016-07-16T22:23:42.858Z</time>
</trkpt>
<trkpt lat="-27.0251405" lon="152.7794446">
<ele>227.109</ele>
<time>2016-07-16T22:23:45.886Z</time>
</trkpt>
<trkpt lat="-27.0248186" lon="152.7795224">
<ele>227.333</ele>
<time>2016-07-16T22:23:48.045Z</time>
</trkpt>
<trkpt lat="-27.0245347" lon="152.7794629">
<ele>227.316</ele>
<time>2016-07-16T22:23:50.215Z</time>
</trkpt>
<trkpt lat="-27.0243026" lon="152.7794700">
<ele>226.308</ele>
<time>2016-07-16T22:23:52.149Z</time>
</trkpt>
<trkpt lat="-27.0240161" lon="152.7796705">
<ele>223.489</ele>
<time>2016-07-16T22:23:54.758Z</time>
</trkpt>
<trkpt lat="-27.0239284" lon="152.7802323">
<ele>219.354</ele>
<time>2016-07-16T22:23:58.161Z</time>
</trkpt>
<trkpt lat="-27.0238172" lon="152.7805672">
<ele>215.793</ele>
<time>2016-07-16T22:24:00.111Z</time>
</trkpt>
<trkpt lat="-27.0235660" lon="152.7808058">
<ele>213.585</ele>
<time>2016-07-16T22:24:02.101Z</time>
</trkpt>
<trkpt lat="-27.0230763" lon="152.7809054">
<ele>211.920</ele>
<time>2016-07-16T22:24:04.869Z</time>
</trkpt>
<trkpt lat="-27.0224753" lon="152.7807275">
<ele>210.309</ele>
<time>2016-07-16T22:24:07.844Z</time>
</trkpt>
<trkpt lat="-27.0219330" lon="152.7805103">
<ele>209.014</ele>
<time>2016-07-16T22:24:10.184Z</time>
</trkpt>
<trkpt lat="-27.0210426" lon="152.7801337">
<ele>208.565</ele>
<time>2016-07-16T22:24:13.754Z</time>
</trkpt>
<trkpt lat="-27.0201170" lon="152.7797361">
<ele>209.594</ele>
<time>2016-07-16T22:24:17.145Z</time>
</trkpt>
<trkpt lat="-27.0195631" lon="152.7795315">
<ele>211.723</ele>
<time>2016-07-16T22:24:19.145Z</time>
</trkpt>
<trkpt lat="-27.0187868" lon="152.7792840">
<ele>212.498</ele>
<time>2016-07-16T22:24:21.956Z</time>
</trkpt>
<trkpt lat="-27.0179111" lon="152.7790556">
<ele>209.058</ele>
<time>2016-07-16T22:24:25.178Z</time>
</trkpt>
<trkpt lat="-27.0173712" lon="152.7790355">
<ele>202.421</ele>
<time>2016-07-16T22:24:27.205Z</time>
</trkpt>
<trkpt lat="-27.0166156" lon="152.7789234">
<ele>196.085</ele>
<time>2016-07-16T22:24:30.199Z</time>
</trkpt>
<trkpt lat="-27.0160977" lon="152.7788641">
<ele>190.835</ele>
<time>2016-07-16T22:24:32.262Z</time>
</trkpt>
<trkpt lat="-27.0153682" lon="152.7788230">
<ele>186.111</ele>
<time>2016-07-16T22:24:35.171Z</time>
</trkpt>
<trkpt lat="-27.0148620" lon="152.7788488">
<ele>182.389</ele>
<time>2016-07-16T22:24:37.201Z</time>
</trkpt>
<trkpt lat="-27.0141146" lon="152.7788635">
<ele>179.529</ele>
<time>2016-07-16T22:24:40.176Z</time>
</trkpt>
<trkpt lat="-27.0133759" lon="152.7787627">
<ele>177.367</ele>
<time>2016-07-16T22:24:43.072Z</time>
</trkpt>
<trkpt lat="-27.0128654" lon="152.7786935">
<ele>176.323</ele>
<time>2016-07-16T22:24:45.080Z</time>
</trkpt>
<trkpt lat="-27.0121079" lon="152.7785625">
<ele>176.199</ele>
<time>2016-07-16T22:24:48.138Z</time>
</trkpt>
<trkpt lat="-27.0116196" lon="152.7784884">
<ele>176.109</ele>
<time>2016-07-16T22:24:50.121Z</time>
</trkpt>
<trkpt lat="-27.0109063" lon="152.7783904">
<ele>175.422</ele>
<time>2016-07-16T22:24:52.977Z</time>
</trkpt>
<trkpt lat="-27.0103970" lon="152.7783711">
<ele>173.922</ele>
<time>2016-07-16T22:24:54.978Z</time>
</trkpt>
<trkpt lat="-27.0098840" lon="152.7783784">
<ele>171.849</ele>
<time>2016-07-16T22:24:56.994Z</time>
</trkpt>
<trkpt lat="-27.0091397" lon="152.7784263">
<ele>169.966</ele>
<time>2016-07-16T22:24:59.946Z</time>
</trkpt>
<trkpt lat="-27.0086403" lon="152.7784954">
<ele>168.573</ele>
<time>2016-07-16T22:25:01.937Z</time>
</trkpt>
<trkpt lat="-27.0078997" lon="152.7786819">
<ele>166.309</ele>
<time>2016-07-16T22:25:04.939Z</time>
</trkpt>
<trkpt lat="-27.0074324" lon="152.7788503">
<ele>162.548</ele>
<time>2016-07-16T22:25:06.879Z</time>
</trkpt>
<trkpt lat="-27.0069698" lon="152.7790566">
<ele>158.905</ele>
<time>2016-07-16T22:25:08.845Z</time>
</trkpt>
<trkpt lat="-27.0065356" lon="152.7793095">
<ele>156.774</ele>
<time>2016-07-16T22:25:10.771Z</time>
</trkpt>
<trkpt lat="-27.0061106" lon="152.7795986">
<ele>155.796</ele>
<time>2016-07-16T22:25:12.721Z</time>
</trkpt>
<trkpt lat="-27.0055011" lon="152.7801010">
<ele>155.378</ele>
<time>2016-07-16T22:25:15.671Z</time>
</trkpt>
<trkpt lat="-27.0051123" lon="152.7804871">
<ele>155.238</ele>
<time>2016-07-16T22:25:17.688Z</time>
</trkpt>
<trkpt lat="-27.0047613" lon="152.7808899">
<ele>155.229</ele>
<time>2016-07-16T22:25:19.602Z</time>
</trkpt>
<trkpt lat="-27.0042713" lon="152.7815815">
<ele>154.827</ele>
<time>2016-07-16T22:25:22.371Z</time>
</trkpt>
<trkpt lat="-27.0037948" lon="152.7824112">
<ele>153.744</ele>
<time>2016-07-16T22:25:25.387Z</time>
</trkpt>
<trkpt lat="-27.0034804" lon="152.7829474">
<ele>152.977</ele>
<time>2016-07-16T22:25:27.514Z</time>
</trkpt>
<trkpt lat="-27.0031994" lon="152.7834269">
<ele>153.367</ele>
<time>2016-07-16T22:25:29.630Z</time>
</trkpt>
<trkpt lat="-27.0029410" lon="152.7838553">
<ele>153.450</ele>
<time>2016-07-16T22:25:31.708Z</time>
</trkpt>
<trkpt lat="-27.0027091" lon="152.7842480">
<ele>151.295</ele>
<time>2016-07-16T22:25:33.675Z</time>
</trkpt>
<trkpt lat="-27.0023606" lon="152.7848335">
<ele>147.494</ele>
<time>2016-07-16T22:25:36.688Z</time>
</trkpt>
<trkpt lat="-27.0020815" lon="152.7854288">
<ele>144.001</ele>
<time>2016-07-16T22:25:39.585Z</time>
</trkpt>
<trkpt lat="-27.0019324" lon="152.7858588">
<ele>141.584</ele>
<time>2016-07-16T22:25:41.595Z</time>
</trkpt>
<trkpt lat="-27.0018077" lon="152.7862883">
<ele>140.137</ele>
<time>2016-07-16T22:25:43.586Z</time>
</trkpt>
<trkpt lat="-27.0016794" lon="152.7869269">
<ele>139.436</ele>
<time>2016-07-16T22:25:46.492Z</time>
</trkpt>
<trkpt lat="-27.0016019" lon="152.7873699">
<ele>138.842</ele>
<time>2016-07-16T22:25:48.498Z</time>
</trkpt>
<trkpt lat="-27.0015779" lon="152.7878069">
<ele>137.971</ele>
<time>2016-07-16T22:25:50.436Z</time>
</trkpt>
<trkpt lat="-27.0015171" lon="152.7884734">
<ele>137.251</ele>
<time>2016-07-16T22:25:53.351Z</time>
</trkpt>
<trkpt lat="-27.0014459" lon="152.7891498">
<ele>137.400</ele>
<time>2016-07-16T22:25:56.257Z</time>
</trkpt>
<trkpt lat="-27.0013780" lon="152.7896073">
<ele>138.437</ele>
<time>2016-07-16T22:25:58.220Z</time>
</trkpt>
<trkpt lat="-27.0013322" lon="152.7903145">
<ele>139.578</ele>
<time>2016-07-16T22:26:01.202Z</time>
</trkpt>
<trkpt lat="-27.0012564" lon="152.7910233">
<ele>140.199</ele>
<time>2016-07-16T22:26:04.212Z</time>
</trkpt>
<trkpt lat="-27.0011203" lon="152.7917041">
<ele>140.384</ele>
<time>2016-07-16T22:26:07.192Z</time>
</trkpt>
<trkpt lat="-27.0009568" lon="152.7921271">
<ele>140.540</ele>
<time>2016-07-16T22:26:09.162Z</time>
</trkpt>
<trkpt lat="-27.0007493" lon="152.7925343">
<ele>141.109</ele>
<time>2016-07-16T22:26:11.147Z</time>
</trkpt>
<trkpt lat="-27.0003099" lon="152.7930386">
<ele>142.199</ele>
<time>2016-07-16T22:26:14.113Z</time>
</trkpt>
<trkpt lat="-26.9999605" lon="152.7933242">
<ele>143.830</ele>
<time>2016-07-16T22:26:16.134Z</time>
</trkpt>
<trkpt lat="-26.9995786" lon="152.7935425">
<ele>145.793</ele>
<time>2016-07-16T22:26:18.137Z</time>
</trkpt>
<trkpt lat="-26.9991781" lon="152.7936937">
<ele>147.333</ele>
<time>2016-07-16T22:26:20.056Z</time>
</trkpt>
<trkpt lat="-26.9985264" lon="152.7938321">
<ele>148.046</ele>
<time>2016-07-16T22:26:22.938Z</time>
</trkpt>
<trkpt lat="-26.9980508" lon="152.7939053">
<ele>148.378</ele>
<time>2016-07-16T22:26:24.905Z</time>
</trkpt>
<trkpt lat="-26.9975684" lon="152.7939810">
<ele>149.063</ele>
<time>2016-07-16T22:26:26.934Z</time>
</trkpt>
<trkpt lat="-26.9968786" lon="152.7940824">
<ele>150.264</ele>
<time>2016-07-16T22:26:29.882Z</time>
</trkpt>
<trkpt lat="-26.9964204" lon="152.7941492">
<ele>150.757</ele>
<time>2016-07-16T22:26:31.749Z</time>
</trkpt>
<trkpt lat="-26.9956546" lon="152.7942679">
<ele>149.726</ele>
<time>2016-07-16T22:26:34.676Z</time>
</trkpt>
<trkpt lat="-26.9950725" lon="152.7943567">
<ele>148.602</ele>
<time>2016-07-16T22:26:36.665Z</time>
</trkpt>
<trkpt lat="-26.9944563" lon="152.7944445">
<ele>148.726</ele>
<time>2016-07-16T22:26:38.718Z</time>
</trkpt>
<trkpt lat="-26.9935737" lon="152.7945701">
<ele>147.954</ele>
<time>2016-07-16T22:26:41.747Z</time>
</trkpt>
<trkpt lat="-26.9927697" lon="152.7946937">
<ele>144.468</ele>
<time>2016-07-16T22:26:44.607Z</time>
</trkpt>
<trkpt lat="-26.9922013" lon="152.7947795">
<ele>141.288</ele>
<time>2016-07-16T22:26:46.605Z</time>
</trkpt>
<trkpt lat="-26.9916338" lon="152.7948702">
<ele>141.321</ele>
<time>2016-07-16T22:26:48.601Z</time>
</trkpt>
<trkpt lat="-26.9910848" lon="152.7949618">
<ele>142.352</ele>
<time>2016-07-16T22:26:50.609Z</time>
</trkpt>
<trkpt lat="-26.9903302" lon="152.7951699">
<ele>141.056</ele>
<time>2016-07-16T22:26:53.469Z</time>
</trkpt>
<trkpt lat="-26.9895741" lon="152.7955201">
<ele>137.370</ele>
<time>2016-07-16T22:26:56.489Z</time>
</trkpt>
<trkpt lat="-26.9891044" lon="152.7957873">
<ele>133.541</ele>
<time>2016-07-16T22:26:58.514Z</time>
</trkpt>
<trkpt lat="-26.9885251" lon="152.7962543">
<ele>131.328</ele>
<time>2016-07-16T22:27:01.441Z</time>
</trkpt>
<trkpt lat="-26.9882053" lon="152.7965639">
<ele>130.960</ele>
<time>2016-07-16T22:27:03.409Z</time>
</trkpt>
<trkpt lat="-26.9879403" lon="152.7968636">
<ele>131.596</ele>
<time>2016-07-16T22:27:05.355Z</time>
</trkpt>
<trkpt lat="-26.9876975" lon="152.7971441">
<ele>132.234</ele>
<time>2016-07-16T22:27:07.381Z</time>
</trkpt>
<trkpt lat="-26.9874851" lon="152.7973729">
<ele>132.489</ele>
<time>2016-07-16T22:27:09.447Z</time>
</trkpt>
<trkpt lat="-26.9873430" lon="152.7975407">
<ele>132.271</ele>
<time>2016-07-16T22:27:11.624Z</time>
</trkpt>
<trkpt lat="-26.9872265" lon="152.7976524">
<ele>131.404</ele>
<time>2016-07-16T22:27:14.063Z</time>
</trkpt>
<trkpt lat="-26.9871221" lon="152.7976416">
<ele>130.086</ele>
<time>2016-07-16T22:27:16.810Z</time>
</trkpt>
<trkpt lat="-26.9870340" lon="152.7975657">
<ele>131.191</ele>
<time>2016-07-16T22:27:21.000Z</time>
</trkpt>
<trkpt lat="-26.9870340" lon="152.7975657">
<ele>136.399</ele>
<time>2016-07-16T22:27:25.000Z</time>
</trkpt>
<trkpt lat="-26.9870340" lon="152.7975657">
<ele>141.028</ele>
<time>2016-07-16T22:27:45.860Z</time>
</trkpt>
<trkpt lat="-26.9868973" lon="152.7973887">
<ele>140.929</ele>
<time>2016-07-16T22:27:53.410Z</time>
</trkpt>
<trkpt lat="-26.9867679" lon="152.7973363">
<ele>140.293</ele>
<time>2016-07-16T22:27:55.926Z</time>
</trkpt>
<trkpt lat="-26.9866398" lon="152.7972503">
<ele>143.346</ele>
<time>2016-07-16T22:27:57.592Z</time>
</trkpt>
<trkpt lat="-26.9863581" lon="152.7969976">
<ele>147.713</ele>
<time>2016-07-16T22:28:00.968Z</time>
</trkpt>
<trkpt lat="-26.9861122" lon="152.7967775">
<ele>150.226</ele>
<time>2016-07-16T22:28:03.304Z</time>
</trkpt>
<trkpt lat="-26.9856484" lon="152.7963912">
<ele>151.062</ele>
<time>2016-07-16T22:28:06.922Z</time>
</trkpt>
<trkpt lat="-26.9852956" lon="152.7961204">
<ele>151.091</ele>
<time>2016-07-16T22:28:09.271Z</time>
</trkpt>
<trkpt lat="-26.9848076" lon="152.7957941">
<ele>150.737</ele>
<time>2016-07-16T22:28:12.247Z</time>
</trkpt>
<trkpt lat="-26.9842950" lon="152.7955115">
<ele>150.191</ele>
<time>2016-07-16T22:28:15.168Z</time>
</trkpt>
<trkpt lat="-26.9839377" lon="152.7953424">
<ele>149.736</ele>
<time>2016-07-16T22:28:17.125Z</time>
</trkpt>
<trkpt lat="-26.9835705" lon="152.7951751">
<ele>149.504</ele>
<time>2016-07-16T22:28:19.110Z</time>
</trkpt>
<trkpt lat="-26.9830194" lon="152.7949476">
<ele>149.027</ele>
<time>2016-07-16T22:28:21.948Z</time>
</trkpt>
<trkpt lat="-26.9824205" lon="152.7947073">
<ele>147.568</ele>
<time>2016-07-16T22:28:24.843Z</time>
</trkpt>
<trkpt lat="-26.9818000" lon="152.7944164">
<ele>145.365</ele>
<time>2016-07-16T22:28:27.879Z</time>
</trkpt>
<trkpt lat="-26.9813989" lon="152.7942051">
<ele>143.503</ele>
<time>2016-07-16T22:28:29.926Z</time>
</trkpt>
<trkpt lat="-26.9808476" lon="152.7938902">
<ele>142.423</ele>
<time>2016-07-16T22:28:32.913Z</time>
</trkpt>
<trkpt lat="-26.9804882" lon="152.7936649">
<ele>141.017</ele>
<time>2016-07-16T22:28:34.949Z</time>
</trkpt>
<trkpt lat="-26.9798045" lon="152.7931994">
<ele>138.580</ele>
<time>2016-07-16T22:28:38.886Z</time>
</trkpt>
<trkpt lat="-26.9792903" lon="152.7928481">
<ele>136.291</ele>
<time>2016-07-16T22:28:41.840Z</time>
</trkpt>
<trkpt lat="-26.9789401" lon="152.7926061">
<ele>135.549</ele>
<time>2016-07-16T22:28:43.893Z</time>
</trkpt>
<trkpt lat="-26.9784425" lon="152.7922535">
<ele>136.143</ele>
<time>2016-07-16T22:28:46.930Z</time>
</trkpt>
<trkpt lat="-26.9781185" lon="152.7920165">
<ele>137.124</ele>
<time>2016-07-16T22:28:48.890Z</time>
</trkpt>
<trkpt lat="-26.9777836" lon="152.7917785">
<ele>137.794</ele>
<time>2016-07-16T22:28:50.855Z</time>
</trkpt>
<trkpt lat="-26.9772651" lon="152.7914129">
<ele>138.244</ele>
<time>2016-07-16T22:28:53.751Z</time>
</trkpt>
<trkpt lat="-26.9767253" lon="152.7910368">
<ele>138.892</ele>
<time>2016-07-16T22:28:56.675Z</time>
</trkpt>
<trkpt lat="-26.9761626" lon="152.7906466">
<ele>139.746</ele>
<time>2016-07-16T22:28:59.713Z</time>
</trkpt>
<trkpt lat="-26.9756188" lon="152.7902695">
<ele>140.190</ele>
<time>2016-07-16T22:29:02.751Z</time>
</trkpt>
<trkpt lat="-26.9751081" lon="152.7899014">
<ele>139.662</ele>
<time>2016-07-16T22:29:05.719Z</time>
</trkpt>
<trkpt lat="-26.9747694" lon="152.7896625">
<ele>137.978</ele>
<time>2016-07-16T22:29:07.672Z</time>
</trkpt>
<trkpt lat="-26.9742402" lon="152.7892962">
<ele>135.728</ele>
<time>2016-07-16T22:29:10.677Z</time>
</trkpt>
<trkpt lat="-26.9738810" lon="152.7890490">
<ele>134.245</ele>
<time>2016-07-16T22:29:12.696Z</time>
</trkpt>
<trkpt lat="-26.9735155" lon="152.7887956">
<ele>134.130</ele>
<time>2016-07-16T22:29:14.788Z</time>
</trkpt>
<trkpt lat="-26.9731719" lon="152.7885544">
<ele>134.613</ele>
<time>2016-07-16T22:29:16.805Z</time>
</trkpt>
<trkpt lat="-26.9726734" lon="152.7882233">
<ele>134.897</ele>
<time>2016-07-16T22:29:19.726Z</time>
</trkpt>
<trkpt lat="-26.9723381" lon="152.7879886">
<ele>134.904</ele>
<time>2016-07-16T22:29:21.698Z</time>
</trkpt>
<trkpt lat="-26.9718297" lon="152.7876266">
<ele>134.953</ele>
<time>2016-07-16T22:29:24.708Z</time>
</trkpt>
<trkpt lat="-26.9714915" lon="152.7873813">
<ele>135.285</ele>
<time>2016-07-16T22:29:26.756Z</time>
</trkpt>
<trkpt lat="-26.9710134" lon="152.7870185">
<ele>135.769</ele>
<time>2016-07-16T22:29:29.762Z</time>
</trkpt>
<trkpt lat="-26.9707094" lon="152.7867673">
<ele>136.065</ele>
<time>2016-07-16T22:29:31.740Z</time>
</trkpt>
<trkpt lat="-26.9702505" lon="152.7863711">
<ele>135.959</ele>
<time>2016-07-16T22:29:34.682Z</time>
</trkpt>
<trkpt lat="-26.9697749" lon="152.7859447">
<ele>135.662</ele>
<time>2016-07-16T22:29:37.639Z</time>
</trkpt>
<trkpt lat="-26.9692833" lon="152.7855064">
<ele>135.858</ele>
<time>2016-07-16T22:29:40.711Z</time>
</trkpt>
<trkpt lat="-26.9688033" lon="152.7850873">
<ele>136.755</ele>
<time>2016-07-16T22:29:43.764Z</time>
</trkpt>
<trkpt lat="-26.9683390" lon="152.7846750">
<ele>137.666</ele>
<time>2016-07-16T22:29:46.658Z</time>
</trkpt>
<trkpt lat="-26.9678601" lon="152.7842393">
<ele>138.021</ele>
<time>2016-07-16T22:29:49.559Z</time>
</trkpt>
<trkpt lat="-26.9675227" lon="152.7839407">
<ele>137.937</ele>
<time>2016-07-16T22:29:51.575Z</time>
</trkpt>
<trkpt lat="-26.9671896" lon="152.7836479">
<ele>137.666</ele>
<time>2016-07-16T22:29:53.604Z</time>
</trkpt>
<trkpt lat="-26.9667038" lon="152.7832282">
<ele>137.003</ele>
<time>2016-07-16T22:29:56.639Z</time>
</trkpt>
<trkpt lat="-26.9662266" lon="152.7828360">
<ele>135.398</ele>
<time>2016-07-16T22:29:59.677Z</time>
</trkpt>
<trkpt lat="-26.9659120" lon="152.7825839">
<ele>132.842</ele>
<time>2016-07-16T22:30:01.779Z</time>
</trkpt>
<trkpt lat="-26.9656037" lon="152.7823664">
<ele>129.822</ele>
<time>2016-07-16T22:30:03.840Z</time>
</trkpt>
<trkpt lat="-26.9651536" lon="152.7820718">
<ele>126.898</ele>
<time>2016-07-16T22:30:07.097Z</time>
</trkpt>
<trkpt lat="-26.9647420" lon="152.7818260">
<ele>124.008</ele>
<time>2016-07-16T22:30:10.448Z</time>
</trkpt>
<trkpt lat="-26.9644991" lon="152.7816960">
<ele>120.631</ele>
<time>2016-07-16T22:30:12.488Z</time>
</trkpt>
<trkpt lat="-26.9642715" lon="152.7815621">
<ele>117.167</ele>
<time>2016-07-16T22:30:14.393Z</time>
</trkpt>
<trkpt lat="-26.9640281" lon="152.7814259">
<ele>114.718</ele>
<time>2016-07-16T22:30:16.378Z</time>
</trkpt>
<trkpt lat="-26.9637922" lon="152.7812891">
<ele>113.579</ele>
<time>2016-07-16T22:30:18.314Z</time>
</trkpt>
<trkpt lat="-26.9634323" lon="152.7810835">
<ele>113.588</ele>
<time>2016-07-16T22:30:21.293Z</time>
</trkpt>
<trkpt lat="-26.9631908" lon="152.7809425">
<ele>114.369</ele>
<time>2016-07-16T22:30:23.312Z</time>
</trkpt>
<trkpt lat="-26.9629451" lon="152.7808047">
<ele>115.318</ele>
<time>2016-07-16T22:30:25.335Z</time>
</trkpt>
<trkpt lat="-26.9627073" lon="152.7806692">
<ele>116.246</ele>
<time>2016-07-16T22:30:27.279Z</time>
</trkpt>
<trkpt lat="-26.9623408" lon="152.7804675">
<ele>117.297</ele>
<time>2016-07-16T22:30:30.060Z</time>
</trkpt>
<trkpt lat="-26.9620802" lon="152.7803072">
<ele>118.354</ele>
<time>2016-07-16T22:30:32.002Z</time>
</trkpt>
<trkpt lat="-26.9616819" lon="152.7800635">
<ele>119.543</ele>
<time>2016-07-16T22:30:34.865Z</time>
</trkpt>
<trkpt lat="-26.9614003" lon="152.7799006">
<ele>121.195</ele>
<time>2016-07-16T22:30:36.860Z</time>
</trkpt>
<trkpt lat="-26.9609632" lon="152.7796827">
<ele>122.962</ele>
<time>2016-07-16T22:30:39.845Z</time>
</trkpt>
<trkpt lat="-26.9606617" lon="152.7795470">
<ele>124.334</ele>
<time>2016-07-16T22:30:41.849Z</time>
</trkpt>
<trkpt lat="-26.9603444" lon="152.7794463">
<ele>125.324</ele>
<time>2016-07-16T22:30:43.877Z</time>
</trkpt>
<trkpt lat="-26.9598589" lon="152.7792938">
<ele>126.067</ele>
<time>2016-07-16T22:30:47.055Z</time>
</trkpt>
<trkpt lat="-26.9595524" lon="152.7791924">
<ele>126.563</ele>
<time>2016-07-16T22:30:49.111Z</time>
</trkpt>
<trkpt lat="-26.9591017" lon="152.7790587">
<ele>126.841</ele>
<time>2016-07-16T22:30:52.152Z</time>
</trkpt>
<trkpt lat="-26.9586655" lon="152.7789349">
<ele>126.879</ele>
<time>2016-07-16T22:30:55.090Z</time>
</trkpt>
<trkpt lat="-26.9582251" lon="152.7788227">
<ele>126.674</ele>
<time>2016-07-16T22:30:57.981Z</time>
</trkpt>
<trkpt lat="-26.9577590" lon="152.7787042">
<ele>126.343</ele>
<time>2016-07-16T22:31:01.029Z</time>
</trkpt>
<trkpt lat="-26.9573057" lon="152.7785810">
<ele>126.268</ele>
<time>2016-07-16T22:31:04.181Z</time>
</trkpt>
<trkpt lat="-26.9570147" lon="152.7785054">
<ele>126.638</ele>
<time>2016-07-16T22:31:06.333Z</time>
</trkpt>
<trkpt lat="-26.9566174" lon="152.7784193">
<ele>127.092</ele>
<time>2016-07-16T22:31:09.651Z</time>
</trkpt>
<trkpt lat="-26.9563847" lon="152.7783439">
<ele>127.164</ele>
<time>2016-07-16T22:31:11.708Z</time>
</trkpt>
<trkpt lat="-26.9560547" lon="152.7782553">
<ele>126.640</ele>
<time>2016-07-16T22:31:14.488Z</time>
</trkpt>
<trkpt lat="-26.9557033" lon="152.7781692">
<ele>125.731</ele>
<time>2016-07-16T22:31:17.148Z</time>
</trkpt>
<trkpt lat="-26.9552994" lon="152.7780330">
<ele>125.170</ele>
<time>2016-07-16T22:31:20.075Z</time>
</trkpt>
<trkpt lat="-26.9550187" lon="152.7779349">
<ele>125.329</ele>
<time>2016-07-16T22:31:22.125Z</time>
</trkpt>
<trkpt lat="-26.9546052" lon="152.7778085">
<ele>125.699</ele>
<time>2016-07-16T22:31:25.265Z</time>
</trkpt>
<trkpt lat="-26.9543441" lon="152.7777201">
<ele>125.680</ele>
<time>2016-07-16T22:31:27.354Z</time>
</trkpt>
<trkpt lat="-26.9539702" lon="152.7776025">
<ele>125.259</ele>
<time>2016-07-16T22:31:30.445Z</time>
</trkpt>
<trkpt lat="-26.9536110" lon="152.7775004">
<ele>124.667</ele>
<time>2016-07-16T22:31:33.219Z</time>
</trkpt>
<trkpt lat="-26.9533529" lon="152.7774266">
<ele>124.092</ele>
<time>2016-07-16T22:31:35.097Z</time>
</trkpt>
<trkpt lat="-26.9529213" lon="152.7772857">
<ele>123.717</ele>
<time>2016-07-16T22:31:37.971Z</time>
</trkpt>
<trkpt lat="-26.9526319" lon="152.7771773">
<ele>123.687</ele>
<time>2016-07-16T22:31:39.846Z</time>
</trkpt>
<trkpt lat="-26.9523283" lon="152.7770698">
<ele>123.928</ele>
<time>2016-07-16T22:31:41.771Z</time>
</trkpt>
<trkpt lat="-26.9518640" lon="152.7769008">
<ele>124.161</ele>
<time>2016-07-16T22:31:44.660Z</time>
</trkpt>
<trkpt lat="-26.9513725" lon="152.7767517">
<ele>124.016</ele>
<time>2016-07-16T22:31:47.680Z</time>
</trkpt>
<trkpt lat="-26.9508950" lon="152.7766000">
<ele>123.297</ele>
<time>2016-07-16T22:31:50.777Z</time>
</trkpt>
<trkpt lat="-26.9504521" lon="152.7764552">
<ele>122.065</ele>
<time>2016-07-16T22:31:53.769Z</time>
</trkpt>
<trkpt lat="-26.9501765" lon="152.7763241">
<ele>120.498</ele>
<time>2016-07-16T22:31:55.675Z</time>
</trkpt>
<trkpt lat="-26.9499106" lon="152.7761304">
<ele>118.772</ele>
<time>2016-07-16T22:31:57.646Z</time>
</trkpt>
<trkpt lat="-26.9496811" lon="152.7758792">
<ele>117.247</ele>
<time>2016-07-16T22:31:59.612Z</time>
</trkpt>
<trkpt lat="-26.9493499" lon="152.7754698">
<ele>116.206</ele>
<time>2016-07-16T22:32:02.689Z</time>
</trkpt>
<trkpt lat="-26.9491394" lon="152.7751984">
<ele>115.617</ele>
<time>2016-07-16T22:32:04.769Z</time>
</trkpt>
<trkpt lat="-26.9488977" lon="152.7747809">
<ele>115.177</ele>
<time>2016-07-16T22:32:07.700Z</time>
</trkpt>
<trkpt lat="-26.9488338" lon="152.7744645">
<ele>114.494</ele>
<time>2016-07-16T22:32:09.528Z</time>
</trkpt>
<trkpt lat="-26.9487583" lon="152.7739320">
<ele>113.383</ele>
<time>2016-07-16T22:32:12.205Z</time>
</trkpt>
<trkpt lat="-26.9487134" lon="152.7734939">
<ele>112.194</ele>
<time>2016-07-16T22:32:14.034Z</time>
</trkpt>
<trkpt lat="-26.9486174" lon="152.7727302">
<ele>111.811</ele>
<time>2016-07-16T22:32:16.957Z</time>
</trkpt>
<trkpt lat="-26.9485459" lon="152.7721537">
<ele>113.295</ele>
<time>2016-07-16T22:32:19.037Z</time>
</trkpt>
<trkpt lat="-26.9484427" lon="152.7713285">
<ele>116.376</ele>
<time>2016-07-16T22:32:22.147Z</time>
</trkpt>
<trkpt lat="-26.9483774" lon="152.7708452">
<ele>119.257</ele>
<time>2016-07-16T22:32:24.100Z</time>
</trkpt>
<trkpt lat="-26.9482441" lon="152.7701439">
<ele>120.071</ele>
<time>2016-07-16T22:32:26.831Z</time>
</trkpt>
<trkpt lat="-26.9480227" lon="152.7693373">
<ele>118.711</ele>
<time>2016-07-16T22:32:29.790Z</time>
</trkpt>
<trkpt lat="-26.9477666" lon="152.7684742">
<ele>117.790</ele>
<time>2016-07-16T22:32:32.817Z</time>
</trkpt>
<trkpt lat="-26.9475383" lon="152.7676008">
<ele>119.360</ele>
<time>2016-07-16T22:32:35.867Z</time>
</trkpt>
<trkpt lat="-26.9474623" lon="152.7673222">
<ele>121.956</ele>
<time>2016-07-16T22:32:36.869Z</time>
</trkpt>
<trkpt lat="-26.9471771" lon="152.7661935">
<ele>123.340</ele>
<time>2016-07-16T22:32:40.950Z</time>
</trkpt>
<trkpt lat="-26.9470668" lon="152.7656749">
<ele>123.005</ele>
<time>2016-07-16T22:32:42.887Z</time>
</trkpt>
<trkpt lat="-26.9468584" lon="152.7648897">
<ele>121.188</ele>
<time>2016-07-16T22:32:45.945Z</time>
</trkpt>
<trkpt lat="-26.9466832" lon="152.7641482">
<ele>118.627</ele>
<time>2016-07-16T22:32:48.892Z</time>
</trkpt>
<trkpt lat="-26.9466230" lon="152.7636317">
<ele>116.502</ele>
<time>2016-07-16T22:32:50.857Z</time>
</trkpt>
<trkpt lat="-26.9466644" lon="152.7628385">
<ele>115.473</ele>
<time>2016-07-16T22:32:53.770Z</time>
</trkpt>
<trkpt lat="-26.9467748" lon="152.7622965">
<ele>115.474</ele>
<time>2016-07-16T22:32:55.706Z</time>
</trkpt>
<trkpt lat="-26.9470909" lon="152.7614834">
<ele>116.252</ele>
<time>2016-07-16T22:32:58.728Z</time>
</trkpt>
<trkpt lat="-26.9475605" lon="152.7607646">
<ele>117.425</ele>
<time>2016-07-16T22:33:01.645Z</time>
</trkpt>
<trkpt lat="-26.9481533" lon="152.7600803">
<ele>118.784</ele>
<time>2016-07-16T22:33:04.696Z</time>
</trkpt>
<trkpt lat="-26.9485392" lon="152.7596541">
<ele>120.072</ele>
<time>2016-07-16T22:33:06.777Z</time>
</trkpt>
<trkpt lat="-26.9490632" lon="152.7590943">
<ele>120.696</ele>
<time>2016-07-16T22:33:09.763Z</time>
</trkpt>
<trkpt lat="-26.9495395" lon="152.7585671">
<ele>119.484</ele>
<time>2016-07-16T22:33:12.724Z</time>
</trkpt>
<trkpt lat="-26.9498890" lon="152.7579530">
<ele>116.101</ele>
<time>2016-07-16T22:33:15.583Z</time>
</trkpt>
<trkpt lat="-26.9500486" lon="152.7574375">
<ele>112.437</ele>
<time>2016-07-16T22:33:17.475Z</time>
</trkpt>
<trkpt lat="-26.9502577" lon="152.7565232">
<ele>110.749</ele>
<time>2016-07-16T22:33:20.471Z</time>
</trkpt>
<trkpt lat="-26.9504080" lon="152.7558457">
<ele>112.356</ele>
<time>2016-07-16T22:33:22.467Z</time>
</trkpt>
<trkpt lat="-26.9505723" lon="152.7551363">
<ele>117.339</ele>
<time>2016-07-16T22:33:24.554Z</time>
</trkpt>
<trkpt lat="-26.9508086" lon="152.7541621">
<ele>123.185</ele>
<time>2016-07-16T22:33:27.545Z</time>
</trkpt>
<trkpt lat="-26.9509778" lon="152.7535703">
<ele>126.384</ele>
<time>2016-07-16T22:33:29.510Z</time>
</trkpt>
<trkpt lat="-26.9511814" lon="152.7530195">
<ele>125.852</ele>
<time>2016-07-16T22:33:31.432Z</time>
</trkpt>
<trkpt lat="-26.9515180" lon="152.7521689">
<ele>123.392</ele>
<time>2016-07-16T22:33:34.458Z</time>
</trkpt>
<trkpt lat="-26.9518638" lon="152.7513362">
<ele>121.303</ele>
<time>2016-07-16T22:33:37.528Z</time>
</trkpt>
<trkpt lat="-26.9520718" lon="152.7508239">
<ele>120.398</ele>
<time>2016-07-16T22:33:39.532Z</time>
</trkpt>
<trkpt lat="-26.9522782" lon="152.7503447">
<ele>120.306</ele>
<time>2016-07-16T22:33:41.494Z</time>
</trkpt>
<trkpt lat="-26.9524794" lon="152.7498550">
<ele>120.483</ele>
<time>2016-07-16T22:33:43.614Z</time>
</trkpt>
<trkpt lat="-26.9526704" lon="152.7491788">
<ele>120.634</ele>
<time>2016-07-16T22:33:46.564Z</time>
</trkpt>
<trkpt lat="-26.9526991" lon="152.7487156">
<ele>120.200</ele>
<time>2016-07-16T22:33:48.557Z</time>
</trkpt>
<trkpt lat="-26.9526183" lon="152.7482509">
<ele>118.795</ele>
<time>2016-07-16T22:33:50.479Z</time>
</trkpt>
<trkpt lat="-26.9523418" lon="152.7475430">
<ele>117.250</ele>
<time>2016-07-16T22:33:53.462Z</time>
</trkpt>
<trkpt lat="-26.9519432" lon="152.7468644">
<ele>116.378</ele>
<time>2016-07-16T22:33:56.368Z</time>
</trkpt>
<trkpt lat="-26.9513401" lon="152.7462262">
<ele>116.110</ele>
<time>2016-07-16T22:33:59.436Z</time>
</trkpt>
<trkpt lat="-26.9506783" lon="152.7456232">
<ele>117.040</ele>
<time>2016-07-16T22:34:02.471Z</time>
</trkpt>
<trkpt lat="-26.9501120" lon="152.7449368">
<ele>119.353</ele>
<time>2016-07-16T22:34:05.413Z</time>
</trkpt>
<trkpt lat="-26.9496349" lon="152.7441273">
<ele>121.494</ele>
<time>2016-07-16T22:34:08.360Z</time>
</trkpt>
<trkpt lat="-26.9494031" lon="152.7434855">
<ele>122.311</ele>
<time>2016-07-16T22:34:10.330Z</time>
</trkpt>
<trkpt lat="-26.9491404" lon="152.7424223">
<ele>122.925</ele>
<time>2016-07-16T22:34:13.404Z</time>
</trkpt>
<trkpt lat="-26.9489093" lon="152.7413887">
<ele>124.417</ele>
<time>2016-07-16T22:34:16.397Z</time>
</trkpt>
<trkpt lat="-26.9488054" lon="152.7407111">
<ele>125.653</ele>
<time>2016-07-16T22:34:18.402Z</time>
</trkpt>
<trkpt lat="-26.9487655" lon="152.7403771">
<ele>124.930</ele>
<time>2016-07-16T22:34:19.418Z</time>
</trkpt>
<trkpt lat="-26.9485955" lon="152.7391558">
<ele>122.683</ele>
<time>2016-07-16T22:34:23.443Z</time>
</trkpt>
<trkpt lat="-26.9485289" lon="152.7386113">
<ele>120.556</ele>
<time>2016-07-16T22:34:25.432Z</time>
</trkpt>
<trkpt lat="-26.9484486" lon="152.7381065">
<ele>119.343</ele>
<time>2016-07-16T22:34:27.400Z</time>
</trkpt>
<trkpt lat="-26.9482085" lon="152.7374149">
<ele>118.441</ele>
<time>2016-07-16T22:34:30.297Z</time>
</trkpt>
<trkpt lat="-26.9479281" lon="152.7369958">
<ele>116.406</ele>
<time>2016-07-16T22:34:32.250Z</time>
</trkpt>
<trkpt lat="-26.9473812" lon="152.7363850">
<ele>113.054</ele>
<time>2016-07-16T22:34:35.391Z</time>
</trkpt>
<trkpt lat="-26.9468856" lon="152.7357883">
<ele>110.931</ele>
<time>2016-07-16T22:34:38.455Z</time>
</trkpt>
<trkpt lat="-26.9466517" lon="152.7353762">
<ele>111.809</ele>
<time>2016-07-16T22:34:40.432Z</time>
</trkpt>
<trkpt lat="-26.9465319" lon="152.7349072">
<ele>114.233</ele>
<time>2016-07-16T22:34:42.388Z</time>
</trkpt>
<trkpt lat="-26.9465641" lon="152.7341153">
<ele>116.385</ele>
<time>2016-07-16T22:34:45.420Z</time>
</trkpt>
<trkpt lat="-26.9466707" lon="152.7335822">
<ele>118.680</ele>
<time>2016-07-16T22:34:47.442Z</time>
</trkpt>
<trkpt lat="-26.9469548" lon="152.7328371">
<ele>121.762</ele>
<time>2016-07-16T22:34:50.387Z</time>
</trkpt>
<trkpt lat="-26.9474426" lon="152.7322015">
<ele>124.544</ele>
<time>2016-07-16T22:34:53.249Z</time>
</trkpt>
<trkpt lat="-26.9481474" lon="152.7316451">
<ele>125.904</ele>
<time>2016-07-16T22:34:56.271Z</time>
</trkpt>
<trkpt lat="-26.9489013" lon="152.7311004">
<ele>126.860</ele>
<time>2016-07-16T22:34:59.282Z</time>
</trkpt>
<trkpt lat="-26.9496786" lon="152.7306312">
<ele>128.485</ele>
<time>2016-07-16T22:35:02.292Z</time>
</trkpt>
<trkpt lat="-26.9502039" lon="152.7303556">
<ele>130.121</ele>
<time>2016-07-16T22:35:04.328Z</time>
</trkpt>
<trkpt lat="-26.9511867" lon="152.7298744">
<ele>130.687</ele>
<time>2016-07-16T22:35:08.245Z</time>
</trkpt>
<trkpt lat="-26.9516833" lon="152.7295867">
<ele>130.278</ele>
<time>2016-07-16T22:35:10.290Z</time>
</trkpt>
<trkpt lat="-26.9524051" lon="152.7291574">
<ele>129.589</ele>
<time>2016-07-16T22:35:13.349Z</time>
</trkpt>
<trkpt lat="-26.9528546" lon="152.7289007">
<ele>129.134</ele>
<time>2016-07-16T22:35:15.380Z</time>
</trkpt>
<trkpt lat="-26.9534556" lon="152.7285035">
<ele>128.372</ele>
<time>2016-07-16T22:35:18.364Z</time>
</trkpt>
<trkpt lat="-26.9537309" lon="152.7281458">
<ele>126.171</ele>
<time>2016-07-16T22:35:20.289Z</time>
</trkpt>
<trkpt lat="-26.9540141" lon="152.7274814">
<ele>122.646</ele>
<time>2016-07-16T22:35:23.223Z</time>
</trkpt>
<trkpt lat="-26.9542424" lon="152.7267056">
<ele>119.482</ele>
<time>2016-07-16T22:35:26.182Z</time>
</trkpt>
<trkpt lat="-26.9545039" lon="152.7261194">
<ele>118.358</ele>
<time>2016-07-16T22:35:28.257Z</time>
</trkpt>
<trkpt lat="-26.9548119" lon="152.7255289">
<ele>119.778</ele>
<time>2016-07-16T22:35:30.332Z</time>
</trkpt>
<trkpt lat="-26.9552516" lon="152.7246878">
<ele>122.468</ele>
<time>2016-07-16T22:35:33.343Z</time>
</trkpt>
<trkpt lat="-26.9555159" lon="152.7241728">
<ele>123.822</ele>
<time>2016-07-16T22:35:35.328Z</time>
</trkpt>
<trkpt lat="-26.9557532" lon="152.7236832">
<ele>121.975</ele>
<time>2016-07-16T22:35:37.350Z</time>
</trkpt>
<trkpt lat="-26.9558936" lon="152.7232213">
<ele>117.528</ele>
<time>2016-07-16T22:35:39.219Z</time>
</trkpt>
<trkpt lat="-26.9559551" lon="152.7224491">
<ele>112.514</ele>
<time>2016-07-16T22:35:42.289Z</time>
</trkpt>
<trkpt lat="-26.9558896" lon="152.7217656">
<ele>108.495</ele>
<time>2016-07-16T22:35:45.121Z</time>
</trkpt>
<trkpt lat="-26.9557188" lon="152.7213159">
<ele>106.306</ele>
<time>2016-07-16T22:35:47.065Z</time>
</trkpt>
<trkpt lat="-26.9555429" lon="152.7207767">
<ele>106.476</ele>
<time>2016-07-16T22:35:49.144Z</time>
</trkpt>
<trkpt lat="-26.9554708" lon="152.7204789">
<ele>109.308</ele>
<time>2016-07-16T22:35:50.210Z</time>
</trkpt>
<trkpt lat="-26.9552458" lon="152.7191676">
<ele>113.962</ele>
<time>2016-07-16T22:35:54.474Z</time>
</trkpt>
<trkpt lat="-26.9551719" lon="152.7185853">
<ele>118.163</ele>
<time>2016-07-16T22:35:56.356Z</time>
</trkpt>
<trkpt lat="-26.9552083" lon="152.7176513">
<ele>119.920</ele>
<time>2016-07-16T22:35:59.294Z</time>
</trkpt>
<trkpt lat="-26.9552971" lon="152.7166358">
<ele>119.297</ele>
<time>2016-07-16T22:36:02.408Z</time>
</trkpt>
<trkpt lat="-26.9553435" lon="152.7160186">
<ele>117.923</ele>
<time>2016-07-16T22:36:04.380Z</time>
</trkpt>
<trkpt lat="-26.9553433" lon="152.7154210">
<ele>116.717</ele>
<time>2016-07-16T22:36:06.378Z</time>
</trkpt>
<trkpt lat="-26.9553084" lon="152.7151327">
<ele>114.708</ele>
<time>2016-07-16T22:36:07.346Z</time>
</trkpt>
<trkpt lat="-26.9550585" lon="152.7138362">
<ele>111.623</ele>
<time>2016-07-16T22:36:11.449Z</time>
</trkpt>
<trkpt lat="-26.9549343" lon="152.7131768">
<ele>110.084</ele>
<time>2016-07-16T22:36:13.491Z</time>
</trkpt>
<trkpt lat="-26.9547554" lon="152.7122409">
<ele>111.757</ele>
<time>2016-07-16T22:36:16.537Z</time>
</trkpt>
<trkpt lat="-26.9545719" lon="152.7114110">
<ele>113.750</ele>
<time>2016-07-16T22:36:19.420Z</time>
</trkpt>
<trkpt lat="-26.9543930" lon="152.7108798">
<ele>112.985</ele>
<time>2016-07-16T22:36:21.395Z</time>
</trkpt>
<trkpt lat="-26.9540921" lon="152.7101192">
<ele>110.347</ele>
<time>2016-07-16T22:36:24.469Z</time>
</trkpt>
<trkpt lat="-26.9539304" lon="152.7096778">
<ele>107.923</ele>
<time>2016-07-16T22:36:26.358Z</time>
</trkpt>
<trkpt lat="-26.9538069" lon="152.7087233">
<ele>106.411</ele>
<time>2016-07-16T22:36:30.112Z</time>
</trkpt>
<trkpt lat="-26.9538969" lon="152.7078078">
<ele>106.321</ele>
<time>2016-07-16T22:36:33.196Z</time>
</trkpt>
<trkpt lat="-26.9540456" lon="152.7068206">
<ele>108.789</ele>
<time>2016-07-16T22:36:36.346Z</time>
</trkpt>
<trkpt lat="-26.9542897" lon="152.7059375">
<ele>113.163</ele>
<time>2016-07-16T22:36:39.381Z</time>
</trkpt>
<trkpt lat="-26.9544661" lon="152.7054164">
<ele>116.429</ele>
<time>2016-07-16T22:36:41.398Z</time>
</trkpt>
<trkpt lat="-26.9547778" lon="152.7047481">
<ele>116.148</ele>
<time>2016-07-16T22:36:44.198Z</time>
</trkpt>
<trkpt lat="-26.9551283" lon="152.7043447">
<ele>112.616</ele>
<time>2016-07-16T22:36:46.156Z</time>
</trkpt>
<trkpt lat="-26.9558007" lon="152.7037283">
<ele>108.309</ele>
<time>2016-07-16T22:36:49.301Z</time>
</trkpt>
<trkpt lat="-26.9564721" lon="152.7031361">
<ele>106.469</ele>
<time>2016-07-16T22:36:52.286Z</time>
</trkpt>
<trkpt lat="-26.9569334" lon="152.7027921">
<ele>107.930</ele>
<time>2016-07-16T22:36:54.314Z</time>
</trkpt>
<trkpt lat="-26.9576135" lon="152.7023637">
<ele>110.273</ele>
<time>2016-07-16T22:36:57.301Z</time>
</trkpt>
<trkpt lat="-26.9582801" lon="152.7020230">
<ele>111.077</ele>
<time>2016-07-16T22:37:00.173Z</time>
</trkpt>
<trkpt lat="-26.9589935" lon="152.7016665">
<ele>110.376</ele>
<time>2016-07-16T22:37:03.174Z</time>
</trkpt>
<trkpt lat="-26.9597324" lon="152.7013427">
<ele>109.835</ele>
<time>2016-07-16T22:37:06.159Z</time>
</trkpt>
<trkpt lat="-26.9605066" lon="152.7010843">
<ele>110.985</ele>
<time>2016-07-16T22:37:09.183Z</time>
</trkpt>
<trkpt lat="-26.9612764" lon="152.7008685">
<ele>113.356</ele>
<time>2016-07-16T22:37:12.181Z</time>
</trkpt>
<trkpt lat="-26.9620080" lon="152.7005680">
<ele>115.225</ele>
<time>2016-07-16T22:37:15.133Z</time>
</trkpt>
<trkpt lat="-26.9624811" lon="152.7003102">
<ele>115.848</ele>
<time>2016-07-16T22:37:17.088Z</time>
</trkpt>
<trkpt lat="-26.9631909" lon="152.6998546">
<ele>115.765</ele>
<time>2016-07-16T22:37:20.142Z</time>
</trkpt>
<trkpt lat="-26.9638503" lon="152.6994071">
<ele>115.891</ele>
<time>2016-07-16T22:37:23.175Z</time>
</trkpt>
<trkpt lat="-26.9642450" lon="152.6991334">
<ele>116.723</ele>
<time>2016-07-16T22:37:25.146Z</time>
</trkpt>
<trkpt lat="-26.9647831" lon="152.6986717">
<ele>117.900</ele>
<time>2016-07-16T22:37:28.033Z</time>
</trkpt>
<trkpt lat="-26.9653203" lon="152.6980810">
<ele>119.007</ele>
<time>2016-07-16T22:37:31.084Z</time>
</trkpt>
<trkpt lat="-26.9656671" lon="152.6976583">
<ele>120.992</ele>
<time>2016-07-16T22:37:33.152Z</time>
</trkpt>
<trkpt lat="-26.9661481" lon="152.6970933">
<ele>124.269</ele>
<time>2016-07-16T22:37:36.194Z</time>
</trkpt>
<trkpt lat="-26.9663994" lon="152.6967903">
<ele>126.301</ele>
<time>2016-07-16T22:37:38.140Z</time>
</trkpt>
<trkpt lat="-26.9667253" lon="152.6963915">
<ele>123.897</ele>
<time>2016-07-16T22:37:41.035Z</time>
</trkpt>
<trkpt lat="-26.9670137" lon="152.6960502">
<ele>117.469</ele>
<time>2016-07-16T22:37:43.976Z</time>
</trkpt>
<trkpt lat="-26.9671737" lon="152.6958836">
<ele>110.395</ele>
<time>2016-07-16T22:37:45.890Z</time>
</trkpt>
<trkpt lat="-26.9673715" lon="152.6956578">
<ele>105.111</ele>
<time>2016-07-16T22:37:48.832Z</time>
</trkpt>
<trkpt lat="-26.9675309" lon="152.6954602">
<ele>101.746</ele>
<time>2016-07-16T22:37:51.598Z</time>
</trkpt>
<trkpt lat="-26.9677154" lon="152.6952259">
<ele>99.897</ele>
<time>2016-07-16T22:37:54.549Z</time>
</trkpt>
<trkpt lat="-26.9679823" lon="152.6949175">
<ele>99.564</ele>
<time>2016-07-16T22:37:57.749Z</time>
</trkpt>
<trkpt lat="-26.9681808" lon="152.6946866">
<ele>101.000</ele>
<time>2016-07-16T22:37:59.858Z</time>
</trkpt>
<trkpt lat="-26.9684480" lon="152.6943662">
<ele>103.698</ele>
<time>2016-07-16T22:38:02.878Z</time>
</trkpt>
<trkpt lat="-26.9685944" lon="152.6941881">
<ele>106.174</ele>
<time>2016-07-16T22:38:04.836Z</time>
</trkpt>
<trkpt lat="-26.9687227" lon="152.6940401">
<ele>107.313</ele>
<time>2016-07-16T22:38:06.798Z</time>
</trkpt>
<trkpt lat="-26.9688282" lon="152.6939292">
<ele>107.252</ele>
<time>2016-07-16T22:38:08.655Z</time>
</trkpt>
<trkpt lat="-26.9689572" lon="152.6938047">
<ele>106.760</ele>
<time>2016-07-16T22:38:11.289Z</time>
</trkpt>
<trkpt lat="-26.9690379" lon="152.6937128">
<ele>106.413</ele>
<time>2016-07-16T22:38:13.684Z</time>
</trkpt>
<trkpt lat="-26.9691243" lon="152.6936267">
<ele>106.477</ele>
<time>2016-07-16T22:38:16.643Z</time>
</trkpt>
<trkpt lat="-26.9691861" lon="152.6935449">
<ele>107.153</ele>
<time>2016-07-16T22:38:18.967Z</time>
</trkpt>
<trkpt lat="-26.9693044" lon="152.6934398">
<ele>108.288</ele>
<time>2016-07-16T22:38:22.414Z</time>
</trkpt>
<trkpt lat="-26.9694129" lon="152.6933429">
<ele>109.398</ele>
<time>2016-07-16T22:38:25.612Z</time>
</trkpt>
<trkpt lat="-26.9694912" lon="152.6932288">
<ele>110.218</ele>
<time>2016-07-16T22:38:28.544Z</time>
</trkpt>
<trkpt lat="-26.9695742" lon="152.6931335">
<ele>110.830</ele>
<time>2016-07-16T22:38:31.329Z</time>
</trkpt>
<trkpt lat="-26.9696506" lon="152.6930301">
<ele>111.389</ele>
<time>2016-07-16T22:38:34.276Z</time>
</trkpt>
<trkpt lat="-26.9697110" lon="152.6929497">
<ele>111.989</ele>
<time>2016-07-16T22:38:36.499Z</time>
</trkpt>
<trkpt lat="-26.9697805" lon="152.6928726">
<ele>112.656</ele>
<time>2016-07-16T22:38:38.604Z</time>
</trkpt>
<trkpt lat="-26.9698698" lon="152.6927502">
<ele>113.424</ele>
<time>2016-07-16T22:38:41.610Z</time>
</trkpt>
<trkpt lat="-26.9699757" lon="152.6926663">
<ele>114.303</ele>
<time>2016-07-16T22:38:44.504Z</time>
</trkpt>
<trkpt lat="-26.9700644" lon="152.6925643">
<ele>115.165</ele>
<time>2016-07-16T22:38:47.381Z</time>
</trkpt>
<trkpt lat="-26.9701577" lon="152.6924610">
<ele>115.841</ele>
<time>2016-07-16T22:38:50.441Z</time>
</trkpt>
<trkpt lat="-26.9702372" lon="152.6923585">
<ele>116.244</ele>
<time>2016-07-16T22:38:53.433Z</time>
</trkpt>
<trkpt lat="-26.9703273" lon="152.6922638">
<ele>116.392</ele>
<time>2016-07-16T22:38:56.465Z</time>
</trkpt>
<trkpt lat="-26.9704166" lon="152.6921440">
<ele>116.460</ele>
<time>2016-07-16T22:38:59.513Z</time>
</trkpt>
<trkpt lat="-26.9704787" lon="152.6920502">
<ele>116.683</ele>
<time>2016-07-16T22:39:01.667Z</time>
</trkpt>
<trkpt lat="-26.9705505" lon="152.6919067">
<ele>117.066</ele>
<time>2016-07-16T22:39:04.706Z</time>
</trkpt>
<trkpt lat="-26.9706107" lon="152.6918191">
<ele>117.394</ele>
<time>2016-07-16T22:39:06.798Z</time>
</trkpt>
<trkpt lat="-26.9706796" lon="152.6916983">
<ele>117.533</ele>
<time>2016-07-16T22:39:09.721Z</time>
</trkpt>
<trkpt lat="-26.9707293" lon="152.6916089">
<ele>117.415</ele>
<time>2016-07-16T22:39:12.121Z</time>
</trkpt>
<trkpt lat="-26.9707864" lon="152.6915092">
<ele>117.024</ele>
<time>2016-07-16T22:39:14.856Z</time>
</trkpt>
<trkpt lat="-26.9708361" lon="152.6913954">
<ele>116.492</ele>
<time>2016-07-16T22:39:17.751Z</time>
</trkpt>
<trkpt lat="-26.9708857" lon="152.6912809">
<ele>115.969</ele>
<time>2016-07-16T22:39:20.729Z</time>
</trkpt>
<trkpt lat="-26.9709410" lon="152.6911747">
<ele>115.487</ele>
<time>2016-07-16T22:39:23.593Z</time>
</trkpt>
<trkpt lat="-26.9709982" lon="152.6910478">
<ele>115.050</ele>
<time>2016-07-16T22:39:26.736Z</time>
</trkpt>
<trkpt lat="-26.9710514" lon="152.6909295">
<ele>114.624</ele>
<time>2016-07-16T22:39:29.627Z</time>
</trkpt>
<trkpt lat="-26.9711012" lon="152.6908109">
<ele>114.164</ele>
<time>2016-07-16T22:39:32.590Z</time>
</trkpt>
<trkpt lat="-26.9711429" lon="152.6907062">
<ele>113.692</ele>
<time>2016-07-16T22:39:35.378Z</time>
</trkpt>
<trkpt lat="-26.9711749" lon="152.6906026">
<ele>113.207</ele>
<time>2016-07-16T22:39:38.220Z</time>
</trkpt>
<trkpt lat="-26.9712158" lon="152.6904992">
<ele>112.687</ele>
<time>2016-07-16T22:39:41.093Z</time>
</trkpt>
<trkpt lat="-26.9712553" lon="152.6903098">
<ele>112.247</ele>
<time>2016-07-16T22:39:44.977Z</time>
</trkpt>
<trkpt lat="-26.9712949" lon="152.6901624">
<ele>111.966</ele>
<time>2016-07-16T22:39:47.899Z</time>
</trkpt>
<trkpt lat="-26.9713125" lon="152.6900345">
<ele>111.686</ele>
<time>2016-07-16T22:39:50.596Z</time>
</trkpt>
<trkpt lat="-26.9713491" lon="152.6899043">
<ele>111.260</ele>
<time>2016-07-16T22:39:53.419Z</time>
</trkpt>
<trkpt lat="-26.9713675" lon="152.6898034">
<ele>110.772</ele>
<time>2016-07-16T22:39:55.428Z</time>
</trkpt>
<trkpt lat="-26.9713862" lon="152.6896331">
<ele>110.349</ele>
<time>2016-07-16T22:39:58.583Z</time>
</trkpt>
<trkpt lat="-26.9714040" lon="152.6895160">
<ele>110.005</ele>
<time>2016-07-16T22:40:00.631Z</time>
</trkpt>
<trkpt lat="-26.9714238" lon="152.6893476">
<ele>109.726</ele>
<time>2016-07-16T22:40:03.646Z</time>
</trkpt>
<trkpt lat="-26.9714368" lon="152.6892472">
<ele>109.477</ele>
<time>2016-07-16T22:40:05.523Z</time>
</trkpt>
<trkpt lat="-26.9714470" lon="152.6890735">
<ele>109.256</ele>
<time>2016-07-16T22:40:08.569Z</time>
</trkpt>
<trkpt lat="-26.9714482" lon="152.6888674">
<ele>109.216</ele>
<time>2016-07-16T22:40:11.473Z</time>
</trkpt>
<trkpt lat="-26.9714528" lon="152.6886640">
<ele>109.517</ele>
<time>2016-07-16T22:40:13.604Z</time>
</trkpt>
<trkpt lat="-26.9714369" lon="152.6884127">
<ele>110.178</ele>
<time>2016-07-16T22:40:15.697Z</time>
</trkpt>
<trkpt lat="-26.9714221" lon="152.6881200">
<ele>111.031</ele>
<time>2016-07-16T22:40:17.829Z</time>
</trkpt>
<trkpt lat="-26.9713829" lon="152.6876066">
<ele>111.933</ele>
<time>2016-07-16T22:40:20.869Z</time>
</trkpt>
<trkpt lat="-26.9713566" lon="152.6872131">
<ele>112.932</ele>
<time>2016-07-16T22:40:22.904Z</time>
</trkpt>
<trkpt lat="-26.9713066" lon="152.6866002">
<ele>113.990</ele>
<time>2016-07-16T22:40:25.863Z</time>
</trkpt>
<trkpt lat="-26.9712808" lon="152.6861611">
<ele>114.952</ele>
<time>2016-07-16T22:40:27.824Z</time>
</trkpt>
<trkpt lat="-26.9712258" lon="152.6854449">
<ele>115.833</ele>
<time>2016-07-16T22:40:30.826Z</time>
</trkpt>
<trkpt lat="-26.9712079" lon="152.6851842">
<ele>116.909</ele>
<time>2016-07-16T22:40:31.861Z</time>
</trkpt>
<trkpt lat="-26.9711479" lon="152.6840552">
<ele>118.294</ele>
<time>2016-07-16T22:40:35.943Z</time>
</trkpt>
<trkpt lat="-26.9711148" lon="152.6834636">
<ele>120.090</ele>
<time>2016-07-16T22:40:37.930Z</time>
</trkpt>
<trkpt lat="-26.9710680" lon="152.6825650">
<ele>122.483</ele>
<time>2016-07-16T22:40:40.879Z</time>
</trkpt>
<trkpt lat="-26.9710165" lon="152.6819395">
<ele>125.104</ele>
<time>2016-07-16T22:40:42.916Z</time>
</trkpt>
<trkpt lat="-26.9709552" lon="152.6810382">
<ele>127.074</ele>
<time>2016-07-16T22:40:45.872Z</time>
</trkpt>
<trkpt lat="-26.9709298" lon="152.6804418">
<ele>128.006</ele>
<time>2016-07-16T22:40:47.803Z</time>
</trkpt>
<trkpt lat="-26.9709522" lon="152.6794724">
<ele>128.198</ele>
<time>2016-07-16T22:40:50.784Z</time>
</trkpt>
<trkpt lat="-26.9709955" lon="152.6784126">
<ele>129.240</ele>
<time>2016-07-16T22:40:53.809Z</time>
</trkpt>
<trkpt lat="-26.9710338" lon="152.6776919">
<ele>132.526</ele>
<time>2016-07-16T22:40:55.796Z</time>
</trkpt>
<trkpt lat="-26.9711079" lon="152.6766114">
<ele>136.746</ele>
<time>2016-07-16T22:40:58.792Z</time>
</trkpt>
<trkpt lat="-26.9711658" lon="152.6755607">
<ele>139.360</ele>
<time>2016-07-16T22:41:01.839Z</time>
</trkpt>
<trkpt lat="-26.9712073" lon="152.6749336">
<ele>139.287</ele>
<time>2016-07-16T22:41:03.803Z</time>
</trkpt>
<trkpt lat="-26.9712765" lon="152.6738861">
<ele>136.541</ele>
<time>2016-07-16T22:41:07.667Z</time>
</trkpt>
<trkpt lat="-26.9713038" lon="152.6734339">
<ele>131.578</ele>
<time>2016-07-16T22:41:09.593Z</time>
</trkpt>
<trkpt lat="-26.9713253" lon="152.6730174">
<ele>125.842</ele>
<time>2016-07-16T22:41:11.579Z</time>
</trkpt>
<trkpt lat="-26.9713542" lon="152.6724876">
<ele>121.265</ele>
<time>2016-07-16T22:41:14.578Z</time>
</trkpt>
<trkpt lat="-26.9713739" lon="152.6723010">
<ele>118.415</ele>
<time>2016-07-16T22:41:16.000Z</time>
</trkpt>
<trkpt lat="-26.9713739" lon="152.6723010">
<ele>116.720</ele>
<time>2016-07-16T22:41:21.000Z</time>
</trkpt>
<trkpt lat="-26.9713739" lon="152.6723010">
<ele>115.991</ele>
<time>2016-07-16T22:42:17.241Z</time>
</trkpt>
<trkpt lat="-26.9713736" lon="152.6724451">
<ele>116.039</ele>
<time>2016-07-16T22:42:20.672Z</time>
</trkpt>
<trkpt lat="-26.9713520" lon="152.6727035">
<ele>115.899</ele>
<time>2016-07-16T22:42:22.816Z</time>
</trkpt>
<trkpt lat="-26.9713305" lon="152.6730489">
<ele>114.956</ele>
<time>2016-07-16T22:42:24.791Z</time>
</trkpt>
<trkpt lat="-26.9712716" lon="152.6737012">
<ele>114.041</ele>
<time>2016-07-16T22:42:28.127Z</time>
</trkpt>
<trkpt lat="-26.9712380" lon="152.6744440">
<ele>114.667</ele>
<time>2016-07-16T22:42:31.692Z</time>
</trkpt>
<trkpt lat="-26.9711928" lon="152.6752974">
<ele>117.183</ele>
<time>2016-07-16T22:42:35.218Z</time>
</trkpt>
<trkpt lat="-26.9711511" lon="152.6759461">
<ele>120.636</ele>
<time>2016-07-16T22:42:37.361Z</time>
</trkpt>
<trkpt lat="-26.9711058" lon="152.6765848">
<ele>123.676</ele>
<time>2016-07-16T22:42:39.404Z</time>
</trkpt>
<trkpt lat="-26.9710446" lon="152.6774042">
<ele>124.561</ele>
<time>2016-07-16T22:42:42.222Z</time>
</trkpt>
<trkpt lat="-26.9710057" lon="152.6781376">
<ele>122.197</ele>
<time>2016-07-16T22:42:44.992Z</time>
</trkpt>
<trkpt lat="-26.9709688" lon="152.6788031">
<ele>118.258</ele>
<time>2016-07-16T22:42:47.744Z</time>
</trkpt>
<trkpt lat="-26.9709484" lon="152.6792190">
<ele>114.809</ele>
<time>2016-07-16T22:42:49.785Z</time>
</trkpt>
<trkpt lat="-26.9709154" lon="152.6797208">
<ele>112.162</ele>
<time>2016-07-16T22:42:52.719Z</time>
</trkpt>
<trkpt lat="-26.9709038" lon="152.6799425">
<ele>109.779</ele>
<time>2016-07-16T22:42:54.836Z</time>
</trkpt>
<trkpt lat="-26.9708766" lon="152.6801384">
<ele>107.084</ele>
<time>2016-07-16T22:42:58.069Z</time>
</trkpt>
<trkpt lat="-26.9708600" lon="152.6802566">
<ele>104.168</ele>
<time>2016-07-16T22:43:01.000Z</time>
</trkpt>
<trkpt lat="-26.9708600" lon="152.6802566">
<ele>101.971</ele>
<time>2016-07-16T22:43:03.000Z</time>
</trkpt>
<trkpt lat="-26.9708600" lon="152.6802566">
<ele>101.029</ele>
<time>2016-07-16T22:47:36.370Z</time>
</trkpt>
<trkpt lat="-26.9709087" lon="152.6800325">
<ele>101.415</ele>
<time>2016-07-16T22:47:44.686Z</time>
</trkpt>
<trkpt lat="-26.9709192" lon="152.6797493">
<ele>102.739</ele>
<time>2016-07-16T22:47:47.636Z</time>
</trkpt>
<trkpt lat="-26.9709408" lon="152.6794519">
<ele>104.458</ele>
<time>2016-07-16T22:47:49.826Z</time>
</trkpt>
<trkpt lat="-26.9709777" lon="152.6788347">
<ele>106.455</ele>
<time>2016-07-16T22:47:53.817Z</time>
</trkpt>
<trkpt lat="-26.9710030" lon="152.6783265">
<ele>109.485</ele>
<time>2016-07-16T22:47:56.511Z</time>
</trkpt>
<trkpt lat="-26.9710491" lon="152.6774705">
<ele>114.135</ele>
<time>2016-07-16T22:48:00.020Z</time>
</trkpt>
<trkpt lat="-26.9710824" lon="152.6768846">
<ele>119.572</ele>
<time>2016-07-16T22:48:02.095Z</time>
</trkpt>
<trkpt lat="-26.9711128" lon="152.6763301">
<ele>123.946</ele>
<time>2016-07-16T22:48:03.984Z</time>
</trkpt>
<trkpt lat="-26.9711602" lon="152.6757992">
<ele>125.724</ele>
<time>2016-07-16T22:48:05.747Z</time>
</trkpt>
<trkpt lat="-26.9712067" lon="152.6748963">
<ele>124.988</ele>
<time>2016-07-16T22:48:08.611Z</time>
</trkpt>
<trkpt lat="-26.9712514" lon="152.6742581">
<ele>124.522</ele>
<time>2016-07-16T22:48:10.630Z</time>
</trkpt>
<trkpt lat="-26.9712962" lon="152.6736105">
<ele>126.741</ele>
<time>2016-07-16T22:48:12.687Z</time>
</trkpt>
<trkpt lat="-26.9713751" lon="152.6723505">
<ele>130.532</ele>
<time>2016-07-16T22:48:16.763Z</time>
</trkpt>
<trkpt lat="-26.9714183" lon="152.6717395">
<ele>133.361</ele>
<time>2016-07-16T22:48:18.828Z</time>
</trkpt>
<trkpt lat="-26.9714596" lon="152.6711498">
<ele>134.376</ele>
<time>2016-07-16T22:48:20.813Z</time>
</trkpt>
<trkpt lat="-26.9715072" lon="152.6702768">
<ele>134.078</ele>
<time>2016-07-16T22:48:23.722Z</time>
</trkpt>
<trkpt lat="-26.9715348" lon="152.6696689">
<ele>133.272</ele>
<time>2016-07-16T22:48:25.817Z</time>
</trkpt>
<trkpt lat="-26.9715697" lon="152.6690811">
<ele>132.768</ele>
<time>2016-07-16T22:48:27.839Z</time>
</trkpt>
<trkpt lat="-26.9716118" lon="152.6685315">
<ele>132.940</ele>
<time>2016-07-16T22:48:29.675Z</time>
</trkpt>
<trkpt lat="-26.9716617" lon="152.6676228">
<ele>132.815</ele>
<time>2016-07-16T22:48:32.591Z</time>
</trkpt>
<trkpt lat="-26.9716773" lon="152.6669929">
<ele>131.462</ele>
<time>2016-07-16T22:48:34.633Z</time>
</trkpt>
<trkpt lat="-26.9717334" lon="152.6660662">
<ele>129.252</ele>
<time>2016-07-16T22:48:37.756Z</time>
</trkpt>
<trkpt lat="-26.9717832" lon="152.6652008">
<ele>127.119</ele>
<time>2016-07-16T22:48:40.691Z</time>
</trkpt>
<trkpt lat="-26.9717520" lon="152.6643216">
<ele>125.458</ele>
<time>2016-07-16T22:48:43.618Z</time>
</trkpt>
<trkpt lat="-26.9716845" lon="152.6636943">
<ele>124.251</ele>
<time>2016-07-16T22:48:45.942Z</time>
</trkpt>
<trkpt lat="-26.9716536" lon="152.6634020">
<ele>124.733</ele>
<time>2016-07-16T22:48:47.060Z</time>
</trkpt>
<trkpt lat="-26.9715629" lon="152.6624045">
<ele>127.702</ele>
<time>2016-07-16T22:48:52.002Z</time>
</trkpt>
<trkpt lat="-26.9715327" lon="152.6619966">
<ele>130.718</ele>
<time>2016-07-16T22:48:54.759Z</time>
</trkpt>
<trkpt lat="-26.9714920" lon="152.6615026">
<ele>131.364</ele>
<time>2016-07-16T22:48:57.847Z</time>
</trkpt>
<trkpt lat="-26.9713767" lon="152.6612642">
<ele>129.633</ele>
<time>2016-07-16T22:48:59.138Z</time>
</trkpt>
<trkpt lat="-26.9711751" lon="152.6610572">
<ele>126.642</ele>
<time>2016-07-16T22:49:00.560Z</time>
</trkpt>
<trkpt lat="-26.9708269" lon="152.6608940">
<ele>124.093</ele>
<time>2016-07-16T22:49:02.392Z</time>
</trkpt>
<trkpt lat="-26.9702568" lon="152.6605680">
<ele>122.954</ele>
<time>2016-07-16T22:49:05.457Z</time>
</trkpt>
<trkpt lat="-26.9698988" lon="152.6603486">
<ele>122.804</ele>
<time>2016-07-16T22:49:07.372Z</time>
</trkpt>
<trkpt lat="-26.9694267" lon="152.6599126">
<ele>122.196</ele>
<time>2016-07-16T22:49:10.120Z</time>
</trkpt>
<trkpt lat="-26.9691390" lon="152.6595316">
<ele>120.185</ele>
<time>2016-07-16T22:49:12.092Z</time>
</trkpt>
<trkpt lat="-26.9687090" lon="152.6589420">
<ele>117.736</ele>
<time>2016-07-16T22:49:15.057Z</time>
</trkpt>
<trkpt lat="-26.9684522" lon="152.6585375">
<ele>116.263</ele>
<time>2016-07-16T22:49:16.921Z</time>
</trkpt>
<trkpt lat="-26.9682225" lon="152.6580700">
<ele>116.090</ele>
<time>2016-07-16T22:49:18.861Z</time>
</trkpt>
<trkpt lat="-26.9677548" lon="152.6570558">
<ele>117.206</ele>
<time>2016-07-16T22:49:22.869Z</time>
</trkpt>
<trkpt lat="-26.9675362" lon="152.6565775">
<ele>119.066</ele>
<time>2016-07-16T22:49:24.679Z</time>
</trkpt>
<trkpt lat="-26.9672653" lon="152.6557636">
<ele>120.588</ele>
<time>2016-07-16T22:49:27.422Z</time>
</trkpt>
<trkpt lat="-26.9670965" lon="152.6551607">
<ele>121.618</ele>
<time>2016-07-16T22:49:29.394Z</time>
</trkpt>
<trkpt lat="-26.9669231" lon="152.6545460">
<ele>123.058</ele>
<time>2016-07-16T22:49:31.414Z</time>
</trkpt>
<trkpt lat="-26.9666763" lon="152.6536438">
<ele>124.876</ele>
<time>2016-07-16T22:49:34.402Z</time>
</trkpt>
<trkpt lat="-26.9665142" lon="152.6530492">
<ele>125.789</ele>
<time>2016-07-16T22:49:36.391Z</time>
</trkpt>
<trkpt lat="-26.9663702" lon="152.6524436">
<ele>125.067</ele>
<time>2016-07-16T22:49:38.381Z</time>
</trkpt>
<trkpt lat="-26.9662662" lon="152.6518429">
<ele>123.330</ele>
<time>2016-07-16T22:49:40.319Z</time>
</trkpt>
<trkpt lat="-26.9661163" lon="152.6509063">
<ele>121.668</ele>
<time>2016-07-16T22:49:43.380Z</time>
</trkpt>
<trkpt lat="-26.9660247" lon="152.6503179">
<ele>120.716</ele>
<time>2016-07-16T22:49:45.291Z</time>
</trkpt>
<trkpt lat="-26.9659615" lon="152.6494221">
<ele>120.477</ele>
<time>2016-07-16T22:49:47.964Z</time>
</trkpt>
<trkpt lat="-26.9659692" lon="152.6483815">
<ele>120.452</ele>
<time>2016-07-16T22:49:50.687Z</time>
</trkpt>
<trkpt lat="-26.9659829" lon="152.6476085">
<ele>118.182</ele>
<time>2016-07-16T22:49:52.592Z</time>
</trkpt>
<trkpt lat="-26.9659676" lon="152.6463620">
<ele>112.173</ele>
<time>2016-07-16T22:49:55.520Z</time>
</trkpt>
<trkpt lat="-26.9659254" lon="152.6450519">
<ele>105.610</ele>
<time>2016-07-16T22:49:58.477Z</time>
</trkpt>
<trkpt lat="-26.9658821" lon="152.6441436">
<ele>101.935</ele>
<time>2016-07-16T22:50:00.527Z</time>
</trkpt>
<trkpt lat="-26.9658317" lon="152.6428384">
<ele>100.800</ele>
<time>2016-07-16T22:50:03.735Z</time>
</trkpt>
<trkpt lat="-26.9657806" lon="152.6420513">
<ele>100.180</ele>
<time>2016-07-16T22:50:05.886Z</time>
</trkpt>
<trkpt lat="-26.9656979" lon="152.6410300">
<ele>98.497</ele>
<time>2016-07-16T22:50:08.852Z</time>
</trkpt>
<trkpt lat="-26.9655685" lon="152.6403779">
<ele>96.197</ele>
<time>2016-07-16T22:50:10.713Z</time>
</trkpt>
<trkpt lat="-26.9653450" lon="152.6393009">
<ele>94.662</ele>
<time>2016-07-16T22:50:13.683Z</time>
</trkpt>
<trkpt lat="-26.9651798" lon="152.6385594">
<ele>94.207</ele>
<time>2016-07-16T22:50:15.823Z</time>
</trkpt>
<trkpt lat="-26.9649789" lon="152.6375700">
<ele>94.330</ele>
<time>2016-07-16T22:50:19.035Z</time>
</trkpt>
<trkpt lat="-26.9648561" lon="152.6369878">
<ele>94.458</ele>
<time>2016-07-16T22:50:20.960Z</time>
</trkpt>
<trkpt lat="-26.9647742" lon="152.6363938">
<ele>94.337</ele>
<time>2016-07-16T22:50:22.894Z</time>
</trkpt>
<trkpt lat="-26.9647251" lon="152.6357567">
<ele>95.237</ele>
<time>2016-07-16T22:50:24.987Z</time>
</trkpt>
<trkpt lat="-26.9646905" lon="152.6348872">
<ele>98.034</ele>
<time>2016-07-16T22:50:27.973Z</time>
</trkpt>
<trkpt lat="-26.9646815" lon="152.6340158">
<ele>100.640</ele>
<time>2016-07-16T22:50:31.089Z</time>
</trkpt>
<trkpt lat="-26.9646969" lon="152.6334560">
<ele>100.828</ele>
<time>2016-07-16T22:50:33.284Z</time>
</trkpt>
<trkpt lat="-26.9647050" lon="152.6329494">
<ele>99.315</ele>
<time>2016-07-16T22:50:35.359Z</time>
</trkpt>
<trkpt lat="-26.9646132" lon="152.6325080">
<ele>97.283</ele>
<time>2016-07-16T22:50:37.091Z</time>
</trkpt>
<trkpt lat="-26.9644402" lon="152.6320309">
<ele>95.066</ele>
<time>2016-07-16T22:50:38.839Z</time>
</trkpt>
<trkpt lat="-26.9642280" lon="152.6314812">
<ele>93.234</ele>
<time>2016-07-16T22:50:40.720Z</time>
</trkpt>
<trkpt lat="-26.9638676" lon="152.6305786">
<ele>93.239</ele>
<time>2016-07-16T22:50:43.492Z</time>
</trkpt>
<trkpt lat="-26.9636091" lon="152.6299133">
<ele>96.398</ele>
<time>2016-07-16T22:50:45.415Z</time>
</trkpt>
<trkpt lat="-26.9633341" lon="152.6292005">
<ele>102.194</ele>
<time>2016-07-16T22:50:47.437Z</time>
</trkpt>
<trkpt lat="-26.9628875" lon="152.6281663">
<ele>108.362</ele>
<time>2016-07-16T22:50:50.484Z</time>
</trkpt>
<trkpt lat="-26.9624683" lon="152.6271625">
<ele>112.899</ele>
<time>2016-07-16T22:50:53.683Z</time>
</trkpt>
<trkpt lat="-26.9622254" lon="152.6265572">
<ele>114.763</ele>
<time>2016-07-16T22:50:55.796Z</time>
</trkpt>
<trkpt lat="-26.9618959" lon="152.6257416">
<ele>113.466</ele>
<time>2016-07-16T22:50:58.950Z</time>
</trkpt>
<trkpt lat="-26.9617136" lon="152.6252311">
<ele>108.920</ele>
<time>2016-07-16T22:51:00.948Z</time>
</trkpt>
<trkpt lat="-26.9615766" lon="152.6244572">
<ele>102.482</ele>
<time>2016-07-16T22:51:03.815Z</time>
</trkpt>
<trkpt lat="-26.9616349" lon="152.6236419">
<ele>97.038</ele>
<time>2016-07-16T22:51:06.708Z</time>
</trkpt>
<trkpt lat="-26.9618937" lon="152.6228294">
<ele>94.407</ele>
<time>2016-07-16T22:51:09.613Z</time>
</trkpt>
<trkpt lat="-26.9623332" lon="152.6220747">
<ele>94.341</ele>
<time>2016-07-16T22:51:12.392Z</time>
</trkpt>
<trkpt lat="-26.9628658" lon="152.6212496">
<ele>96.022</ele>
<time>2016-07-16T22:51:15.363Z</time>
</trkpt>
<trkpt lat="-26.9632411" lon="152.6206710">
<ele>99.717</ele>
<time>2016-07-16T22:51:17.543Z</time>
</trkpt>
<trkpt lat="-26.9634146" lon="152.6204052">
<ele>104.961</ele>
<time>2016-07-16T22:51:18.639Z</time>
</trkpt>
<trkpt lat="-26.9640494" lon="152.6193557">
<ele>109.132</ele>
<time>2016-07-16T22:51:23.619Z</time>
</trkpt>
<trkpt lat="-26.9641390" lon="152.6189523">
<ele>107.981</ele>
<time>2016-07-16T22:51:25.382Z</time>
</trkpt>
<trkpt lat="-26.9641093" lon="152.6184461">
<ele>100.968</ele>
<time>2016-07-16T22:51:27.315Z</time>
</trkpt>
<trkpt lat="-26.9640276" lon="152.6178848">
<ele>94.196</ele>
<time>2016-07-16T22:51:29.218Z</time>
</trkpt>
<trkpt lat="-26.9638754" lon="152.6169227">
<ele>93.277</ele>
<time>2016-07-16T22:51:32.169Z</time>
</trkpt>
<trkpt lat="-26.9637325" lon="152.6161936">
<ele>97.835</ele>
<time>2016-07-16T22:51:34.267Z</time>
</trkpt>
<trkpt lat="-26.9636044" lon="152.6154857">
<ele>104.508</ele>
<time>2016-07-16T22:51:36.386Z</time>
</trkpt>
<trkpt lat="-26.9633776" lon="152.6145678">
<ele>109.158</ele>
<time>2016-07-16T22:51:39.355Z</time>
</trkpt>
<trkpt lat="-26.9631248" lon="152.6140419">
<ele>108.694</ele>
<time>2016-07-16T22:51:41.269Z</time>
</trkpt>
<trkpt lat="-26.9628159" lon="152.6135153">
<ele>103.953</ele>
<time>2016-07-16T22:51:43.277Z</time>
</trkpt>
<trkpt lat="-26.9623515" lon="152.6127398">
<ele>99.601</ele>
<time>2016-07-16T22:51:46.426Z</time>
</trkpt>
<trkpt lat="-26.9619786" lon="152.6120684">
<ele>98.880</ele>
<time>2016-07-16T22:51:49.260Z</time>
</trkpt>
<trkpt lat="-26.9615492" lon="152.6114244">
<ele>100.690</ele>
<time>2016-07-16T22:51:52.120Z</time>
</trkpt>
<trkpt lat="-26.9612425" lon="152.6109712">
<ele>102.690</ele>
<time>2016-07-16T22:51:54.114Z</time>
</trkpt>
<trkpt lat="-26.9607238" lon="152.6103547">
<ele>103.546</ele>
<time>2016-07-16T22:51:56.981Z</time>
</trkpt>
<trkpt lat="-26.9600670" lon="152.6098094">
<ele>103.073</ele>
<time>2016-07-16T22:51:59.859Z</time>
</trkpt>
<trkpt lat="-26.9595464" lon="152.6094580">
<ele>101.870</ele>
<time>2016-07-16T22:52:01.756Z</time>
</trkpt>
<trkpt lat="-26.9586953" lon="152.6088879">
<ele>101.413</ele>
<time>2016-07-16T22:52:04.697Z</time>
</trkpt>
<trkpt lat="-26.9580862" lon="152.6084809">
<ele>103.506</ele>
<time>2016-07-16T22:52:06.656Z</time>
</trkpt>
<trkpt lat="-26.9574394" lon="152.6080530">
<ele>108.023</ele>
<time>2016-07-16T22:52:08.716Z</time>
</trkpt>
<trkpt lat="-26.9568235" lon="152.6076399">
<ele>113.217</ele>
<time>2016-07-16T22:52:10.863Z</time>
</trkpt>
<trkpt lat="-26.9560504" lon="152.6071383">
<ele>117.394</ele>
<time>2016-07-16T22:52:13.745Z</time>
</trkpt>
<trkpt lat="-26.9556067" lon="152.6067290">
<ele>117.799</ele>
<time>2016-07-16T22:52:15.671Z</time>
</trkpt>
<trkpt lat="-26.9551725" lon="152.6062586">
<ele>113.484</ele>
<time>2016-07-16T22:52:17.675Z</time>
</trkpt>
<trkpt lat="-26.9547694" lon="152.6057605">
<ele>108.224</ele>
<time>2016-07-16T22:52:19.766Z</time>
</trkpt>
<trkpt lat="-26.9542249" lon="152.6050755">
<ele>105.457</ele>
<time>2016-07-16T22:52:22.847Z</time>
</trkpt>
<trkpt lat="-26.9537323" lon="152.6045106">
<ele>104.057</ele>
<time>2016-07-16T22:52:25.717Z</time>
</trkpt>
<trkpt lat="-26.9533373" lon="152.6042117">
<ele>101.615</ele>
<time>2016-07-16T22:52:27.549Z</time>
</trkpt>
<trkpt lat="-26.9525832" lon="152.6038159">
<ele>98.117</ele>
<time>2016-07-16T22:52:30.513Z</time>
</trkpt>
<trkpt lat="-26.9520172" lon="152.6035296">
<ele>96.688</ele>
<time>2016-07-16T22:52:32.441Z</time>
</trkpt>
<trkpt lat="-26.9510811" lon="152.6030604">
<ele>98.793</ele>
<time>2016-07-16T22:52:35.461Z</time>
</trkpt>
<trkpt lat="-26.9501032" lon="152.6025776">
<ele>101.174</ele>
<time>2016-07-16T22:52:38.592Z</time>
</trkpt>
<trkpt lat="-26.9495284" lon="152.6022871">
<ele>100.904</ele>
<time>2016-07-16T22:52:40.628Z</time>
</trkpt>
<trkpt lat="-26.9487490" lon="152.6018968">
<ele>99.235</ele>
<time>2016-07-16T22:52:43.529Z</time>
</trkpt>
<trkpt lat="-26.9482365" lon="152.6016408">
<ele>97.898</ele>
<time>2016-07-16T22:52:45.559Z</time>
</trkpt>
<trkpt lat="-26.9475182" lon="152.6012891">
<ele>97.013</ele>
<time>2016-07-16T22:52:48.510Z</time>
</trkpt>
<trkpt lat="-26.9470938" lon="152.6010084">
<ele>95.977</ele>
<time>2016-07-16T22:52:50.521Z</time>
</trkpt>
<trkpt lat="-26.9467306" lon="152.6006968">
<ele>94.227</ele>
<time>2016-07-16T22:52:52.510Z</time>
</trkpt>
<trkpt lat="-26.9463959" lon="152.6003958">
<ele>91.841</ele>
<time>2016-07-16T22:52:54.372Z</time>
</trkpt>
<trkpt lat="-26.9458430" lon="152.5999122">
<ele>89.572</ele>
<time>2016-07-16T22:52:57.322Z</time>
</trkpt>
<trkpt lat="-26.9454530" lon="152.5995672">
<ele>88.723</ele>
<time>2016-07-16T22:52:59.395Z</time>
</trkpt>
<trkpt lat="-26.9449193" lon="152.5990966">
<ele>89.864</ele>
<time>2016-07-16T22:53:02.332Z</time>
</trkpt>
<trkpt lat="-26.9445753" lon="152.5987952">
<ele>91.921</ele>
<time>2016-07-16T22:53:04.357Z</time>
</trkpt>
<trkpt lat="-26.9440965" lon="152.5983758">
<ele>93.631</ele>
<time>2016-07-16T22:53:07.350Z</time>
</trkpt>
<trkpt lat="-26.9438059" lon="152.5981186">
<ele>94.734</ele>
<time>2016-07-16T22:53:09.388Z</time>
</trkpt>
<trkpt lat="-26.9435308" lon="152.5978733">
<ele>95.477</ele>
<time>2016-07-16T22:53:11.505Z</time>
</trkpt>
<trkpt lat="-26.9431830" lon="152.5975529">
<ele>96.107</ele>
<time>2016-07-16T22:53:14.365Z</time>
</trkpt>
<trkpt lat="-26.9430002" lon="152.5972893">
<ele>96.824</ele>
<time>2016-07-16T22:53:16.204Z</time>
</trkpt>
<trkpt lat="-26.9428091" lon="152.5967540">
<ele>97.726</ele>
<time>2016-07-16T22:53:19.111Z</time>
</trkpt>
<trkpt lat="-26.9425936" lon="152.5961270">
<ele>98.832</ele>
<time>2016-07-16T22:53:22.135Z</time>
</trkpt>
<trkpt lat="-26.9424014" lon="152.5954729">
<ele>100.070</ele>
<time>2016-07-16T22:53:25.090Z</time>
</trkpt>
<trkpt lat="-26.9423311" lon="152.5950082">
<ele>100.990</ele>
<time>2016-07-16T22:53:27.023Z</time>
</trkpt>
<trkpt lat="-26.9422573" lon="152.5942587">
<ele>101.285</ele>
<time>2016-07-16T22:53:30.012Z</time>
</trkpt>
<trkpt lat="-26.9421845" lon="152.5934963">
<ele>101.735</ele>
<time>2016-07-16T22:53:33.047Z</time>
</trkpt>
<trkpt lat="-26.9421195" lon="152.5928005">
<ele>103.539</ele>
<time>2016-07-16T22:53:35.944Z</time>
</trkpt>
<trkpt lat="-26.9420521" lon="152.5921283">
<ele>107.298</ele>
<time>2016-07-16T22:53:38.905Z</time>
</trkpt>
<trkpt lat="-26.9419181" lon="152.5915137">
<ele>112.164</ele>
<time>2016-07-16T22:53:41.814Z</time>
</trkpt>
<trkpt lat="-26.9417145" lon="152.5911472">
<ele>116.249</ele>
<time>2016-07-16T22:53:43.799Z</time>
</trkpt>
<trkpt lat="-26.9414714" lon="152.5907797">
<ele>118.918</ele>
<time>2016-07-16T22:53:45.813Z</time>
</trkpt>
<trkpt lat="-26.9412191" lon="152.5903959">
<ele>121.802</ele>
<time>2016-07-16T22:53:47.861Z</time>
</trkpt>
<trkpt lat="-26.9409685" lon="152.5900429">
<ele>126.303</ele>
<time>2016-07-16T22:53:49.836Z</time>
</trkpt>
<trkpt lat="-26.9405904" lon="152.5895486">
<ele>131.441</ele>
<time>2016-07-16T22:53:52.798Z</time>
</trkpt>
<trkpt lat="-26.9402101" lon="152.5891039">
<ele>135.079</ele>
<time>2016-07-16T22:53:55.822Z</time>
</trkpt>
<trkpt lat="-26.9398858" lon="152.5887248">
<ele>136.220</ele>
<time>2016-07-16T22:53:58.736Z</time>
</trkpt>
<trkpt lat="-26.9396541" lon="152.5883701">
<ele>135.494</ele>
<time>2016-07-16T22:54:01.552Z</time>
</trkpt>
<trkpt lat="-26.9395492" lon="152.5881320">
<ele>133.698</ele>
<time>2016-07-16T22:54:03.485Z</time>
</trkpt>
<trkpt lat="-26.9394536" lon="152.5879007">
<ele>131.040</ele>
<time>2016-07-16T22:54:05.493Z</time>
</trkpt>
<trkpt lat="-26.9393641" lon="152.5876964">
<ele>127.904</ele>
<time>2016-07-16T22:54:07.467Z</time>
</trkpt>
<trkpt lat="-26.9392885" lon="152.5875293">
<ele>124.957</ele>
<time>2016-07-16T22:54:09.308Z</time>
</trkpt>
<trkpt lat="-26.9391507" lon="152.5873880">
<ele>122.544</ele>
<time>2016-07-16T22:54:11.788Z</time>
</trkpt>
<trkpt lat="-26.9390315" lon="152.5873464">
<ele>120.983</ele>
<time>2016-07-16T22:54:13.766Z</time>
</trkpt>
<trkpt lat="-26.9389000" lon="152.5870832">
<ele>122.634</ele>
<time>2016-07-16T22:54:17.109Z</time>
</trkpt>
<trkpt lat="-26.9388434" lon="152.5867608">
<ele>128.509</ele>
<time>2016-07-16T22:54:19.379Z</time>
</trkpt>
<trkpt lat="-26.9386815" lon="152.5861067">
<ele>134.724</ele>
<time>2016-07-16T22:54:22.989Z</time>
</trkpt>
<trkpt lat="-26.9385326" lon="152.5855901">
<ele>137.452</ele>
<time>2016-07-16T22:54:25.480Z</time>
</trkpt>
<trkpt lat="-26.9383798" lon="152.5850992">
<ele>136.974</ele>
<time>2016-07-16T22:54:27.677Z</time>
</trkpt>
<trkpt lat="-26.9381721" lon="152.5844019">
<ele>135.090</ele>
<time>2016-07-16T22:54:30.784Z</time>
</trkpt>
<trkpt lat="-26.9380855" lon="152.5839672">
<ele>132.651</ele>
<time>2016-07-16T22:54:32.808Z</time>
</trkpt>
<trkpt lat="-26.9380420" lon="152.5835510">
<ele>129.398</ele>
<time>2016-07-16T22:54:34.783Z</time>
</trkpt>
<trkpt lat="-26.9380275" lon="152.5831431">
<ele>125.984</ele>
<time>2016-07-16T22:54:36.707Z</time>
</trkpt>
<trkpt lat="-26.9380765" lon="152.5825077">
<ele>123.516</ele>
<time>2016-07-16T22:54:39.699Z</time>
</trkpt>
<trkpt lat="-26.9382088" lon="152.5818772">
<ele>121.997</ele>
<time>2016-07-16T22:54:42.705Z</time>
</trkpt>
<trkpt lat="-26.9383472" lon="152.5814732">
<ele>120.633</ele>
<time>2016-07-16T22:54:44.655Z</time>
</trkpt>
<trkpt lat="-26.9385835" lon="152.5808614">
<ele>118.791</ele>
<time>2016-07-16T22:54:47.563Z</time>
</trkpt>
<trkpt lat="-26.9388334" lon="152.5801912">
<ele>116.541</ele>
<time>2016-07-16T22:54:50.603Z</time>
</trkpt>
<trkpt lat="-26.9390645" lon="152.5795232">
<ele>113.977</ele>
<time>2016-07-16T22:54:53.581Z</time>
</trkpt>
<trkpt lat="-26.9392249" lon="152.5790991">
<ele>111.249</ele>
<time>2016-07-16T22:54:55.637Z</time>
</trkpt>
<trkpt lat="-26.9394534" lon="152.5785205">
<ele>108.999</ele>
<time>2016-07-16T22:54:58.592Z</time>
</trkpt>
<trkpt lat="-26.9396662" lon="152.5779617">
<ele>107.267</ele>
<time>2016-07-16T22:55:01.480Z</time>
</trkpt>
<trkpt lat="-26.9398118" lon="152.5775624">
<ele>105.698</ele>
<time>2016-07-16T22:55:03.522Z</time>
</trkpt>
<trkpt lat="-26.9400281" lon="152.5769918">
<ele>104.523</ele>
<time>2016-07-16T22:55:06.506Z</time>
</trkpt>
<trkpt lat="-26.9402372" lon="152.5764393">
<ele>103.869</ele>
<time>2016-07-16T22:55:09.446Z</time>
</trkpt>
<trkpt lat="-26.9403759" lon="152.5760593">
<ele>103.384</ele>
<time>2016-07-16T22:55:11.432Z</time>
</trkpt>
<trkpt lat="-26.9405147" lon="152.5756769">
<ele>102.986</ele>
<time>2016-07-16T22:55:13.359Z</time>
</trkpt>
<trkpt lat="-26.9406658" lon="152.5752788">
<ele>102.773</ele>
<time>2016-07-16T22:55:15.293Z</time>
</trkpt>
<trkpt lat="-26.9408264" lon="152.5748566">
<ele>102.792</ele>
<time>2016-07-16T22:55:17.294Z</time>
</trkpt>
<trkpt lat="-26.9410640" lon="152.5742249">
<ele>102.980</ele>
<time>2016-07-16T22:55:20.318Z</time>
</trkpt>
<trkpt lat="-26.9412885" lon="152.5736419">
<ele>103.043</ele>
<time>2016-07-16T22:55:23.284Z</time>
</trkpt>
<trkpt lat="-26.9414254" lon="152.5732804">
<ele>102.496</ele>
<time>2016-07-16T22:55:25.329Z</time>
</trkpt>
<trkpt lat="-26.9416177" lon="152.5728042">
<ele>101.187</ele>
<time>2016-07-16T22:55:28.275Z</time>
</trkpt>
<trkpt lat="-26.9417142" lon="152.5725028">
<ele>99.296</ele>
<time>2016-07-16T22:55:30.276Z</time>
</trkpt>
<trkpt lat="-26.9418182" lon="152.5722244">
<ele>97.206</ele>
<time>2016-07-16T22:55:32.275Z</time>
</trkpt>
<trkpt lat="-26.9419209" lon="152.5719661">
<ele>95.336</ele>
<time>2016-07-16T22:55:34.150Z</time>
</trkpt>
<trkpt lat="-26.9420742" lon="152.5715450">
<ele>93.968</ele>
<time>2016-07-16T22:55:37.074Z</time>
</trkpt>
<trkpt lat="-26.9422491" lon="152.5710890">
<ele>93.230</ele>
<time>2016-07-16T22:55:40.145Z</time>
</trkpt>
<trkpt lat="-26.9423467" lon="152.5707985">
<ele>93.103</ele>
<time>2016-07-16T22:55:42.098Z</time>
</trkpt>
<trkpt lat="-26.9424396" lon="152.5705139">
<ele>93.262</ele>
<time>2016-07-16T22:55:44.052Z</time>
</trkpt>
<trkpt lat="-26.9425515" lon="152.5700832">
<ele>93.429</ele>
<time>2016-07-16T22:55:47.154Z</time>
</trkpt>
<trkpt lat="-26.9425818" lon="152.5698210">
<ele>93.308</ele>
<time>2016-07-16T22:55:49.027Z</time>
</trkpt>
<trkpt lat="-26.9426220" lon="152.5693907">
<ele>92.806</ele>
<time>2016-07-16T22:55:52.041Z</time>
</trkpt>
<trkpt lat="-26.9426463" lon="152.5690979">
<ele>92.373</ele>
<time>2016-07-16T22:55:53.981Z</time>
</trkpt>
<trkpt lat="-26.9426868" lon="152.5686342">
<ele>92.472</ele>
<time>2016-07-16T22:55:56.962Z</time>
</trkpt>
<trkpt lat="-26.9427205" lon="152.5681510">
<ele>93.011</ele>
<time>2016-07-16T22:56:00.032Z</time>
</trkpt>
<trkpt lat="-26.9427402" lon="152.5678531">
<ele>93.704</ele>
<time>2016-07-16T22:56:02.019Z</time>
</trkpt>
<trkpt lat="-26.9427623" lon="152.5675702">
<ele>94.353</ele>
<time>2016-07-16T22:56:03.968Z</time>
</trkpt>
<trkpt lat="-26.9428139" lon="152.5670715">
<ele>94.812</ele>
<time>2016-07-16T22:56:07.964Z</time>
</trkpt>
<trkpt lat="-26.9428801" lon="152.5668912">
<ele>94.853</ele>
<time>2016-07-16T22:56:09.887Z</time>
</trkpt>
<trkpt lat="-26.9430967" lon="152.5669101">
<ele>94.452</ele>
<time>2016-07-16T22:56:12.529Z</time>
</trkpt>
<trkpt lat="-26.9432672" lon="152.5670483">
<ele>94.032</ele>
<time>2016-07-16T22:56:14.724Z</time>
</trkpt>
<trkpt lat="-26.9434619" lon="152.5672061">
<ele>94.245</ele>
<time>2016-07-16T22:56:16.738Z</time>
</trkpt>
<trkpt lat="-26.9437934" lon="152.5674530">
<ele>95.343</ele>
<time>2016-07-16T22:56:19.795Z</time>
</trkpt>
<trkpt lat="-26.9440340" lon="152.5675886">
<ele>96.822</ele>
<time>2016-07-16T22:56:21.776Z</time>
</trkpt>
<trkpt lat="-26.9444550" lon="152.5676910">
<ele>97.951</ele>
<time>2016-07-16T22:56:24.759Z</time>
</trkpt>
<trkpt lat="-26.9449528" lon="152.5677513">
<ele>98.787</ele>
<time>2016-07-16T22:56:27.870Z</time>
</trkpt>
<trkpt lat="-26.9453062" lon="152.5677737">
<ele>100.020</ele>
<time>2016-07-16T22:56:29.951Z</time>
</trkpt>
<trkpt lat="-26.9458177" lon="152.5678340">
<ele>101.671</ele>
<time>2016-07-16T22:56:33.032Z</time>
</trkpt>
<trkpt lat="-26.9461191" lon="152.5678808">
<ele>102.693</ele>
<time>2016-07-16T22:56:35.173Z</time>
</trkpt>
<trkpt lat="-26.9464498" lon="152.5678938">
<ele>102.306</ele>
<time>2016-07-16T22:56:38.087Z</time>
</trkpt>
<trkpt lat="-26.9465731" lon="152.5677740">
<ele>100.396</ele>
<time>2016-07-16T22:56:39.861Z</time>
</trkpt>
<trkpt lat="-26.9466440" lon="152.5675597">
<ele>97.644</ele>
<time>2016-07-16T22:56:41.830Z</time>
</trkpt>
<trkpt lat="-26.9467898" lon="152.5671661">
<ele>95.734</ele>
<time>2016-07-16T22:56:44.844Z</time>
</trkpt>
<trkpt lat="-26.9468824" lon="152.5668280">
<ele>96.043</ele>
<time>2016-07-16T22:56:46.904Z</time>
</trkpt>
<trkpt lat="-26.9469383" lon="152.5664521">
<ele>98.507</ele>
<time>2016-07-16T22:56:48.958Z</time>
</trkpt>
<trkpt lat="-26.9469724" lon="152.5660758">
<ele>101.905</ele>
<time>2016-07-16T22:56:50.932Z</time>
</trkpt>
<trkpt lat="-26.9470383" lon="152.5654955">
<ele>104.720</ele>
<time>2016-07-16T22:56:53.947Z</time>
</trkpt>
<trkpt lat="-26.9470885" lon="152.5649317">
<ele>106.144</ele>
<time>2016-07-16T22:56:56.862Z</time>
</trkpt>
<trkpt lat="-26.9471247" lon="152.5645297">
<ele>106.437</ele>
<time>2016-07-16T22:56:58.917Z</time>
</trkpt>
<trkpt lat="-26.9471703" lon="152.5639370">
<ele>106.178</ele>
<time>2016-07-16T22:57:01.927Z</time>
</trkpt>
<trkpt lat="-26.9471978" lon="152.5635450">
<ele>105.779</ele>
<time>2016-07-16T22:57:03.941Z</time>
</trkpt>
<trkpt lat="-26.9472297" lon="152.5631582">
<ele>105.526</ele>
<time>2016-07-16T22:57:05.989Z</time>
</trkpt>
<trkpt lat="-26.9472660" lon="152.5628042">
<ele>105.501</ele>
<time>2016-07-16T22:57:07.911Z</time>
</trkpt>
<trkpt lat="-26.9474065" lon="152.5620949">
<ele>105.506</ele>
<time>2016-07-16T22:57:11.949Z</time>
</trkpt>
<trkpt lat="-26.9475096" lon="152.5615995">
<ele>105.404</ele>
<time>2016-07-16T22:57:14.999Z</time>
</trkpt>
<trkpt lat="-26.9475749" lon="152.5613294">
<ele>105.064</ele>
<time>2016-07-16T22:57:17.101Z</time>
</trkpt>
<trkpt lat="-26.9476498" lon="152.5610539">
<ele>104.438</ele>
<time>2016-07-16T22:57:19.889Z</time>
</trkpt>
<trkpt lat="-26.9476720" lon="152.5609304">
<ele>103.293</ele>
<time>2016-07-16T22:57:21.689Z</time>
</trkpt>
<trkpt lat="-26.9476946" lon="152.5608277">
<ele>101.501</ele>
<time>2016-07-16T22:57:23.746Z</time>
</trkpt>
<trkpt lat="-26.9477241" lon="152.5607029">
<ele>99.651</ele>
<time>2016-07-16T22:57:26.999Z</time>
</trkpt>
<trkpt lat="-26.9477241" lon="152.5607029">
<ele>98.487</ele>
<time>2016-07-16T22:57:30.999Z</time>
</trkpt>
<trkpt lat="-26.9477241" lon="152.5607029">
<ele>98.089</ele>
<time>2016-07-16T22:57:54.201Z</time>
</trkpt>
<trkpt lat="-26.9477362" lon="152.5604536">
<ele>98.256</ele>
<time>2016-07-16T22:58:31.999Z</time>
</trkpt>
<trkpt lat="-26.9477362" lon="152.5604536">
<ele>98.606</ele>
<time>2016-07-16T22:58:35.999Z</time>
</trkpt>
<trkpt lat="-26.9477362" lon="152.5604536">
<ele>98.729</ele>
<time>2016-07-16T23:00:11.454Z</time>
</trkpt>
<trkpt lat="-26.9477356" lon="152.5602399">
<ele>98.621</ele>
<time>2016-07-16T23:00:16.327Z</time>
</trkpt>
<trkpt lat="-26.9477414" lon="152.5600358">
<ele>99.410</ele>
<time>2016-07-16T23:00:18.402Z</time>
</trkpt>
<trkpt lat="-26.9477783" lon="152.5596237">
<ele>101.883</ele>
<time>2016-07-16T23:00:21.952Z</time>
</trkpt>
<trkpt lat="-26.9478187" lon="152.5592542">
<ele>105.142</ele>
<time>2016-07-16T23:00:24.413Z</time>
</trkpt>
<trkpt lat="-26.9478631" lon="152.5588604">
<ele>108.038</ele>
<time>2016-07-16T23:00:26.601Z</time>
</trkpt>
<trkpt lat="-26.9479006" lon="152.5584377">
<ele>110.581</ele>
<time>2016-07-16T23:00:28.702Z</time>
</trkpt>
<trkpt lat="-26.9479611" lon="152.5577590">
<ele>113.104</ele>
<time>2016-07-16T23:00:31.661Z</time>
</trkpt>
<trkpt lat="-26.9480068" lon="152.5572744">
<ele>115.697</ele>
<time>2016-07-16T23:00:33.662Z</time>
</trkpt>
<trkpt lat="-26.9480753" lon="152.5565538">
<ele>118.005</ele>
<time>2016-07-16T23:00:36.625Z</time>
</trkpt>
<trkpt lat="-26.9481193" lon="152.5558227">
<ele>119.578</ele>
<time>2016-07-16T23:00:39.579Z</time>
</trkpt>
<trkpt lat="-26.9480668" lon="152.5550654">
<ele>120.166</ele>
<time>2016-07-16T23:00:42.605Z</time>
</trkpt>
<trkpt lat="-26.9479829" lon="152.5545738">
<ele>119.693</ele>
<time>2016-07-16T23:00:44.565Z</time>
</trkpt>
<trkpt lat="-26.9478606" lon="152.5540877">
<ele>118.487</ele>
<time>2016-07-16T23:00:46.508Z</time>
</trkpt>
<trkpt lat="-26.9475780" lon="152.5533675">
<ele>117.328</ele>
<time>2016-07-16T23:00:49.400Z</time>
</trkpt>
<trkpt lat="-26.9472233" lon="152.5526340">
<ele>116.715</ele>
<time>2016-07-16T23:00:52.372Z</time>
</trkpt>
<trkpt lat="-26.9468630" lon="152.5518951">
<ele>114.840</ele>
<time>2016-07-16T23:00:55.446Z</time>
</trkpt>
<trkpt lat="-26.9466239" lon="152.5514224">
<ele>110.452</ele>
<time>2016-07-16T23:00:57.520Z</time>
</trkpt>
<trkpt lat="-26.9464110" lon="152.5509718">
<ele>106.168</ele>
<time>2016-07-16T23:00:59.510Z</time>
</trkpt>
<trkpt lat="-26.9462241" lon="152.5505075">
<ele>104.808</ele>
<time>2016-07-16T23:01:01.474Z</time>
</trkpt>
<trkpt lat="-26.9460553" lon="152.5500217">
<ele>106.233</ele>
<time>2016-07-16T23:01:03.406Z</time>
</trkpt>
<trkpt lat="-26.9458831" lon="152.5492099">
<ele>109.213</ele>
<time>2016-07-16T23:01:06.332Z</time>
</trkpt>
<trkpt lat="-26.9458068" lon="152.5486222">
<ele>112.089</ele>
<time>2016-07-16T23:01:08.378Z</time>
</trkpt>
<trkpt lat="-26.9457225" lon="152.5477644">
<ele>113.667</ele>
<time>2016-07-16T23:01:11.409Z</time>
</trkpt>
<trkpt lat="-26.9456218" lon="152.5469345">
<ele>113.418</ele>
<time>2016-07-16T23:01:14.353Z</time>
</trkpt>
<trkpt lat="-26.9455287" lon="152.5463785">
<ele>111.306</ele>
<time>2016-07-16T23:01:16.274Z</time>
</trkpt>
<trkpt lat="-26.9453958" lon="152.5458087">
<ele>108.269</ele>
<time>2016-07-16T23:01:18.157Z</time>
</trkpt>
<trkpt lat="-26.9450913" lon="152.5448947">
<ele>105.762</ele>
<time>2016-07-16T23:01:21.199Z</time>
</trkpt>
<trkpt lat="-26.9448500" lon="152.5442922">
<ele>104.471</ele>
<time>2016-07-16T23:01:23.231Z</time>
</trkpt>
<trkpt lat="-26.9442584" lon="152.5431717">
<ele>104.667</ele>
<time>2016-07-16T23:01:27.196Z</time>
</trkpt>
<trkpt lat="-26.9439189" lon="152.5426336">
<ele>107.277</ele>
<time>2016-07-16T23:01:29.255Z</time>
</trkpt>
<trkpt lat="-26.9435898" lon="152.5421200">
<ele>112.390</ele>
<time>2016-07-16T23:01:31.348Z</time>
</trkpt>
<trkpt lat="-26.9431343" lon="152.5414225">
<ele>117.792</ele>
<time>2016-07-16T23:01:34.277Z</time>
</trkpt>
<trkpt lat="-26.9426663" lon="152.5407268">
<ele>122.330</ele>
<time>2016-07-16T23:01:37.212Z</time>
</trkpt>
<trkpt lat="-26.9423442" lon="152.5402316">
<ele>126.645</ele>
<time>2016-07-16T23:01:39.293Z</time>
</trkpt>
<trkpt lat="-26.9418901" lon="152.5395343">
<ele>130.106</ele>
<time>2016-07-16T23:01:42.291Z</time>
</trkpt>
<trkpt lat="-26.9414704" lon="152.5388209">
<ele>131.396</ele>
<time>2016-07-16T23:01:45.320Z</time>
</trkpt>
<trkpt lat="-26.9411697" lon="152.5380703">
<ele>130.319</ele>
<time>2016-07-16T23:01:48.243Z</time>
</trkpt>
<trkpt lat="-26.9410269" lon="152.5375234">
<ele>127.470</ele>
<time>2016-07-16T23:01:50.235Z</time>
</trkpt>
<trkpt lat="-26.9409478" lon="152.5369552">
<ele>123.927</ele>
<time>2016-07-16T23:01:52.204Z</time>
</trkpt>
<trkpt lat="-26.9409303" lon="152.5363661">
<ele>120.622</ele>
<time>2016-07-16T23:01:54.169Z</time>
</trkpt>
<trkpt lat="-26.9409958" lon="152.5357594">
<ele>118.214</ele>
<time>2016-07-16T23:01:56.164Z</time>
</trkpt>
<trkpt lat="-26.9411301" lon="152.5351479">
<ele>116.922</ele>
<time>2016-07-16T23:01:58.196Z</time>
</trkpt>
<trkpt lat="-26.9413521" lon="152.5342639">
<ele>116.398</ele>
<time>2016-07-16T23:02:01.137Z</time>
</trkpt>
<trkpt lat="-26.9415156" lon="152.5336754">
<ele>116.242</ele>
<time>2016-07-16T23:02:03.123Z</time>
</trkpt>
<trkpt lat="-26.9416706" lon="152.5330841">
<ele>116.273</ele>
<time>2016-07-16T23:02:05.170Z</time>
</trkpt>
<trkpt lat="-26.9418196" lon="152.5325150">
<ele>116.340</ele>
<time>2016-07-16T23:02:07.245Z</time>
</trkpt>
<trkpt lat="-26.9420129" lon="152.5317311">
<ele>116.106</ele>
<time>2016-07-16T23:02:10.200Z</time>
</trkpt>
<trkpt lat="-26.9422203" lon="152.5309590">
<ele>114.840</ele>
<time>2016-07-16T23:02:13.189Z</time>
</trkpt>
<trkpt lat="-26.9424189" lon="152.5301780">
<ele>112.636</ele>
<time>2016-07-16T23:02:16.216Z</time>
</trkpt>
<trkpt lat="-26.9425459" lon="152.5296629">
<ele>110.823</ele>
<time>2016-07-16T23:02:18.165Z</time>
</trkpt>
<trkpt lat="-26.9427499" lon="152.5288615">
<ele>110.219</ele>
<time>2016-07-16T23:02:21.121Z</time>
</trkpt>
<trkpt lat="-26.9428860" lon="152.5283077">
<ele>110.898</ele>
<time>2016-07-16T23:02:23.110Z</time>
</trkpt>
<trkpt lat="-26.9429970" lon="152.5277421">
<ele>112.628</ele>
<time>2016-07-16T23:02:25.107Z</time>
</trkpt>
<trkpt lat="-26.9430963" lon="152.5271555">
<ele>114.486</ele>
<time>2016-07-16T23:02:27.140Z</time>
</trkpt>
<trkpt lat="-26.9432504" lon="152.5262782">
<ele>115.741</ele>
<time>2016-07-16T23:02:30.094Z</time>
</trkpt>
<trkpt lat="-26.9434779" lon="152.5253878">
<ele>116.641</ele>
<time>2016-07-16T23:02:33.121Z</time>
</trkpt>
<trkpt lat="-26.9436810" lon="152.5248308">
<ele>117.690</ele>
<time>2016-07-16T23:02:35.117Z</time>
</trkpt>
<trkpt lat="-26.9439173" lon="152.5242952">
<ele>118.949</ele>
<time>2016-07-16T23:02:37.158Z</time>
</trkpt>
<trkpt lat="-26.9443162" lon="152.5235628">
<ele>119.897</ele>
<time>2016-07-16T23:02:40.143Z</time>
</trkpt>
<trkpt lat="-26.9446152" lon="152.5230996">
<ele>120.129</ele>
<time>2016-07-16T23:02:42.140Z</time>
</trkpt>
<trkpt lat="-26.9449054" lon="152.5226379">
<ele>119.847</ele>
<time>2016-07-16T23:02:44.063Z</time>
</trkpt>
<trkpt lat="-26.9453709" lon="152.5219081">
<ele>119.514</ele>
<time>2016-07-16T23:02:47.105Z</time>
</trkpt>
<trkpt lat="-26.9456741" lon="152.5214234">
<ele>119.502</ele>
<time>2016-07-16T23:02:49.164Z</time>
</trkpt>
<trkpt lat="-26.9460972" lon="152.5207314">
<ele>119.878</ele>
<time>2016-07-16T23:02:52.118Z</time>
</trkpt>
<trkpt lat="-26.9465342" lon="152.5200377">
<ele>120.317</ele>
<time>2016-07-16T23:02:55.090Z</time>
</trkpt>
<trkpt lat="-26.9468357" lon="152.5195712">
<ele>120.599</ele>
<time>2016-07-16T23:02:57.109Z</time>
</trkpt>
<trkpt lat="-26.9471453" lon="152.5190915">
<ele>120.831</ele>
<time>2016-07-16T23:02:59.224Z</time>
</trkpt>
<trkpt lat="-26.9475470" lon="152.5184027">
<ele>121.053</ele>
<time>2016-07-16T23:03:02.145Z</time>
</trkpt>
<trkpt lat="-26.9479099" lon="152.5176533">
<ele>121.387</ele>
<time>2016-07-16T23:03:05.070Z</time>
</trkpt>
<trkpt lat="-26.9481108" lon="152.5171017">
<ele>122.075</ele>
<time>2016-07-16T23:03:07.029Z</time>
</trkpt>
<trkpt lat="-26.9482543" lon="152.5165069">
<ele>123.253</ele>
<time>2016-07-16T23:03:09.135Z</time>
</trkpt>
<trkpt lat="-26.9483392" lon="152.5159412">
<ele>124.644</ele>
<time>2016-07-16T23:03:11.149Z</time>
</trkpt>
<trkpt lat="-26.9483907" lon="152.5148439">
<ele>125.518</ele>
<time>2016-07-16T23:03:15.125Z</time>
</trkpt>
<trkpt lat="-26.9483666" lon="152.5140316">
<ele>125.517</ele>
<time>2016-07-16T23:03:18.158Z</time>
</trkpt>
<trkpt lat="-26.9483538" lon="152.5135101">
<ele>125.125</ele>
<time>2016-07-16T23:03:20.168Z</time>
</trkpt>
<trkpt lat="-26.9483316" lon="152.5127412">
<ele>124.816</ele>
<time>2016-07-16T23:03:23.115Z</time>
</trkpt>
<trkpt lat="-26.9483201" lon="152.5122055">
<ele>124.669</ele>
<time>2016-07-16T23:03:25.182Z</time>
</trkpt>
<trkpt lat="-26.9482958" lon="152.5114310">
<ele>124.900</ele>
<time>2016-07-16T23:03:28.272Z</time>
</trkpt>
<trkpt lat="-26.9482345" lon="152.5109502">
<ele>125.615</ele>
<time>2016-07-16T23:03:30.279Z</time>
</trkpt>
<trkpt lat="-26.9480661" lon="152.5102586">
<ele>126.370</ele>
<time>2016-07-16T23:03:33.216Z</time>
</trkpt>
<trkpt lat="-26.9478632" lon="152.5098246">
<ele>126.775</ele>
<time>2016-07-16T23:03:35.151Z</time>
</trkpt>
<trkpt lat="-26.9474247" lon="152.5092159">
<ele>127.107</ele>
<time>2016-07-16T23:03:38.126Z</time>
</trkpt>
<trkpt lat="-26.9468648" lon="152.5087083">
<ele>127.860</ele>
<time>2016-07-16T23:03:41.086Z</time>
</trkpt>
<trkpt lat="-26.9462679" lon="152.5082124">
<ele>129.311</ele>
<time>2016-07-16T23:03:44.125Z</time>
</trkpt>
<trkpt lat="-26.9458966" lon="152.5078593">
<ele>131.107</ele>
<time>2016-07-16T23:03:46.174Z</time>
</trkpt>
<trkpt lat="-26.9454476" lon="152.5072623">
<ele>132.688</ele>
<time>2016-07-16T23:03:49.170Z</time>
</trkpt>
<trkpt lat="-26.9451635" lon="152.5065813">
<ele>134.131</ele>
<time>2016-07-16T23:03:52.046Z</time>
</trkpt>
<trkpt lat="-26.9450576" lon="152.5060594">
<ele>135.705</ele>
<time>2016-07-16T23:03:54.013Z</time>
</trkpt>
<trkpt lat="-26.9449569" lon="152.5055130">
<ele>137.857</ele>
<time>2016-07-16T23:03:56.060Z</time>
</trkpt>
<trkpt lat="-26.9448332" lon="152.5049730">
<ele>140.811</ele>
<time>2016-07-16T23:03:58.105Z</time>
</trkpt>
<trkpt lat="-26.9444365" lon="152.5039663">
<ele>143.534</ele>
<time>2016-07-16T23:04:02.079Z</time>
</trkpt>
<trkpt lat="-26.9440584" lon="152.5032388">
<ele>144.958</ele>
<time>2016-07-16T23:04:05.026Z</time>
</trkpt>
<trkpt lat="-26.9436671" lon="152.5024990">
<ele>145.729</ele>
<time>2016-07-16T23:04:08.026Z</time>
</trkpt>
<trkpt lat="-26.9432713" lon="152.5017697">
<ele>146.711</ele>
<time>2016-07-16T23:04:11.068Z</time>
</trkpt>
<trkpt lat="-26.9430298" lon="152.5013044">
<ele>147.678</ele>
<time>2016-07-16T23:04:13.039Z</time>
</trkpt>
<trkpt lat="-26.9428063" lon="152.5008283">
<ele>148.027</ele>
<time>2016-07-16T23:04:15.033Z</time>
</trkpt>
<trkpt lat="-26.9425391" lon="152.5000785">
<ele>147.699</ele>
<time>2016-07-16T23:04:18.011Z</time>
</trkpt>
<trkpt lat="-26.9423448" lon="152.4992856">
<ele>147.146</ele>
<time>2016-07-16T23:04:20.994Z</time>
</trkpt>
<trkpt lat="-26.9421733" lon="152.4984609">
<ele>147.187</ele>
<time>2016-07-16T23:04:24.014Z</time>
</trkpt>
<trkpt lat="-26.9420520" lon="152.4979132">
<ele>148.369</ele>
<time>2016-07-16T23:04:25.940Z</time>
</trkpt>
<trkpt lat="-26.9418835" lon="152.4970583">
<ele>150.506</ele>
<time>2016-07-16T23:04:28.882Z</time>
</trkpt>
<trkpt lat="-26.9416833" lon="152.4961722">
<ele>153.329</ele>
<time>2016-07-16T23:04:31.978Z</time>
</trkpt>
<trkpt lat="-26.9415208" lon="152.4956196">
<ele>156.334</ele>
<time>2016-07-16T23:04:34.031Z</time>
</trkpt>
<trkpt lat="-26.9413504" lon="152.4950934">
<ele>158.507</ele>
<time>2016-07-16T23:04:36.025Z</time>
</trkpt>
<trkpt lat="-26.9410112" lon="152.4943616">
<ele>159.398</ele>
<time>2016-07-16T23:04:38.957Z</time>
</trkpt>
<trkpt lat="-26.9407331" lon="152.4938997">
<ele>159.651</ele>
<time>2016-07-16T23:04:40.941Z</time>
</trkpt>
<trkpt lat="-26.9404080" lon="152.4934612">
<ele>160.089</ele>
<time>2016-07-16T23:04:42.957Z</time>
</trkpt>
<trkpt lat="-26.9398544" lon="152.4928408">
<ele>161.471</ele>
<time>2016-07-16T23:04:46.000Z</time>
</trkpt>
<trkpt lat="-26.9394836" lon="152.4924436">
<ele>164.187</ele>
<time>2016-07-16T23:04:47.966Z</time>
</trkpt>
<trkpt lat="-26.9391137" lon="152.4920294">
<ele>167.705</ele>
<time>2016-07-16T23:04:49.977Z</time>
</trkpt>
<trkpt lat="-26.9387463" lon="152.4916238">
<ele>170.847</ele>
<time>2016-07-16T23:04:51.968Z</time>
</trkpt>
<trkpt lat="-26.9383803" lon="152.4912228">
<ele>173.184</ele>
<time>2016-07-16T23:04:53.908Z</time>
</trkpt>
<trkpt lat="-26.9380016" lon="152.4908017">
<ele>174.950</ele>
<time>2016-07-16T23:04:55.921Z</time>
</trkpt>
<trkpt lat="-26.9376275" lon="152.4903874">
<ele>176.549</ele>
<time>2016-07-16T23:04:57.959Z</time>
</trkpt>
<trkpt lat="-26.9372637" lon="152.4899812">
<ele>178.591</ele>
<time>2016-07-16T23:05:00.066Z</time>
</trkpt>
<trkpt lat="-26.9367478" lon="152.4894378">
<ele>181.011</ele>
<time>2016-07-16T23:05:03.066Z</time>
</trkpt>
<trkpt lat="-26.9363900" lon="152.4891203">
<ele>182.973</ele>
<time>2016-07-16T23:05:05.003Z</time>
</trkpt>
<trkpt lat="-26.9357777" lon="152.4886905">
<ele>184.271</ele>
<time>2016-07-16T23:05:07.984Z</time>
</trkpt>
<trkpt lat="-26.9351238" lon="152.4882762">
<ele>185.582</ele>
<time>2016-07-16T23:05:10.978Z</time>
</trkpt>
<trkpt lat="-26.9346902" lon="152.4879909">
<ele>187.629</ele>
<time>2016-07-16T23:05:12.973Z</time>
</trkpt>
<trkpt lat="-26.9342624" lon="152.4877117">
<ele>190.060</ele>
<time>2016-07-16T23:05:14.959Z</time>
</trkpt>
<trkpt lat="-26.9336376" lon="152.4872642">
<ele>191.542</ele>
<time>2016-07-16T23:05:17.950Z</time>
</trkpt>
<trkpt lat="-26.9331015" lon="152.4867037">
<ele>191.481</ele>
<time>2016-07-16T23:05:20.933Z</time>
</trkpt>
<trkpt lat="-26.9328145" lon="152.4862575">
<ele>190.621</ele>
<time>2016-07-16T23:05:22.961Z</time>
</trkpt>
<trkpt lat="-26.9324931" lon="152.4855452">
<ele>189.923</ele>
<time>2016-07-16T23:05:25.902Z</time>
</trkpt>
<trkpt lat="-26.9323599" lon="152.4850143">
<ele>190.166</ele>
<time>2016-07-16T23:05:27.863Z</time>
</trkpt>
<trkpt lat="-26.9322764" lon="152.4841629">
<ele>191.624</ele>
<time>2016-07-16T23:05:30.897Z</time>
</trkpt>
<trkpt lat="-26.9322266" lon="152.4836112">
<ele>193.453</ele>
<time>2016-07-16T23:05:32.904Z</time>
</trkpt>
<trkpt lat="-26.9321267" lon="152.4830846">
<ele>194.298</ele>
<time>2016-07-16T23:05:34.853Z</time>
</trkpt>
<trkpt lat="-26.9319009" lon="152.4822817">
<ele>193.594</ele>
<time>2016-07-16T23:05:37.844Z</time>
</trkpt>
<trkpt lat="-26.9316783" lon="152.4817360">
<ele>191.476</ele>
<time>2016-07-16T23:05:39.878Z</time>
</trkpt>
<trkpt lat="-26.9314513" lon="152.4811891">
<ele>188.784</ele>
<time>2016-07-16T23:05:41.882Z</time>
</trkpt>
<trkpt lat="-26.9311351" lon="152.4803528">
<ele>186.720</ele>
<time>2016-07-16T23:05:44.927Z</time>
</trkpt>
<trkpt lat="-26.9308759" lon="152.4795256">
<ele>185.272</ele>
<time>2016-07-16T23:05:47.944Z</time>
</trkpt>
<trkpt lat="-26.9306313" lon="152.4787320">
<ele>183.416</ele>
<time>2016-07-16T23:05:50.809Z</time>
</trkpt>
<trkpt lat="-26.9303712" lon="152.4778732">
<ele>181.314</ele>
<time>2016-07-16T23:05:53.840Z</time>
</trkpt>
<trkpt lat="-26.9301080" lon="152.4770243">
<ele>179.938</ele>
<time>2016-07-16T23:05:56.925Z</time>
</trkpt>
<trkpt lat="-26.9298699" lon="152.4762433">
<ele>179.473</ele>
<time>2016-07-16T23:05:59.844Z</time>
</trkpt>
<trkpt lat="-26.9297106" lon="152.4757091">
<ele>179.009</ele>
<time>2016-07-16T23:06:01.812Z</time>
</trkpt>
<trkpt lat="-26.9294617" lon="152.4748737">
<ele>177.927</ele>
<time>2016-07-16T23:06:04.896Z</time>
</trkpt>
<trkpt lat="-26.9293430" lon="152.4743298">
<ele>176.793</ele>
<time>2016-07-16T23:06:06.904Z</time>
</trkpt>
<trkpt lat="-26.9292855" lon="152.4737914">
<ele>176.031</ele>
<time>2016-07-16T23:06:08.891Z</time>
</trkpt>
<trkpt lat="-26.9292814" lon="152.4729753">
<ele>174.990</ele>
<time>2016-07-16T23:06:11.915Z</time>
</trkpt>
<trkpt lat="-26.9293856" lon="152.4724619">
<ele>173.203</ele>
<time>2016-07-16T23:06:13.894Z</time>
</trkpt>
<trkpt lat="-26.9296560" lon="152.4717331">
<ele>171.233</ele>
<time>2016-07-16T23:06:16.818Z</time>
</trkpt>
<trkpt lat="-26.9300800" lon="152.4710508">
<ele>170.141</ele>
<time>2016-07-16T23:06:19.757Z</time>
</trkpt>
<trkpt lat="-26.9306694" lon="152.4704453">
<ele>170.515</ele>
<time>2016-07-16T23:06:22.737Z</time>
</trkpt>
<trkpt lat="-26.9313987" lon="152.4699586">
<ele>172.022</ele>
<time>2016-07-16T23:06:25.843Z</time>
</trkpt>
<trkpt lat="-26.9320919" lon="152.4695286">
<ele>173.661</ele>
<time>2016-07-16T23:06:28.847Z</time>
</trkpt>
<trkpt lat="-26.9327547" lon="152.4690852">
<ele>174.518</ele>
<time>2016-07-16T23:06:31.847Z</time>
</trkpt>
<trkpt lat="-26.9331690" lon="152.4687684">
<ele>173.916</ele>
<time>2016-07-16T23:06:33.790Z</time>
</trkpt>
<trkpt lat="-26.9335726" lon="152.4683944">
<ele>171.855</ele>
<time>2016-07-16T23:06:35.764Z</time>
</trkpt>
<trkpt lat="-26.9341158" lon="152.4677377">
<ele>169.044</ele>
<time>2016-07-16T23:06:38.727Z</time>
</trkpt>
<trkpt lat="-26.9346307" lon="152.4669922">
<ele>166.380</ele>
<time>2016-07-16T23:06:41.870Z</time>
</trkpt>
<trkpt lat="-26.9349313" lon="152.4665228">
<ele>164.652</ele>
<time>2016-07-16T23:06:43.870Z</time>
</trkpt>
<trkpt lat="-26.9353528" lon="152.4658168">
<ele>163.563</ele>
<time>2016-07-16T23:06:46.783Z</time>
</trkpt>
<trkpt lat="-26.9356027" lon="152.4652816">
<ele>161.978</ele>
<time>2016-07-16T23:06:48.787Z</time>
</trkpt>
<trkpt lat="-26.9357983" lon="152.4646961">
<ele>160.074</ele>
<time>2016-07-16T23:06:50.840Z</time>
</trkpt>
<trkpt lat="-26.9359876" lon="152.4638085">
<ele>158.828</ele>
<time>2016-07-16T23:06:53.839Z</time>
</trkpt>
<trkpt lat="-26.9360593" lon="152.4632193">
<ele>158.410</ele>
<time>2016-07-16T23:06:55.852Z</time>
</trkpt>
<trkpt lat="-26.9360609" lon="152.4623490">
<ele>158.164</ele>
<time>2016-07-16T23:06:58.831Z</time>
</trkpt>
<trkpt lat="-26.9359618" lon="152.4614922">
<ele>157.624</ele>
<time>2016-07-16T23:07:01.809Z</time>
</trkpt>
<trkpt lat="-26.9358339" lon="152.4609369">
<ele>157.401</ele>
<time>2016-07-16T23:07:03.821Z</time>
</trkpt>
<trkpt lat="-26.9356574" lon="152.4604114">
<ele>158.219</ele>
<time>2016-07-16T23:07:05.822Z</time>
</trkpt>
<trkpt lat="-26.9354421" lon="152.4599078">
<ele>159.567</ele>
<time>2016-07-16T23:07:07.799Z</time>
</trkpt>
<trkpt lat="-26.9350645" lon="152.4591486">
<ele>160.517</ele>
<time>2016-07-16T23:07:10.822Z</time>
</trkpt>
<trkpt lat="-26.9346953" lon="152.4583664">
<ele>160.846</ele>
<time>2016-07-16T23:07:13.823Z</time>
</trkpt>
<trkpt lat="-26.9343068" lon="152.4575703">
<ele>160.615</ele>
<time>2016-07-16T23:07:16.849Z</time>
</trkpt>
<trkpt lat="-26.9340677" lon="152.4570268">
<ele>159.911</ele>
<time>2016-07-16T23:07:18.865Z</time>
</trkpt>
<trkpt lat="-26.9338635" lon="152.4564774">
<ele>158.729</ele>
<time>2016-07-16T23:07:20.875Z</time>
</trkpt>
<trkpt lat="-26.9336257" lon="152.4556487">
<ele>156.971</ele>
<time>2016-07-16T23:07:23.861Z</time>
</trkpt>
<trkpt lat="-26.9334468" lon="152.4548275">
<ele>154.929</ele>
<time>2016-07-16T23:07:26.842Z</time>
</trkpt>
<trkpt lat="-26.9333891" lon="152.4545473">
<ele>153.138</ele>
<time>2016-07-16T23:07:27.862Z</time>
</trkpt>
<trkpt lat="-26.9331590" lon="152.4534297">
<ele>151.827</ele>
<time>2016-07-16T23:07:31.877Z</time>
</trkpt>
<trkpt lat="-26.9330448" lon="152.4528798">
<ele>150.957</ele>
<time>2016-07-16T23:07:33.862Z</time>
</trkpt>
<trkpt lat="-26.9328844" lon="152.4520779">
<ele>150.372</ele>
<time>2016-07-16T23:07:36.755Z</time>
</trkpt>
<trkpt lat="-26.9327638" lon="152.4515084">
<ele>150.506</ele>
<time>2016-07-16T23:07:38.788Z</time>
</trkpt>
<trkpt lat="-26.9326605" lon="152.4509489">
<ele>152.258</ele>
<time>2016-07-16T23:07:40.793Z</time>
</trkpt>
<trkpt lat="-26.9324922" lon="152.4501445">
<ele>155.209</ele>
<time>2016-07-16T23:07:43.747Z</time>
</trkpt>
<trkpt lat="-26.9323757" lon="152.4496142">
<ele>157.817</ele>
<time>2016-07-16T23:07:45.779Z</time>
</trkpt>
<trkpt lat="-26.9322649" lon="152.4491049">
<ele>159.667</ele>
<time>2016-07-16T23:07:47.795Z</time>
</trkpt>
<trkpt lat="-26.9321086" lon="152.4483546">
<ele>161.190</ele>
<time>2016-07-16T23:07:50.761Z</time>
</trkpt>
<trkpt lat="-26.9319734" lon="152.4475959">
<ele>162.639</ele>
<time>2016-07-16T23:07:53.638Z</time>
</trkpt>
<trkpt lat="-26.9319393" lon="152.4467512">
<ele>164.208</ele>
<time>2016-07-16T23:07:56.623Z</time>
</trkpt>
<trkpt lat="-26.9319813" lon="152.4461596">
<ele>166.653</ele>
<time>2016-07-16T23:07:58.682Z</time>
</trkpt>
<trkpt lat="-26.9320726" lon="152.4455987">
<ele>170.525</ele>
<time>2016-07-16T23:08:00.751Z</time>
</trkpt>
<trkpt lat="-26.9322724" lon="152.4448331">
<ele>174.634</ele>
<time>2016-07-16T23:08:03.746Z</time>
</trkpt>
<trkpt lat="-26.9324270" lon="152.4443360">
<ele>177.268</ele>
<time>2016-07-16T23:08:05.724Z</time>
</trkpt>
<trkpt lat="-26.9326716" lon="152.4435666">
<ele>178.577</ele>
<time>2016-07-16T23:08:08.652Z</time>
</trkpt>
<trkpt lat="-26.9328523" lon="152.4430223">
<ele>179.782</ele>
<time>2016-07-16T23:08:10.653Z</time>
</trkpt>
<trkpt lat="-26.9330300" lon="152.4424736">
<ele>181.365</ele>
<time>2016-07-16T23:08:12.652Z</time>
</trkpt>
<trkpt lat="-26.9331867" lon="152.4419222">
<ele>182.455</ele>
<time>2016-07-16T23:08:14.643Z</time>
</trkpt>
<trkpt lat="-26.9333317" lon="152.4410780">
<ele>182.047</ele>
<time>2016-07-16T23:08:17.651Z</time>
</trkpt>
<trkpt lat="-26.9333915" lon="152.4402191">
<ele>180.053</ele>
<time>2016-07-16T23:08:20.715Z</time>
</trkpt>
<trkpt lat="-26.9334152" lon="152.4393716">
<ele>176.821</ele>
<time>2016-07-16T23:08:23.718Z</time>
</trkpt>
<trkpt lat="-26.9334138" lon="152.4390796">
<ele>172.677</ele>
<time>2016-07-16T23:08:24.740Z</time>
</trkpt>
<trkpt lat="-26.9334376" lon="152.4379325">
<ele>168.513</ele>
<time>2016-07-16T23:08:28.728Z</time>
</trkpt>
<trkpt lat="-26.9334481" lon="152.4373617">
<ele>164.657</ele>
<time>2016-07-16T23:08:30.692Z</time>
</trkpt>
<trkpt lat="-26.9334592" lon="152.4367827">
<ele>160.524</ele>
<time>2016-07-16T23:08:32.674Z</time>
</trkpt>
<trkpt lat="-26.9334743" lon="152.4361994">
<ele>156.412</ele>
<time>2016-07-16T23:08:34.693Z</time>
</trkpt>
<trkpt lat="-26.9334777" lon="152.4353421">
<ele>153.003</ele>
<time>2016-07-16T23:08:37.722Z</time>
</trkpt>
<trkpt lat="-26.9334866" lon="152.4345255">
<ele>149.832</ele>
<time>2016-07-16T23:08:40.701Z</time>
</trkpt>
<trkpt lat="-26.9334968" lon="152.4339978">
<ele>146.747</ele>
<time>2016-07-16T23:08:42.683Z</time>
</trkpt>
<trkpt lat="-26.9335017" lon="152.4334699">
<ele>144.426</ele>
<time>2016-07-16T23:08:44.709Z</time>
</trkpt>
<trkpt lat="-26.9335413" lon="152.4327054">
<ele>143.266</ele>
<time>2016-07-16T23:08:47.659Z</time>
</trkpt>
<trkpt lat="-26.9336120" lon="152.4321919">
<ele>142.573</ele>
<time>2016-07-16T23:08:49.534Z</time>
</trkpt>
<trkpt lat="-26.9337271" lon="152.4316176">
<ele>141.699</ele>
<time>2016-07-16T23:08:51.479Z</time>
</trkpt>
<trkpt lat="-26.9338743" lon="152.4309939">
<ele>141.096</ele>
<time>2016-07-16T23:08:53.513Z</time>
</trkpt>
<trkpt lat="-26.9340417" lon="152.4303785">
<ele>141.276</ele>
<time>2016-07-16T23:08:55.553Z</time>
</trkpt>
<trkpt lat="-26.9341889" lon="152.4297925">
<ele>141.706</ele>
<time>2016-07-16T23:08:57.504Z</time>
</trkpt>
<trkpt lat="-26.9344188" lon="152.4289059">
<ele>141.417</ele>
<time>2016-07-16T23:09:00.494Z</time>
</trkpt>
<trkpt lat="-26.9346271" lon="152.4280128">
<ele>140.219</ele>
<time>2016-07-16T23:09:03.582Z</time>
</trkpt>
<trkpt lat="-26.9347226" lon="152.4274459">
<ele>138.276</ele>
<time>2016-07-16T23:09:05.604Z</time>
</trkpt>
<trkpt lat="-26.9347472" lon="152.4269036">
<ele>135.163</ele>
<time>2016-07-16T23:09:07.512Z</time>
</trkpt>
<trkpt lat="-26.9347166" lon="152.4263358">
<ele>131.338</ele>
<time>2016-07-16T23:09:09.491Z</time>
</trkpt>
<trkpt lat="-26.9345698" lon="152.4254722">
<ele>128.560</ele>
<time>2016-07-16T23:09:12.492Z</time>
</trkpt>
<trkpt lat="-26.9342525" lon="152.4246498">
<ele>127.284</ele>
<time>2016-07-16T23:09:15.439Z</time>
</trkpt>
<trkpt lat="-26.9339352" lon="152.4241080">
<ele>126.692</ele>
<time>2016-07-16T23:09:17.496Z</time>
</trkpt>
<trkpt lat="-26.9336424" lon="152.4235779">
<ele>126.541</ele>
<time>2016-07-16T23:09:19.492Z</time>
</trkpt>
<trkpt lat="-26.9332605" lon="152.4227615">
<ele>126.882</ele>
<time>2016-07-16T23:09:22.448Z</time>
</trkpt>
<trkpt lat="-26.9330080" lon="152.4218534">
<ele>127.335</ele>
<time>2016-07-16T23:09:25.455Z</time>
</trkpt>
<trkpt lat="-26.9329007" lon="152.4212244">
<ele>128.153</ele>
<time>2016-07-16T23:09:27.480Z</time>
</trkpt>
<trkpt lat="-26.9328626" lon="152.4206051">
<ele>129.707</ele>
<time>2016-07-16T23:09:29.531Z</time>
</trkpt>
<trkpt lat="-26.9328663" lon="152.4200287">
<ele>130.639</ele>
<time>2016-07-16T23:09:31.526Z</time>
</trkpt>
<trkpt lat="-26.9329622" lon="152.4191873">
<ele>129.242</ele>
<time>2016-07-16T23:09:34.501Z</time>
</trkpt>
<trkpt lat="-26.9330926" lon="152.4186356">
<ele>126.141</ele>
<time>2016-07-16T23:09:36.495Z</time>
</trkpt>
<trkpt lat="-26.9333729" lon="152.4178353">
<ele>123.298</ele>
<time>2016-07-16T23:09:39.471Z</time>
</trkpt>
<trkpt lat="-26.9337456" lon="152.4170627">
<ele>121.739</ele>
<time>2016-07-16T23:09:42.464Z</time>
</trkpt>
<trkpt lat="-26.9342299" lon="152.4163598">
<ele>121.282</ele>
<time>2016-07-16T23:09:45.446Z</time>
</trkpt>
<trkpt lat="-26.9348011" lon="152.4157233">
<ele>121.493</ele>
<time>2016-07-16T23:09:48.463Z</time>
</trkpt>
<trkpt lat="-26.9351986" lon="152.4153354">
<ele>121.994</ele>
<time>2016-07-16T23:09:50.481Z</time>
</trkpt>
<trkpt lat="-26.9357879" lon="152.4147840">
<ele>122.450</ele>
<time>2016-07-16T23:09:53.462Z</time>
</trkpt>
<trkpt lat="-26.9361814" lon="152.4144075">
<ele>122.340</ele>
<time>2016-07-16T23:09:55.494Z</time>
</trkpt>
<trkpt lat="-26.9367692" lon="152.4138493">
<ele>121.416</ele>
<time>2016-07-16T23:09:58.571Z</time>
</trkpt>
<trkpt lat="-26.9371169" lon="152.4134841">
<ele>120.176</ele>
<time>2016-07-16T23:10:00.596Z</time>
</trkpt>
<trkpt lat="-26.9374200" lon="152.4131034">
<ele>119.093</ele>
<time>2016-07-16T23:10:02.567Z</time>
</trkpt>
<trkpt lat="-26.9377820" lon="152.4124356">
<ele>118.198</ele>
<time>2016-07-16T23:10:05.552Z</time>
</trkpt>
<trkpt lat="-26.9380156" lon="152.4117008">
<ele>117.551</ele>
<time>2016-07-16T23:10:08.438Z</time>
</trkpt>
<trkpt lat="-26.9380945" lon="152.4111440">
<ele>117.275</ele>
<time>2016-07-16T23:10:10.413Z</time>
</trkpt>
<trkpt lat="-26.9381325" lon="152.4105438">
<ele>117.493</ele>
<time>2016-07-16T23:10:12.453Z</time>
</trkpt>
<trkpt lat="-26.9381931" lon="152.4096581">
<ele>118.065</ele>
<time>2016-07-16T23:10:15.407Z</time>
</trkpt>
<trkpt lat="-26.9383889" lon="152.4087521">
<ele>118.642</ele>
<time>2016-07-16T23:10:18.407Z</time>
</trkpt>
<trkpt lat="-26.9386036" lon="152.4081491">
<ele>119.079</ele>
<time>2016-07-16T23:10:20.411Z</time>
</trkpt>
<trkpt lat="-26.9389783" lon="152.4072426">
<ele>119.333</ele>
<time>2016-07-16T23:10:23.506Z</time>
</trkpt>
<trkpt lat="-26.9393290" lon="152.4063979">
<ele>119.205</ele>
<time>2016-07-16T23:10:26.485Z</time>
</trkpt>
<trkpt lat="-26.9395582" lon="152.4058512">
<ele>118.337</ele>
<time>2016-07-16T23:10:28.484Z</time>
</trkpt>
<trkpt lat="-26.9397767" lon="152.4053104">
<ele>116.728</ele>
<time>2016-07-16T23:10:30.464Z</time>
</trkpt>
<trkpt lat="-26.9400687" lon="152.4044709">
<ele>114.830</ele>
<time>2016-07-16T23:10:33.456Z</time>
</trkpt>
<trkpt lat="-26.9402326" lon="152.4038802">
<ele>113.162</ele>
<time>2016-07-16T23:10:35.508Z</time>
</trkpt>
<trkpt lat="-26.9403850" lon="152.4033109">
<ele>112.108</ele>
<time>2016-07-16T23:10:37.516Z</time>
</trkpt>
<trkpt lat="-26.9405353" lon="152.4027656">
<ele>111.666</ele>
<time>2016-07-16T23:10:39.472Z</time>
</trkpt>
<trkpt lat="-26.9407590" lon="152.4019400">
<ele>111.534</ele>
<time>2016-07-16T23:10:42.412Z</time>
</trkpt>
<trkpt lat="-26.9409851" lon="152.4010755">
<ele>111.667</ele>
<time>2016-07-16T23:10:45.399Z</time>
</trkpt>
<trkpt lat="-26.9411459" lon="152.4004737">
<ele>112.540</ele>
<time>2016-07-16T23:10:47.401Z</time>
</trkpt>
<trkpt lat="-26.9413101" lon="152.3998571">
<ele>114.732</ele>
<time>2016-07-16T23:10:49.420Z</time>
</trkpt>
<trkpt lat="-26.9415278" lon="152.3989313">
<ele>117.606</ele>
<time>2016-07-16T23:10:52.425Z</time>
</trkpt>
<trkpt lat="-26.9416401" lon="152.3979988">
<ele>119.596</ele>
<time>2016-07-16T23:10:55.408Z</time>
</trkpt>
<trkpt lat="-26.9416347" lon="152.3973808">
<ele>120.129</ele>
<time>2016-07-16T23:10:57.405Z</time>
</trkpt>
<trkpt lat="-26.9415750" lon="152.3964711">
<ele>120.071</ele>
<time>2016-07-16T23:11:00.405Z</time>
</trkpt>
<trkpt lat="-26.9415516" lon="152.3958839">
<ele>121.044</ele>
<time>2016-07-16T23:11:02.428Z</time>
</trkpt>
<trkpt lat="-26.9415733" lon="152.3953321">
<ele>123.592</ele>
<time>2016-07-16T23:11:04.429Z</time>
</trkpt>
<trkpt lat="-26.9415879" lon="152.3950656">
<ele>126.217</ele>
<time>2016-07-16T23:11:05.416Z</time>
</trkpt>
<trkpt lat="-26.9417787" lon="152.3939908">
<ele>127.526</ele>
<time>2016-07-16T23:11:09.468Z</time>
</trkpt>
<trkpt lat="-26.9419401" lon="152.3934858">
<ele>127.670</ele>
<time>2016-07-16T23:11:11.416Z</time>
</trkpt>
<trkpt lat="-26.9422625" lon="152.3927496">
<ele>126.911</ele>
<time>2016-07-16T23:11:14.316Z</time>
</trkpt>
<trkpt lat="-26.9425512" lon="152.3922389">
<ele>125.333</ele>
<time>2016-07-16T23:11:16.366Z</time>
</trkpt>
<trkpt lat="-26.9431994" lon="152.3911629">
<ele>123.483</ele>
<time>2016-07-16T23:11:20.499Z</time>
</trkpt>
<trkpt lat="-26.9435225" lon="152.3906538">
<ele>121.609</ele>
<time>2016-07-16T23:11:22.486Z</time>
</trkpt>
<trkpt lat="-26.9438414" lon="152.3901512">
<ele>118.730</ele>
<time>2016-07-16T23:11:24.497Z</time>
</trkpt>
<trkpt lat="-26.9442979" lon="152.3894234">
<ele>114.645</ele>
<time>2016-07-16T23:11:27.451Z</time>
</trkpt>
<trkpt lat="-26.9446036" lon="152.3889677">
<ele>110.471</ele>
<time>2016-07-16T23:11:29.371Z</time>
</trkpt>
<trkpt lat="-26.9449101" lon="152.3884839">
<ele>107.183</ele>
<time>2016-07-16T23:11:31.368Z</time>
</trkpt>
<trkpt lat="-26.9452091" lon="152.3879928">
<ele>105.445</ele>
<time>2016-07-16T23:11:33.353Z</time>
</trkpt>
<trkpt lat="-26.9455068" lon="152.3874969">
<ele>105.492</ele>
<time>2016-07-16T23:11:35.312Z</time>
</trkpt>
<trkpt lat="-26.9458287" lon="152.3869794">
<ele>106.541</ele>
<time>2016-07-16T23:11:37.361Z</time>
</trkpt>
<trkpt lat="-26.9461514" lon="152.3864681">
<ele>108.379</ele>
<time>2016-07-16T23:11:39.404Z</time>
</trkpt>
<trkpt lat="-26.9467489" lon="152.3854930">
<ele>110.948</ele>
<time>2016-07-16T23:11:43.408Z</time>
</trkpt>
<trkpt lat="-26.9470193" lon="152.3850180">
<ele>113.043</ele>
<time>2016-07-16T23:11:45.389Z</time>
</trkpt>
<trkpt lat="-26.9473790" lon="152.3842823">
<ele>113.423</ele>
<time>2016-07-16T23:11:48.372Z</time>
</trkpt>
<trkpt lat="-26.9476895" lon="152.3835153">
<ele>112.409</ele>
<time>2016-07-16T23:11:51.363Z</time>
</trkpt>
<trkpt lat="-26.9478721" lon="152.3829822">
<ele>111.068</ele>
<time>2016-07-16T23:11:53.331Z</time>
</trkpt>
<trkpt lat="-26.9480993" lon="152.3821250">
<ele>110.161</ele>
<time>2016-07-16T23:11:56.324Z</time>
</trkpt>
<trkpt lat="-26.9482136" lon="152.3815248">
<ele>109.862</ele>
<time>2016-07-16T23:11:58.281Z</time>
</trkpt>
<trkpt lat="-26.9483320" lon="152.3805621">
<ele>110.219</ele>
<time>2016-07-16T23:12:01.307Z</time>
</trkpt>
<trkpt lat="-26.9483575" lon="152.3799212">
<ele>110.971</ele>
<time>2016-07-16T23:12:03.312Z</time>
</trkpt>
<trkpt lat="-26.9483564" lon="152.3792895">
<ele>111.474</ele>
<time>2016-07-16T23:12:05.368Z</time>
</trkpt>
<trkpt lat="-26.9483644" lon="152.3789908">
<ele>111.181</ele>
<time>2016-07-16T23:12:06.365Z</time>
</trkpt>
<trkpt lat="-26.9483492" lon="152.3778369">
<ele>109.967</ele>
<time>2016-07-16T23:12:10.285Z</time>
</trkpt>
<trkpt lat="-26.9483362" lon="152.3769394">
<ele>108.329</ele>
<time>2016-07-16T23:12:13.300Z</time>
</trkpt>
<trkpt lat="-26.9483140" lon="152.3760485">
<ele>107.538</ele>
<time>2016-07-16T23:12:16.280Z</time>
</trkpt>
<trkpt lat="-26.9483023" lon="152.3751570">
<ele>108.280</ele>
<time>2016-07-16T23:12:19.234Z</time>
</trkpt>
<trkpt lat="-26.9482817" lon="152.3745389">
<ele>110.139</ele>
<time>2016-07-16T23:12:21.238Z</time>
</trkpt>
<trkpt lat="-26.9482366" lon="152.3739086">
<ele>112.684</ele>
<time>2016-07-16T23:12:23.289Z</time>
</trkpt>
<trkpt lat="-26.9481651" lon="152.3733098">
<ele>115.372</ele>
<time>2016-07-16T23:12:25.291Z</time>
</trkpt>
<trkpt lat="-26.9480727" lon="152.3727331">
<ele>117.279</ele>
<time>2016-07-16T23:12:27.276Z</time>
</trkpt>
<trkpt lat="-26.9478965" lon="152.3718884">
<ele>118.070</ele>
<time>2016-07-16T23:12:30.252Z</time>
</trkpt>
<trkpt lat="-26.9476679" lon="152.3710706">
<ele>118.423</ele>
<time>2016-07-16T23:12:33.207Z</time>
</trkpt>
<trkpt lat="-26.9474717" lon="152.3705053">
<ele>119.181</ele>
<time>2016-07-16T23:12:35.252Z</time>
</trkpt>
<trkpt lat="-26.9471337" lon="152.3696757">
<ele>120.426</ele>
<time>2016-07-16T23:12:38.320Z</time>
</trkpt>
<trkpt lat="-26.9467899" lon="152.3689162">
<ele>122.094</ele>
<time>2016-07-16T23:12:41.299Z</time>
</trkpt>
<trkpt lat="-26.9466743" lon="152.3686738">
<ele>124.016</ele>
<time>2016-07-16T23:12:42.299Z</time>
</trkpt>
<trkpt lat="-26.9462206" lon="152.3676987">
<ele>125.334</ele>
<time>2016-07-16T23:12:46.266Z</time>
</trkpt>
<trkpt lat="-26.9458630" lon="152.3669328">
<ele>125.554</ele>
<time>2016-07-16T23:12:49.253Z</time>
</trkpt>
<trkpt lat="-26.9456125" lon="152.3664016">
<ele>125.159</ele>
<time>2016-07-16T23:12:51.221Z</time>
</trkpt>
<trkpt lat="-26.9452264" lon="152.3655476">
<ele>124.632</ele>
<time>2016-07-16T23:12:54.233Z</time>
</trkpt>
<trkpt lat="-26.9450076" lon="152.3649413">
<ele>124.010</ele>
<time>2016-07-16T23:12:56.215Z</time>
</trkpt>
<trkpt lat="-26.9448186" lon="152.3643208">
<ele>122.981</ele>
<time>2016-07-16T23:12:58.179Z</time>
</trkpt>
<trkpt lat="-26.9446533" lon="152.3636719">
<ele>121.495</ele>
<time>2016-07-16T23:13:00.185Z</time>
</trkpt>
<trkpt lat="-26.9445272" lon="152.3630043">
<ele>119.367</ele>
<time>2016-07-16T23:13:02.218Z</time>
</trkpt>
<trkpt lat="-26.9444262" lon="152.3620299">
<ele>116.276</ele>
<time>2016-07-16T23:13:05.180Z</time>
</trkpt>
<trkpt lat="-26.9443974" lon="152.3613913">
<ele>112.793</ele>
<time>2016-07-16T23:13:07.190Z</time>
</trkpt>
<trkpt lat="-26.9443797" lon="152.3604815">
<ele>109.742</ele>
<time>2016-07-16T23:13:10.150Z</time>
</trkpt>
<trkpt lat="-26.9443393" lon="152.3595816">
<ele>106.890</ele>
<time>2016-07-16T23:13:13.169Z</time>
</trkpt>
<trkpt lat="-26.9443308" lon="152.3589950">
<ele>104.201</ele>
<time>2016-07-16T23:13:15.173Z</time>
</trkpt>
<trkpt lat="-26.9443189" lon="152.3584134">
<ele>102.393</ele>
<time>2016-07-16T23:13:17.191Z</time>
</trkpt>
<trkpt lat="-26.9443049" lon="152.3575727">
<ele>101.652</ele>
<time>2016-07-16T23:13:20.180Z</time>
</trkpt>
<trkpt lat="-26.9442976" lon="152.3570074">
<ele>100.929</ele>
<time>2016-07-16T23:13:22.158Z</time>
</trkpt>
<trkpt lat="-26.9442689" lon="152.3561561">
<ele>99.624</ele>
<time>2016-07-16T23:13:25.094Z</time>
</trkpt>
<trkpt lat="-26.9442410" lon="152.3555829">
<ele>98.693</ele>
<time>2016-07-16T23:13:27.057Z</time>
</trkpt>
<trkpt lat="-26.9441354" lon="152.3547152">
<ele>99.152</ele>
<time>2016-07-16T23:13:30.030Z</time>
</trkpt>
<trkpt lat="-26.9439781" lon="152.3538329">
<ele>100.710</ele>
<time>2016-07-16T23:13:33.037Z</time>
</trkpt>
<trkpt lat="-26.9438324" lon="152.3532335">
<ele>102.537</ele>
<time>2016-07-16T23:13:35.099Z</time>
</trkpt>
<trkpt lat="-26.9434660" lon="152.3520782">
<ele>104.055</ele>
<time>2016-07-16T23:13:39.055Z</time>
</trkpt>
<trkpt lat="-26.9430991" lon="152.3511882">
<ele>105.225</ele>
<time>2016-07-16T23:13:42.097Z</time>
</trkpt>
<trkpt lat="-26.9426978" lon="152.3503344">
<ele>106.846</ele>
<time>2016-07-16T23:13:45.110Z</time>
</trkpt>
<trkpt lat="-26.9424382" lon="152.3497963">
<ele>109.166</ele>
<time>2016-07-16T23:13:47.084Z</time>
</trkpt>
<trkpt lat="-26.9421720" lon="152.3492524">
<ele>111.143</ele>
<time>2016-07-16T23:13:49.079Z</time>
</trkpt>
<trkpt lat="-26.9417684" lon="152.3484049">
<ele>112.331</ele>
<time>2016-07-16T23:13:52.106Z</time>
</trkpt>
<trkpt lat="-26.9414875" lon="152.3478408">
<ele>114.150</ele>
<time>2016-07-16T23:13:54.141Z</time>
</trkpt>
<trkpt lat="-26.9411043" lon="152.3470286">
<ele>117.314</ele>
<time>2016-07-16T23:13:57.116Z</time>
</trkpt>
<trkpt lat="-26.9407372" lon="152.3462621">
<ele>120.328</ele>
<time>2016-07-16T23:14:00.035Z</time>
</trkpt>
<trkpt lat="-26.9403627" lon="152.3454941">
<ele>121.796</ele>
<time>2016-07-16T23:14:02.999Z</time>
</trkpt>
<trkpt lat="-26.9399793" lon="152.3446960">
<ele>122.496</ele>
<time>2016-07-16T23:14:06.043Z</time>
</trkpt>
<trkpt lat="-26.9397368" lon="152.3441765">
<ele>123.713</ele>
<time>2016-07-16T23:14:08.036Z</time>
</trkpt>
<trkpt lat="-26.9393697" lon="152.3434242">
<ele>125.378</ele>
<time>2016-07-16T23:14:10.996Z</time>
</trkpt>
<trkpt lat="-26.9390021" lon="152.3426650">
<ele>126.556</ele>
<time>2016-07-16T23:14:13.963Z</time>
</trkpt>
<trkpt lat="-26.9386057" lon="152.3418573">
<ele>127.317</ele>
<time>2016-07-16T23:14:17.026Z</time>
</trkpt>
<trkpt lat="-26.9383349" lon="152.3413153">
<ele>128.586</ele>
<time>2016-07-16T23:14:19.008Z</time>
</trkpt>
<trkpt lat="-26.9380560" lon="152.3407441">
<ele>130.486</ele>
<time>2016-07-16T23:14:21.045Z</time>
</trkpt>
<trkpt lat="-26.9377525" lon="152.3401908">
<ele>132.349</ele>
<time>2016-07-16T23:14:23.062Z</time>
</trkpt>
<trkpt lat="-26.9372543" lon="152.3394138">
<ele>133.730</ele>
<time>2016-07-16T23:14:26.010Z</time>
</trkpt>
<trkpt lat="-26.9368797" lon="152.3389031">
<ele>134.182</ele>
<time>2016-07-16T23:14:27.999Z</time>
</trkpt>
<trkpt lat="-26.9362560" lon="152.3381633">
<ele>133.509</ele>
<time>2016-07-16T23:14:30.999Z</time>
</trkpt>
<trkpt lat="-26.9357976" lon="152.3376971">
<ele>131.947</ele>
<time>2016-07-16T23:14:33.033Z</time>
</trkpt>
<trkpt lat="-26.9353366" lon="152.3372428">
<ele>129.974</ele>
<time>2016-07-16T23:14:35.076Z</time>
</trkpt>
<trkpt lat="-26.9346899" lon="152.3366076">
<ele>128.428</ele>
<time>2016-07-16T23:14:38.108Z</time>
</trkpt>
<trkpt lat="-26.9341190" lon="152.3359873">
<ele>127.270</ele>
<time>2016-07-16T23:14:40.999Z</time>
</trkpt>
<trkpt lat="-26.9337754" lon="152.3355122">
<ele>125.831</ele>
<time>2016-07-16T23:14:42.981Z</time>
</trkpt>
<trkpt lat="-26.9333033" lon="152.3347252">
<ele>124.822</ele>
<time>2016-07-16T23:14:46.013Z</time>
</trkpt>
<trkpt lat="-26.9329083" lon="152.3338856">
<ele>125.065</ele>
<time>2016-07-16T23:14:49.019Z</time>
</trkpt>
<trkpt lat="-26.9326181" lon="152.3330043">
<ele>125.935</ele>
<time>2016-07-16T23:14:51.962Z</time>
</trkpt>
<trkpt lat="-26.9324750" lon="152.3323734">
<ele>126.039</ele>
<time>2016-07-16T23:14:53.935Z</time>
</trkpt>
<trkpt lat="-26.9323941" lon="152.3317046">
<ele>124.754</ele>
<time>2016-07-16T23:14:55.912Z</time>
</trkpt>
<trkpt lat="-26.9323460" lon="152.3309975">
<ele>123.006</ele>
<time>2016-07-16T23:14:57.931Z</time>
</trkpt>
<trkpt lat="-26.9323248" lon="152.3302861">
<ele>121.945</ele>
<time>2016-07-16T23:14:59.922Z</time>
</trkpt>
<trkpt lat="-26.9322891" lon="152.3291873">
<ele>121.805</ele>
<time>2016-07-16T23:15:03.008Z</time>
</trkpt>
<trkpt lat="-26.9322720" lon="152.3285045">
<ele>122.149</ele>
<time>2016-07-16T23:15:05.009Z</time>
</trkpt>
<trkpt lat="-26.9322510" lon="152.3278632">
<ele>122.336</ele>
<time>2016-07-16T23:15:06.994Z</time>
</trkpt>
<trkpt lat="-26.9321542" lon="152.3269413">
<ele>121.591</ele>
<time>2016-07-16T23:15:09.984Z</time>
</trkpt>
<trkpt lat="-26.9320290" lon="152.3263676">
<ele>119.635</ele>
<time>2016-07-16T23:15:11.943Z</time>
</trkpt>
<trkpt lat="-26.9317470" lon="152.3255231">
<ele>116.925</ele>
<time>2016-07-16T23:15:14.947Z</time>
</trkpt>
<trkpt lat="-26.9313563" lon="152.3247450">
<ele>114.061</ele>
<time>2016-07-16T23:15:17.931Z</time>
</trkpt>
<trkpt lat="-26.9308759" lon="152.3240530">
<ele>111.400</ele>
<time>2016-07-16T23:15:20.894Z</time>
</trkpt>
<trkpt lat="-26.9303048" lon="152.3234424">
<ele>108.992</ele>
<time>2016-07-16T23:15:23.897Z</time>
</trkpt>
<trkpt lat="-26.9298751" lon="152.3230823">
<ele>106.659</ele>
<time>2016-07-16T23:15:25.920Z</time>
</trkpt>
<trkpt lat="-26.9294207" lon="152.3227993">
<ele>104.723</ele>
<time>2016-07-16T23:15:27.860Z</time>
</trkpt>
<trkpt lat="-26.9289355" lon="152.3225200">
<ele>103.350</ele>
<time>2016-07-16T23:15:29.857Z</time>
</trkpt>
<trkpt lat="-26.9281381" lon="152.3221734">
<ele>102.577</ele>
<time>2016-07-16T23:15:32.908Z</time>
</trkpt>
<trkpt lat="-26.9275976" lon="152.3219413">
<ele>103.354</ele>
<time>2016-07-16T23:15:34.944Z</time>
</trkpt>
<trkpt lat="-26.9268639" lon="152.3216217">
<ele>105.821</ele>
<time>2016-07-16T23:15:37.937Z</time>
</trkpt>
<trkpt lat="-26.9264144" lon="152.3214338">
<ele>107.424</ele>
<time>2016-07-16T23:15:39.898Z</time>
</trkpt>
<trkpt lat="-26.9259938" lon="152.3212377">
<ele>106.288</ele>
<time>2016-07-16T23:15:41.790Z</time>
</trkpt>
<trkpt lat="-26.9253026" lon="152.3209369">
<ele>103.905</ele>
<time>2016-07-16T23:15:44.755Z</time>
</trkpt>
<trkpt lat="-26.9245207" lon="152.3205895">
<ele>103.129</ele>
<time>2016-07-16T23:15:47.816Z</time>
</trkpt>
<trkpt lat="-26.9239565" lon="152.3203226">
<ele>106.136</ele>
<time>2016-07-16T23:15:49.844Z</time>
</trkpt>
<trkpt lat="-26.9230282" lon="152.3199555">
<ele>112.783</ele>
<time>2016-07-16T23:15:52.904Z</time>
</trkpt>
<trkpt lat="-26.9220592" lon="152.3195492">
<ele>120.964</ele>
<time>2016-07-16T23:15:55.966Z</time>
</trkpt>
<trkpt lat="-26.9211085" lon="152.3191441">
<ele>129.798</ele>
<time>2016-07-16T23:15:59.055Z</time>
</trkpt>
<trkpt lat="-26.9202784" lon="152.3187915">
<ele>138.206</ele>
<time>2016-07-16T23:16:01.997Z</time>
</trkpt>
<trkpt lat="-26.9197686" lon="152.3185691">
<ele>143.458</ele>
<time>2016-07-16T23:16:03.968Z</time>
</trkpt>
<trkpt lat="-26.9190260" lon="152.3182674">
<ele>144.757</ele>
<time>2016-07-16T23:16:06.900Z</time>
</trkpt>
<trkpt lat="-26.9185299" lon="152.3180540">
<ele>143.840</ele>
<time>2016-07-16T23:16:08.896Z</time>
</trkpt>
<trkpt lat="-26.9180276" lon="152.3178470">
<ele>142.189</ele>
<time>2016-07-16T23:16:10.895Z</time>
</trkpt>
<trkpt lat="-26.9172809" lon="152.3175223">
<ele>140.569</ele>
<time>2016-07-16T23:16:13.860Z</time>
</trkpt>
<trkpt lat="-26.9167577" lon="152.3173236">
<ele>139.394</ele>
<time>2016-07-16T23:16:15.867Z</time>
</trkpt>
<trkpt lat="-26.9159451" lon="152.3170762">
<ele>138.606</ele>
<time>2016-07-16T23:16:18.847Z</time>
</trkpt>
<trkpt lat="-26.9150600" lon="152.3169111">
<ele>136.979</ele>
<time>2016-07-16T23:16:21.874Z</time>
</trkpt>
<trkpt lat="-26.9144328" lon="152.3168331">
<ele>133.717</ele>
<time>2016-07-16T23:16:23.933Z</time>
</trkpt>
<trkpt lat="-26.9135262" lon="152.3167188">
<ele>130.105</ele>
<time>2016-07-16T23:16:26.924Z</time>
</trkpt>
<trkpt lat="-26.9126442" lon="152.3165877">
<ele>126.510</ele>
<time>2016-07-16T23:16:29.895Z</time>
</trkpt>
<trkpt lat="-26.9117737" lon="152.3164714">
<ele>122.388</ele>
<time>2016-07-16T23:16:32.884Z</time>
</trkpt>
<trkpt lat="-26.9109285" lon="152.3163605">
<ele>119.064</ele>
<time>2016-07-16T23:16:35.892Z</time>
</trkpt>
<trkpt lat="-26.9103974" lon="152.3162867">
<ele>117.213</ele>
<time>2016-07-16T23:16:37.851Z</time>
</trkpt>
<trkpt lat="-26.9098657" lon="152.3161802">
<ele>115.816</ele>
<time>2016-07-16T23:16:39.836Z</time>
</trkpt>
<trkpt lat="-26.9090542" lon="152.3159706">
<ele>114.742</ele>
<time>2016-07-16T23:16:42.866Z</time>
</trkpt>
<trkpt lat="-26.9082530" lon="152.3156760">
<ele>114.640</ele>
<time>2016-07-16T23:16:45.888Z</time>
</trkpt>
<trkpt lat="-26.9074711" lon="152.3153201">
<ele>116.165</ele>
<time>2016-07-16T23:16:48.902Z</time>
</trkpt>
<trkpt lat="-26.9069701" lon="152.3150483">
<ele>119.215</ele>
<time>2016-07-16T23:16:50.886Z</time>
</trkpt>
<trkpt lat="-26.9064721" lon="152.3147382">
<ele>122.618</ele>
<time>2016-07-16T23:16:52.881Z</time>
</trkpt>
<trkpt lat="-26.9057159" lon="152.3142124">
<ele>125.715</ele>
<time>2016-07-16T23:16:55.920Z</time>
</trkpt>
<trkpt lat="-26.9049591" lon="152.3136505">
<ele>128.403</ele>
<time>2016-07-16T23:16:58.953Z</time>
</trkpt>
<trkpt lat="-26.9044839" lon="152.3132524">
<ele>130.477</ele>
<time>2016-07-16T23:17:00.941Z</time>
</trkpt>
<trkpt lat="-26.9038023" lon="152.3126198">
<ele>131.975</ele>
<time>2016-07-16T23:17:03.917Z</time>
</trkpt>
<trkpt lat="-26.9033638" lon="152.3121567">
<ele>132.945</ele>
<time>2016-07-16T23:17:05.931Z</time>
</trkpt>
<trkpt lat="-26.9027438" lon="152.3114269">
<ele>133.321</ele>
<time>2016-07-16T23:17:08.930Z</time>
</trkpt>
<trkpt lat="-26.9023568" lon="152.3109265">
<ele>133.171</ele>
<time>2016-07-16T23:17:10.915Z</time>
</trkpt>
<trkpt lat="-26.9018178" lon="152.3101432">
<ele>131.902</ele>
<time>2016-07-16T23:17:13.897Z</time>
</trkpt>
<trkpt lat="-26.9013408" lon="152.3093242">
<ele>128.916</ele>
<time>2016-07-16T23:17:16.868Z</time>
</trkpt>
<trkpt lat="-26.9010375" lon="152.3087595">
<ele>124.715</ele>
<time>2016-07-16T23:17:18.871Z</time>
</trkpt>
<trkpt lat="-26.9007657" lon="152.3081738">
<ele>120.309</ele>
<time>2016-07-16T23:17:20.856Z</time>
</trkpt>
<trkpt lat="-26.9005031" lon="152.3075651">
<ele>116.578</ele>
<time>2016-07-16T23:17:22.890Z</time>
</trkpt>
<trkpt lat="-26.9001640" lon="152.3066676">
<ele>114.012</ele>
<time>2016-07-16T23:17:25.881Z</time>
</trkpt>
<trkpt lat="-26.8998377" lon="152.3058248">
<ele>111.978</ele>
<time>2016-07-16T23:17:28.815Z</time>
</trkpt>
<trkpt lat="-26.8996198" lon="152.3052665">
<ele>109.933</ele>
<time>2016-07-16T23:17:30.796Z</time>
</trkpt>
<trkpt lat="-26.8994008" lon="152.3046872">
<ele>108.410</ele>
<time>2016-07-16T23:17:32.827Z</time>
</trkpt>
<trkpt lat="-26.8990877" lon="152.3038393">
<ele>108.005</ele>
<time>2016-07-16T23:17:35.791Z</time>
</trkpt>
<trkpt lat="-26.8988660" lon="152.3032860">
<ele>108.597</ele>
<time>2016-07-16T23:17:37.780Z</time>
</trkpt>
<trkpt lat="-26.8985446" lon="152.3024664">
<ele>109.442</ele>
<time>2016-07-16T23:17:40.773Z</time>
</trkpt>
<trkpt lat="-26.8982526" lon="152.3016533">
<ele>109.629</ele>
<time>2016-07-16T23:17:43.726Z</time>
</trkpt>
<trkpt lat="-26.8980504" lon="152.3007420">
<ele>109.075</ele>
<time>2016-07-16T23:17:46.784Z</time>
</trkpt>
<trkpt lat="-26.8979761" lon="152.3001017">
<ele>109.300</ele>
<time>2016-07-16T23:17:48.835Z</time>
</trkpt>
<trkpt lat="-26.8979226" lon="152.2991929">
<ele>111.412</ele>
<time>2016-07-16T23:17:51.761Z</time>
</trkpt>
<trkpt lat="-26.8978272" lon="152.2986174">
<ele>114.109</ele>
<time>2016-07-16T23:17:53.674Z</time>
</trkpt>
<trkpt lat="-26.8975542" lon="152.2977504">
<ele>115.931</ele>
<time>2016-07-16T23:17:56.669Z</time>
</trkpt>
<trkpt lat="-26.8972957" lon="152.2971924">
<ele>117.338</ele>
<time>2016-07-16T23:17:58.682Z</time>
</trkpt>
<trkpt lat="-26.8968120" lon="152.2964377">
<ele>118.808</ele>
<time>2016-07-16T23:18:01.640Z</time>
</trkpt>
<trkpt lat="-26.8964276" lon="152.2959787">
<ele>120.095</ele>
<time>2016-07-16T23:18:03.639Z</time>
</trkpt>
<trkpt lat="-26.8957867" lon="152.2953281">
<ele>121.184</ele>
<time>2016-07-16T23:18:06.798Z</time>
</trkpt>
<trkpt lat="-26.8954295" lon="152.2949660">
<ele>122.153</ele>
<time>2016-07-16T23:18:08.816Z</time>
</trkpt>
<trkpt lat="-26.8950088" lon="152.2945070">
<ele>121.926</ele>
<time>2016-07-16T23:18:11.719Z</time>
</trkpt>
<trkpt lat="-26.8947162" lon="152.2940859">
<ele>118.548</ele>
<time>2016-07-16T23:18:14.580Z</time>
</trkpt>
<trkpt lat="-26.8945032" lon="152.2936806">
<ele>112.393</ele>
<time>2016-07-16T23:18:17.494Z</time>
</trkpt>
<trkpt lat="-26.8943400" lon="152.2933036">
<ele>106.528</ele>
<time>2016-07-16T23:18:20.369Z</time>
</trkpt>
<trkpt lat="-26.8941948" lon="152.2929059">
<ele>102.904</ele>
<time>2016-07-16T23:18:23.321Z</time>
</trkpt>
<trkpt lat="-26.8940876" lon="152.2924348">
<ele>101.321</ele>
<time>2016-07-16T23:18:26.409Z</time>
</trkpt>
<trkpt lat="-26.8940108" lon="152.2919733">
<ele>103.287</ele>
<time>2016-07-16T23:18:29.379Z</time>
</trkpt>
<trkpt lat="-26.8939788" lon="152.2915535">
<ele>109.344</ele>
<time>2016-07-16T23:18:32.227Z</time>
</trkpt>
<trkpt lat="-26.8939867" lon="152.2912601">
<ele>115.294</ele>
<time>2016-07-16T23:18:34.241Z</time>
</trkpt>
<trkpt lat="-26.8940442" lon="152.2907695">
<ele>117.461</ele>
<time>2016-07-16T23:18:37.373Z</time>
</trkpt>
<trkpt lat="-26.8940940" lon="152.2904297">
<ele>115.673</ele>
<time>2016-07-16T23:18:39.374Z</time>
</trkpt>
<trkpt lat="-26.8941584" lon="152.2898864">
<ele>111.209</ele>
<time>2016-07-16T23:18:42.425Z</time>
</trkpt>
<trkpt lat="-26.8942217" lon="152.2893586">
<ele>107.072</ele>
<time>2016-07-16T23:18:45.407Z</time>
</trkpt>
<trkpt lat="-26.8942819" lon="152.2888515">
<ele>105.407</ele>
<time>2016-07-16T23:18:48.356Z</time>
</trkpt>
<trkpt lat="-26.8943218" lon="152.2885015">
<ele>105.665</ele>
<time>2016-07-16T23:18:50.361Z</time>
</trkpt>
<trkpt lat="-26.8943700" lon="152.2881438">
<ele>106.718</ele>
<time>2016-07-16T23:18:52.354Z</time>
</trkpt>
<trkpt lat="-26.8944367" lon="152.2875775">
<ele>107.959</ele>
<time>2016-07-16T23:18:55.434Z</time>
</trkpt>
<trkpt lat="-26.8944681" lon="152.2872024">
<ele>109.121</ele>
<time>2016-07-16T23:18:57.450Z</time>
</trkpt>
<trkpt lat="-26.8944715" lon="152.2866333">
<ele>109.859</ele>
<time>2016-07-16T23:19:00.441Z</time>
</trkpt>
<trkpt lat="-26.8944124" lon="152.2860272">
<ele>110.331</ele>
<time>2016-07-16T23:19:03.526Z</time>
</trkpt>
<trkpt lat="-26.8943518" lon="152.2856452">
<ele>110.967</ele>
<time>2016-07-16T23:19:05.495Z</time>
</trkpt>
<trkpt lat="-26.8942754" lon="152.2850950">
<ele>111.626</ele>
<time>2016-07-16T23:19:08.413Z</time>
</trkpt>
<trkpt lat="-26.8942323" lon="152.2847255">
<ele>111.989</ele>
<time>2016-07-16T23:19:10.416Z</time>
</trkpt>
<trkpt lat="-26.8941829" lon="152.2841929">
<ele>112.105</ele>
<time>2016-07-16T23:19:13.304Z</time>
</trkpt>
<trkpt lat="-26.8941412" lon="152.2836293">
<ele>112.266</ele>
<time>2016-07-16T23:19:16.294Z</time>
</trkpt>
<trkpt lat="-26.8941524" lon="152.2830298">
<ele>112.850</ele>
<time>2016-07-16T23:19:19.377Z</time>
</trkpt>
<trkpt lat="-26.8941910" lon="152.2826339">
<ele>114.141</ele>
<time>2016-07-16T23:19:21.404Z</time>
</trkpt>
<trkpt lat="-26.8942896" lon="152.2820469">
<ele>115.861</ele>
<time>2016-07-16T23:19:24.413Z</time>
</trkpt>
<trkpt lat="-26.8943762" lon="152.2816614">
<ele>117.298</ele>
<time>2016-07-16T23:19:26.399Z</time>
</trkpt>
<trkpt lat="-26.8944645" lon="152.2812816">
<ele>118.077</ele>
<time>2016-07-16T23:19:28.362Z</time>
</trkpt>
<trkpt lat="-26.8945934" lon="152.2806896">
<ele>118.319</ele>
<time>2016-07-16T23:19:31.343Z</time>
</trkpt>
<trkpt lat="-26.8946524" lon="152.2802606">
<ele>118.263</ele>
<time>2016-07-16T23:19:33.328Z</time>
</trkpt>
<trkpt lat="-26.8947050" lon="152.2795262">
<ele>118.259</ele>
<time>2016-07-16T23:19:36.364Z</time>
</trkpt>
<trkpt lat="-26.8947303" lon="152.2786550">
<ele>118.922</ele>
<time>2016-07-16T23:19:39.462Z</time>
</trkpt>
<trkpt lat="-26.8947561" lon="152.2780084">
<ele>121.278</ele>
<time>2016-07-16T23:19:41.536Z</time>
</trkpt>
<trkpt lat="-26.8947715" lon="152.2773001">
<ele>125.029</ele>
<time>2016-07-16T23:19:43.673Z</time>
</trkpt>
<trkpt lat="-26.8948057" lon="152.2761880">
<ele>127.165</ele>
<time>2016-07-16T23:19:46.853Z</time>
</trkpt>
<trkpt lat="-26.8948198" lon="152.2754384">
<ele>125.949</ele>
<time>2016-07-16T23:19:48.933Z</time>
</trkpt>
<trkpt lat="-26.8948300" lon="152.2747656">
<ele>123.781</ele>
<time>2016-07-16T23:19:50.896Z</time>
</trkpt>
<trkpt lat="-26.8949008" lon="152.2738360">
<ele>123.110</ele>
<time>2016-07-16T23:19:53.810Z</time>
</trkpt>
<trkpt lat="-26.8950166" lon="152.2732416">
<ele>124.302</ele>
<time>2016-07-16T23:19:55.802Z</time>
</trkpt>
<trkpt lat="-26.8953174" lon="152.2723540">
<ele>126.719</ele>
<time>2016-07-16T23:19:58.871Z</time>
</trkpt>
<trkpt lat="-26.8955901" lon="152.2717456">
<ele>129.356</ele>
<time>2016-07-16T23:20:00.935Z</time>
</trkpt>
<trkpt lat="-26.8960107" lon="152.2708556">
<ele>131.502</ele>
<time>2016-07-16T23:20:03.917Z</time>
</trkpt>
<trkpt lat="-26.8964121" lon="152.2700160">
<ele>132.676</ele>
<time>2016-07-16T23:20:06.857Z</time>
</trkpt>
<trkpt lat="-26.8967426" lon="152.2692390">
<ele>131.936</ele>
<time>2016-07-16T23:20:09.718Z</time>
</trkpt>
<trkpt lat="-26.8969513" lon="152.2684447">
<ele>129.451</ele>
<time>2016-07-16T23:20:12.626Z</time>
</trkpt>
<trkpt lat="-26.8970099" lon="152.2678858">
<ele>126.846</ele>
<time>2016-07-16T23:20:14.663Z</time>
</trkpt>
<trkpt lat="-26.8970005" lon="152.2667790">
<ele>125.387</ele>
<time>2016-07-16T23:20:18.658Z</time>
</trkpt>
<trkpt lat="-26.8968467" lon="152.2658947">
<ele>124.958</ele>
<time>2016-07-16T23:20:21.718Z</time>
</trkpt>
<trkpt lat="-26.8967200" lon="152.2653081">
<ele>125.445</ele>
<time>2016-07-16T23:20:23.716Z</time>
</trkpt>
<trkpt lat="-26.8966488" lon="152.2644345">
<ele>126.661</ele>
<time>2016-07-16T23:20:26.647Z</time>
</trkpt>
<trkpt lat="-26.8967555" lon="152.2635363">
<ele>127.830</ele>
<time>2016-07-16T23:20:29.604Z</time>
</trkpt>
<trkpt lat="-26.8968767" lon="152.2628937">
<ele>128.493</ele>
<time>2016-07-16T23:20:31.659Z</time>
</trkpt>
<trkpt lat="-26.8969392" lon="152.2625737">
<ele>129.375</ele>
<time>2016-07-16T23:20:32.681Z</time>
</trkpt>
<trkpt lat="-26.8971967" lon="152.2614047">
<ele>130.855</ele>
<time>2016-07-16T23:20:36.659Z</time>
</trkpt>
<trkpt lat="-26.8974105" lon="152.2606228">
<ele>131.636</ele>
<time>2016-07-16T23:20:39.561Z</time>
</trkpt>
<trkpt lat="-26.8977256" lon="152.2598841">
<ele>130.409</ele>
<time>2016-07-16T23:20:42.547Z</time>
</trkpt>
<trkpt lat="-26.8979745" lon="152.2594234">
<ele>128.004</ele>
<time>2016-07-16T23:20:44.525Z</time>
</trkpt>
<trkpt lat="-26.8983144" lon="152.2587286">
<ele>126.136</ele>
<time>2016-07-16T23:20:47.476Z</time>
</trkpt>
<trkpt lat="-26.8985513" lon="152.2582432">
<ele>125.395</ele>
<time>2016-07-16T23:20:49.456Z</time>
</trkpt>
<trkpt lat="-26.8989632" lon="152.2574066">
<ele>125.645</ele>
<time>2016-07-16T23:20:52.640Z</time>
</trkpt>
<trkpt lat="-26.8992225" lon="152.2568860">
<ele>126.806</ele>
<time>2016-07-16T23:20:54.651Z</time>
</trkpt>
<trkpt lat="-26.8995659" lon="152.2561912">
<ele>128.354</ele>
<time>2016-07-16T23:20:57.573Z</time>
</trkpt>
<trkpt lat="-26.8998667" lon="152.2555721">
<ele>128.454</ele>
<time>2016-07-16T23:21:00.448Z</time>
</trkpt>
<trkpt lat="-26.9000625" lon="152.2551574">
<ele>126.010</ele>
<time>2016-07-16T23:21:02.465Z</time>
</trkpt>
<trkpt lat="-26.9002684" lon="152.2547478">
<ele>122.693</ele>
<time>2016-07-16T23:21:04.480Z</time>
</trkpt>
<trkpt lat="-26.9005959" lon="152.2541133">
<ele>120.956</ele>
<time>2016-07-16T23:21:07.534Z</time>
</trkpt>
<trkpt lat="-26.9009125" lon="152.2534558">
<ele>121.698</ele>
<time>2016-07-16T23:21:10.532Z</time>
</trkpt>
<trkpt lat="-26.9012148" lon="152.2527577">
<ele>124.135</ele>
<time>2016-07-16T23:21:13.533Z</time>
</trkpt>
<trkpt lat="-26.9014400" lon="152.2519996">
<ele>126.710</ele>
<time>2016-07-16T23:21:16.537Z</time>
</trkpt>
<trkpt lat="-26.9015376" lon="152.2514738">
<ele>128.501</ele>
<time>2016-07-16T23:21:18.558Z</time>
</trkpt>
<trkpt lat="-26.9015978" lon="152.2509616">
<ele>129.067</ele>
<time>2016-07-16T23:21:20.540Z</time>
</trkpt>
<trkpt lat="-26.9016093" lon="152.2501964">
<ele>128.450</ele>
<time>2016-07-16T23:21:23.490Z</time>
</trkpt>
<trkpt lat="-26.9015539" lon="152.2496485">
<ele>128.059</ele>
<time>2016-07-16T23:21:25.494Z</time>
</trkpt>
<trkpt lat="-26.9013568" lon="152.2487326">
<ele>129.378</ele>
<time>2016-07-16T23:21:28.567Z</time>
</trkpt>
<trkpt lat="-26.9011056" lon="152.2477035">
<ele>132.554</ele>
<time>2016-07-16T23:21:31.637Z</time>
</trkpt>
<trkpt lat="-26.9009264" lon="152.2469436">
<ele>137.457</ele>
<time>2016-07-16T23:21:33.730Z</time>
</trkpt>
<trkpt lat="-26.9006519" lon="152.2457625">
<ele>143.071</ele>
<time>2016-07-16T23:21:36.850Z</time>
</trkpt>
<trkpt lat="-26.9003509" lon="152.2445181">
<ele>145.509</ele>
<time>2016-07-16T23:21:40.022Z</time>
</trkpt>
<trkpt lat="-26.9001540" lon="152.2437182">
<ele>142.801</ele>
<time>2016-07-16T23:21:42.114Z</time>
</trkpt>
<trkpt lat="-26.8999771" lon="152.2430163">
<ele>138.460</ele>
<time>2016-07-16T23:21:44.126Z</time>
</trkpt>
<trkpt lat="-26.8998192" lon="152.2420682">
<ele>136.110</ele>
<time>2016-07-16T23:21:46.973Z</time>
</trkpt>
<trkpt lat="-26.8998069" lon="152.2410872">
<ele>136.236</ele>
<time>2016-07-16T23:21:49.953Z</time>
</trkpt>
<trkpt lat="-26.8998822" lon="152.2400813">
<ele>138.903</ele>
<time>2016-07-16T23:21:53.020Z</time>
</trkpt>
<trkpt lat="-26.8999241" lon="152.2394538">
<ele>143.195</ele>
<time>2016-07-16T23:21:55.001Z</time>
</trkpt>
<trkpt lat="-26.8999690" lon="152.2388420">
<ele>146.360</ele>
<time>2016-07-16T23:21:57.028Z</time>
</trkpt>
<trkpt lat="-26.9000025" lon="152.2382832">
<ele>146.669</ele>
<time>2016-07-16T23:21:58.983Z</time>
</trkpt>
<trkpt lat="-26.8999898" lon="152.2377303">
<ele>144.407</ele>
<time>2016-07-16T23:22:00.965Z</time>
</trkpt>
<trkpt lat="-26.8998638" lon="152.2368748">
<ele>140.877</ele>
<time>2016-07-16T23:22:04.003Z</time>
</trkpt>
<trkpt lat="-26.8996026" lon="152.2360449">
<ele>138.169</ele>
<time>2016-07-16T23:22:06.994Z</time>
</trkpt>
<trkpt lat="-26.8994930" lon="152.2357748">
<ele>137.340</ele>
<time>2016-07-16T23:22:07.998Z</time>
</trkpt>
<trkpt lat="-26.8990791" lon="152.2346644">
<ele>137.600</ele>
<time>2016-07-16T23:22:12.059Z</time>
</trkpt>
<trkpt lat="-26.8989293" lon="152.2338018">
<ele>138.036</ele>
<time>2016-07-16T23:22:15.025Z</time>
</trkpt>
<trkpt lat="-26.8988895" lon="152.2329353">
<ele>138.597</ele>
<time>2016-07-16T23:22:17.941Z</time>
</trkpt>
<trkpt lat="-26.8989497" lon="152.2320014">
<ele>139.981</ele>
<time>2016-07-16T23:22:21.039Z</time>
</trkpt>
<trkpt lat="-26.8990280" lon="152.2311106">
<ele>142.122</ele>
<time>2016-07-16T23:22:24.047Z</time>
</trkpt>
<trkpt lat="-26.8989895" lon="152.2302494">
<ele>143.291</ele>
<time>2016-07-16T23:22:27.018Z</time>
</trkpt>
<trkpt lat="-26.8988275" lon="152.2293934">
<ele>142.523</ele>
<time>2016-07-16T23:22:29.985Z</time>
</trkpt>
<trkpt lat="-26.8984949" lon="152.2285293">
<ele>141.097</ele>
<time>2016-07-16T23:22:32.994Z</time>
</trkpt>
<trkpt lat="-26.8982055" lon="152.2279409">
<ele>141.067</ele>
<time>2016-07-16T23:22:34.967Z</time>
</trkpt>
<trkpt lat="-26.8978889" lon="152.2273085">
<ele>143.312</ele>
<time>2016-07-16T23:22:36.966Z</time>
</trkpt>
<trkpt lat="-26.8973948" lon="152.2262928">
<ele>146.841</ele>
<time>2016-07-16T23:22:40.051Z</time>
</trkpt>
<trkpt lat="-26.8970779" lon="152.2256385">
<ele>150.875</ele>
<time>2016-07-16T23:22:42.094Z</time>
</trkpt>
<trkpt lat="-26.8966429" lon="152.2247420">
<ele>155.175</ele>
<time>2016-07-16T23:22:45.097Z</time>
</trkpt>
<trkpt lat="-26.8962696" lon="152.2239443">
<ele>157.600</ele>
<time>2016-07-16T23:22:48.000Z</time>
</trkpt>
<trkpt lat="-26.8960143" lon="152.2234209">
<ele>156.213</ele>
<time>2016-07-16T23:22:50.013Z</time>
</trkpt>
<trkpt lat="-26.8956325" lon="152.2226663">
<ele>152.607</ele>
<time>2016-07-16T23:22:52.970Z</time>
</trkpt>
<trkpt lat="-26.8953440" lon="152.2221967">
<ele>149.680</ele>
<time>2016-07-16T23:22:54.900Z</time>
</trkpt>
<trkpt lat="-26.8948105" lon="152.2215044">
<ele>148.616</ele>
<time>2016-07-16T23:22:57.893Z</time>
</trkpt>
<trkpt lat="-26.8943947" lon="152.2210668">
<ele>148.963</ele>
<time>2016-07-16T23:22:59.890Z</time>
</trkpt>
<trkpt lat="-26.8939241" lon="152.2206349">
<ele>150.266</ele>
<time>2016-07-16T23:23:02.025Z</time>
</trkpt>
<trkpt lat="-26.8934857" lon="152.2202701">
<ele>152.045</ele>
<time>2016-07-16T23:23:04.023Z</time>
</trkpt>
<trkpt lat="-26.8928613" lon="152.2197509">
<ele>153.174</ele>
<time>2016-07-16T23:23:06.933Z</time>
</trkpt>
<trkpt lat="-26.8922015" lon="152.2192179">
<ele>153.029</ele>
<time>2016-07-16T23:23:09.927Z</time>
</trkpt>
<trkpt lat="-26.8917478" lon="152.2188446">
<ele>152.612</ele>
<time>2016-07-16T23:23:11.944Z</time>
</trkpt>
<trkpt lat="-26.8912943" lon="152.2184627">
<ele>153.134</ele>
<time>2016-07-16T23:23:13.949Z</time>
</trkpt>
<trkpt lat="-26.8908319" lon="152.2180854">
<ele>154.593</ele>
<time>2016-07-16T23:23:15.961Z</time>
</trkpt>
<trkpt lat="-26.8903797" lon="152.2177074">
<ele>156.472</ele>
<time>2016-07-16T23:23:17.985Z</time>
</trkpt>
<trkpt lat="-26.8897441" lon="152.2171863">
<ele>158.305</ele>
<time>2016-07-16T23:23:20.945Z</time>
</trkpt>
<trkpt lat="-26.8891377" lon="152.2166791">
<ele>159.029</ele>
<time>2016-07-16T23:23:23.893Z</time>
</trkpt>
<trkpt lat="-26.8887295" lon="152.2163420">
<ele>158.151</ele>
<time>2016-07-16T23:23:25.879Z</time>
</trkpt>
<trkpt lat="-26.8881499" lon="152.2157659">
<ele>156.916</ele>
<time>2016-07-16T23:23:28.866Z</time>
</trkpt>
<trkpt lat="-26.8876381" lon="152.2150897">
<ele>156.716</ele>
<time>2016-07-16T23:23:31.841Z</time>
</trkpt>
<trkpt lat="-26.8873369" lon="152.2145929">
<ele>157.906</ele>
<time>2016-07-16T23:23:33.813Z</time>
</trkpt>
<trkpt lat="-26.8870886" lon="152.2140566">
<ele>160.315</ele>
<time>2016-07-16T23:23:35.781Z</time>
</trkpt>
<trkpt lat="-26.8868696" lon="152.2134790">
<ele>163.312</ele>
<time>2016-07-16T23:23:37.826Z</time>
</trkpt>
<trkpt lat="-26.8867011" lon="152.2129184">
<ele>165.915</ele>
<time>2016-07-16T23:23:39.835Z</time>
</trkpt>
<trkpt lat="-26.8864508" lon="152.2121569">
<ele>167.442</ele>
<time>2016-07-16T23:23:42.896Z</time>
</trkpt>
<trkpt lat="-26.8862077" lon="152.2116083">
<ele>167.206</ele>
<time>2016-07-16T23:23:45.708Z</time>
</trkpt>
<trkpt lat="-26.8860417" lon="152.2113054">
<ele>164.167</ele>
<time>2016-07-16T23:23:47.647Z</time>
</trkpt>
<trkpt lat="-26.8857410" lon="152.2108893">
<ele>159.244</ele>
<time>2016-07-16T23:23:50.579Z</time>
</trkpt>
<trkpt lat="-26.8854790" lon="152.2106029">
<ele>155.689</ele>
<time>2016-07-16T23:23:52.625Z</time>
</trkpt>
<trkpt lat="-26.8850084" lon="152.2101672">
<ele>155.227</ele>
<time>2016-07-16T23:23:55.804Z</time>
</trkpt>
<trkpt lat="-26.8845103" lon="152.2098352">
<ele>157.162</ele>
<time>2016-07-16T23:23:58.782Z</time>
</trkpt>
<trkpt lat="-26.8841760" lon="152.2096544">
<ele>160.509</ele>
<time>2016-07-16T23:24:00.741Z</time>
</trkpt>
<trkpt lat="-26.8838221" lon="152.2094749">
<ele>164.131</ele>
<time>2016-07-16T23:24:02.796Z</time>
</trkpt>
<trkpt lat="-26.8833453" lon="152.2091265">
<ele>167.108</ele>
<time>2016-07-16T23:24:05.754Z</time>
</trkpt>
<trkpt lat="-26.8830780" lon="152.2087905">
<ele>169.909</ele>
<time>2016-07-16T23:24:07.771Z</time>
</trkpt>
<trkpt lat="-26.8828789" lon="152.2083963">
<ele>173.320</ele>
<time>2016-07-16T23:24:09.742Z</time>
</trkpt>
<trkpt lat="-26.8825940" lon="152.2077439">
<ele>177.116</ele>
<time>2016-07-16T23:24:12.846Z</time>
</trkpt>
<trkpt lat="-26.8823673" lon="152.2071411">
<ele>181.191</ele>
<time>2016-07-16T23:24:15.746Z</time>
</trkpt>
<trkpt lat="-26.8820593" lon="152.2066416">
<ele>185.324</ele>
<time>2016-07-16T23:24:18.678Z</time>
</trkpt>
<trkpt lat="-26.8817702" lon="152.2064049">
<ele>188.639</ele>
<time>2016-07-16T23:24:20.684Z</time>
</trkpt>
<trkpt lat="-26.8813748" lon="152.2062809">
<ele>191.105</ele>
<time>2016-07-16T23:24:22.864Z</time>
</trkpt>
<trkpt lat="-26.8808443" lon="152.2059712">
<ele>194.080</ele>
<time>2016-07-16T23:24:25.882Z</time>
</trkpt>
<trkpt lat="-26.8804404" lon="152.2055035">
<ele>198.141</ele>
<time>2016-07-16T23:24:28.820Z</time>
</trkpt>
<trkpt lat="-26.8801101" lon="152.2052902">
<ele>202.756</ele>
<time>2016-07-16T23:24:30.833Z</time>
</trkpt>
<trkpt lat="-26.8795446" lon="152.2051701">
<ele>206.864</ele>
<time>2016-07-16T23:24:33.837Z</time>
</trkpt>
<trkpt lat="-26.8788791" lon="152.2052134">
<ele>209.840</ele>
<time>2016-07-16T23:24:37.056Z</time>
</trkpt>
<trkpt lat="-26.8782571" lon="152.2049990">
<ele>212.796</ele>
<time>2016-07-16T23:24:39.995Z</time>
</trkpt>
<trkpt lat="-26.8779060" lon="152.2046779">
<ele>217.157</ele>
<time>2016-07-16T23:24:41.951Z</time>
</trkpt>
<trkpt lat="-26.8773398" lon="152.2041494">
<ele>222.746</ele>
<time>2016-07-16T23:24:45.073Z</time>
</trkpt>
<trkpt lat="-26.8770118" lon="152.2037926">
<ele>228.981</ele>
<time>2016-07-16T23:24:47.063Z</time>
</trkpt>
<trkpt lat="-26.8768851" lon="152.2035851">
<ele>234.857</ele>
<time>2016-07-16T23:24:48.062Z</time>
</trkpt>
<trkpt lat="-26.8765176" lon="152.2027697">
<ele>238.862</ele>
<time>2016-07-16T23:24:52.129Z</time>
</trkpt>
<trkpt lat="-26.8762178" lon="152.2023039">
<ele>240.800</ele>
<time>2016-07-16T23:24:55.129Z</time>
</trkpt>
<trkpt lat="-26.8759507" lon="152.2021686">
<ele>241.657</ele>
<time>2016-07-16T23:24:57.060Z</time>
</trkpt>
<trkpt lat="-26.8754885" lon="152.2022201">
<ele>242.307</ele>
<time>2016-07-16T23:25:00.117Z</time>
</trkpt>
<trkpt lat="-26.8752220" lon="152.2024602">
<ele>243.904</ele>
<time>2016-07-16T23:25:02.127Z</time>
</trkpt>
<trkpt lat="-26.8749594" lon="152.2027963">
<ele>247.461</ele>
<time>2016-07-16T23:25:04.307Z</time>
</trkpt>
<trkpt lat="-26.8744877" lon="152.2030620">
<ele>252.372</ele>
<time>2016-07-16T23:25:07.148Z</time>
</trkpt>
<trkpt lat="-26.8739049" lon="152.2030249">
<ele>256.969</ele>
<time>2016-07-16T23:25:10.204Z</time>
</trkpt>
<trkpt lat="-26.8733438" lon="152.2027870">
<ele>261.199</ele>
<time>2016-07-16T23:25:13.298Z</time>
</trkpt>
<trkpt lat="-26.8731625" lon="152.2024193">
<ele>265.760</ele>
<time>2016-07-16T23:25:15.284Z</time>
</trkpt>
<trkpt lat="-26.8730774" lon="152.2019982">
<ele>269.775</ele>
<time>2016-07-16T23:25:17.213Z</time>
</trkpt>
<trkpt lat="-26.8731328" lon="152.2012399">
<ele>272.644</ele>
<time>2016-07-16T23:25:20.460Z</time>
</trkpt>
<trkpt lat="-26.8731654" lon="152.2007764">
<ele>276.256</ele>
<time>2016-07-16T23:25:22.495Z</time>
</trkpt>
<trkpt lat="-26.8729948" lon="152.2001559">
<ele>281.330</ele>
<time>2016-07-16T23:25:25.336Z</time>
</trkpt>
<trkpt lat="-26.8725667" lon="152.1996143">
<ele>285.753</ele>
<time>2016-07-16T23:25:28.421Z</time>
</trkpt>
<trkpt lat="-26.8723584" lon="152.1992202">
<ele>289.351</ele>
<time>2016-07-16T23:25:30.357Z</time>
</trkpt>
<trkpt lat="-26.8723279" lon="152.1985011">
<ele>293.605</ele>
<time>2016-07-16T23:25:33.412Z</time>
</trkpt>
<trkpt lat="-26.8724079" lon="152.1977909">
<ele>298.145</ele>
<time>2016-07-16T23:25:36.564Z</time>
</trkpt>
<trkpt lat="-26.8724923" lon="152.1973928">
<ele>302.278</ele>
<time>2016-07-16T23:25:38.525Z</time>
</trkpt>
<trkpt lat="-26.8728442" lon="152.1969538">
<ele>305.753</ele>
<time>2016-07-16T23:25:41.368Z</time>
</trkpt>
<trkpt lat="-26.8731639" lon="152.1967140">
<ele>308.453</ele>
<time>2016-07-16T23:25:43.424Z</time>
</trkpt>
<trkpt lat="-26.8735490" lon="152.1962789">
<ele>311.394</ele>
<time>2016-07-16T23:25:46.441Z</time>
</trkpt>
<trkpt lat="-26.8736563" lon="152.1959078">
<ele>314.682</ele>
<time>2016-07-16T23:25:48.520Z</time>
</trkpt>
<trkpt lat="-26.8736469" lon="152.1955456">
<ele>317.230</ele>
<time>2016-07-16T23:25:50.476Z</time>
</trkpt>
<trkpt lat="-26.8734977" lon="152.1951919">
<ele>318.634</ele>
<time>2016-07-16T23:25:52.616Z</time>
</trkpt>
<trkpt lat="-26.8733510" lon="152.1948716">
<ele>319.751</ele>
<time>2016-07-16T23:25:54.645Z</time>
</trkpt>
<trkpt lat="-26.8734458" lon="152.1942500">
<ele>321.223</ele>
<time>2016-07-16T23:25:58.395Z</time>
</trkpt>
<trkpt lat="-26.8737134" lon="152.1940141">
<ele>322.794</ele>
<time>2016-07-16T23:26:00.361Z</time>
</trkpt>
<trkpt lat="-26.8740216" lon="152.1937512">
<ele>324.761</ele>
<time>2016-07-16T23:26:02.363Z</time>
</trkpt>
<trkpt lat="-26.8743323" lon="152.1934500">
<ele>327.919</ele>
<time>2016-07-16T23:26:04.376Z</time>
</trkpt>
<trkpt lat="-26.8746987" lon="152.1928806">
<ele>331.475</ele>
<time>2016-07-16T23:26:07.388Z</time>
</trkpt>
<trkpt lat="-26.8748811" lon="152.1922044">
<ele>333.630</ele>
<time>2016-07-16T23:26:10.353Z</time>
</trkpt>
<trkpt lat="-26.8749008" lon="152.1914656">
<ele>333.790</ele>
<time>2016-07-16T23:26:13.336Z</time>
</trkpt>
<trkpt lat="-26.8748068" lon="152.1909431">
<ele>332.894</ele>
<time>2016-07-16T23:26:15.340Z</time>
</trkpt>
<trkpt lat="-26.8746388" lon="152.1903912">
<ele>332.073</ele>
<time>2016-07-16T23:26:17.403Z</time>
</trkpt>
<trkpt lat="-26.8742219" lon="152.1896183">
<ele>331.787</ele>
<time>2016-07-16T23:26:20.512Z</time>
</trkpt>
<trkpt lat="-26.8738533" lon="152.1888703">
<ele>331.859</ele>
<time>2016-07-16T23:26:23.439Z</time>
</trkpt>
<trkpt lat="-26.8734896" lon="152.1880940">
<ele>331.221</ele>
<time>2016-07-16T23:26:26.452Z</time>
</trkpt>
<trkpt lat="-26.8732990" lon="152.1875647">
<ele>328.644</ele>
<time>2016-07-16T23:26:28.413Z</time>
</trkpt>
<trkpt lat="-26.8731569" lon="152.1869935">
<ele>324.814</ele>
<time>2016-07-16T23:26:30.455Z</time>
</trkpt>
<trkpt lat="-26.8730021" lon="152.1861214">
<ele>321.819</ele>
<time>2016-07-16T23:26:33.575Z</time>
</trkpt>
<trkpt lat="-26.8729471" lon="152.1858487">
<ele>320.558</ele>
<time>2016-07-16T23:26:34.577Z</time>
</trkpt>
<trkpt lat="-26.8726629" lon="152.1847514">
<ele>320.470</ele>
<time>2016-07-16T23:26:38.567Z</time>
</trkpt>
<trkpt lat="-26.8722215" lon="152.1839606">
<ele>320.776</ele>
<time>2016-07-16T23:26:41.625Z</time>
</trkpt>
<trkpt lat="-26.8718259" lon="152.1831394">
<ele>321.898</ele>
<time>2016-07-16T23:26:44.685Z</time>
</trkpt>
<trkpt lat="-26.8715955" lon="152.1823330">
<ele>324.465</ele>
<time>2016-07-16T23:26:47.545Z</time>
</trkpt>
<trkpt lat="-26.8715269" lon="152.1817658">
<ele>327.588</ele>
<time>2016-07-16T23:26:49.505Z</time>
</trkpt>
<trkpt lat="-26.8715517" lon="152.1808940">
<ele>330.887</ele>
<time>2016-07-16T23:26:52.522Z</time>
</trkpt>
<trkpt lat="-26.8716367" lon="152.1803349">
<ele>335.591</ele>
<time>2016-07-16T23:26:54.529Z</time>
</trkpt>
<trkpt lat="-26.8717836" lon="152.1798050">
<ele>341.080</ele>
<time>2016-07-16T23:26:56.467Z</time>
</trkpt>
<trkpt lat="-26.8720875" lon="152.1789839">
<ele>345.285</ele>
<time>2016-07-16T23:26:59.535Z</time>
</trkpt>
<trkpt lat="-26.8723597" lon="152.1781723">
<ele>348.609</ele>
<time>2016-07-16T23:27:02.510Z</time>
</trkpt>
<trkpt lat="-26.8724628" lon="152.1775969">
<ele>352.358</ele>
<time>2016-07-16T23:27:04.525Z</time>
</trkpt>
<trkpt lat="-26.8724809" lon="152.1767235">
<ele>356.154</ele>
<time>2016-07-16T23:27:07.560Z</time>
</trkpt>
<trkpt lat="-26.8724013" lon="152.1758834">
<ele>360.128</ele>
<time>2016-07-16T23:27:10.530Z</time>
</trkpt>
<trkpt lat="-26.8721576" lon="152.1750309">
<ele>365.078</ele>
<time>2016-07-16T23:27:13.666Z</time>
</trkpt>
<trkpt lat="-26.8720102" lon="152.1744898">
<ele>370.935</ele>
<time>2016-07-16T23:27:15.643Z</time>
</trkpt>
<trkpt lat="-26.8718502" lon="152.1736552">
<ele>377.042</ele>
<time>2016-07-16T23:27:18.617Z</time>
</trkpt>
<trkpt lat="-26.8718356" lon="152.1730738">
<ele>382.546</ele>
<time>2016-07-16T23:27:20.647Z</time>
</trkpt>
<trkpt lat="-26.8718710" lon="152.1722315">
<ele>386.880</ele>
<time>2016-07-16T23:27:23.604Z</time>
</trkpt>
<trkpt lat="-26.8719445" lon="152.1716594">
<ele>390.572</ele>
<time>2016-07-16T23:27:25.612Z</time>
</trkpt>
<trkpt lat="-26.8721139" lon="152.1708159">
<ele>394.269</ele>
<time>2016-07-16T23:27:28.582Z</time>
</trkpt>
<trkpt lat="-26.8723347" lon="152.1699741">
<ele>397.685</ele>
<time>2016-07-16T23:27:31.615Z</time>
</trkpt>
<trkpt lat="-26.8725308" lon="152.1691642">
<ele>400.694</ele>
<time>2016-07-16T23:27:34.606Z</time>
</trkpt>
<trkpt lat="-26.8727004" lon="152.1683786">
<ele>403.506</ele>
<time>2016-07-16T23:27:37.500Z</time>
</trkpt>
<trkpt lat="-26.8728732" lon="152.1675462">
<ele>405.769</ele>
<time>2016-07-16T23:27:40.467Z</time>
</trkpt>
<trkpt lat="-26.8730140" lon="152.1669681">
<ele>407.809</ele>
<time>2016-07-16T23:27:42.520Z</time>
</trkpt>
<trkpt lat="-26.8731537" lon="152.1664161">
<ele>410.676</ele>
<time>2016-07-16T23:27:44.561Z</time>
</trkpt>
<trkpt lat="-26.8733419" lon="152.1656381">
<ele>413.998</ele>
<time>2016-07-16T23:27:47.500Z</time>
</trkpt>
<trkpt lat="-26.8734620" lon="152.1651230">
<ele>416.102</ele>
<time>2016-07-16T23:27:49.386Z</time>
</trkpt>
<trkpt lat="-26.8737198" lon="152.1642850">
<ele>416.329</ele>
<time>2016-07-16T23:27:52.366Z</time>
</trkpt>
<trkpt lat="-26.8740067" lon="152.1633877">
<ele>416.224</ele>
<time>2016-07-16T23:27:55.404Z</time>
</trkpt>
<trkpt lat="-26.8743560" lon="152.1625341">
<ele>417.090</ele>
<time>2016-07-16T23:27:58.369Z</time>
</trkpt>
<trkpt lat="-26.8746144" lon="152.1619836">
<ele>418.010</ele>
<time>2016-07-16T23:28:00.344Z</time>
</trkpt>
<trkpt lat="-26.8750079" lon="152.1611415">
<ele>417.886</ele>
<time>2016-07-16T23:28:03.366Z</time>
</trkpt>
<trkpt lat="-26.8752696" lon="152.1605901">
<ele>417.053</ele>
<time>2016-07-16T23:28:05.355Z</time>
</trkpt>
<trkpt lat="-26.8755126" lon="152.1600474">
<ele>416.146</ele>
<time>2016-07-16T23:28:07.325Z</time>
</trkpt>
<trkpt lat="-26.8759048" lon="152.1592430">
<ele>415.819</ele>
<time>2016-07-16T23:28:10.352Z</time>
</trkpt>
<trkpt lat="-26.8761487" lon="152.1587114">
<ele>416.411</ele>
<time>2016-07-16T23:28:12.358Z</time>
</trkpt>
<trkpt lat="-26.8763949" lon="152.1581823">
<ele>417.597</ele>
<time>2016-07-16T23:28:14.389Z</time>
</trkpt>
<trkpt lat="-26.8766260" lon="152.1576572">
<ele>419.446</ele>
<time>2016-07-16T23:28:16.430Z</time>
</trkpt>
<trkpt lat="-26.8768662" lon="152.1571651">
<ele>422.077</ele>
<time>2016-07-16T23:28:18.412Z</time>
</trkpt>
<trkpt lat="-26.8772080" lon="152.1564043">
<ele>424.801</ele>
<time>2016-07-16T23:28:21.395Z</time>
</trkpt>
<trkpt lat="-26.8775429" lon="152.1556125">
<ele>427.989</ele>
<time>2016-07-16T23:28:24.402Z</time>
</trkpt>
<trkpt lat="-26.8777902" lon="152.1550949">
<ele>432.695</ele>
<time>2016-07-16T23:28:26.405Z</time>
</trkpt>
<trkpt lat="-26.8780108" lon="152.1545777">
<ele>438.097</ele>
<time>2016-07-16T23:28:28.340Z</time>
</trkpt>
<trkpt lat="-26.8783775" lon="152.1537767">
<ele>442.432</ele>
<time>2016-07-16T23:28:31.272Z</time>
</trkpt>
<trkpt lat="-26.8786586" lon="152.1531349">
<ele>445.539</ele>
<time>2016-07-16T23:28:33.408Z</time>
</trkpt>
<trkpt lat="-26.8789374" lon="152.1524907">
<ele>448.665</ele>
<time>2016-07-16T23:28:35.465Z</time>
</trkpt>
<trkpt lat="-26.8792096" lon="152.1518844">
<ele>452.417</ele>
<time>2016-07-16T23:28:37.440Z</time>
</trkpt>
<trkpt lat="-26.8796339" lon="152.1509908">
<ele>455.698</ele>
<time>2016-07-16T23:28:40.425Z</time>
</trkpt>
<trkpt lat="-26.8800638" lon="152.1501063">
<ele>457.119</ele>
<time>2016-07-16T23:28:43.402Z</time>
</trkpt>
<trkpt lat="-26.8803523" lon="152.1494887">
<ele>456.702</ele>
<time>2016-07-16T23:28:45.466Z</time>
</trkpt>
<trkpt lat="-26.8807456" lon="152.1485779">
<ele>455.687</ele>
<time>2016-07-16T23:28:48.499Z</time>
</trkpt>
<trkpt lat="-26.8810036" lon="152.1479997">
<ele>454.524</ele>
<time>2016-07-16T23:28:50.507Z</time>
</trkpt>
<trkpt lat="-26.8813520" lon="152.1471824">
<ele>452.820</ele>
<time>2016-07-16T23:28:53.451Z</time>
</trkpt>
<trkpt lat="-26.8815794" lon="152.1467035">
<ele>450.606</ele>
<time>2016-07-16T23:28:55.346Z</time>
</trkpt>
<trkpt lat="-26.8818252" lon="152.1462390">
<ele>447.646</ele>
<time>2016-07-16T23:28:57.255Z</time>
</trkpt>
<trkpt lat="-26.8821269" lon="152.1457645">
<ele>444.136</ele>
<time>2016-07-16T23:28:59.297Z</time>
</trkpt>
<trkpt lat="-26.8824448" lon="152.1453157">
<ele>441.649</ele>
<time>2016-07-16T23:29:01.256Z</time>
</trkpt>
<trkpt lat="-26.8830096" lon="152.1446785">
<ele>441.164</ele>
<time>2016-07-16T23:29:04.222Z</time>
</trkpt>
<trkpt lat="-26.8834636" lon="152.1442607">
<ele>442.088</ele>
<time>2016-07-16T23:29:06.314Z</time>
</trkpt>
<trkpt lat="-26.8836919" lon="152.1440759">
<ele>443.322</ele>
<time>2016-07-16T23:29:07.310Z</time>
</trkpt>
<trkpt lat="-26.8846803" lon="152.1434207">
<ele>444.302</ele>
<time>2016-07-16T23:29:11.337Z</time>
</trkpt>
<trkpt lat="-26.8851753" lon="152.1431362">
<ele>444.813</ele>
<time>2016-07-16T23:29:13.354Z</time>
</trkpt>
<trkpt lat="-26.8858795" lon="152.1427321">
<ele>444.226</ele>
<time>2016-07-16T23:29:16.333Z</time>
</trkpt>
<trkpt lat="-26.8863441" lon="152.1424694">
<ele>442.193</ele>
<time>2016-07-16T23:29:18.347Z</time>
</trkpt>
<trkpt lat="-26.8868061" lon="152.1421950">
<ele>439.448</ele>
<time>2016-07-16T23:29:20.345Z</time>
</trkpt>
<trkpt lat="-26.8872685" lon="152.1418659">
<ele>437.172</ele>
<time>2016-07-16T23:29:22.417Z</time>
</trkpt>
<trkpt lat="-26.8878842" lon="152.1413107">
<ele>436.221</ele>
<time>2016-07-16T23:29:25.399Z</time>
</trkpt>
<trkpt lat="-26.8884216" lon="152.1406483">
<ele>436.533</ele>
<time>2016-07-16T23:29:28.391Z</time>
</trkpt>
<trkpt lat="-26.8887370" lon="152.1401563">
<ele>437.290</ele>
<time>2016-07-16T23:29:30.394Z</time>
</trkpt>
<trkpt lat="-26.8890069" lon="152.1396221">
<ele>438.343</ele>
<time>2016-07-16T23:29:32.423Z</time>
</trkpt>
<trkpt lat="-26.8892242" lon="152.1390773">
<ele>439.920</ele>
<time>2016-07-16T23:29:34.332Z</time>
</trkpt>
<trkpt lat="-26.8894816" lon="152.1381608">
<ele>441.605</ele>
<time>2016-07-16T23:29:37.279Z</time>
</trkpt>
<trkpt lat="-26.8897520" lon="152.1371591">
<ele>443.518</ele>
<time>2016-07-16T23:29:40.360Z</time>
</trkpt>
<trkpt lat="-26.8900196" lon="152.1361824">
<ele>445.890</ele>
<time>2016-07-16T23:29:43.407Z</time>
</trkpt>
<trkpt lat="-26.8902571" lon="152.1352608">
<ele>447.208</ele>
<time>2016-07-16T23:29:46.395Z</time>
</trkpt>
<trkpt lat="-26.8903860" lon="152.1346464">
<ele>444.869</ele>
<time>2016-07-16T23:29:48.417Z</time>
</trkpt>
<trkpt lat="-26.8905086" lon="152.1337394">
<ele>438.851</ele>
<time>2016-07-16T23:29:51.378Z</time>
</trkpt>
<trkpt lat="-26.8905278" lon="152.1331335">
<ele>432.308</ele>
<time>2016-07-16T23:29:53.325Z</time>
</trkpt>
<trkpt lat="-26.8904154" lon="152.1321919">
<ele>427.890</ele>
<time>2016-07-16T23:29:56.345Z</time>
</trkpt>
<trkpt lat="-26.8902622" lon="152.1315724">
<ele>425.973</ele>
<time>2016-07-16T23:29:58.303Z</time>
</trkpt>
<trkpt lat="-26.8899355" lon="152.1306083">
<ele>425.957</ele>
<time>2016-07-16T23:30:01.312Z</time>
</trkpt>
<trkpt lat="-26.8896919" lon="152.1299327">
<ele>427.444</ele>
<time>2016-07-16T23:30:03.396Z</time>
</trkpt>
<trkpt lat="-26.8893486" lon="152.1289898">
<ele>430.969</ele>
<time>2016-07-16T23:30:06.421Z</time>
</trkpt>
<trkpt lat="-26.8890176" lon="152.1280988">
<ele>435.787</ele>
<time>2016-07-16T23:30:09.459Z</time>
</trkpt>
<trkpt lat="-26.8888257" lon="152.1275298">
<ele>439.501</ele>
<time>2016-07-16T23:30:11.466Z</time>
</trkpt>
<trkpt lat="-26.8886651" lon="152.1269743">
<ele>440.988</ele>
<time>2016-07-16T23:30:13.389Z</time>
</trkpt>
<trkpt lat="-26.8884241" lon="152.1260935">
<ele>441.439</ele>
<time>2016-07-16T23:30:16.350Z</time>
</trkpt>
<trkpt lat="-26.8882922" lon="152.1254653">
<ele>442.961</ele>
<time>2016-07-16T23:30:18.360Z</time>
</trkpt>
<trkpt lat="-26.8881334" lon="152.1245163">
<ele>446.421</ele>
<time>2016-07-16T23:30:21.369Z</time>
</trkpt>
<trkpt lat="-26.8880131" lon="152.1235792">
<ele>450.396</ele>
<time>2016-07-16T23:30:24.362Z</time>
</trkpt>
<trkpt lat="-26.8878927" lon="152.1226783">
<ele>452.931</ele>
<time>2016-07-16T23:30:27.240Z</time>
</trkpt>
<trkpt lat="-26.8878085" lon="152.1219698">
<ele>453.582</ele>
<time>2016-07-16T23:30:29.397Z</time>
</trkpt>
<trkpt lat="-26.8877295" lon="152.1213210">
<ele>452.511</ele>
<time>2016-07-16T23:30:31.344Z</time>
</trkpt>
<trkpt lat="-26.8876138" lon="152.1203332">
<ele>450.211</ele>
<time>2016-07-16T23:30:34.296Z</time>
</trkpt>
<trkpt lat="-26.8875167" lon="152.1196560">
<ele>447.608</ele>
<time>2016-07-16T23:30:36.291Z</time>
</trkpt>
<trkpt lat="-26.8874352" lon="152.1189733">
<ele>445.458</ele>
<time>2016-07-16T23:30:38.271Z</time>
</trkpt>
<trkpt lat="-26.8872949" lon="152.1179135">
<ele>444.138</ele>
<time>2016-07-16T23:30:41.379Z</time>
</trkpt>
<trkpt lat="-26.8872284" lon="152.1172684">
<ele>443.810</ele>
<time>2016-07-16T23:30:43.359Z</time>
</trkpt>
<trkpt lat="-26.8871590" lon="152.1166732">
<ele>443.793</ele>
<time>2016-07-16T23:30:45.321Z</time>
</trkpt>
<trkpt lat="-26.8870571" lon="152.1158381">
<ele>443.203</ele>
<time>2016-07-16T23:30:48.224Z</time>
</trkpt>
<trkpt lat="-26.8869611" lon="152.1149928">
<ele>442.011</ele>
<time>2016-07-16T23:30:51.304Z</time>
</trkpt>
<trkpt lat="-26.8868556" lon="152.1142031">
<ele>441.344</ele>
<time>2016-07-16T23:30:54.251Z</time>
</trkpt>
<trkpt lat="-26.8867936" lon="152.1136891">
<ele>441.862</ele>
<time>2016-07-16T23:30:56.169Z</time>
</trkpt>
<trkpt lat="-26.8867054" lon="152.1128331">
<ele>443.632</ele>
<time>2016-07-16T23:30:59.355Z</time>
</trkpt>
<trkpt lat="-26.8866314" lon="152.1120530">
<ele>446.404</ele>
<time>2016-07-16T23:31:02.294Z</time>
</trkpt>
<trkpt lat="-26.8865380" lon="152.1113037">
<ele>449.166</ele>
<time>2016-07-16T23:31:05.143Z</time>
</trkpt>
<trkpt lat="-26.8864569" lon="152.1107238">
<ele>451.605</ele>
<time>2016-07-16T23:31:07.382Z</time>
</trkpt>
<trkpt lat="-26.8863316" lon="152.1100131">
<ele>454.120</ele>
<time>2016-07-16T23:31:10.366Z</time>
</trkpt>
<trkpt lat="-26.8862424" lon="152.1094134">
<ele>455.855</ele>
<time>2016-07-16T23:31:13.229Z</time>
</trkpt>
<trkpt lat="-26.8861926" lon="152.1090451">
<ele>455.281</ele>
<time>2016-07-16T23:31:15.208Z</time>
</trkpt>
<trkpt lat="-26.8861504" lon="152.1087009">
<ele>452.113</ele>
<time>2016-07-16T23:31:17.162Z</time>
</trkpt>
<trkpt lat="-26.8860870" lon="152.1081958">
<ele>447.961</ele>
<time>2016-07-16T23:31:20.126Z</time>
</trkpt>
<trkpt lat="-26.8860454" lon="152.1078678">
<ele>444.449</ele>
<time>2016-07-16T23:31:22.109Z</time>
</trkpt>
<trkpt lat="-26.8860042" lon="152.1075439">
<ele>441.920</ele>
<time>2016-07-16T23:31:24.150Z</time>
</trkpt>
<trkpt lat="-26.8859736" lon="152.1072478">
<ele>442.144</ele>
<time>2016-07-16T23:31:26.164Z</time>
</trkpt>
<trkpt lat="-26.8859240" lon="152.1068439">
<ele>446.010</ele>
<time>2016-07-16T23:31:29.117Z</time>
</trkpt>
<trkpt lat="-26.8858769" lon="152.1064755">
<ele>450.059</ele>
<time>2016-07-16T23:31:31.979Z</time>
</trkpt>
<trkpt lat="-26.8858257" lon="152.1061032">
<ele>450.986</ele>
<time>2016-07-16T23:31:34.914Z</time>
</trkpt>
<trkpt lat="-26.8857886" lon="152.1058366">
<ele>449.530</ele>
<time>2016-07-16T23:31:36.970Z</time>
</trkpt>
<trkpt lat="-26.8857500" lon="152.1054428">
<ele>447.543</ele>
<time>2016-07-16T23:31:39.945Z</time>
</trkpt>
<trkpt lat="-26.8856968" lon="152.1050291">
<ele>445.852</ele>
<time>2016-07-16T23:31:43.036Z</time>
</trkpt>
<trkpt lat="-26.8856585" lon="152.1047610">
<ele>442.958</ele>
<time>2016-07-16T23:31:45.034Z</time>
</trkpt>
<trkpt lat="-26.8856122" lon="152.1043365">
<ele>437.968</ele>
<time>2016-07-16T23:31:48.118Z</time>
</trkpt>
<trkpt lat="-26.8855699" lon="152.1039244">
<ele>433.265</ele>
<time>2016-07-16T23:31:51.017Z</time>
</trkpt>
<trkpt lat="-26.8855508" lon="152.1036295">
<ele>430.963</ele>
<time>2016-07-16T23:31:53.005Z</time>
</trkpt>
<trkpt lat="-26.8855358" lon="152.1033446">
<ele>430.359</ele>
<time>2016-07-16T23:31:54.883Z</time>
</trkpt>
<trkpt lat="-26.8855078" lon="152.1030340">
<ele>430.324</ele>
<time>2016-07-16T23:31:56.951Z</time>
</trkpt>
<trkpt lat="-26.8854554" lon="152.1026184">
<ele>430.097</ele>
<time>2016-07-16T23:31:59.870Z</time>
</trkpt>
<trkpt lat="-26.8854251" lon="152.1023949">
<ele>429.330</ele>
<time>2016-07-16T23:32:01.729Z</time>
</trkpt>
<trkpt lat="-26.8853905" lon="152.1021001">
<ele>427.902</ele>
<time>2016-07-16T23:32:04.981Z</time>
</trkpt>
<trkpt lat="-26.8853606" lon="152.1019837">
<ele>426.027</ele>
<time>2016-07-16T23:32:06.995Z</time>
</trkpt>
<trkpt lat="-26.8853606" lon="152.1019837">
<ele>424.368</ele>
<time>2016-07-16T23:32:11.995Z</time>
</trkpt>
<trkpt lat="-26.8853606" lon="152.1019837">
<ele>423.526</ele>
<time>2016-07-16T23:32:15.051Z</time>
</trkpt>
<trkpt lat="-26.8852072" lon="152.1021020">
<ele>423.639</ele>
<time>2016-07-16T23:32:22.811Z</time>
</trkpt>
<trkpt lat="-26.8851908" lon="152.1022116">
<ele>424.377</ele>
<time>2016-07-16T23:32:25.995Z</time>
</trkpt>
<trkpt lat="-26.8851908" lon="152.1022116">
<ele>425.102</ele>
<time>2016-07-16T23:32:27.995Z</time>
</trkpt>
<trkpt lat="-26.8851908" lon="152.1022116">
<ele>425.337</ele>
<time>2016-07-17T00:05:47.515Z</time>
</trkpt>
<trkpt lat="-26.8852600" lon="152.1023423">
<ele>425.119</ele>
<time>2016-07-17T00:05:52.397Z</time>
</trkpt>
<trkpt lat="-26.8853001" lon="152.1025665">
<ele>426.867</ele>
<time>2016-07-17T00:05:55.793Z</time>
</trkpt>
<trkpt lat="-26.8853226" lon="152.1027253">
<ele>432.300</ele>
<time>2016-07-17T00:05:57.810Z</time>
</trkpt>
<trkpt lat="-26.8853586" lon="152.1029548">
<ele>438.401</ele>
<time>2016-07-17T00:06:00.618Z</time>
</trkpt>
<trkpt lat="-26.8853896" lon="152.1031242">
<ele>441.892</ele>
<time>2016-07-17T00:06:02.454Z</time>
</trkpt>
<trkpt lat="-26.8854499" lon="152.1034276">
<ele>443.111</ele>
<time>2016-07-17T00:06:05.520Z</time>
</trkpt>
<trkpt lat="-26.8855069" lon="152.1037391">
<ele>443.461</ele>
<time>2016-07-17T00:06:08.545Z</time>
</trkpt>
<trkpt lat="-26.8855397" lon="152.1040398">
<ele>443.877</ele>
<time>2016-07-17T00:06:11.437Z</time>
</trkpt>
<trkpt lat="-26.8855711" lon="152.1043572">
<ele>444.490</ele>
<time>2016-07-17T00:06:14.337Z</time>
</trkpt>
<trkpt lat="-26.8856191" lon="152.1047097">
<ele>445.211</ele>
<time>2016-07-17T00:06:17.324Z</time>
</trkpt>
<trkpt lat="-26.8856518" lon="152.1049758">
<ele>446.180</ele>
<time>2016-07-17T00:06:19.397Z</time>
</trkpt>
<trkpt lat="-26.8857052" lon="152.1053748">
<ele>447.312</ele>
<time>2016-07-17T00:06:22.371Z</time>
</trkpt>
<trkpt lat="-26.8857230" lon="152.1055141">
<ele>448.428</ele>
<time>2016-07-17T00:06:23.356Z</time>
</trkpt>
<trkpt lat="-26.8858048" lon="152.1061479">
<ele>449.596</ele>
<time>2016-07-17T00:06:27.419Z</time>
</trkpt>
<trkpt lat="-26.8858660" lon="152.1066497">
<ele>451.302</ele>
<time>2016-07-17T00:06:30.422Z</time>
</trkpt>
<trkpt lat="-26.8859322" lon="152.1071473">
<ele>453.530</ele>
<time>2016-07-17T00:06:33.369Z</time>
</trkpt>
<trkpt lat="-26.8859892" lon="152.1076594">
<ele>455.946</ele>
<time>2016-07-17T00:06:36.389Z</time>
</trkpt>
<trkpt lat="-26.8860417" lon="152.1081637">
<ele>458.450</ele>
<time>2016-07-17T00:06:39.395Z</time>
</trkpt>
<trkpt lat="-26.8861068" lon="152.1086647">
<ele>460.936</ele>
<time>2016-07-17T00:06:42.411Z</time>
</trkpt>
<trkpt lat="-26.8861759" lon="152.1091741">
<ele>463.084</ele>
<time>2016-07-17T00:06:45.409Z</time>
</trkpt>
<trkpt lat="-26.8862408" lon="152.1097100">
<ele>464.932</ele>
<time>2016-07-17T00:06:48.431Z</time>
</trkpt>
<trkpt lat="-26.8863112" lon="152.1102588">
<ele>466.756</ele>
<time>2016-07-17T00:06:51.398Z</time>
</trkpt>
<trkpt lat="-26.8863890" lon="152.1108338">
<ele>469.247</ele>
<time>2016-07-17T00:06:54.296Z</time>
</trkpt>
<trkpt lat="-26.8864801" lon="152.1115070">
<ele>472.516</ele>
<time>2016-07-17T00:06:57.342Z</time>
</trkpt>
<trkpt lat="-26.8865368" lon="152.1120098">
<ele>475.744</ele>
<time>2016-07-17T00:06:59.433Z</time>
</trkpt>
<trkpt lat="-26.8866271" lon="152.1127347">
<ele>478.084</ele>
<time>2016-07-17T00:07:02.422Z</time>
</trkpt>
<trkpt lat="-26.8867086" lon="152.1134703">
<ele>478.710</ele>
<time>2016-07-17T00:07:05.448Z</time>
</trkpt>
<trkpt lat="-26.8867845" lon="152.1141911">
<ele>477.224</ele>
<time>2016-07-17T00:07:08.445Z</time>
</trkpt>
<trkpt lat="-26.8868257" lon="152.1146471">
<ele>474.222</ele>
<time>2016-07-17T00:07:10.377Z</time>
</trkpt>
<trkpt lat="-26.8869181" lon="152.1153507">
<ele>469.954</ele>
<time>2016-07-17T00:07:13.359Z</time>
</trkpt>
<trkpt lat="-26.8870123" lon="152.1160831">
<ele>465.016</ele>
<time>2016-07-17T00:07:16.392Z</time>
</trkpt>
<trkpt lat="-26.8870798" lon="152.1168164">
<ele>460.659</ele>
<time>2016-07-17T00:07:19.335Z</time>
</trkpt>
<trkpt lat="-26.8871728" lon="152.1175779">
<ele>457.153</ele>
<time>2016-07-17T00:07:22.346Z</time>
</trkpt>
<trkpt lat="-26.8872721" lon="152.1180600">
<ele>454.307</ele>
<time>2016-07-17T00:07:24.284Z</time>
</trkpt>
<trkpt lat="-26.8873822" lon="152.1187810">
<ele>452.301</ele>
<time>2016-07-17T00:07:27.152Z</time>
</trkpt>
<trkpt lat="-26.8874407" lon="152.1192909">
<ele>451.008</ele>
<time>2016-07-17T00:07:29.105Z</time>
</trkpt>
<trkpt lat="-26.8875115" lon="152.1198425">
<ele>450.226</ele>
<time>2016-07-17T00:07:31.123Z</time>
</trkpt>
<trkpt lat="-26.8875881" lon="152.1204169">
<ele>450.326</ele>
<time>2016-07-17T00:07:33.216Z</time>
</trkpt>
<trkpt lat="-26.8877043" lon="152.1211954">
<ele>451.435</ele>
<time>2016-07-17T00:07:36.150Z</time>
</trkpt>
<trkpt lat="-26.8877659" lon="152.1217090">
<ele>452.431</ele>
<time>2016-07-17T00:07:38.164Z</time>
</trkpt>
<trkpt lat="-26.8878333" lon="152.1222129">
<ele>452.403</ele>
<time>2016-07-17T00:07:40.190Z</time>
</trkpt>
<trkpt lat="-26.8879280" lon="152.1229468">
<ele>452.151</ele>
<time>2016-07-17T00:07:43.188Z</time>
</trkpt>
<trkpt lat="-26.8880511" lon="152.1236512">
<ele>452.593</ele>
<time>2016-07-17T00:07:46.123Z</time>
</trkpt>
<trkpt lat="-26.8881061" lon="152.1241357">
<ele>453.894</ele>
<time>2016-07-17T00:07:48.111Z</time>
</trkpt>
<trkpt lat="-26.8881849" lon="152.1248736">
<ele>456.336</ele>
<time>2016-07-17T00:07:51.096Z</time>
</trkpt>
<trkpt lat="-26.8882518" lon="152.1253830">
<ele>459.524</ele>
<time>2016-07-17T00:07:53.098Z</time>
</trkpt>
<trkpt lat="-26.8883879" lon="152.1261522">
<ele>462.150</ele>
<time>2016-07-17T00:07:56.063Z</time>
</trkpt>
<trkpt lat="-26.8885244" lon="152.1266798">
<ele>463.615</ele>
<time>2016-07-17T00:07:58.062Z</time>
</trkpt>
<trkpt lat="-26.8886675" lon="152.1272188">
<ele>463.844</ele>
<time>2016-07-17T00:08:00.080Z</time>
</trkpt>
<trkpt lat="-26.8889137" lon="152.1280185">
<ele>462.760</ele>
<time>2016-07-17T00:08:03.116Z</time>
</trkpt>
<trkpt lat="-26.8890994" lon="152.1285258">
<ele>460.244</ele>
<time>2016-07-17T00:08:05.093Z</time>
</trkpt>
<trkpt lat="-26.8893799" lon="152.1293010">
<ele>456.518</ele>
<time>2016-07-17T00:08:08.129Z</time>
</trkpt>
<trkpt lat="-26.8895575" lon="152.1298116">
<ele>451.981</ele>
<time>2016-07-17T00:08:10.116Z</time>
</trkpt>
<trkpt lat="-26.8898573" lon="152.1305815">
<ele>447.361</ele>
<time>2016-07-17T00:08:13.102Z</time>
</trkpt>
<trkpt lat="-26.8900427" lon="152.1311290">
<ele>443.677</ele>
<time>2016-07-17T00:08:15.113Z</time>
</trkpt>
<trkpt lat="-26.8902839" lon="152.1319742">
<ele>441.305</ele>
<time>2016-07-17T00:08:18.121Z</time>
</trkpt>
<trkpt lat="-26.8903839" lon="152.1325511">
<ele>439.455</ele>
<time>2016-07-17T00:08:20.106Z</time>
</trkpt>
<trkpt lat="-26.8904442" lon="152.1334531">
<ele>437.487</ele>
<time>2016-07-17T00:08:23.128Z</time>
</trkpt>
<trkpt lat="-26.8904119" lon="152.1340695">
<ele>435.516</ele>
<time>2016-07-17T00:08:25.128Z</time>
</trkpt>
<trkpt lat="-26.8903154" lon="152.1346898">
<ele>434.191</ele>
<time>2016-07-17T00:08:27.091Z</time>
</trkpt>
<trkpt lat="-26.8900934" lon="152.1356505">
<ele>433.614</ele>
<time>2016-07-17T00:08:30.112Z</time>
</trkpt>
<trkpt lat="-26.8899324" lon="152.1362876">
<ele>432.876</ele>
<time>2016-07-17T00:08:32.134Z</time>
</trkpt>
<trkpt lat="-26.8897762" lon="152.1368942">
<ele>431.420</ele>
<time>2016-07-17T00:08:34.087Z</time>
</trkpt>
<trkpt lat="-26.8895297" lon="152.1378166">
<ele>430.421</ele>
<time>2016-07-17T00:08:37.048Z</time>
</trkpt>
<trkpt lat="-26.8893573" lon="152.1384797">
<ele>431.559</ele>
<time>2016-07-17T00:08:39.128Z</time>
</trkpt>
<trkpt lat="-26.8891674" lon="152.1390968">
<ele>434.601</ele>
<time>2016-07-17T00:08:41.094Z</time>
</trkpt>
<trkpt lat="-26.8887926" lon="152.1399719">
<ele>437.612</ele>
<time>2016-07-17T00:08:44.022Z</time>
</trkpt>
<trkpt lat="-26.8884669" lon="152.1405373">
<ele>440.576</ele>
<time>2016-07-17T00:08:46.026Z</time>
</trkpt>
<trkpt lat="-26.8878699" lon="152.1412982">
<ele>444.729</ele>
<time>2016-07-17T00:08:49.020Z</time>
</trkpt>
<trkpt lat="-26.8871519" lon="152.1419477">
<ele>448.801</ele>
<time>2016-07-17T00:08:52.044Z</time>
</trkpt>
<trkpt lat="-26.8863402" lon="152.1424473">
<ele>450.522</ele>
<time>2016-07-17T00:08:55.011Z</time>
</trkpt>
<trkpt lat="-26.8857588" lon="152.1427890">
<ele>449.948</ele>
<time>2016-07-17T00:08:57.103Z</time>
</trkpt>
<trkpt lat="-26.8849486" lon="152.1432496">
<ele>448.612</ele>
<time>2016-07-17T00:09:00.069Z</time>
</trkpt>
<trkpt lat="-26.8841599" lon="152.1437106">
<ele>447.329</ele>
<time>2016-07-17T00:09:03.059Z</time>
</trkpt>
<trkpt lat="-26.8834239" lon="152.1442636">
<ele>445.766</ele>
<time>2016-07-17T00:09:06.067Z</time>
</trkpt>
<trkpt lat="-26.8829786" lon="152.1446875">
<ele>444.129</ele>
<time>2016-07-17T00:09:08.087Z</time>
</trkpt>
<trkpt lat="-26.8825744" lon="152.1451292">
<ele>443.446</ele>
<time>2016-07-17T00:09:10.077Z</time>
</trkpt>
<trkpt lat="-26.8820457" lon="152.1458545">
<ele>444.184</ele>
<time>2016-07-17T00:09:13.013Z</time>
</trkpt>
<trkpt lat="-26.8817111" lon="152.1464171">
<ele>445.667</ele>
<time>2016-07-17T00:09:15.050Z</time>
</trkpt>
<trkpt lat="-26.8814073" lon="152.1470300">
<ele>447.049</ele>
<time>2016-07-17T00:09:17.125Z</time>
</trkpt>
<trkpt lat="-26.8809789" lon="152.1479196">
<ele>448.029</ele>
<time>2016-07-17T00:09:20.157Z</time>
</trkpt>
<trkpt lat="-26.8807734" lon="152.1484359">
<ele>448.547</ele>
<time>2016-07-17T00:09:21.948Z</time>
</trkpt>
<trkpt lat="-26.8803940" lon="152.1492380">
<ele>448.437</ele>
<time>2016-07-17T00:09:24.903Z</time>
</trkpt>
<trkpt lat="-26.8801463" lon="152.1498048">
<ele>447.736</ele>
<time>2016-07-17T00:09:26.951Z</time>
</trkpt>
<trkpt lat="-26.8798941" lon="152.1503719">
<ele>447.527</ele>
<time>2016-07-17T00:09:28.989Z</time>
</trkpt>
<trkpt lat="-26.8795072" lon="152.1511814">
<ele>448.802</ele>
<time>2016-07-17T00:09:31.914Z</time>
</trkpt>
<trkpt lat="-26.8792482" lon="152.1517771">
<ele>450.844</ele>
<time>2016-07-17T00:09:33.980Z</time>
</trkpt>
<trkpt lat="-26.8789890" lon="152.1523604">
<ele>452.320</ele>
<time>2016-07-17T00:09:35.992Z</time>
</trkpt>
<trkpt lat="-26.8786010" lon="152.1532193">
<ele>452.853</ele>
<time>2016-07-17T00:09:38.972Z</time>
</trkpt>
<trkpt lat="-26.8782234" lon="152.1540689">
<ele>452.636</ele>
<time>2016-07-17T00:09:41.928Z</time>
</trkpt>
<trkpt lat="-26.8779593" lon="152.1546353">
<ele>451.851</ele>
<time>2016-07-17T00:09:43.910Z</time>
</trkpt>
<trkpt lat="-26.8775647" lon="152.1554981">
<ele>450.566</ele>
<time>2016-07-17T00:09:46.853Z</time>
</trkpt>
<trkpt lat="-26.8772795" lon="152.1561385">
<ele>449.099</ele>
<time>2016-07-17T00:09:48.902Z</time>
</trkpt>
<trkpt lat="-26.8768477" lon="152.1571198">
<ele>447.915</ele>
<time>2016-07-17T00:09:51.973Z</time>
</trkpt>
<trkpt lat="-26.8765817" lon="152.1577129">
<ele>446.634</ele>
<time>2016-07-17T00:09:53.879Z</time>
</trkpt>
<trkpt lat="-26.8759863" lon="152.1590581">
<ele>443.470</ele>
<time>2016-07-17T00:09:57.944Z</time>
</trkpt>
<trkpt lat="-26.8756303" lon="152.1598277">
<ele>438.256</ele>
<time>2016-07-17T00:10:00.028Z</time>
</trkpt>
<trkpt lat="-26.8752545" lon="152.1606127">
<ele>433.312</ele>
<time>2016-07-17T00:10:02.108Z</time>
</trkpt>
<trkpt lat="-26.8749171" lon="152.1613446">
<ele>430.076</ele>
<time>2016-07-17T00:10:04.079Z</time>
</trkpt>
<trkpt lat="-26.8744123" lon="152.1623637">
<ele>428.046</ele>
<time>2016-07-17T00:10:06.993Z</time>
</trkpt>
<trkpt lat="-26.8741348" lon="152.1630273">
<ele>426.800</ele>
<time>2016-07-17T00:10:08.947Z</time>
</trkpt>
<trkpt lat="-26.8740014" lon="152.1633627">
<ele>426.261</ele>
<time>2016-07-17T00:10:09.950Z</time>
</trkpt>
<trkpt lat="-26.8735276" lon="152.1647216">
<ele>426.428</ele>
<time>2016-07-17T00:10:13.960Z</time>
</trkpt>
<trkpt lat="-26.8733368" lon="152.1654343">
<ele>427.598</ele>
<time>2016-07-17T00:10:16.000Z</time>
</trkpt>
<trkpt lat="-26.8731758" lon="152.1661269">
<ele>429.686</ele>
<time>2016-07-17T00:10:17.943Z</time>
</trkpt>
<trkpt lat="-26.8729123" lon="152.1672334">
<ele>431.770</ele>
<time>2016-07-17T00:10:20.999Z</time>
</trkpt>
<trkpt lat="-26.8726526" lon="152.1683405">
<ele>433.160</ele>
<time>2016-07-17T00:10:24.018Z</time>
</trkpt>
<trkpt lat="-26.8724817" lon="152.1690643">
<ele>433.788</ele>
<time>2016-07-17T00:10:26.019Z</time>
</trkpt>
<trkpt lat="-26.8722234" lon="152.1701282">
<ele>433.330</ele>
<time>2016-07-17T00:10:29.030Z</time>
</trkpt>
<trkpt lat="-26.8720715" lon="152.1707542">
<ele>430.131</ele>
<time>2016-07-17T00:10:30.879Z</time>
</trkpt>
<trkpt lat="-26.8719315" lon="152.1713462">
<ele>423.328</ele>
<time>2016-07-17T00:10:32.719Z</time>
</trkpt>
<trkpt lat="-26.8718156" lon="152.1719225">
<ele>414.921</ele>
<time>2016-07-17T00:10:34.598Z</time>
</trkpt>
<trkpt lat="-26.8717354" lon="152.1725203">
<ele>406.985</ele>
<time>2016-07-17T00:10:36.591Z</time>
</trkpt>
<trkpt lat="-26.8717367" lon="152.1733691">
<ele>400.676</ele>
<time>2016-07-17T00:10:39.443Z</time>
</trkpt>
<trkpt lat="-26.8718578" lon="152.1743002">
<ele>396.622</ele>
<time>2016-07-17T00:10:42.576Z</time>
</trkpt>
<trkpt lat="-26.8720121" lon="152.1748868">
<ele>394.030</ele>
<time>2016-07-17T00:10:44.581Z</time>
</trkpt>
<trkpt lat="-26.8721879" lon="152.1754486">
<ele>391.668</ele>
<time>2016-07-17T00:10:46.526Z</time>
</trkpt>
<trkpt lat="-26.8723964" lon="152.1763456">
<ele>388.941</ele>
<time>2016-07-17T00:10:49.509Z</time>
</trkpt>
<trkpt lat="-26.8724544" lon="152.1772865">
<ele>385.355</ele>
<time>2016-07-17T00:10:52.480Z</time>
</trkpt>
<trkpt lat="-26.8723076" lon="152.1782485">
<ele>380.862</ele>
<time>2016-07-17T00:10:55.511Z</time>
</trkpt>
<trkpt lat="-26.8721136" lon="152.1788665">
<ele>375.468</ele>
<time>2016-07-17T00:10:57.525Z</time>
</trkpt>
<trkpt lat="-26.8717741" lon="152.1797740">
<ele>369.865</ele>
<time>2016-07-17T00:11:00.567Z</time>
</trkpt>
<trkpt lat="-26.8716075" lon="152.1803327">
<ele>365.098</ele>
<time>2016-07-17T00:11:02.452Z</time>
</trkpt>
<trkpt lat="-26.8714853" lon="152.1809421">
<ele>360.822</ele>
<time>2016-07-17T00:11:04.492Z</time>
</trkpt>
<trkpt lat="-26.8714627" lon="152.1815193">
<ele>356.007</ele>
<time>2016-07-17T00:11:06.380Z</time>
</trkpt>
<trkpt lat="-26.8715269" lon="152.1824409">
<ele>350.964</ele>
<time>2016-07-17T00:11:09.403Z</time>
</trkpt>
<trkpt lat="-26.8716786" lon="152.1830157">
<ele>346.083</ele>
<time>2016-07-17T00:11:11.369Z</time>
</trkpt>
<trkpt lat="-26.8720180" lon="152.1838396">
<ele>341.171</ele>
<time>2016-07-17T00:11:14.286Z</time>
</trkpt>
<trkpt lat="-26.8723464" lon="152.1844150">
<ele>336.809</ele>
<time>2016-07-17T00:11:16.366Z</time>
</trkpt>
<trkpt lat="-26.8727603" lon="152.1852742">
<ele>334.200</ele>
<time>2016-07-17T00:11:19.344Z</time>
</trkpt>
<trkpt lat="-26.8729988" lon="152.1861782">
<ele>333.184</ele>
<time>2016-07-17T00:11:22.323Z</time>
</trkpt>
<trkpt lat="-26.8730976" lon="152.1867499">
<ele>332.394</ele>
<time>2016-07-17T00:11:24.224Z</time>
</trkpt>
<trkpt lat="-26.8732869" lon="152.1876053">
<ele>331.385</ele>
<time>2016-07-17T00:11:27.178Z</time>
</trkpt>
<trkpt lat="-26.8734876" lon="152.1881819">
<ele>329.849</ele>
<time>2016-07-17T00:11:29.222Z</time>
</trkpt>
<trkpt lat="-26.8737527" lon="152.1887444">
<ele>327.534</ele>
<time>2016-07-17T00:11:31.271Z</time>
</trkpt>
<trkpt lat="-26.8741426" lon="152.1895180">
<ele>326.015</ele>
<time>2016-07-17T00:11:34.199Z</time>
</trkpt>
<trkpt lat="-26.8743916" lon="152.1899821">
<ele>326.824</ele>
<time>2016-07-17T00:11:36.129Z</time>
</trkpt>
<trkpt lat="-26.8745936" lon="152.1904597">
<ele>328.954</ele>
<time>2016-07-17T00:11:38.086Z</time>
</trkpt>
<trkpt lat="-26.8748301" lon="152.1912350">
<ele>330.791</ele>
<time>2016-07-17T00:11:41.122Z</time>
</trkpt>
<trkpt lat="-26.8748832" lon="152.1917699">
<ele>332.367</ele>
<time>2016-07-17T00:11:43.136Z</time>
</trkpt>
<trkpt lat="-26.8747759" lon="152.1925257">
<ele>334.353</ele>
<time>2016-07-17T00:11:46.084Z</time>
</trkpt>
<trkpt lat="-26.8745067" lon="152.1932277">
<ele>336.437</ele>
<time>2016-07-17T00:11:49.090Z</time>
</trkpt>
<trkpt lat="-26.8740094" lon="152.1937322">
<ele>338.259</ele>
<time>2016-07-17T00:11:52.055Z</time>
</trkpt>
<trkpt lat="-26.8736567" lon="152.1940100">
<ele>339.897</ele>
<time>2016-07-17T00:11:54.010Z</time>
</trkpt>
<trkpt lat="-26.8732974" lon="152.1944258">
<ele>341.006</ele>
<time>2016-07-17T00:11:56.651Z</time>
</trkpt>
<trkpt lat="-26.8733302" lon="152.1948945">
<ele>340.360</ele>
<time>2016-07-17T00:11:59.226Z</time>
</trkpt>
<trkpt lat="-26.8735066" lon="152.1952284">
<ele>337.690</ele>
<time>2016-07-17T00:12:01.478Z</time>
</trkpt>
<trkpt lat="-26.8736661" lon="152.1957716">
<ele>334.788</ele>
<time>2016-07-17T00:12:04.596Z</time>
</trkpt>
<trkpt lat="-26.8735777" lon="152.1963302">
<ele>333.054</ele>
<time>2016-07-17T00:12:07.605Z</time>
</trkpt>
<trkpt lat="-26.8734086" lon="152.1964827">
<ele>331.674</ele>
<time>2016-07-17T00:12:08.887Z</time>
</trkpt>
<trkpt lat="-26.8727956" lon="152.1970023">
<ele>329.937</ele>
<time>2016-07-17T00:12:13.154Z</time>
</trkpt>
<trkpt lat="-26.8725569" lon="152.1972958">
<ele>327.900</ele>
<time>2016-07-17T00:12:15.034Z</time>
</trkpt>
<trkpt lat="-26.8723887" lon="152.1979029">
<ele>325.442</ele>
<time>2016-07-17T00:12:18.079Z</time>
</trkpt>
<trkpt lat="-26.8723356" lon="152.1983851">
<ele>322.827</ele>
<time>2016-07-17T00:12:20.232Z</time>
</trkpt>
<trkpt lat="-26.8722796" lon="152.1990327">
<ele>321.084</ele>
<time>2016-07-17T00:12:23.128Z</time>
</trkpt>
<trkpt lat="-26.8723309" lon="152.1994020">
<ele>319.187</ele>
<time>2016-07-17T00:12:24.951Z</time>
</trkpt>
<trkpt lat="-26.8724965" lon="152.1997688">
<ele>315.793</ele>
<time>2016-07-17T00:12:27.042Z</time>
</trkpt>
<trkpt lat="-26.8728786" lon="152.2001028">
<ele>312.292</ele>
<time>2016-07-17T00:12:29.577Z</time>
</trkpt>
<trkpt lat="-26.8731698" lon="152.2007033">
<ele>310.212</ele>
<time>2016-07-17T00:12:32.567Z</time>
</trkpt>
<trkpt lat="-26.8731230" lon="152.2013961">
<ele>308.193</ele>
<time>2016-07-17T00:12:35.587Z</time>
</trkpt>
<trkpt lat="-26.8730891" lon="152.2020733">
<ele>304.965</ele>
<time>2016-07-17T00:12:38.669Z</time>
</trkpt>
<trkpt lat="-26.8731335" lon="152.2024365">
<ele>300.905</ele>
<time>2016-07-17T00:12:40.505Z</time>
</trkpt>
<trkpt lat="-26.8733760" lon="152.2029115">
<ele>296.236</ele>
<time>2016-07-17T00:12:43.421Z</time>
</trkpt>
<trkpt lat="-26.8739248" lon="152.2030831">
<ele>291.089</ele>
<time>2016-07-17T00:12:46.704Z</time>
</trkpt>
<trkpt lat="-26.8742919" lon="152.2031367">
<ele>286.861</ele>
<time>2016-07-17T00:12:48.791Z</time>
</trkpt>
<trkpt lat="-26.8746141" lon="152.2030802">
<ele>284.177</ele>
<time>2016-07-17T00:12:50.721Z</time>
</trkpt>
<trkpt lat="-26.8750152" lon="152.2027954">
<ele>281.889</ele>
<time>2016-07-17T00:12:53.643Z</time>
</trkpt>
<trkpt lat="-26.8752149" lon="152.2025015">
<ele>279.088</ele>
<time>2016-07-17T00:12:55.681Z</time>
</trkpt>
<trkpt lat="-26.8756057" lon="152.2021915">
<ele>276.395</ele>
<time>2016-07-17T00:12:58.670Z</time>
</trkpt>
<trkpt lat="-26.8760293" lon="152.2022469">
<ele>273.905</ele>
<time>2016-07-17T00:13:01.423Z</time>
</trkpt>
<trkpt lat="-26.8763218" lon="152.2024287">
<ele>270.419</ele>
<time>2016-07-17T00:13:03.535Z</time>
</trkpt>
<trkpt lat="-26.8765330" lon="152.2027666">
<ele>266.025</ele>
<time>2016-07-17T00:13:05.648Z</time>
</trkpt>
<trkpt lat="-26.8767713" lon="152.2033419">
<ele>262.317</ele>
<time>2016-07-17T00:13:08.724Z</time>
</trkpt>
<trkpt lat="-26.8769575" lon="152.2036856">
<ele>259.707</ele>
<time>2016-07-17T00:13:10.687Z</time>
</trkpt>
<trkpt lat="-26.8773196" lon="152.2041217">
<ele>257.072</ele>
<time>2016-07-17T00:13:13.616Z</time>
</trkpt>
<trkpt lat="-26.8776132" lon="152.2043862">
<ele>253.817</ele>
<time>2016-07-17T00:13:15.670Z</time>
</trkpt>
<trkpt lat="-26.8779003" lon="152.2046349">
<ele>250.591</ele>
<time>2016-07-17T00:13:17.691Z</time>
</trkpt>
<trkpt lat="-26.8782846" lon="152.2049889">
<ele>247.755</ele>
<time>2016-07-17T00:13:20.604Z</time>
</trkpt>
<trkpt lat="-26.8787168" lon="152.2052063">
<ele>244.791</ele>
<time>2016-07-17T00:13:23.584Z</time>
</trkpt>
<trkpt lat="-26.8790388" lon="152.2052418">
<ele>241.275</ele>
<time>2016-07-17T00:13:25.652Z</time>
</trkpt>
<trkpt lat="-26.8793832" lon="152.2052059">
<ele>237.659</ele>
<time>2016-07-17T00:13:27.811Z</time>
</trkpt>
<trkpt lat="-26.8798506" lon="152.2052461">
<ele>234.947</ele>
<time>2016-07-17T00:13:30.698Z</time>
</trkpt>
<trkpt lat="-26.8801565" lon="152.2053804">
<ele>232.846</ele>
<time>2016-07-17T00:13:32.672Z</time>
</trkpt>
<trkpt lat="-26.8804512" lon="152.2056034">
<ele>230.315</ele>
<time>2016-07-17T00:13:34.747Z</time>
</trkpt>
<trkpt lat="-26.8807001" lon="152.2058828">
<ele>227.843</ele>
<time>2016-07-17T00:13:36.794Z</time>
</trkpt>
<trkpt lat="-26.8811047" lon="152.2062254">
<ele>225.971</ele>
<time>2016-07-17T00:13:39.792Z</time>
</trkpt>
<trkpt lat="-26.8815879" lon="152.2063824">
<ele>223.565</ele>
<time>2016-07-17T00:13:42.809Z</time>
</trkpt>
<trkpt lat="-26.8819041" lon="152.2065275">
<ele>220.273</ele>
<time>2016-07-17T00:13:44.829Z</time>
</trkpt>
<trkpt lat="-26.8822736" lon="152.2069254">
<ele>217.025</ele>
<time>2016-07-17T00:13:47.773Z</time>
</trkpt>
<trkpt lat="-26.8824932" lon="152.2075330">
<ele>214.194</ele>
<time>2016-07-17T00:13:50.979Z</time>
</trkpt>
<trkpt lat="-26.8827181" lon="152.2080849">
<ele>211.699</ele>
<time>2016-07-17T00:13:53.893Z</time>
</trkpt>
<trkpt lat="-26.8829536" lon="152.2086366">
<ele>209.201</ele>
<time>2016-07-17T00:13:56.865Z</time>
</trkpt>
<trkpt lat="-26.8831743" lon="152.2089660">
<ele>205.782</ele>
<time>2016-07-17T00:13:58.846Z</time>
</trkpt>
<trkpt lat="-26.8834647" lon="152.2092564">
<ele>201.599</ele>
<time>2016-07-17T00:14:00.887Z</time>
</trkpt>
<trkpt lat="-26.8839899" lon="152.2096048">
<ele>198.042</ele>
<time>2016-07-17T00:14:04.018Z</time>
</trkpt>
<trkpt lat="-26.8843511" lon="152.2098023">
<ele>195.443</ele>
<time>2016-07-17T00:14:06.042Z</time>
</trkpt>
<trkpt lat="-26.8847174" lon="152.2100055">
<ele>192.896</ele>
<time>2016-07-17T00:14:08.073Z</time>
</trkpt>
<trkpt lat="-26.8850670" lon="152.2102463">
<ele>190.050</ele>
<time>2016-07-17T00:14:10.066Z</time>
</trkpt>
<trkpt lat="-26.8855682" lon="152.2107219">
<ele>187.105</ele>
<time>2016-07-17T00:14:13.042Z</time>
</trkpt>
<trkpt lat="-26.8860216" lon="152.2113595">
<ele>184.454</ele>
<time>2016-07-17T00:14:16.084Z</time>
</trkpt>
<trkpt lat="-26.8862874" lon="152.2118343">
<ele>182.985</ele>
<time>2016-07-17T00:14:18.050Z</time>
</trkpt>
<trkpt lat="-26.8865122" lon="152.2123744">
<ele>183.051</ele>
<time>2016-07-17T00:14:20.091Z</time>
</trkpt>
<trkpt lat="-26.8867554" lon="152.2132142">
<ele>183.820</ele>
<time>2016-07-17T00:14:23.120Z</time>
</trkpt>
<trkpt lat="-26.8869277" lon="152.2137608">
<ele>183.861</ele>
<time>2016-07-17T00:14:25.082Z</time>
</trkpt>
<trkpt lat="-26.8872896" lon="152.2145821">
<ele>182.578</ele>
<time>2016-07-17T00:14:28.081Z</time>
</trkpt>
<trkpt lat="-26.8876042" lon="152.2151143">
<ele>180.684</ele>
<time>2016-07-17T00:14:30.088Z</time>
</trkpt>
<trkpt lat="-26.8879754" lon="152.2156153">
<ele>179.051</ele>
<time>2016-07-17T00:14:32.087Z</time>
</trkpt>
<trkpt lat="-26.8883873" lon="152.2160864">
<ele>177.870</ele>
<time>2016-07-17T00:14:34.129Z</time>
</trkpt>
<trkpt lat="-26.8890490" lon="152.2166545">
<ele>176.945</ele>
<time>2016-07-17T00:14:37.109Z</time>
</trkpt>
<trkpt lat="-26.8896995" lon="152.2172055">
<ele>175.606</ele>
<time>2016-07-17T00:14:40.070Z</time>
</trkpt>
<trkpt lat="-26.8901540" lon="152.2175838">
<ele>173.747</ele>
<time>2016-07-17T00:14:42.112Z</time>
</trkpt>
<trkpt lat="-26.8908013" lon="152.2181118">
<ele>171.837</ele>
<time>2016-07-17T00:14:45.079Z</time>
</trkpt>
<trkpt lat="-26.8912113" lon="152.2184424">
<ele>169.832</ele>
<time>2016-07-17T00:14:47.042Z</time>
</trkpt>
<trkpt lat="-26.8916274" lon="152.2187900">
<ele>167.512</ele>
<time>2016-07-17T00:14:49.092Z</time>
</trkpt>
<trkpt lat="-26.8922383" lon="152.2192829">
<ele>165.430</ele>
<time>2016-07-17T00:14:52.098Z</time>
</trkpt>
<trkpt lat="-26.8928434" lon="152.2197815">
<ele>163.873</ele>
<time>2016-07-17T00:14:55.125Z</time>
</trkpt>
<trkpt lat="-26.8934421" lon="152.2202747">
<ele>162.575</ele>
<time>2016-07-17T00:14:58.116Z</time>
</trkpt>
<trkpt lat="-26.8938420" lon="152.2206089">
<ele>161.493</ele>
<time>2016-07-17T00:15:00.111Z</time>
</trkpt>
<trkpt lat="-26.8944458" lon="152.2211183">
<ele>160.864</ele>
<time>2016-07-17T00:15:03.132Z</time>
</trkpt>
<trkpt lat="-26.8949708" lon="152.2216964">
<ele>160.585</ele>
<time>2016-07-17T00:15:06.093Z</time>
</trkpt>
<trkpt lat="-26.8952944" lon="152.2221221">
<ele>160.297</ele>
<time>2016-07-17T00:15:08.097Z</time>
</trkpt>
<trkpt lat="-26.8955736" lon="152.2225839">
<ele>159.748</ele>
<time>2016-07-17T00:15:10.075Z</time>
</trkpt>
<trkpt lat="-26.8958263" lon="152.2230820">
<ele>159.041</ele>
<time>2016-07-17T00:15:12.095Z</time>
</trkpt>
<trkpt lat="-26.8961783" lon="152.2238542">
<ele>158.479</ele>
<time>2016-07-17T00:15:15.166Z</time>
</trkpt>
<trkpt lat="-26.8964160" lon="152.2243408">
<ele>158.205</ele>
<time>2016-07-17T00:15:17.148Z</time>
</trkpt>
<trkpt lat="-26.8966468" lon="152.2248374">
<ele>157.924</ele>
<time>2016-07-17T00:15:19.140Z</time>
</trkpt>
<trkpt lat="-26.8969983" lon="152.2255812">
<ele>157.337</ele>
<time>2016-07-17T00:15:22.125Z</time>
</trkpt>
<trkpt lat="-26.8972572" lon="152.2260705">
<ele>156.537</ele>
<time>2016-07-17T00:15:24.127Z</time>
</trkpt>
<trkpt lat="-26.8975812" lon="152.2268295">
<ele>155.594</ele>
<time>2016-07-17T00:15:27.074Z</time>
</trkpt>
<trkpt lat="-26.8978406" lon="152.2273077">
<ele>154.544</ele>
<time>2016-07-17T00:15:29.035Z</time>
</trkpt>
<trkpt lat="-26.8980796" lon="152.2278124">
<ele>153.305</ele>
<time>2016-07-17T00:15:31.020Z</time>
</trkpt>
<trkpt lat="-26.8983016" lon="152.2283470">
<ele>151.816</ele>
<time>2016-07-17T00:15:33.054Z</time>
</trkpt>
<trkpt lat="-26.8986192" lon="152.2291203">
<ele>150.597</ele>
<time>2016-07-17T00:15:36.014Z</time>
</trkpt>
<trkpt lat="-26.8988022" lon="152.2296543">
<ele>150.186</ele>
<time>2016-07-17T00:15:38.022Z</time>
</trkpt>
<trkpt lat="-26.8989018" lon="152.2302178">
<ele>150.355</ele>
<time>2016-07-17T00:15:40.005Z</time>
</trkpt>
<trkpt lat="-26.8989500" lon="152.2311052">
<ele>150.694</ele>
<time>2016-07-17T00:15:43.049Z</time>
</trkpt>
<trkpt lat="-26.8989141" lon="152.2316807">
<ele>150.955</ele>
<time>2016-07-17T00:15:45.071Z</time>
</trkpt>
<trkpt lat="-26.8988717" lon="152.2322238">
<ele>150.817</ele>
<time>2016-07-17T00:15:47.027Z</time>
</trkpt>
<trkpt lat="-26.8988462" lon="152.2330413">
<ele>150.145</ele>
<time>2016-07-17T00:15:49.971Z</time>
</trkpt>
<trkpt lat="-26.8988848" lon="152.2336017">
<ele>149.543</ele>
<time>2016-07-17T00:15:51.988Z</time>
</trkpt>
<trkpt lat="-26.8989584" lon="152.2341532">
<ele>149.524</ele>
<time>2016-07-17T00:15:53.996Z</time>
</trkpt>
<trkpt lat="-26.8992219" lon="152.2352109">
<ele>149.443</ele>
<time>2016-07-17T00:15:57.945Z</time>
</trkpt>
<trkpt lat="-26.8995185" lon="152.2359825">
<ele>148.348</ele>
<time>2016-07-17T00:16:00.936Z</time>
</trkpt>
<trkpt lat="-26.8997854" lon="152.2367736">
<ele>146.403</ele>
<time>2016-07-17T00:16:03.933Z</time>
</trkpt>
<trkpt lat="-26.8999405" lon="152.2376057">
<ele>144.685</ele>
<time>2016-07-17T00:16:06.910Z</time>
</trkpt>
<trkpt lat="-26.8999608" lon="152.2384774">
<ele>143.954</ele>
<time>2016-07-17T00:16:09.935Z</time>
</trkpt>
<trkpt lat="-26.8999264" lon="152.2390654">
<ele>144.116</ele>
<time>2016-07-17T00:16:11.992Z</time>
</trkpt>
<trkpt lat="-26.8998647" lon="152.2399134">
<ele>144.567</ele>
<time>2016-07-17T00:16:15.009Z</time>
</trkpt>
<trkpt lat="-26.8998315" lon="152.2404565">
<ele>145.190</ele>
<time>2016-07-17T00:16:17.023Z</time>
</trkpt>
<trkpt lat="-26.8997828" lon="152.2412125">
<ele>146.144</ele>
<time>2016-07-17T00:16:19.907Z</time>
</trkpt>
<trkpt lat="-26.8997905" lon="152.2419831">
<ele>146.211</ele>
<time>2016-07-17T00:16:22.778Z</time>
</trkpt>
<trkpt lat="-26.8999141" lon="152.2428780">
<ele>144.501</ele>
<time>2016-07-17T00:16:25.794Z</time>
</trkpt>
<trkpt lat="-26.9000785" lon="152.2435568">
<ele>143.073</ele>
<time>2016-07-17T00:16:27.839Z</time>
</trkpt>
<trkpt lat="-26.9003645" lon="152.2446636">
<ele>144.458</ele>
<time>2016-07-17T00:16:30.948Z</time>
</trkpt>
<trkpt lat="-26.9006457" lon="152.2458335">
<ele>147.906</ele>
<time>2016-07-17T00:16:34.104Z</time>
</trkpt>
<trkpt lat="-26.9008025" lon="152.2465477">
<ele>149.046</ele>
<time>2016-07-17T00:16:36.142Z</time>
</trkpt>
<trkpt lat="-26.9010375" lon="152.2475016">
<ele>145.636</ele>
<time>2016-07-17T00:16:39.097Z</time>
</trkpt>
<trkpt lat="-26.9012439" lon="152.2483655">
<ele>140.776</ele>
<time>2016-07-17T00:16:41.984Z</time>
</trkpt>
<trkpt lat="-26.9013897" lon="152.2489428">
<ele>137.721</ele>
<time>2016-07-17T00:16:43.998Z</time>
</trkpt>
<trkpt lat="-26.9014979" lon="152.2495134">
<ele>136.554</ele>
<time>2016-07-17T00:16:45.975Z</time>
</trkpt>
<trkpt lat="-26.9015712" lon="152.2503870">
<ele>136.204</ele>
<time>2016-07-17T00:16:48.967Z</time>
</trkpt>
<trkpt lat="-26.9015464" lon="152.2509731">
<ele>135.541</ele>
<time>2016-07-17T00:16:50.986Z</time>
</trkpt>
<trkpt lat="-26.9014401" lon="152.2518365">
<ele>134.201</ele>
<time>2016-07-17T00:16:54.018Z</time>
</trkpt>
<trkpt lat="-26.9013134" lon="152.2523877">
<ele>132.552</ele>
<time>2016-07-17T00:16:56.014Z</time>
</trkpt>
<trkpt lat="-26.9010341" lon="152.2531654">
<ele>131.235</ele>
<time>2016-07-17T00:16:58.992Z</time>
</trkpt>
<trkpt lat="-26.9008066" lon="152.2536402">
<ele>130.567</ele>
<time>2016-07-17T00:17:00.955Z</time>
</trkpt>
<trkpt lat="-26.9005628" lon="152.2541087">
<ele>130.365</ele>
<time>2016-07-17T00:17:02.939Z</time>
</trkpt>
<trkpt lat="-26.9002073" lon="152.2548275">
<ele>130.335</ele>
<time>2016-07-17T00:17:05.820Z</time>
</trkpt>
<trkpt lat="-26.8998002" lon="152.2556547">
<ele>130.383</ele>
<time>2016-07-17T00:17:08.777Z</time>
</trkpt>
<trkpt lat="-26.8993122" lon="152.2566525">
<ele>131.846</ele>
<time>2016-07-17T00:17:11.908Z</time>
</trkpt>
<trkpt lat="-26.8989457" lon="152.2573719">
<ele>135.434</ele>
<time>2016-07-17T00:17:14.020Z</time>
</trkpt>
<trkpt lat="-26.8983749" lon="152.2585015">
<ele>137.064</ele>
<time>2016-07-17T00:17:17.202Z</time>
</trkpt>
<trkpt lat="-26.8979789" lon="152.2592839">
<ele>133.638</ele>
<time>2016-07-17T00:17:19.339Z</time>
</trkpt>
<trkpt lat="-26.8976261" lon="152.2599744">
<ele>128.694</ele>
<time>2016-07-17T00:17:21.321Z</time>
</trkpt>
<trkpt lat="-26.8973482" lon="152.2606391">
<ele>126.139</ele>
<time>2016-07-17T00:17:23.293Z</time>
</trkpt>
<trkpt lat="-26.8970819" lon="152.2616284">
<ele>125.752</ele>
<time>2016-07-17T00:17:26.175Z</time>
</trkpt>
<trkpt lat="-26.8969308" lon="152.2623204">
<ele>126.106</ele>
<time>2016-07-17T00:17:28.202Z</time>
</trkpt>
<trkpt lat="-26.8967048" lon="152.2633448">
<ele>126.374</ele>
<time>2016-07-17T00:17:31.232Z</time>
</trkpt>
<trkpt lat="-26.8965854" lon="152.2643739">
<ele>126.729</ele>
<time>2016-07-17T00:17:34.237Z</time>
</trkpt>
<trkpt lat="-26.8965991" lon="152.2650690">
<ele>127.924</ele>
<time>2016-07-17T00:17:36.236Z</time>
</trkpt>
<trkpt lat="-26.8967124" lon="152.2657433">
<ele>130.020</ele>
<time>2016-07-17T00:17:38.214Z</time>
</trkpt>
<trkpt lat="-26.8969009" lon="152.2667883">
<ele>131.934</ele>
<time>2016-07-17T00:17:41.325Z</time>
</trkpt>
<trkpt lat="-26.8969329" lon="152.2677705">
<ele>132.904</ele>
<time>2016-07-17T00:17:44.210Z</time>
</trkpt>
<trkpt lat="-26.8968461" lon="152.2684754">
<ele>133.481</ele>
<time>2016-07-17T00:17:46.196Z</time>
</trkpt>
<trkpt lat="-26.8965374" lon="152.2695615">
<ele>134.295</ele>
<time>2016-07-17T00:17:49.196Z</time>
</trkpt>
<trkpt lat="-26.8960549" lon="152.2707026">
<ele>135.089</ele>
<time>2016-07-17T00:17:52.366Z</time>
</trkpt>
<trkpt lat="-26.8955707" lon="152.2717467">
<ele>133.541</ele>
<time>2016-07-17T00:17:55.418Z</time>
</trkpt>
<trkpt lat="-26.8952910" lon="152.2723559">
<ele>128.477</ele>
<time>2016-07-17T00:17:57.357Z</time>
</trkpt>
<trkpt lat="-26.8949625" lon="152.2732603">
<ele>123.064</ele>
<time>2016-07-17T00:18:00.237Z</time>
</trkpt>
<trkpt lat="-26.8948070" lon="152.2742280">
<ele>120.485</ele>
<time>2016-07-17T00:18:03.253Z</time>
</trkpt>
<trkpt lat="-26.8947887" lon="152.2751778">
<ele>120.175</ele>
<time>2016-07-17T00:18:06.253Z</time>
</trkpt>
<trkpt lat="-26.8947737" lon="152.2757953">
<ele>120.761</ele>
<time>2016-07-17T00:18:08.227Z</time>
</trkpt>
<trkpt lat="-26.8947333" lon="152.2767606">
<ele>121.431</ele>
<time>2016-07-17T00:18:11.249Z</time>
</trkpt>
<trkpt lat="-26.8946980" lon="152.2774122">
<ele>121.750</ele>
<time>2016-07-17T00:18:13.271Z</time>
</trkpt>
<trkpt lat="-26.8946608" lon="152.2783793">
<ele>121.409</ele>
<time>2016-07-17T00:18:16.363Z</time>
</trkpt>
<trkpt lat="-26.8946650" lon="152.2789440">
<ele>120.332</ele>
<time>2016-07-17T00:18:18.350Z</time>
</trkpt>
<trkpt lat="-26.8946534" lon="152.2794684">
<ele>118.335</ele>
<time>2016-07-17T00:18:20.353Z</time>
</trkpt>
<trkpt lat="-26.8946284" lon="152.2799621">
<ele>115.373</ele>
<time>2016-07-17T00:18:22.348Z</time>
</trkpt>
<trkpt lat="-26.8945372" lon="152.2806839">
<ele>112.376</ele>
<time>2016-07-17T00:18:25.374Z</time>
</trkpt>
<trkpt lat="-26.8944906" lon="152.2809096">
<ele>110.250</ele>
<time>2016-07-17T00:18:26.352Z</time>
</trkpt>
<trkpt lat="-26.8942854" lon="152.2818210">
<ele>108.837</ele>
<time>2016-07-17T00:18:30.324Z</time>
</trkpt>
<trkpt lat="-26.8941753" lon="152.2822817">
<ele>107.886</ele>
<time>2016-07-17T00:18:32.397Z</time>
</trkpt>
<trkpt lat="-26.8940896" lon="152.2829174">
<ele>107.274</ele>
<time>2016-07-17T00:18:35.510Z</time>
</trkpt>
<trkpt lat="-26.8940618" lon="152.2834125">
<ele>106.797</ele>
<time>2016-07-17T00:18:38.394Z</time>
</trkpt>
<trkpt lat="-26.8940645" lon="152.2838706">
<ele>107.913</ele>
<time>2016-07-17T00:18:41.301Z</time>
</trkpt>
<trkpt lat="-26.8941048" lon="152.2843427">
<ele>111.552</ele>
<time>2016-07-17T00:18:44.295Z</time>
</trkpt>
<trkpt lat="-26.8941619" lon="152.2848202">
<ele>115.412</ele>
<time>2016-07-17T00:18:47.355Z</time>
</trkpt>
<trkpt lat="-26.8942035" lon="152.2851123">
<ele>117.309</ele>
<time>2016-07-17T00:18:49.283Z</time>
</trkpt>
<trkpt lat="-26.8942238" lon="152.2854068">
<ele>117.687</ele>
<time>2016-07-17T00:18:51.222Z</time>
</trkpt>
<trkpt lat="-26.8942742" lon="152.2858538">
<ele>117.309</ele>
<time>2016-07-17T00:18:54.165Z</time>
</trkpt>
<trkpt lat="-26.8943133" lon="152.2861681">
<ele>116.563</ele>
<time>2016-07-17T00:18:56.204Z</time>
</trkpt>
<trkpt lat="-26.8943419" lon="152.2864869">
<ele>114.231</ele>
<time>2016-07-17T00:18:58.226Z</time>
</trkpt>
<trkpt lat="-26.8943671" lon="152.2868198">
<ele>109.627</ele>
<time>2016-07-17T00:19:00.305Z</time>
</trkpt>
<trkpt lat="-26.8943798" lon="152.2873076">
<ele>105.203</ele>
<time>2016-07-17T00:19:03.322Z</time>
</trkpt>
<trkpt lat="-26.8943606" lon="152.2876350">
<ele>103.328</ele>
<time>2016-07-17T00:19:05.325Z</time>
</trkpt>
<trkpt lat="-26.8943187" lon="152.2881379">
<ele>103.492</ele>
<time>2016-07-17T00:19:08.425Z</time>
</trkpt>
<trkpt lat="-26.8942772" lon="152.2884511">
<ele>104.404</ele>
<time>2016-07-17T00:19:10.425Z</time>
</trkpt>
<trkpt lat="-26.8942147" lon="152.2889111">
<ele>105.206</ele>
<time>2016-07-17T00:19:13.367Z</time>
</trkpt>
<trkpt lat="-26.8941781" lon="152.2892280">
<ele>105.698</ele>
<time>2016-07-17T00:19:15.356Z</time>
</trkpt>
<trkpt lat="-26.8941327" lon="152.2897073">
<ele>106.151</ele>
<time>2016-07-17T00:19:18.328Z</time>
</trkpt>
<trkpt lat="-26.8940952" lon="152.2900266">
<ele>106.766</ele>
<time>2016-07-17T00:19:20.334Z</time>
</trkpt>
<trkpt lat="-26.8940541" lon="152.2903361">
<ele>107.331</ele>
<time>2016-07-17T00:19:22.321Z</time>
</trkpt>
<trkpt lat="-26.8940001" lon="152.2907963">
<ele>107.602</ele>
<time>2016-07-17T00:19:25.270Z</time>
</trkpt>
<trkpt lat="-26.8939766" lon="152.2911054">
<ele>107.747</ele>
<time>2016-07-17T00:19:27.220Z</time>
</trkpt>
<trkpt lat="-26.8939391" lon="152.2915838">
<ele>107.945</ele>
<time>2016-07-17T00:19:30.211Z</time>
</trkpt>
<trkpt lat="-26.8939568" lon="152.2920812">
<ele>108.211</ele>
<time>2016-07-17T00:19:33.235Z</time>
</trkpt>
<trkpt lat="-26.8940217" lon="152.2925826">
<ele>108.482</ele>
<time>2016-07-17T00:19:36.253Z</time>
</trkpt>
<trkpt lat="-26.8941495" lon="152.2930591">
<ele>108.882</ele>
<time>2016-07-17T00:19:39.207Z</time>
</trkpt>
<trkpt lat="-26.8943197" lon="152.2935307">
<ele>109.565</ele>
<time>2016-07-17T00:19:42.141Z</time>
</trkpt>
<trkpt lat="-26.8944826" lon="152.2938485">
<ele>110.667</ele>
<time>2016-07-17T00:19:44.132Z</time>
</trkpt>
<trkpt lat="-26.8946757" lon="152.2941735">
<ele>112.045</ele>
<time>2016-07-17T00:19:46.127Z</time>
</trkpt>
<trkpt lat="-26.8950406" lon="152.2946535">
<ele>113.371</ele>
<time>2016-07-17T00:19:49.127Z</time>
</trkpt>
<trkpt lat="-26.8953440" lon="152.2949916">
<ele>114.598</ele>
<time>2016-07-17T00:19:51.133Z</time>
</trkpt>
<trkpt lat="-26.8956972" lon="152.2953405">
<ele>116.127</ele>
<time>2016-07-17T00:19:53.117Z</time>
</trkpt>
<trkpt lat="-26.8960848" lon="152.2957368">
<ele>118.472</ele>
<time>2016-07-17T00:19:55.161Z</time>
</trkpt>
<trkpt lat="-26.8964814" lon="152.2961507">
<ele>121.887</ele>
<time>2016-07-17T00:19:57.224Z</time>
</trkpt>
<trkpt lat="-26.8969743" lon="152.2967934">
<ele>125.732</ele>
<time>2016-07-17T00:20:00.115Z</time>
</trkpt>
<trkpt lat="-26.8972672" lon="152.2972994">
<ele>128.815</ele>
<time>2016-07-17T00:20:02.168Z</time>
</trkpt>
<trkpt lat="-26.8975070" lon="152.2978303">
<ele>130.395</ele>
<time>2016-07-17T00:20:04.163Z</time>
</trkpt>
<trkpt lat="-26.8977716" lon="152.2986692">
<ele>130.679</ele>
<time>2016-07-17T00:20:07.063Z</time>
</trkpt>
<trkpt lat="-26.8978831" lon="152.2993178">
<ele>130.395</ele>
<time>2016-07-17T00:20:09.085Z</time>
</trkpt>
<trkpt lat="-26.8979469" lon="152.3003317">
<ele>129.942</ele>
<time>2016-07-17T00:20:12.121Z</time>
</trkpt>
<trkpt lat="-26.8980270" lon="152.3009866">
<ele>127.031</ele>
<time>2016-07-17T00:20:14.084Z</time>
</trkpt>
<trkpt lat="-26.8981781" lon="152.3016417">
<ele>120.444</ele>
<time>2016-07-17T00:20:16.054Z</time>
</trkpt>
<trkpt lat="-26.8984197" lon="152.3023006">
<ele>113.738</ele>
<time>2016-07-17T00:20:18.052Z</time>
</trkpt>
<trkpt lat="-26.8988076" lon="152.3033229">
<ele>109.752</ele>
<time>2016-07-17T00:20:21.066Z</time>
</trkpt>
<trkpt lat="-26.8992176" lon="152.3043895">
<ele>107.628</ele>
<time>2016-07-17T00:20:24.127Z</time>
</trkpt>
<trkpt lat="-26.8994925" lon="152.3050712">
<ele>106.477</ele>
<time>2016-07-17T00:20:26.175Z</time>
</trkpt>
<trkpt lat="-26.8998432" lon="152.3060066">
<ele>105.840</ele>
<time>2016-07-17T00:20:29.100Z</time>
</trkpt>
<trkpt lat="-26.9000794" lon="152.3066100">
<ele>105.517</ele>
<time>2016-07-17T00:20:31.080Z</time>
</trkpt>
<trkpt lat="-26.9003107" lon="152.3072229">
<ele>105.536</ele>
<time>2016-07-17T00:20:33.118Z</time>
</trkpt>
<trkpt lat="-26.9006633" lon="152.3080875">
<ele>106.336</ele>
<time>2016-07-17T00:20:36.099Z</time>
</trkpt>
<trkpt lat="-26.9009142" lon="152.3086363">
<ele>108.128</ele>
<time>2016-07-17T00:20:38.058Z</time>
</trkpt>
<trkpt lat="-26.9013371" lon="152.3094625">
<ele>109.991</ele>
<time>2016-07-17T00:20:41.046Z</time>
</trkpt>
<trkpt lat="-26.9016490" lon="152.3100135">
<ele>112.016</ele>
<time>2016-07-17T00:20:43.108Z</time>
</trkpt>
<trkpt lat="-26.9021297" lon="152.3107427">
<ele>115.032</ele>
<time>2016-07-17T00:20:46.048Z</time>
</trkpt>
<trkpt lat="-26.9024686" lon="152.3112172">
<ele>118.259</ele>
<time>2016-07-17T00:20:48.069Z</time>
</trkpt>
<trkpt lat="-26.9028244" lon="152.3116717">
<ele>120.857</ele>
<time>2016-07-17T00:20:50.138Z</time>
</trkpt>
<trkpt lat="-26.9031794" lon="152.3120781">
<ele>123.287</ele>
<time>2016-07-17T00:20:52.124Z</time>
</trkpt>
<trkpt lat="-26.9037276" lon="152.3126721">
<ele>125.600</ele>
<time>2016-07-17T00:20:55.102Z</time>
</trkpt>
<trkpt lat="-26.9043511" lon="152.3132366">
<ele>127.334</ele>
<time>2016-07-17T00:20:58.160Z</time>
</trkpt>
<trkpt lat="-26.9047769" lon="152.3135957">
<ele>128.510</ele>
<time>2016-07-17T00:21:00.202Z</time>
</trkpt>
<trkpt lat="-26.9054296" lon="152.3140862">
<ele>129.709</ele>
<time>2016-07-17T00:21:03.240Z</time>
</trkpt>
<trkpt lat="-26.9058562" lon="152.3143872">
<ele>131.003</ele>
<time>2016-07-17T00:21:05.192Z</time>
</trkpt>
<trkpt lat="-26.9065310" lon="152.3148390">
<ele>131.902</ele>
<time>2016-07-17T00:21:08.222Z</time>
</trkpt>
<trkpt lat="-26.9072182" lon="152.3152510">
<ele>132.211</ele>
<time>2016-07-17T00:21:11.243Z</time>
</trkpt>
<trkpt lat="-26.9079270" lon="152.3155921">
<ele>131.938</ele>
<time>2016-07-17T00:21:14.284Z</time>
</trkpt>
<trkpt lat="-26.9084000" lon="152.3157976">
<ele>130.416</ele>
<time>2016-07-17T00:21:16.269Z</time>
</trkpt>
<trkpt lat="-26.9088981" lon="152.3159683">
<ele>127.431</ele>
<time>2016-07-17T00:21:18.182Z</time>
</trkpt>
<trkpt lat="-26.9097529" lon="152.3162118">
<ele>124.396</ele>
<time>2016-07-17T00:21:21.259Z</time>
</trkpt>
<trkpt lat="-26.9103260" lon="152.3163348">
<ele>122.514</ele>
<time>2016-07-17T00:21:23.343Z</time>
</trkpt>
<trkpt lat="-26.9110996" lon="152.3164436">
<ele>121.587</ele>
<time>2016-07-17T00:21:26.318Z</time>
</trkpt>
<trkpt lat="-26.9115748" lon="152.3165116">
<ele>120.275</ele>
<time>2016-07-17T00:21:28.264Z</time>
</trkpt>
<trkpt lat="-26.9120628" lon="152.3165763">
<ele>117.263</ele>
<time>2016-07-17T00:21:30.293Z</time>
</trkpt>
<trkpt lat="-26.9127801" lon="152.3167019">
<ele>113.432</ele>
<time>2016-07-17T00:21:33.337Z</time>
</trkpt>
<trkpt lat="-26.9132380" lon="152.3167580">
<ele>111.087</ele>
<time>2016-07-17T00:21:35.286Z</time>
</trkpt>
<trkpt lat="-26.9139565" lon="152.3168487">
<ele>110.855</ele>
<time>2016-07-17T00:21:38.319Z</time>
</trkpt>
<trkpt lat="-26.9146890" lon="152.3169453">
<ele>111.884</ele>
<time>2016-07-17T00:21:41.372Z</time>
</trkpt>
<trkpt lat="-26.9154296" lon="152.3170368">
<ele>113.346</ele>
<time>2016-07-17T00:21:44.458Z</time>
</trkpt>
<trkpt lat="-26.9158957" lon="152.3171238">
<ele>115.029</ele>
<time>2016-07-17T00:21:46.471Z</time>
</trkpt>
<trkpt lat="-26.9165576" lon="152.3173132">
<ele>116.984</ele>
<time>2016-07-17T00:21:49.424Z</time>
</trkpt>
<trkpt lat="-26.9170055" lon="152.3174793">
<ele>119.354</ele>
<time>2016-07-17T00:21:51.467Z</time>
</trkpt>
<trkpt lat="-26.9174527" lon="152.3176634">
<ele>122.339</ele>
<time>2016-07-17T00:21:53.512Z</time>
</trkpt>
<trkpt lat="-26.9181073" lon="152.3179531">
<ele>125.781</ele>
<time>2016-07-17T00:21:56.503Z</time>
</trkpt>
<trkpt lat="-26.9185509" lon="152.3181401">
<ele>129.109</ele>
<time>2016-07-17T00:21:58.462Z</time>
</trkpt>
<trkpt lat="-26.9192409" lon="152.3184282">
<ele>132.047</ele>
<time>2016-07-17T00:22:01.450Z</time>
</trkpt>
<trkpt lat="-26.9199450" lon="152.3187380">
<ele>134.707</ele>
<time>2016-07-17T00:22:04.429Z</time>
</trkpt>
<trkpt lat="-26.9206803" lon="152.3190216">
<ele>136.948</ele>
<time>2016-07-17T00:22:07.321Z</time>
</trkpt>
<trkpt lat="-26.9215134" lon="152.3193486">
<ele>138.452</ele>
<time>2016-07-17T00:22:10.305Z</time>
</trkpt>
<trkpt lat="-26.9221425" lon="152.3195911">
<ele>139.391</ele>
<time>2016-07-17T00:22:12.322Z</time>
</trkpt>
<trkpt lat="-26.9231326" lon="152.3199890">
<ele>140.111</ele>
<time>2016-07-17T00:22:15.440Z</time>
</trkpt>
<trkpt lat="-26.9237445" lon="152.3202532">
<ele>138.243</ele>
<time>2016-07-17T00:22:17.496Z</time>
</trkpt>
<trkpt lat="-26.9245916" lon="152.3206425">
<ele>131.800</ele>
<time>2016-07-17T00:22:20.566Z</time>
</trkpt>
<trkpt lat="-26.9251022" lon="152.3208608">
<ele>123.741</ele>
<time>2016-07-17T00:22:22.594Z</time>
</trkpt>
<trkpt lat="-26.9258113" lon="152.3211894">
<ele>117.933</ele>
<time>2016-07-17T00:22:25.520Z</time>
</trkpt>
<trkpt lat="-26.9262950" lon="152.3214042">
<ele>114.250</ele>
<time>2016-07-17T00:22:27.493Z</time>
</trkpt>
<trkpt lat="-26.9268083" lon="152.3216167">
<ele>111.048</ele>
<time>2016-07-17T00:22:29.606Z</time>
</trkpt>
<trkpt lat="-26.9275101" lon="152.3219061">
<ele>107.939</ele>
<time>2016-07-17T00:22:32.557Z</time>
</trkpt>
<trkpt lat="-26.9282004" lon="152.3221908">
<ele>105.128</ele>
<time>2016-07-17T00:22:35.506Z</time>
</trkpt>
<trkpt lat="-26.9288963" lon="152.3224965">
<ele>102.403</ele>
<time>2016-07-17T00:22:38.539Z</time>
</trkpt>
<trkpt lat="-26.9295552" lon="152.3228546">
<ele>100.229</ele>
<time>2016-07-17T00:22:41.543Z</time>
</trkpt>
<trkpt lat="-26.9301625" lon="152.3233119">
<ele>99.245</ele>
<time>2016-07-17T00:22:44.558Z</time>
</trkpt>
<trkpt lat="-26.9305270" lon="152.3236689">
<ele>99.317</ele>
<time>2016-07-17T00:22:46.584Z</time>
</trkpt>
<trkpt lat="-26.9310096" lon="152.3242540">
<ele>100.235</ele>
<time>2016-07-17T00:22:49.600Z</time>
</trkpt>
<trkpt lat="-26.9314179" lon="152.3248928">
<ele>101.615</ele>
<time>2016-07-17T00:22:52.630Z</time>
</trkpt>
<trkpt lat="-26.9317161" lon="152.3255824">
<ele>102.917</ele>
<time>2016-07-17T00:22:55.601Z</time>
</trkpt>
<trkpt lat="-26.9319538" lon="152.3263194">
<ele>104.222</ele>
<time>2016-07-17T00:22:58.576Z</time>
</trkpt>
<trkpt lat="-26.9320873" lon="152.3268433">
<ele>106.065</ele>
<time>2016-07-17T00:23:00.508Z</time>
</trkpt>
<trkpt lat="-26.9322023" lon="152.3277065">
<ele>108.807</ele>
<time>2016-07-17T00:23:03.417Z</time>
</trkpt>
<trkpt lat="-26.9322435" lon="152.3283513">
<ele>112.528</ele>
<time>2016-07-17T00:23:05.330Z</time>
</trkpt>
<trkpt lat="-26.9322828" lon="152.3290802">
<ele>116.862</ele>
<time>2016-07-17T00:23:07.332Z</time>
</trkpt>
<trkpt lat="-26.9322987" lon="152.3302508">
<ele>120.642</ele>
<time>2016-07-17T00:23:10.465Z</time>
</trkpt>
<trkpt lat="-26.9323299" lon="152.3309874">
<ele>123.224</ele>
<time>2016-07-17T00:23:12.486Z</time>
</trkpt>
<trkpt lat="-26.9324180" lon="152.3320429">
<ele>124.704</ele>
<time>2016-07-17T00:23:15.433Z</time>
</trkpt>
<trkpt lat="-26.9325358" lon="152.3327516">
<ele>125.339</ele>
<time>2016-07-17T00:23:17.445Z</time>
</trkpt>
<trkpt lat="-26.9327265" lon="152.3334380">
<ele>125.889</ele>
<time>2016-07-17T00:23:19.452Z</time>
</trkpt>
<trkpt lat="-26.9329696" lon="152.3340996">
<ele>126.905</ele>
<time>2016-07-17T00:23:21.464Z</time>
</trkpt>
<trkpt lat="-26.9334051" lon="152.3350311">
<ele>128.384</ele>
<time>2016-07-17T00:23:24.451Z</time>
</trkpt>
<trkpt lat="-26.9337576" lon="152.3355880">
<ele>130.254</ele>
<time>2016-07-17T00:23:26.413Z</time>
</trkpt>
<trkpt lat="-26.9341669" lon="152.3361101">
<ele>131.863</ele>
<time>2016-07-17T00:23:28.377Z</time>
</trkpt>
<trkpt lat="-26.9346401" lon="152.3366266">
<ele>132.652</ele>
<time>2016-07-17T00:23:30.390Z</time>
</trkpt>
<trkpt lat="-26.9354243" lon="152.3373805">
<ele>133.359</ele>
<time>2016-07-17T00:23:33.499Z</time>
</trkpt>
<trkpt lat="-26.9359141" lon="152.3378542">
<ele>134.612</ele>
<time>2016-07-17T00:23:35.523Z</time>
</trkpt>
<trkpt lat="-26.9363620" lon="152.3383200">
<ele>135.331</ele>
<time>2016-07-17T00:23:37.577Z</time>
</trkpt>
<trkpt lat="-26.9367484" lon="152.3387597">
<ele>133.795</ele>
<time>2016-07-17T00:23:39.535Z</time>
</trkpt>
<trkpt lat="-26.9371065" lon="152.3392413">
<ele>130.546</ele>
<time>2016-07-17T00:23:41.520Z</time>
</trkpt>
<trkpt lat="-26.9376194" lon="152.3400061">
<ele>127.812</ele>
<time>2016-07-17T00:23:44.510Z</time>
</trkpt>
<trkpt lat="-26.9380794" lon="152.3408479">
<ele>127.545</ele>
<time>2016-07-17T00:23:47.530Z</time>
</trkpt>
<trkpt lat="-26.9383593" lon="152.3414413">
<ele>130.089</ele>
<time>2016-07-17T00:23:49.442Z</time>
</trkpt>
<trkpt lat="-26.9388470" lon="152.3424021">
<ele>133.711</ele>
<time>2016-07-17T00:23:52.403Z</time>
</trkpt>
<trkpt lat="-26.9391995" lon="152.3431202">
<ele>137.252</ele>
<time>2016-07-17T00:23:54.404Z</time>
</trkpt>
<trkpt lat="-26.9397650" lon="152.3442594">
<ele>141.375</ele>
<time>2016-07-17T00:23:57.495Z</time>
</trkpt>
<trkpt lat="-26.9402917" lon="152.3454013">
<ele>145.449</ele>
<time>2016-07-17T00:24:00.632Z</time>
</trkpt>
<trkpt lat="-26.9407597" lon="152.3463947">
<ele>147.643</ele>
<time>2016-07-17T00:24:03.695Z</time>
</trkpt>
<trkpt lat="-26.9411729" lon="152.3472617">
<ele>145.540</ele>
<time>2016-07-17T00:24:06.735Z</time>
</trkpt>
<trkpt lat="-26.9414155" lon="152.3477649">
<ele>137.727</ele>
<time>2016-07-17T00:24:08.697Z</time>
</trkpt>
<trkpt lat="-26.9417666" lon="152.3485123">
<ele>127.068</ele>
<time>2016-07-17T00:24:11.656Z</time>
</trkpt>
<trkpt lat="-26.9421237" lon="152.3492643">
<ele>117.970</ele>
<time>2016-07-17T00:24:14.776Z</time>
</trkpt>
<trkpt lat="-26.9423357" lon="152.3497137">
<ele>111.857</ele>
<time>2016-07-17T00:24:16.845Z</time>
</trkpt>
<trkpt lat="-26.9426276" lon="152.3503323">
<ele>107.753</ele>
<time>2016-07-17T00:24:19.704Z</time>
</trkpt>
<trkpt lat="-26.9429377" lon="152.3510036">
<ele>104.685</ele>
<time>2016-07-17T00:24:22.725Z</time>
</trkpt>
<trkpt lat="-26.9432462" lon="152.3516850">
<ele>102.478</ele>
<time>2016-07-17T00:24:25.791Z</time>
</trkpt>
<trkpt lat="-26.9434007" lon="152.3521202">
<ele>100.589</ele>
<time>2016-07-17T00:24:27.753Z</time>
</trkpt>
<trkpt lat="-26.9436220" lon="152.3527659">
<ele>98.301</ele>
<time>2016-07-17T00:24:30.694Z</time>
</trkpt>
<trkpt lat="-26.9437482" lon="152.3532078">
<ele>96.067</ele>
<time>2016-07-17T00:24:32.659Z</time>
</trkpt>
<trkpt lat="-26.9439163" lon="152.3538866">
<ele>94.558</ele>
<time>2016-07-17T00:24:35.573Z</time>
</trkpt>
<trkpt lat="-26.9439958" lon="152.3543745">
<ele>94.014</ele>
<time>2016-07-17T00:24:37.556Z</time>
</trkpt>
<trkpt lat="-26.9440521" lon="152.3548723">
<ele>94.345</ele>
<time>2016-07-17T00:24:39.476Z</time>
</trkpt>
<trkpt lat="-26.9441410" lon="152.3556663">
<ele>95.098</ele>
<time>2016-07-17T00:24:42.359Z</time>
</trkpt>
<trkpt lat="-26.9441856" lon="152.3562757">
<ele>96.516</ele>
<time>2016-07-17T00:24:44.296Z</time>
</trkpt>
<trkpt lat="-26.9442123" lon="152.3573019">
<ele>99.367</ele>
<time>2016-07-17T00:24:47.349Z</time>
</trkpt>
<trkpt lat="-26.9442558" lon="152.3579865">
<ele>103.513</ele>
<time>2016-07-17T00:24:49.328Z</time>
</trkpt>
<trkpt lat="-26.9442936" lon="152.3590230">
<ele>107.791</ele>
<time>2016-07-17T00:24:52.366Z</time>
</trkpt>
<trkpt lat="-26.9443225" lon="152.3600124">
<ele>110.683</ele>
<time>2016-07-17T00:24:55.346Z</time>
</trkpt>
<trkpt lat="-26.9443392" lon="152.3606687">
<ele>111.381</ele>
<time>2016-07-17T00:24:57.318Z</time>
</trkpt>
<trkpt lat="-26.9443532" lon="152.3613536">
<ele>110.478</ele>
<time>2016-07-17T00:24:59.386Z</time>
</trkpt>
<trkpt lat="-26.9444095" lon="152.3623275">
<ele>109.008</ele>
<time>2016-07-17T00:25:02.361Z</time>
</trkpt>
<trkpt lat="-26.9445346" lon="152.3633133">
<ele>107.831</ele>
<time>2016-07-17T00:25:05.377Z</time>
</trkpt>
<trkpt lat="-26.9446755" lon="152.3639691">
<ele>107.301</ele>
<time>2016-07-17T00:25:07.393Z</time>
</trkpt>
<trkpt lat="-26.9449453" lon="152.3649152">
<ele>108.221</ele>
<time>2016-07-17T00:25:10.370Z</time>
</trkpt>
<trkpt lat="-26.9453113" lon="152.3658282">
<ele>111.680</ele>
<time>2016-07-17T00:25:13.455Z</time>
</trkpt>
<trkpt lat="-26.9456654" lon="152.3666289">
<ele>116.513</ele>
<time>2016-07-17T00:25:16.455Z</time>
</trkpt>
<trkpt lat="-26.9458684" lon="152.3670940">
<ele>119.958</ele>
<time>2016-07-17T00:25:18.406Z</time>
</trkpt>
<trkpt lat="-26.9461683" lon="152.3677645">
<ele>120.926</ele>
<time>2016-07-17T00:25:21.312Z</time>
</trkpt>
<trkpt lat="-26.9463861" lon="152.3682283">
<ele>120.302</ele>
<time>2016-07-17T00:25:23.306Z</time>
</trkpt>
<trkpt lat="-26.9467189" lon="152.3689557">
<ele>119.524</ele>
<time>2016-07-17T00:25:26.336Z</time>
</trkpt>
<trkpt lat="-26.9469505" lon="152.3694564">
<ele>119.716</ele>
<time>2016-07-17T00:25:28.401Z</time>
</trkpt>
<trkpt lat="-26.9471634" lon="152.3699241">
<ele>120.928</ele>
<time>2016-07-17T00:25:30.354Z</time>
</trkpt>
<trkpt lat="-26.9473673" lon="152.3704156">
<ele>122.190</ele>
<time>2016-07-17T00:25:32.378Z</time>
</trkpt>
<trkpt lat="-26.9476532" lon="152.3711651">
<ele>122.635</ele>
<time>2016-07-17T00:25:35.375Z</time>
</trkpt>
<trkpt lat="-26.9478025" lon="152.3716900">
<ele>122.319</ele>
<time>2016-07-17T00:25:37.358Z</time>
</trkpt>
<trkpt lat="-26.9479275" lon="152.3722433">
<ele>121.499</ele>
<time>2016-07-17T00:25:39.418Z</time>
</trkpt>
<trkpt lat="-26.9480738" lon="152.3730336">
<ele>120.234</ele>
<time>2016-07-17T00:25:42.268Z</time>
</trkpt>
<trkpt lat="-26.9481887" lon="152.3739075">
<ele>118.927</ele>
<time>2016-07-17T00:25:45.123Z</time>
</trkpt>
<trkpt lat="-26.9482637" lon="152.3749756">
<ele>118.273</ele>
<time>2016-07-17T00:25:48.184Z</time>
</trkpt>
<trkpt lat="-26.9482500" lon="152.3757492">
<ele>119.415</ele>
<time>2016-07-17T00:25:50.253Z</time>
</trkpt>
<trkpt lat="-26.9482558" lon="152.3764988">
<ele>122.462</ele>
<time>2016-07-17T00:25:52.324Z</time>
</trkpt>
<trkpt lat="-26.9482653" lon="152.3775254">
<ele>124.809</ele>
<time>2016-07-17T00:25:55.284Z</time>
</trkpt>
<trkpt lat="-26.9482756" lon="152.3781911">
<ele>123.287</ele>
<time>2016-07-17T00:25:57.285Z</time>
</trkpt>
<trkpt lat="-26.9482909" lon="152.3791751">
<ele>118.023</ele>
<time>2016-07-17T00:26:00.307Z</time>
</trkpt>
<trkpt lat="-26.9483094" lon="152.3797869">
<ele>112.201</ele>
<time>2016-07-17T00:26:02.314Z</time>
</trkpt>
<trkpt lat="-26.9482719" lon="152.3806598">
<ele>107.927</ele>
<time>2016-07-17T00:26:05.323Z</time>
</trkpt>
<trkpt lat="-26.9482462" lon="152.3809406">
<ele>104.428</ele>
<time>2016-07-17T00:26:06.334Z</time>
</trkpt>
<trkpt lat="-26.9480803" lon="152.3820103">
<ele>101.275</ele>
<time>2016-07-17T00:26:10.348Z</time>
</trkpt>
<trkpt lat="-26.9478840" lon="152.3827578">
<ele>99.540</ele>
<time>2016-07-17T00:26:13.313Z</time>
</trkpt>
<trkpt lat="-26.9477320" lon="152.3832431">
<ele>99.576</ele>
<time>2016-07-17T00:26:15.307Z</time>
</trkpt>
<trkpt lat="-26.9475669" lon="152.3837234">
<ele>100.391</ele>
<time>2016-07-17T00:26:17.293Z</time>
</trkpt>
<trkpt lat="-26.9473711" lon="152.3842113">
<ele>101.266</ele>
<time>2016-07-17T00:26:19.325Z</time>
</trkpt>
<trkpt lat="-26.9470202" lon="152.3849081">
<ele>102.725</ele>
<time>2016-07-17T00:26:22.251Z</time>
</trkpt>
<trkpt lat="-26.9465945" lon="152.3856584">
<ele>105.109</ele>
<time>2016-07-17T00:26:25.215Z</time>
</trkpt>
<trkpt lat="-26.9462681" lon="152.3862419">
<ele>107.684</ele>
<time>2016-07-17T00:26:27.232Z</time>
</trkpt>
<trkpt lat="-26.9456883" lon="152.3871244">
<ele>110.824</ele>
<time>2016-07-17T00:26:30.320Z</time>
</trkpt>
<trkpt lat="-26.9451384" lon="152.3879555">
<ele>114.985</ele>
<time>2016-07-17T00:26:33.322Z</time>
</trkpt>
<trkpt lat="-26.9446622" lon="152.3887340">
<ele>116.990</ele>
<time>2016-07-17T00:26:36.244Z</time>
</trkpt>
<trkpt lat="-26.9443505" lon="152.3892473">
<ele>113.900</ele>
<time>2016-07-17T00:26:38.244Z</time>
</trkpt>
<trkpt lat="-26.9440370" lon="152.3897358">
<ele>108.237</ele>
<time>2016-07-17T00:26:40.223Z</time>
</trkpt>
<trkpt lat="-26.9437393" lon="152.3902223">
<ele>104.140</ele>
<time>2016-07-17T00:26:42.223Z</time>
</trkpt>
<trkpt lat="-26.9433040" lon="152.3909402">
<ele>102.700</ele>
<time>2016-07-17T00:26:45.230Z</time>
</trkpt>
<trkpt lat="-26.9430156" lon="152.3914163">
<ele>102.867</ele>
<time>2016-07-17T00:26:47.256Z</time>
</trkpt>
<trkpt lat="-26.9427189" lon="152.3918856">
<ele>103.593</ele>
<time>2016-07-17T00:26:49.312Z</time>
</trkpt>
<trkpt lat="-26.9423096" lon="152.3925722">
<ele>104.555</ele>
<time>2016-07-17T00:26:52.313Z</time>
</trkpt>
<trkpt lat="-26.9419737" lon="152.3933312">
<ele>106.283</ele>
<time>2016-07-17T00:26:55.434Z</time>
</trkpt>
<trkpt lat="-26.9418145" lon="152.3938515">
<ele>109.723</ele>
<time>2016-07-17T00:26:57.479Z</time>
</trkpt>
<trkpt lat="-26.9416771" lon="152.3943588">
<ele>114.436</ele>
<time>2016-07-17T00:26:59.457Z</time>
</trkpt>
<trkpt lat="-26.9415838" lon="152.3948591">
<ele>118.485</ele>
<time>2016-07-17T00:27:01.324Z</time>
</trkpt>
<trkpt lat="-26.9415187" lon="152.3956982">
<ele>120.993</ele>
<time>2016-07-17T00:27:04.309Z</time>
</trkpt>
<trkpt lat="-26.9415570" lon="152.3965931">
<ele>123.022</ele>
<time>2016-07-17T00:27:07.375Z</time>
</trkpt>
<trkpt lat="-26.9416095" lon="152.3971760">
<ele>125.239</ele>
<time>2016-07-17T00:27:09.349Z</time>
</trkpt>
<trkpt lat="-26.9416279" lon="152.3977658">
<ele>126.486</ele>
<time>2016-07-17T00:27:11.319Z</time>
</trkpt>
<trkpt lat="-26.9415366" lon="152.3986705">
<ele>125.615</ele>
<time>2016-07-17T00:27:14.320Z</time>
</trkpt>
<trkpt lat="-26.9413494" lon="152.3995660">
<ele>122.949</ele>
<time>2016-07-17T00:27:17.282Z</time>
</trkpt>
<trkpt lat="-26.9411029" lon="152.4004867">
<ele>119.788</ele>
<time>2016-07-17T00:27:20.301Z</time>
</trkpt>
<trkpt lat="-26.9410267" lon="152.4007992">
<ele>117.851</ele>
<time>2016-07-17T00:27:21.298Z</time>
</trkpt>
<trkpt lat="-26.9406781" lon="152.4021066">
<ele>117.767</ele>
<time>2016-07-17T00:27:25.336Z</time>
</trkpt>
<trkpt lat="-26.9404136" lon="152.4031036">
<ele>118.435</ele>
<time>2016-07-17T00:27:28.351Z</time>
</trkpt>
<trkpt lat="-26.9402421" lon="152.4037491">
<ele>118.355</ele>
<time>2016-07-17T00:27:30.331Z</time>
</trkpt>
<trkpt lat="-26.9400508" lon="152.4043959">
<ele>116.955</ele>
<time>2016-07-17T00:27:32.335Z</time>
</trkpt>
<trkpt lat="-26.9398321" lon="152.4050274">
<ele>115.068</ele>
<time>2016-07-17T00:27:34.311Z</time>
</trkpt>
<trkpt lat="-26.9394604" lon="152.4059776">
<ele>114.009</ele>
<time>2016-07-17T00:27:37.361Z</time>
</trkpt>
<trkpt lat="-26.9392089" lon="152.4065732">
<ele>114.071</ele>
<time>2016-07-17T00:27:39.350Z</time>
</trkpt>
<trkpt lat="-26.9388387" lon="152.4074258">
<ele>114.481</ele>
<time>2016-07-17T00:27:42.418Z</time>
</trkpt>
<trkpt lat="-26.9385245" lon="152.4081765">
<ele>113.999</ele>
<time>2016-07-17T00:27:45.293Z</time>
</trkpt>
<trkpt lat="-26.9383546" lon="152.4087035">
<ele>112.362</ele>
<time>2016-07-17T00:27:47.286Z</time>
</trkpt>
<trkpt lat="-26.9381813" lon="152.4095607">
<ele>110.804</ele>
<time>2016-07-17T00:27:50.376Z</time>
</trkpt>
<trkpt lat="-26.9381088" lon="152.4104010">
<ele>110.559</ele>
<time>2016-07-17T00:27:53.355Z</time>
</trkpt>
<trkpt lat="-26.9380648" lon="152.4112144">
<ele>111.693</ele>
<time>2016-07-17T00:27:56.281Z</time>
</trkpt>
<trkpt lat="-26.9379080" lon="152.4120182">
<ele>113.383</ele>
<time>2016-07-17T00:27:59.234Z</time>
</trkpt>
<trkpt lat="-26.9375834" lon="152.4127848">
<ele>114.687</ele>
<time>2016-07-17T00:28:02.214Z</time>
</trkpt>
<trkpt lat="-26.9371138" lon="152.4134721">
<ele>115.373</ele>
<time>2016-07-17T00:28:05.199Z</time>
</trkpt>
<trkpt lat="-26.9365152" lon="152.4140622">
<ele>115.758</ele>
<time>2016-07-17T00:28:08.252Z</time>
</trkpt>
<trkpt lat="-26.9361149" lon="152.4144323">
<ele>116.167</ele>
<time>2016-07-17T00:28:10.255Z</time>
</trkpt>
<trkpt lat="-26.9355268" lon="152.4149831">
<ele>116.678</ele>
<time>2016-07-17T00:28:13.274Z</time>
</trkpt>
<trkpt lat="-26.9349557" lon="152.4155170">
<ele>117.122</ele>
<time>2016-07-17T00:28:16.265Z</time>
</trkpt>
<trkpt lat="-26.9345813" lon="152.4158990">
<ele>117.248</ele>
<time>2016-07-17T00:28:18.296Z</time>
</trkpt>
<trkpt lat="-26.9342240" lon="152.4163156">
<ele>117.003</ele>
<time>2016-07-17T00:28:20.336Z</time>
</trkpt>
<trkpt lat="-26.9337406" lon="152.4169826">
<ele>116.668</ele>
<time>2016-07-17T00:28:23.343Z</time>
</trkpt>
<trkpt lat="-26.9334801" lon="152.4174743">
<ele>116.456</ele>
<time>2016-07-17T00:28:25.332Z</time>
</trkpt>
<trkpt lat="-26.9331651" lon="152.4182612">
<ele>116.320</ele>
<time>2016-07-17T00:28:28.328Z</time>
</trkpt>
<trkpt lat="-26.9330090" lon="152.4188113">
<ele>116.226</ele>
<time>2016-07-17T00:28:30.321Z</time>
</trkpt>
<trkpt lat="-26.9328502" lon="152.4196624">
<ele>116.200</ele>
<time>2016-07-17T00:28:33.310Z</time>
</trkpt>
<trkpt lat="-26.9328061" lon="152.4202374">
<ele>116.293</ele>
<time>2016-07-17T00:28:35.289Z</time>
</trkpt>
<trkpt lat="-26.9328360" lon="152.4211010">
<ele>116.797</ele>
<time>2016-07-17T00:28:38.249Z</time>
</trkpt>
<trkpt lat="-26.9329839" lon="152.4219542">
<ele>117.884</ele>
<time>2016-07-17T00:28:41.213Z</time>
</trkpt>
<trkpt lat="-26.9331338" lon="152.4225303">
<ele>119.128</ele>
<time>2016-07-17T00:28:43.285Z</time>
</trkpt>
<trkpt lat="-26.9333047" lon="152.4230425">
<ele>119.979</ele>
<time>2016-07-17T00:28:45.197Z</time>
</trkpt>
<trkpt lat="-26.9336654" lon="152.4237982">
<ele>120.123</ele>
<time>2016-07-17T00:28:48.180Z</time>
</trkpt>
<trkpt lat="-26.9339536" lon="152.4242975">
<ele>119.623</ele>
<time>2016-07-17T00:28:50.205Z</time>
</trkpt>
<trkpt lat="-26.9343427" lon="152.4250954">
<ele>119.294</ele>
<time>2016-07-17T00:28:53.274Z</time>
</trkpt>
<trkpt lat="-26.9345918" lon="152.4259427">
<ele>119.904</ele>
<time>2016-07-17T00:28:56.268Z</time>
</trkpt>
<trkpt lat="-26.9346834" lon="152.4265369">
<ele>121.495</ele>
<time>2016-07-17T00:28:58.328Z</time>
</trkpt>
<trkpt lat="-26.9346773" lon="152.4273714">
<ele>123.546</ele>
<time>2016-07-17T00:29:01.253Z</time>
</trkpt>
<trkpt lat="-26.9345202" lon="152.4281813">
<ele>125.306</ele>
<time>2016-07-17T00:29:04.175Z</time>
</trkpt>
<trkpt lat="-26.9343763" lon="152.4287564">
<ele>126.808</ele>
<time>2016-07-17T00:29:06.185Z</time>
</trkpt>
<trkpt lat="-26.9341547" lon="152.4296523">
<ele>128.773</ele>
<time>2016-07-17T00:29:09.249Z</time>
</trkpt>
<trkpt lat="-26.9340069" lon="152.4302138">
<ele>131.309</ele>
<time>2016-07-17T00:29:11.227Z</time>
</trkpt>
<trkpt lat="-26.9337963" lon="152.4310375">
<ele>133.702</ele>
<time>2016-07-17T00:29:14.214Z</time>
</trkpt>
<trkpt lat="-26.9335990" lon="152.4318423">
<ele>135.161</ele>
<time>2016-07-17T00:29:17.208Z</time>
</trkpt>
<trkpt lat="-26.9334646" lon="152.4326515">
<ele>135.612</ele>
<time>2016-07-17T00:29:20.163Z</time>
</trkpt>
<trkpt lat="-26.9334217" lon="152.4335163">
<ele>135.817</ele>
<time>2016-07-17T00:29:23.176Z</time>
</trkpt>
<trkpt lat="-26.9334098" lon="152.4344061">
<ele>137.077</ele>
<time>2016-07-17T00:29:26.238Z</time>
</trkpt>
<trkpt lat="-26.9334030" lon="152.4349520">
<ele>139.843</ele>
<time>2016-07-17T00:29:28.170Z</time>
</trkpt>
<trkpt lat="-26.9333995" lon="152.4355027">
<ele>142.699</ele>
<time>2016-07-17T00:29:30.122Z</time>
</trkpt>
<trkpt lat="-26.9333921" lon="152.4363830">
<ele>144.230</ele>
<time>2016-07-17T00:29:33.199Z</time>
</trkpt>
<trkpt lat="-26.9333852" lon="152.4372505">
<ele>144.548</ele>
<time>2016-07-17T00:29:36.215Z</time>
</trkpt>
<trkpt lat="-26.9333781" lon="152.4380971">
<ele>144.599</ele>
<time>2016-07-17T00:29:39.185Z</time>
</trkpt>
<trkpt lat="-26.9333685" lon="152.4389317">
<ele>146.105</ele>
<time>2016-07-17T00:29:42.143Z</time>
</trkpt>
<trkpt lat="-26.9333662" lon="152.4397527">
<ele>150.094</ele>
<time>2016-07-17T00:29:45.104Z</time>
</trkpt>
<trkpt lat="-26.9333615" lon="152.4402849">
<ele>155.399</ele>
<time>2016-07-17T00:29:47.049Z</time>
</trkpt>
<trkpt lat="-26.9333097" lon="152.4410921">
<ele>159.946</ele>
<time>2016-07-17T00:29:49.999Z</time>
</trkpt>
<trkpt lat="-26.9331523" lon="152.4419065">
<ele>163.526</ele>
<time>2016-07-17T00:29:53.005Z</time>
</trkpt>
<trkpt lat="-26.9329956" lon="152.4424482">
<ele>167.483</ele>
<time>2016-07-17T00:29:55.042Z</time>
</trkpt>
<trkpt lat="-26.9327283" lon="152.4432698">
<ele>172.056</ele>
<time>2016-07-17T00:29:58.105Z</time>
</trkpt>
<trkpt lat="-26.9325477" lon="152.4438068">
<ele>176.151</ele>
<time>2016-07-17T00:30:00.124Z</time>
</trkpt>
<trkpt lat="-26.9323010" lon="152.4445952">
<ele>179.033</ele>
<time>2016-07-17T00:30:03.131Z</time>
</trkpt>
<trkpt lat="-26.9320908" lon="152.4453608">
<ele>180.332</ele>
<time>2016-07-17T00:30:06.104Z</time>
</trkpt>
<trkpt lat="-26.9319511" lon="152.4461223">
<ele>179.601</ele>
<time>2016-07-17T00:30:09.021Z</time>
</trkpt>
<trkpt lat="-26.9319028" lon="152.4466559">
<ele>176.692</ele>
<time>2016-07-17T00:30:11.013Z</time>
</trkpt>
<trkpt lat="-26.9319046" lon="152.4472007">
<ele>172.810</ele>
<time>2016-07-17T00:30:13.019Z</time>
</trkpt>
<trkpt lat="-26.9319933" lon="152.4480100">
<ele>169.115</ele>
<time>2016-07-17T00:30:15.998Z</time>
</trkpt>
<trkpt lat="-26.9321004" lon="152.4485759">
<ele>165.825</ele>
<time>2016-07-17T00:30:18.067Z</time>
</trkpt>
<trkpt lat="-26.9322172" lon="152.4491303">
<ele>163.545</ele>
<time>2016-07-17T00:30:20.071Z</time>
</trkpt>
<trkpt lat="-26.9323296" lon="152.4496797">
<ele>162.583</ele>
<time>2016-07-17T00:30:22.041Z</time>
</trkpt>
<trkpt lat="-26.9324469" lon="152.4502358">
<ele>162.042</ele>
<time>2016-07-17T00:30:24.032Z</time>
</trkpt>
<trkpt lat="-26.9326201" lon="152.4510688">
<ele>160.714</ele>
<time>2016-07-17T00:30:27.006Z</time>
</trkpt>
<trkpt lat="-26.9327967" lon="152.4519152">
<ele>158.140</ele>
<time>2016-07-17T00:30:30.010Z</time>
</trkpt>
<trkpt lat="-26.9329161" lon="152.4524856">
<ele>155.275</ele>
<time>2016-07-17T00:30:32.020Z</time>
</trkpt>
<trkpt lat="-26.9330343" lon="152.4530567">
<ele>153.295</ele>
<time>2016-07-17T00:30:34.059Z</time>
</trkpt>
<trkpt lat="-26.9330932" lon="152.4533367">
<ele>152.427</ele>
<time>2016-07-17T00:30:35.074Z</time>
</trkpt>
<trkpt lat="-26.9333282" lon="152.4544445">
<ele>151.946</ele>
<time>2016-07-17T00:30:39.098Z</time>
</trkpt>
<trkpt lat="-26.9334342" lon="152.4550038">
<ele>150.571</ele>
<time>2016-07-17T00:30:41.091Z</time>
</trkpt>
<trkpt lat="-26.9336251" lon="152.4558443">
<ele>148.237</ele>
<time>2016-07-17T00:30:44.098Z</time>
</trkpt>
<trkpt lat="-26.9338640" lon="152.4566787">
<ele>146.298</ele>
<time>2016-07-17T00:30:47.132Z</time>
</trkpt>
<trkpt lat="-26.9341568" lon="152.4574495">
<ele>145.490</ele>
<time>2016-07-17T00:30:50.074Z</time>
</trkpt>
<trkpt lat="-26.9345081" lon="152.4581819">
<ele>145.406</ele>
<time>2016-07-17T00:30:53.032Z</time>
</trkpt>
<trkpt lat="-26.9347457" lon="152.4586825">
<ele>145.775</ele>
<time>2016-07-17T00:30:55.049Z</time>
</trkpt>
<trkpt lat="-26.9351014" lon="152.4594326">
<ele>146.983</ele>
<time>2016-07-17T00:30:58.067Z</time>
</trkpt>
<trkpt lat="-26.9354443" lon="152.4601633">
<ele>149.670</ele>
<time>2016-07-17T00:31:01.016Z</time>
</trkpt>
<trkpt lat="-26.9356392" lon="152.4606794">
<ele>153.378</ele>
<time>2016-07-17T00:31:03.019Z</time>
</trkpt>
<trkpt lat="-26.9358902" lon="152.4614904">
<ele>156.456</ele>
<time>2016-07-17T00:31:06.077Z</time>
</trkpt>
<trkpt lat="-26.9359955" lon="152.4623188">
<ele>157.785</ele>
<time>2016-07-17T00:31:09.082Z</time>
</trkpt>
<trkpt lat="-26.9360022" lon="152.4631193">
<ele>157.340</ele>
<time>2016-07-17T00:31:12.001Z</time>
</trkpt>
<trkpt lat="-26.9359442" lon="152.4636532">
<ele>155.441</ele>
<time>2016-07-17T00:31:13.957Z</time>
</trkpt>
<trkpt lat="-26.9357909" lon="152.4644534">
<ele>153.046</ele>
<time>2016-07-17T00:31:16.912Z</time>
</trkpt>
<trkpt lat="-26.9356429" lon="152.4649799">
<ele>151.456</ele>
<time>2016-07-17T00:31:18.899Z</time>
</trkpt>
<trkpt lat="-26.9353192" lon="152.4657308">
<ele>151.171</ele>
<time>2016-07-17T00:31:21.899Z</time>
</trkpt>
<trkpt lat="-26.9350523" lon="152.4662274">
<ele>151.825</ele>
<time>2016-07-17T00:31:23.969Z</time>
</trkpt>
<trkpt lat="-26.9347697" lon="152.4666701">
<ele>153.166</ele>
<time>2016-07-17T00:31:25.909Z</time>
</trkpt>
<trkpt lat="-26.9343374" lon="152.4673438">
<ele>154.859</ele>
<time>2016-07-17T00:31:28.886Z</time>
</trkpt>
<trkpt lat="-26.9340352" lon="152.4677803">
<ele>155.926</ele>
<time>2016-07-17T00:31:30.904Z</time>
</trkpt>
<trkpt lat="-26.9337231" lon="152.4681704">
<ele>155.839</ele>
<time>2016-07-17T00:31:32.850Z</time>
</trkpt>
<trkpt lat="-26.9333678" lon="152.4685373">
<ele>155.246</ele>
<time>2016-07-17T00:31:34.869Z</time>
</trkpt>
<trkpt lat="-26.9327717" lon="152.4689931">
<ele>154.885</ele>
<time>2016-07-17T00:31:37.867Z</time>
</trkpt>
<trkpt lat="-26.9325654" lon="152.4691530">
<ele>155.804</ele>
<time>2016-07-17T00:31:38.906Z</time>
</trkpt>
<trkpt lat="-26.9316948" lon="152.4697213">
<ele>158.605</ele>
<time>2016-07-17T00:31:43.061Z</time>
</trkpt>
<trkpt lat="-26.9310692" lon="152.4701316">
<ele>161.849</ele>
<time>2016-07-17T00:31:46.072Z</time>
</trkpt>
<trkpt lat="-26.9304904" lon="152.4705528">
<ele>163.654</ele>
<time>2016-07-17T00:31:48.988Z</time>
</trkpt>
<trkpt lat="-26.9299755" lon="152.4711078">
<ele>163.900</ele>
<time>2016-07-17T00:31:52.016Z</time>
</trkpt>
<trkpt lat="-26.9295731" lon="152.4717594">
<ele>163.690</ele>
<time>2016-07-17T00:31:55.005Z</time>
</trkpt>
<trkpt lat="-26.9293831" lon="152.4722512">
<ele>164.239</ele>
<time>2016-07-17T00:31:57.008Z</time>
</trkpt>
<trkpt lat="-26.9292603" lon="152.4727605">
<ele>165.748</ele>
<time>2016-07-17T00:31:58.963Z</time>
</trkpt>
<trkpt lat="-26.9292091" lon="152.4735626">
<ele>167.383</ele>
<time>2016-07-17T00:32:01.918Z</time>
</trkpt>
<trkpt lat="-26.9293179" lon="152.4743945">
<ele>168.490</ele>
<time>2016-07-17T00:32:04.969Z</time>
</trkpt>
<trkpt lat="-26.9294550" lon="152.4749401">
<ele>169.110</ele>
<time>2016-07-17T00:32:07.005Z</time>
</trkpt>
<trkpt lat="-26.9296973" lon="152.4757742">
<ele>169.871</ele>
<time>2016-07-17T00:32:10.053Z</time>
</trkpt>
<trkpt lat="-26.9298696" lon="152.4763251">
<ele>171.310</ele>
<time>2016-07-17T00:32:12.059Z</time>
</trkpt>
<trkpt lat="-26.9300226" lon="152.4768684">
<ele>173.181</ele>
<time>2016-07-17T00:32:14.032Z</time>
</trkpt>
<trkpt lat="-26.9302711" lon="152.4776934">
<ele>174.773</ele>
<time>2016-07-17T00:32:17.079Z</time>
</trkpt>
<trkpt lat="-26.9304325" lon="152.4782202">
<ele>175.755</ele>
<time>2016-07-17T00:32:19.065Z</time>
</trkpt>
<trkpt lat="-26.9305929" lon="152.4787399">
<ele>176.266</ele>
<time>2016-07-17T00:32:21.063Z</time>
</trkpt>
<trkpt lat="-26.9307430" lon="152.4792553">
<ele>176.560</ele>
<time>2016-07-17T00:32:23.073Z</time>
</trkpt>
<trkpt lat="-26.9309624" lon="152.4800002">
<ele>176.799</ele>
<time>2016-07-17T00:32:26.035Z</time>
</trkpt>
<trkpt lat="-26.9311155" lon="152.4804980">
<ele>177.100</ele>
<time>2016-07-17T00:32:28.054Z</time>
</trkpt>
<trkpt lat="-26.9315016" lon="152.4814735">
<ele>177.378</ele>
<time>2016-07-17T00:32:32.130Z</time>
</trkpt>
<trkpt lat="-26.9316866" lon="152.4819489">
<ele>178.297</ele>
<time>2016-07-17T00:32:34.097Z</time>
</trkpt>
<trkpt lat="-26.9318908" lon="152.4824291">
<ele>180.601</ele>
<time>2016-07-17T00:32:36.121Z</time>
</trkpt>
<trkpt lat="-26.9321086" lon="152.4831830">
<ele>183.317</ele>
<time>2016-07-17T00:32:39.166Z</time>
</trkpt>
<trkpt lat="-26.9321911" lon="152.4836713">
<ele>185.496</ele>
<time>2016-07-17T00:32:41.126Z</time>
</trkpt>
<trkpt lat="-26.9322411" lon="152.4841682">
<ele>187.343</ele>
<time>2016-07-17T00:32:43.117Z</time>
</trkpt>
<trkpt lat="-26.9322819" lon="152.4846669">
<ele>189.246</ele>
<time>2016-07-17T00:32:45.123Z</time>
</trkpt>
<trkpt lat="-26.9324190" lon="152.4853813">
<ele>191.268</ele>
<time>2016-07-17T00:32:48.075Z</time>
</trkpt>
<trkpt lat="-26.9325849" lon="152.4858383">
<ele>192.717</ele>
<time>2016-07-17T00:32:50.065Z</time>
</trkpt>
<trkpt lat="-26.9329329" lon="152.4864858">
<ele>192.745</ele>
<time>2016-07-17T00:32:53.058Z</time>
</trkpt>
<trkpt lat="-26.9334157" lon="152.4870781">
<ele>191.414</ele>
<time>2016-07-17T00:32:56.132Z</time>
</trkpt>
<trkpt lat="-26.9339890" lon="152.4875585">
<ele>189.523</ele>
<time>2016-07-17T00:32:59.105Z</time>
</trkpt>
<trkpt lat="-26.9346187" lon="152.4879778">
<ele>188.390</ele>
<time>2016-07-17T00:33:02.069Z</time>
</trkpt>
<trkpt lat="-26.9350566" lon="152.4882609">
<ele>189.105</ele>
<time>2016-07-17T00:33:04.103Z</time>
</trkpt>
<trkpt lat="-26.9357089" lon="152.4886939">
<ele>191.303</ele>
<time>2016-07-17T00:33:07.175Z</time>
</trkpt>
<trkpt lat="-26.9361111" lon="152.4889746">
<ele>193.469</ele>
<time>2016-07-17T00:33:09.091Z</time>
</trkpt>
<trkpt lat="-26.9367251" lon="152.4894931">
<ele>194.664</ele>
<time>2016-07-17T00:33:12.169Z</time>
</trkpt>
<trkpt lat="-26.9371098" lon="152.4898772">
<ele>195.039</ele>
<time>2016-07-17T00:33:14.221Z</time>
</trkpt>
<trkpt lat="-26.9378192" lon="152.4906794">
<ele>194.432</ele>
<time>2016-07-17T00:33:18.250Z</time>
</trkpt>
<trkpt lat="-26.9381850" lon="152.4910666">
<ele>191.719</ele>
<time>2016-07-17T00:33:20.233Z</time>
</trkpt>
<trkpt lat="-26.9385391" lon="152.4914643">
<ele>187.216</ele>
<time>2016-07-17T00:33:22.206Z</time>
</trkpt>
<trkpt lat="-26.9390770" lon="152.4920557">
<ele>183.020</ele>
<time>2016-07-17T00:33:25.188Z</time>
</trkpt>
<trkpt lat="-26.9394350" lon="152.4924597">
<ele>180.177</ele>
<time>2016-07-17T00:33:27.200Z</time>
</trkpt>
<trkpt lat="-26.9399911" lon="152.4930723">
<ele>178.478</ele>
<time>2016-07-17T00:33:30.280Z</time>
</trkpt>
<trkpt lat="-26.9405000" lon="152.4936948">
<ele>177.687</ele>
<time>2016-07-17T00:33:33.290Z</time>
</trkpt>
<trkpt lat="-26.9409282" lon="152.4943489">
<ele>176.593</ele>
<time>2016-07-17T00:33:36.216Z</time>
</trkpt>
<trkpt lat="-26.9411834" lon="152.4948382">
<ele>173.767</ele>
<time>2016-07-17T00:33:38.240Z</time>
</trkpt>
<trkpt lat="-26.9414966" lon="152.4956089">
<ele>169.791</ele>
<time>2016-07-17T00:33:41.224Z</time>
</trkpt>
<trkpt lat="-26.9416465" lon="152.4961672">
<ele>166.441</ele>
<time>2016-07-17T00:33:43.235Z</time>
</trkpt>
<trkpt lat="-26.9418349" lon="152.4969997">
<ele>164.341</ele>
<time>2016-07-17T00:33:46.180Z</time>
</trkpt>
<trkpt lat="-26.9420120" lon="152.4978422">
<ele>163.074</ele>
<time>2016-07-17T00:33:49.170Z</time>
</trkpt>
<trkpt lat="-26.9421318" lon="152.4983978">
<ele>161.924</ele>
<time>2016-07-17T00:33:51.174Z</time>
</trkpt>
<trkpt lat="-26.9422557" lon="152.4989550">
<ele>160.446</ele>
<time>2016-07-17T00:33:53.197Z</time>
</trkpt>
<trkpt lat="-26.9423759" lon="152.4994997">
<ele>159.037</ele>
<time>2016-07-17T00:33:55.208Z</time>
</trkpt>
<trkpt lat="-26.9425973" lon="152.5002544">
<ele>158.220</ele>
<time>2016-07-17T00:33:58.105Z</time>
</trkpt>
<trkpt lat="-26.9428688" lon="152.5010188">
<ele>157.110</ele>
<time>2016-07-17T00:34:01.109Z</time>
</trkpt>
<trkpt lat="-26.9432336" lon="152.5017405">
<ele>154.850</ele>
<time>2016-07-17T00:34:04.086Z</time>
</trkpt>
<trkpt lat="-26.9434739" lon="152.5022342">
<ele>152.687</ele>
<time>2016-07-17T00:34:06.113Z</time>
</trkpt>
<trkpt lat="-26.9438347" lon="152.5029334">
<ele>152.014</ele>
<time>2016-07-17T00:34:09.039Z</time>
</trkpt>
<trkpt lat="-26.9442192" lon="152.5036392">
<ele>152.321</ele>
<time>2016-07-17T00:34:12.039Z</time>
</trkpt>
<trkpt lat="-26.9444535" lon="152.5041084">
<ele>152.478</ele>
<time>2016-07-17T00:34:13.994Z</time>
</trkpt>
<trkpt lat="-26.9446666" lon="152.5046067">
<ele>152.028</ele>
<time>2016-07-17T00:34:16.019Z</time>
</trkpt>
<trkpt lat="-26.9448261" lon="152.5051247">
<ele>151.382</ele>
<time>2016-07-17T00:34:18.043Z</time>
</trkpt>
<trkpt lat="-26.9449908" lon="152.5059447">
<ele>150.981</ele>
<time>2016-07-17T00:34:21.143Z</time>
</trkpt>
<trkpt lat="-26.9451589" lon="152.5067059">
<ele>150.750</ele>
<time>2016-07-17T00:34:24.077Z</time>
</trkpt>
<trkpt lat="-26.9453540" lon="152.5071692">
<ele>149.984</ele>
<time>2016-07-17T00:34:26.050Z</time>
</trkpt>
<trkpt lat="-26.9456083" lon="152.5076127">
<ele>147.888</ele>
<time>2016-07-17T00:34:28.070Z</time>
</trkpt>
<trkpt lat="-26.9461346" lon="152.5081762">
<ele>144.778</ele>
<time>2016-07-17T00:34:31.138Z</time>
</trkpt>
<trkpt lat="-26.9465288" lon="152.5084990">
<ele>141.834</ele>
<time>2016-07-17T00:34:33.153Z</time>
</trkpt>
<trkpt lat="-26.9469150" lon="152.5088402">
<ele>139.818</ele>
<time>2016-07-17T00:34:35.191Z</time>
</trkpt>
<trkpt lat="-26.9474595" lon="152.5093743">
<ele>138.633</ele>
<time>2016-07-17T00:34:38.257Z</time>
</trkpt>
<trkpt lat="-26.9478611" lon="152.5099612">
<ele>137.667</ele>
<time>2016-07-17T00:34:41.143Z</time>
</trkpt>
<trkpt lat="-26.9480453" lon="152.5104074">
<ele>136.567</ele>
<time>2016-07-17T00:34:43.074Z</time>
</trkpt>
<trkpt lat="-26.9482036" lon="152.5111616">
<ele>135.626</ele>
<time>2016-07-17T00:34:46.054Z</time>
</trkpt>
<trkpt lat="-26.9482551" lon="152.5119707">
<ele>135.145</ele>
<time>2016-07-17T00:34:49.057Z</time>
</trkpt>
<trkpt lat="-26.9482733" lon="152.5125258">
<ele>134.966</ele>
<time>2016-07-17T00:34:51.083Z</time>
</trkpt>
<trkpt lat="-26.9482980" lon="152.5133400">
<ele>134.801</ele>
<time>2016-07-17T00:34:54.086Z</time>
</trkpt>
<trkpt lat="-26.9483141" lon="152.5138650">
<ele>134.350</ele>
<time>2016-07-17T00:34:56.050Z</time>
</trkpt>
<trkpt lat="-26.9483365" lon="152.5146664">
<ele>133.491</ele>
<time>2016-07-17T00:34:59.027Z</time>
</trkpt>
<trkpt lat="-26.9483485" lon="152.5152430">
<ele>132.614</ele>
<time>2016-07-17T00:35:01.079Z</time>
</trkpt>
<trkpt lat="-26.9482824" lon="152.5161215">
<ele>132.009</ele>
<time>2016-07-17T00:35:04.157Z</time>
</trkpt>
<trkpt lat="-26.9481069" lon="152.5169405">
<ele>131.440</ele>
<time>2016-07-17T00:35:07.123Z</time>
</trkpt>
<trkpt lat="-26.9479367" lon="152.5174645">
<ele>130.527</ele>
<time>2016-07-17T00:35:09.109Z</time>
</trkpt>
<trkpt lat="-26.9477390" lon="152.5179728">
<ele>129.268</ele>
<time>2016-07-17T00:35:11.085Z</time>
</trkpt>
<trkpt lat="-26.9473497" lon="152.5186996">
<ele>128.297</ele>
<time>2016-07-17T00:35:14.098Z</time>
</trkpt>
<trkpt lat="-26.9470747" lon="152.5191669">
<ele>128.186</ele>
<time>2016-07-17T00:35:16.088Z</time>
</trkpt>
<trkpt lat="-26.9467868" lon="152.5196104">
<ele>128.706</ele>
<time>2016-07-17T00:35:18.034Z</time>
</trkpt>
<trkpt lat="-26.9463300" lon="152.5203118">
<ele>129.093</ele>
<time>2016-07-17T00:35:21.092Z</time>
</trkpt>
<trkpt lat="-26.9460437" lon="152.5208035">
<ele>128.777</ele>
<time>2016-07-17T00:35:23.145Z</time>
</trkpt>
<trkpt lat="-26.9457410" lon="152.5212669">
<ele>127.854</ele>
<time>2016-07-17T00:35:25.151Z</time>
</trkpt>
<trkpt lat="-26.9452765" lon="152.5219744">
<ele>126.710</ele>
<time>2016-07-17T00:35:28.206Z</time>
</trkpt>
<trkpt lat="-26.9449945" lon="152.5224359">
<ele>125.706</ele>
<time>2016-07-17T00:35:30.149Z</time>
</trkpt>
<trkpt lat="-26.9445459" lon="152.5231329">
<ele>124.893</ele>
<time>2016-07-17T00:35:33.164Z</time>
</trkpt>
<trkpt lat="-26.9441271" lon="152.5238083">
<ele>124.121</ele>
<time>2016-07-17T00:35:36.133Z</time>
</trkpt>
<trkpt lat="-26.9437772" lon="152.5245272">
<ele>123.135</ele>
<time>2016-07-17T00:35:39.145Z</time>
</trkpt>
<trkpt lat="-26.9435678" lon="152.5250147">
<ele>121.832</ele>
<time>2016-07-17T00:35:41.111Z</time>
</trkpt>
<trkpt lat="-26.9433317" lon="152.5257987">
<ele>120.645</ele>
<time>2016-07-17T00:35:44.099Z</time>
</trkpt>
<trkpt lat="-26.9432208" lon="152.5263390">
<ele>120.063</ele>
<time>2016-07-17T00:35:46.103Z</time>
</trkpt>
<trkpt lat="-26.9430778" lon="152.5271781">
<ele>119.708</ele>
<time>2016-07-17T00:35:49.139Z</time>
</trkpt>
<trkpt lat="-26.9429700" lon="152.5277398">
<ele>119.092</ele>
<time>2016-07-17T00:35:51.141Z</time>
</trkpt>
<trkpt lat="-26.9428633" lon="152.5283071">
<ele>118.394</ele>
<time>2016-07-17T00:35:53.150Z</time>
</trkpt>
<trkpt lat="-26.9427274" lon="152.5288642">
<ele>118.002</ele>
<time>2016-07-17T00:35:55.148Z</time>
</trkpt>
<trkpt lat="-26.9425144" lon="152.5296774">
<ele>117.728</ele>
<time>2016-07-17T00:35:58.084Z</time>
</trkpt>
<trkpt lat="-26.9423764" lon="152.5302223">
<ele>117.053</ele>
<time>2016-07-17T00:36:00.061Z</time>
</trkpt>
<trkpt lat="-26.9422273" lon="152.5307618">
<ele>115.914</ele>
<time>2016-07-17T00:36:02.042Z</time>
</trkpt>
<trkpt lat="-26.9420787" lon="152.5313218">
<ele>114.716</ele>
<time>2016-07-17T00:36:04.092Z</time>
</trkpt>
<trkpt lat="-26.9418729" lon="152.5321332">
<ele>113.727</ele>
<time>2016-07-17T00:36:07.051Z</time>
</trkpt>
<trkpt lat="-26.9416472" lon="152.5329632">
<ele>113.011</ele>
<time>2016-07-17T00:36:10.089Z</time>
</trkpt>
<trkpt lat="-26.9415149" lon="152.5335160">
<ele>112.431</ele>
<time>2016-07-17T00:36:12.097Z</time>
</trkpt>
<trkpt lat="-26.9413027" lon="152.5343293">
<ele>111.637</ele>
<time>2016-07-17T00:36:15.106Z</time>
</trkpt>
<trkpt lat="-26.9411651" lon="152.5348576">
<ele>110.639</ele>
<time>2016-07-17T00:36:17.113Z</time>
</trkpt>
<trkpt lat="-26.9409871" lon="152.5356432">
<ele>109.508</ele>
<time>2016-07-17T00:36:20.108Z</time>
</trkpt>
<trkpt lat="-26.9409147" lon="152.5361732">
<ele>108.254</ele>
<time>2016-07-17T00:36:22.110Z</time>
</trkpt>
<trkpt lat="-26.9408943" lon="152.5367083">
<ele>107.289</ele>
<time>2016-07-17T00:36:24.120Z</time>
</trkpt>
<trkpt lat="-26.9409800" lon="152.5375181">
<ele>107.001</ele>
<time>2016-07-17T00:36:27.143Z</time>
</trkpt>
<trkpt lat="-26.9411971" lon="152.5382990">
<ele>108.152</ele>
<time>2016-07-17T00:36:30.143Z</time>
</trkpt>
<trkpt lat="-26.9414029" lon="152.5387901">
<ele>111.144</ele>
<time>2016-07-17T00:36:32.124Z</time>
</trkpt>
<trkpt lat="-26.9417990" lon="152.5394870">
<ele>114.630</ele>
<time>2016-07-17T00:36:35.107Z</time>
</trkpt>
<trkpt lat="-26.9420839" lon="152.5399543">
<ele>117.381</ele>
<time>2016-07-17T00:36:37.115Z</time>
</trkpt>
<trkpt lat="-26.9425270" lon="152.5406507">
<ele>119.846</ele>
<time>2016-07-17T00:36:40.163Z</time>
</trkpt>
<trkpt lat="-26.9428193" lon="152.5410904">
<ele>122.222</ele>
<time>2016-07-17T00:36:42.180Z</time>
</trkpt>
<trkpt lat="-26.9432322" lon="152.5417266">
<ele>123.846</ele>
<time>2016-07-17T00:36:45.180Z</time>
</trkpt>
<trkpt lat="-26.9436320" lon="152.5423225">
<ele>124.399</ele>
<time>2016-07-17T00:36:48.189Z</time>
</trkpt>
<trkpt lat="-26.9440140" lon="152.5428982">
<ele>123.559</ele>
<time>2016-07-17T00:36:51.219Z</time>
</trkpt>
<trkpt lat="-26.9442485" lon="152.5432633">
<ele>121.008</ele>
<time>2016-07-17T00:36:53.217Z</time>
</trkpt>
<trkpt lat="-26.9445597" lon="152.5437989">
<ele>117.635</ele>
<time>2016-07-17T00:36:56.181Z</time>
</trkpt>
<trkpt lat="-26.9448237" lon="152.5443283">
<ele>114.071</ele>
<time>2016-07-17T00:36:59.083Z</time>
</trkpt>
<trkpt lat="-26.9449954" lon="152.5447192">
<ele>109.931</ele>
<time>2016-07-17T00:37:01.094Z</time>
</trkpt>
<trkpt lat="-26.9452079" lon="152.5453607">
<ele>105.889</ele>
<time>2016-07-17T00:37:04.121Z</time>
</trkpt>
<trkpt lat="-26.9454061" lon="152.5460190">
<ele>103.353</ele>
<time>2016-07-17T00:37:07.107Z</time>
</trkpt>
<trkpt lat="-26.9455402" lon="152.5466974">
<ele>102.580</ele>
<time>2016-07-17T00:37:10.068Z</time>
</trkpt>
<trkpt lat="-26.9455830" lon="152.5471713">
<ele>102.799</ele>
<time>2016-07-17T00:37:12.088Z</time>
</trkpt>
<trkpt lat="-26.9456304" lon="152.5476406">
<ele>103.443</ele>
<time>2016-07-17T00:37:14.119Z</time>
</trkpt>
<trkpt lat="-26.9456681" lon="152.5480775">
<ele>104.261</ele>
<time>2016-07-17T00:37:16.072Z</time>
</trkpt>
<trkpt lat="-26.9457473" lon="152.5487295">
<ele>105.057</ele>
<time>2016-07-17T00:37:19.097Z</time>
</trkpt>
<trkpt lat="-26.9458337" lon="152.5493396">
<ele>105.568</ele>
<time>2016-07-17T00:37:22.040Z</time>
</trkpt>
<trkpt lat="-26.9459209" lon="152.5497471">
<ele>105.569</ele>
<time>2016-07-17T00:37:24.082Z</time>
</trkpt>
<trkpt lat="-26.9460292" lon="152.5501496">
<ele>105.144</ele>
<time>2016-07-17T00:37:26.104Z</time>
</trkpt>
<trkpt lat="-26.9462342" lon="152.5507402">
<ele>104.606</ele>
<time>2016-07-17T00:37:29.015Z</time>
</trkpt>
<trkpt lat="-26.9465209" lon="152.5513814">
<ele>104.167</ele>
<time>2016-07-17T00:37:32.029Z</time>
</trkpt>
<trkpt lat="-26.9468438" lon="152.5520718">
<ele>104.349</ele>
<time>2016-07-17T00:37:35.071Z</time>
</trkpt>
<trkpt lat="-26.9471855" lon="152.5527901">
<ele>105.380</ele>
<time>2016-07-17T00:37:38.120Z</time>
</trkpt>
<trkpt lat="-26.9474179" lon="152.5532620">
<ele>106.525</ele>
<time>2016-07-17T00:37:40.147Z</time>
</trkpt>
<trkpt lat="-26.9476231" lon="152.5537142">
<ele>107.102</ele>
<time>2016-07-17T00:37:42.185Z</time>
</trkpt>
<trkpt lat="-26.9478243" lon="152.5543261">
<ele>107.212</ele>
<time>2016-07-17T00:37:45.012Z</time>
</trkpt>
<trkpt lat="-26.9479350" lon="152.5547407">
<ele>106.463</ele>
<time>2016-07-17T00:37:47.017Z</time>
</trkpt>
<trkpt lat="-26.9479995" lon="152.5551656">
<ele>104.247</ele>
<time>2016-07-17T00:37:49.006Z</time>
</trkpt>
<trkpt lat="-26.9480403" lon="152.5556104">
<ele>101.417</ele>
<time>2016-07-17T00:37:51.020Z</time>
</trkpt>
<trkpt lat="-26.9480320" lon="152.5560707">
<ele>99.841</ele>
<time>2016-07-17T00:37:53.121Z</time>
</trkpt>
<trkpt lat="-26.9479934" lon="152.5566875">
<ele>100.025</ele>
<time>2016-07-17T00:37:56.248Z</time>
</trkpt>
<trkpt lat="-26.9479536" lon="152.5571420">
<ele>100.419</ele>
<time>2016-07-17T00:37:59.131Z</time>
</trkpt>
<trkpt lat="-26.9479360" lon="152.5573821">
<ele>99.047</ele>
<time>2016-07-17T00:38:00.981Z</time>
</trkpt>
<trkpt lat="-26.9479126" lon="152.5577566">
<ele>96.120</ele>
<time>2016-07-17T00:38:03.905Z</time>
</trkpt>
<trkpt lat="-26.9478937" lon="152.5580506">
<ele>93.666</ele>
<time>2016-07-17T00:38:06.025Z</time>
</trkpt>
<trkpt lat="-26.9478488" lon="152.5584781">
<ele>93.116</ele>
<time>2016-07-17T00:38:08.994Z</time>
</trkpt>
<trkpt lat="-26.9477955" lon="152.5589197">
<ele>94.134</ele>
<time>2016-07-17T00:38:12.036Z</time>
</trkpt>
<trkpt lat="-26.9477652" lon="152.5592042">
<ele>95.456</ele>
<time>2016-07-17T00:38:14.043Z</time>
</trkpt>
<trkpt lat="-26.9477524" lon="152.5594769">
<ele>96.215</ele>
<time>2016-07-17T00:38:16.058Z</time>
</trkpt>
<trkpt lat="-26.9477136" lon="152.5598550">
<ele>96.435</ele>
<time>2016-07-17T00:38:19.130Z</time>
</trkpt>
<trkpt lat="-26.9476792" lon="152.5601646">
<ele>96.130</ele>
<time>2016-07-17T00:38:22.237Z</time>
</trkpt>
<trkpt lat="-26.9476509" lon="152.5603666">
<ele>95.128</ele>
<time>2016-07-17T00:38:25.174Z</time>
</trkpt>
<trkpt lat="-26.9476363" lon="152.5604824">
<ele>93.567</ele>
<time>2016-07-17T00:38:27.635Z</time>
</trkpt>
<trkpt lat="-26.9477285" lon="152.5605486">
<ele>92.078</ele>
<time>2016-07-17T00:38:31.095Z</time>
</trkpt>
<trkpt lat="-26.9478280" lon="152.5605631">
<ele>91.284</ele>
<time>2016-07-17T00:38:35.642Z</time>
</trkpt>
<trkpt lat="-26.9478588" lon="152.5606640">
<ele>91.449</ele>
<time>2016-07-17T00:38:42.065Z</time>
</trkpt>
<trkpt lat="-26.9478588" lon="152.5606640">
<ele>92.245</ele>
<time>2016-07-17T00:38:44.070Z</time>
</trkpt>
<trkpt lat="-26.9478588" lon="152.5606640">
<ele>92.845</ele>
<time>2016-07-17T00:50:21.155Z</time>
</trkpt>
<trkpt lat="-26.9478019" lon="152.5608510">
<ele>92.791</ele>
<time>2016-07-17T00:50:33.262Z</time>
</trkpt>
<trkpt lat="-26.9477156" lon="152.5609040">
<ele>94.916</ele>
<time>2016-07-17T00:50:36.542Z</time>
</trkpt>
<trkpt lat="-26.9476136" lon="152.5610220">
<ele>101.417</ele>
<time>2016-07-17T00:50:38.709Z</time>
</trkpt>
<trkpt lat="-26.9475189" lon="152.5613836">
<ele>108.701</ele>
<time>2016-07-17T00:50:42.163Z</time>
</trkpt>
<trkpt lat="-26.9474174" lon="152.5618960">
<ele>112.552</ele>
<time>2016-07-17T00:50:45.958Z</time>
</trkpt>
<trkpt lat="-26.9473048" lon="152.5624342">
<ele>113.023</ele>
<time>2016-07-17T00:50:49.262Z</time>
</trkpt>
<trkpt lat="-26.9472425" lon="152.5627652">
<ele>111.612</ele>
<time>2016-07-17T00:50:51.311Z</time>
</trkpt>
<trkpt lat="-26.9471796" lon="152.5632169">
<ele>109.809</ele>
<time>2016-07-17T00:50:54.437Z</time>
</trkpt>
<trkpt lat="-26.9471538" lon="152.5636134">
<ele>108.519</ele>
<time>2016-07-17T00:50:57.025Z</time>
</trkpt>
<trkpt lat="-26.9471359" lon="152.5638923">
<ele>107.362</ele>
<time>2016-07-17T00:50:58.688Z</time>
</trkpt>
<trkpt lat="-26.9470872" lon="152.5643969">
<ele>105.802</ele>
<time>2016-07-17T00:51:01.556Z</time>
</trkpt>
<trkpt lat="-26.9470437" lon="152.5648913">
<ele>104.711</ele>
<time>2016-07-17T00:51:04.655Z</time>
</trkpt>
<trkpt lat="-26.9470137" lon="152.5651797">
<ele>104.901</ele>
<time>2016-07-17T00:51:07.024Z</time>
</trkpt>
<trkpt lat="-26.9469888" lon="152.5654101">
<ele>105.568</ele>
<time>2016-07-17T00:51:09.271Z</time>
</trkpt>
<trkpt lat="-26.9469065" lon="152.5655345">
<ele>105.629</ele>
<time>2016-07-17T00:51:10.769Z</time>
</trkpt>
<trkpt lat="-26.9466264" lon="152.5655834">
<ele>104.960</ele>
<time>2016-07-17T00:51:13.124Z</time>
</trkpt>
<trkpt lat="-26.9463673" lon="152.5655671">
<ele>104.159</ele>
<time>2016-07-17T00:51:14.865Z</time>
</trkpt>
<trkpt lat="-26.9459216" lon="152.5655154">
<ele>104.249</ele>
<time>2016-07-17T00:51:17.684Z</time>
</trkpt>
<trkpt lat="-26.9454409" lon="152.5654727">
<ele>106.286</ele>
<time>2016-07-17T00:51:20.553Z</time>
</trkpt>
<trkpt lat="-26.9451214" lon="152.5654403">
<ele>109.932</ele>
<time>2016-07-17T00:51:22.456Z</time>
</trkpt>
<trkpt lat="-26.9446432" lon="152.5653904">
<ele>113.244</ele>
<time>2016-07-17T00:51:25.378Z</time>
</trkpt>
<trkpt lat="-26.9443410" lon="152.5653567">
<ele>114.897</ele>
<time>2016-07-17T00:51:27.380Z</time>
</trkpt>
<trkpt lat="-26.9439419" lon="152.5653156">
<ele>114.910</ele>
<time>2016-07-17T00:51:30.207Z</time>
</trkpt>
<trkpt lat="-26.9437086" lon="152.5652904">
<ele>113.953</ele>
<time>2016-07-17T00:51:32.050Z</time>
</trkpt>
<trkpt lat="-26.9434811" lon="152.5652565">
<ele>112.857</ele>
<time>2016-07-17T00:51:34.182Z</time>
</trkpt>
<trkpt lat="-26.9432420" lon="152.5652266">
<ele>112.092</ele>
<time>2016-07-17T00:51:37.148Z</time>
</trkpt>
<trkpt lat="-26.9431355" lon="152.5652157">
<ele>111.170</ele>
<time>2016-07-17T00:51:38.999Z</time>
</trkpt>
<trkpt lat="-26.9431355" lon="152.5652157">
<ele>109.690</ele>
<time>2016-07-17T00:51:42.999Z</time>
</trkpt>
<trkpt lat="-26.9431355" lon="152.5652157">
<ele>108.535</ele>
<time>2016-07-17T00:51:44.924Z</time>
</trkpt>
<trkpt lat="-26.9429646" lon="152.5653691">
<ele>108.616</ele>
<time>2016-07-17T00:51:49.259Z</time>
</trkpt>
<trkpt lat="-26.9429396" lon="152.5655963">
<ele>109.414</ele>
<time>2016-07-17T00:51:51.233Z</time>
</trkpt>
<trkpt lat="-26.9429217" lon="152.5658750">
<ele>110.243</ele>
<time>2016-07-17T00:51:53.271Z</time>
</trkpt>
<trkpt lat="-26.9428695" lon="152.5663118">
<ele>110.931</ele>
<time>2016-07-17T00:51:56.269Z</time>
</trkpt>
<trkpt lat="-26.9428418" lon="152.5666316">
<ele>111.152</ele>
<time>2016-07-17T00:51:58.292Z</time>
</trkpt>
<trkpt lat="-26.9427906" lon="152.5671269">
<ele>110.609</ele>
<time>2016-07-17T00:52:01.335Z</time>
</trkpt>
<trkpt lat="-26.9427687" lon="152.5674529">
<ele>109.573</ele>
<time>2016-07-17T00:52:03.308Z</time>
</trkpt>
<trkpt lat="-26.9427414" lon="152.5677827">
<ele>108.544</ele>
<time>2016-07-17T00:52:05.289Z</time>
</trkpt>
<trkpt lat="-26.9426863" lon="152.5682900">
<ele>107.864</ele>
<time>2016-07-17T00:52:08.318Z</time>
</trkpt>
<trkpt lat="-26.9426491" lon="152.5686163">
<ele>107.552</ele>
<time>2016-07-17T00:52:10.264Z</time>
</trkpt>
<trkpt lat="-26.9426450" lon="152.5687853">
<ele>107.248</ele>
<time>2016-07-17T00:52:11.264Z</time>
</trkpt>
<trkpt lat="-26.9425804" lon="152.5694737">
<ele>106.772</ele>
<time>2016-07-17T00:52:15.321Z</time>
</trkpt>
<trkpt lat="-26.9425150" lon="152.5699783">
<ele>106.336</ele>
<time>2016-07-17T00:52:18.308Z</time>
</trkpt>
<trkpt lat="-26.9424048" lon="152.5704757">
<ele>106.109</ele>
<time>2016-07-17T00:52:21.299Z</time>
</trkpt>
<trkpt lat="-26.9422953" lon="152.5707998">
<ele>106.033</ele>
<time>2016-07-17T00:52:23.320Z</time>
</trkpt>
<trkpt lat="-26.9421349" lon="152.5712843">
<ele>105.987</ele>
<time>2016-07-17T00:52:26.376Z</time>
</trkpt>
<trkpt lat="-26.9419646" lon="152.5717349">
<ele>105.902</ele>
<time>2016-07-17T00:52:29.280Z</time>
</trkpt>
<trkpt lat="-26.9417936" lon="152.5722159">
<ele>105.819</ele>
<time>2016-07-17T00:52:32.310Z</time>
</trkpt>
<trkpt lat="-26.9417309" lon="152.5723740">
<ele>106.013</ele>
<time>2016-07-17T00:52:33.309Z</time>
</trkpt>
<trkpt lat="-26.9414708" lon="152.5730429">
<ele>106.822</ele>
<time>2016-07-17T00:52:37.225Z</time>
</trkpt>
<trkpt lat="-26.9413241" lon="152.5734269">
<ele>108.104</ele>
<time>2016-07-17T00:52:39.218Z</time>
</trkpt>
<trkpt lat="-26.9410938" lon="152.5740342">
<ele>109.601</ele>
<time>2016-07-17T00:52:42.236Z</time>
</trkpt>
<trkpt lat="-26.9408613" lon="152.5746627">
<ele>111.252</ele>
<time>2016-07-17T00:52:45.185Z</time>
</trkpt>
<trkpt lat="-26.9405996" lon="152.5753424">
<ele>112.776</ele>
<time>2016-07-17T00:52:48.152Z</time>
</trkpt>
<trkpt lat="-26.9404060" lon="152.5758489">
<ele>114.108</ele>
<time>2016-07-17T00:52:50.121Z</time>
</trkpt>
<trkpt lat="-26.9401903" lon="152.5764024">
<ele>116.203</ele>
<time>2016-07-17T00:52:52.114Z</time>
</trkpt>
<trkpt lat="-26.9398617" lon="152.5773439">
<ele>119.258</ele>
<time>2016-07-17T00:52:55.243Z</time>
</trkpt>
<trkpt lat="-26.9395207" lon="152.5782578">
<ele>120.311</ele>
<time>2016-07-17T00:52:58.355Z</time>
</trkpt>
<trkpt lat="-26.9391996" lon="152.5790455">
<ele>117.489</ele>
<time>2016-07-17T00:53:01.351Z</time>
</trkpt>
<trkpt lat="-26.9390194" lon="152.5795139">
<ele>113.695</ele>
<time>2016-07-17T00:53:03.309Z</time>
</trkpt>
<trkpt lat="-26.9387566" lon="152.5802078">
<ele>112.727</ele>
<time>2016-07-17T00:53:06.291Z</time>
</trkpt>
<trkpt lat="-26.9384875" lon="152.5808759">
<ele>114.876</ele>
<time>2016-07-17T00:53:09.232Z</time>
</trkpt>
<trkpt lat="-26.9382325" lon="152.5815852">
<ele>118.585</ele>
<time>2016-07-17T00:53:12.271Z</time>
</trkpt>
<trkpt lat="-26.9380651" lon="152.5823247">
<ele>123.197</ele>
<time>2016-07-17T00:53:15.246Z</time>
</trkpt>
<trkpt lat="-26.9379908" lon="152.5830951">
<ele>128.191</ele>
<time>2016-07-17T00:53:18.246Z</time>
</trkpt>
<trkpt lat="-26.9380124" lon="152.5838701">
<ele>132.349</ele>
<time>2016-07-17T00:53:21.264Z</time>
</trkpt>
<trkpt lat="-26.9380874" lon="152.5843694">
<ele>135.300</ele>
<time>2016-07-17T00:53:23.246Z</time>
</trkpt>
<trkpt lat="-26.9382304" lon="152.5848521">
<ele>137.366</ele>
<time>2016-07-17T00:53:25.251Z</time>
</trkpt>
<trkpt lat="-26.9383882" lon="152.5853332">
<ele>138.790</ele>
<time>2016-07-17T00:53:27.293Z</time>
</trkpt>
<trkpt lat="-26.9385315" lon="152.5858073">
<ele>139.700</ele>
<time>2016-07-17T00:53:29.312Z</time>
</trkpt>
<trkpt lat="-26.9387214" lon="152.5865121">
<ele>140.169</ele>
<time>2016-07-17T00:53:32.321Z</time>
</trkpt>
<trkpt lat="-26.9387675" lon="152.5867439">
<ele>140.685</ele>
<time>2016-07-17T00:53:33.303Z</time>
</trkpt>
<trkpt lat="-26.9388630" lon="152.5877204">
<ele>141.735</ele>
<time>2016-07-17T00:53:37.345Z</time>
</trkpt>
<trkpt lat="-26.9388309" lon="152.5882053">
<ele>143.122</ele>
<time>2016-07-17T00:53:39.347Z</time>
</trkpt>
<trkpt lat="-26.9387423" lon="152.5886637">
<ele>144.304</ele>
<time>2016-07-17T00:53:41.275Z</time>
</trkpt>
<trkpt lat="-26.9385974" lon="152.5891390">
<ele>145.280</ele>
<time>2016-07-17T00:53:43.298Z</time>
</trkpt>
<trkpt lat="-26.9382700" lon="152.5898186">
<ele>146.673</ele>
<time>2016-07-17T00:53:46.344Z</time>
</trkpt>
<trkpt lat="-26.9377995" lon="152.5903838">
<ele>148.627</ele>
<time>2016-07-17T00:53:49.312Z</time>
</trkpt>
<trkpt lat="-26.9372220" lon="152.5908715">
<ele>149.669</ele>
<time>2016-07-17T00:53:52.315Z</time>
</trkpt>
<trkpt lat="-26.9368031" lon="152.5911739">
<ele>148.577</ele>
<time>2016-07-17T00:53:54.285Z</time>
</trkpt>
<trkpt lat="-26.9361381" lon="152.5916148">
<ele>146.209</ele>
<time>2016-07-17T00:53:57.253Z</time>
</trkpt>
<trkpt lat="-26.9356724" lon="152.5919374">
<ele>143.414</ele>
<time>2016-07-17T00:53:59.303Z</time>
</trkpt>
<trkpt lat="-26.9349357" lon="152.5924109">
<ele>140.391</ele>
<time>2016-07-17T00:54:02.442Z</time>
</trkpt>
<trkpt lat="-26.9345060" lon="152.5926836">
<ele>137.704</ele>
<time>2016-07-17T00:54:04.374Z</time>
</trkpt>
<trkpt lat="-26.9338570" lon="152.5930968">
<ele>135.860</ele>
<time>2016-07-17T00:54:07.421Z</time>
</trkpt>
<trkpt lat="-26.9332746" lon="152.5935226">
<ele>135.176</ele>
<time>2016-07-17T00:54:10.383Z</time>
</trkpt>
<trkpt lat="-26.9329131" lon="152.5938334">
<ele>135.977</ele>
<time>2016-07-17T00:54:12.363Z</time>
</trkpt>
<trkpt lat="-26.9324022" lon="152.5943867">
<ele>137.714</ele>
<time>2016-07-17T00:54:15.433Z</time>
</trkpt>
<trkpt lat="-26.9319631" lon="152.5950007">
<ele>139.425</ele>
<time>2016-07-17T00:54:18.421Z</time>
</trkpt>
<trkpt lat="-26.9315744" lon="152.5956860">
<ele>140.729</ele>
<time>2016-07-17T00:54:21.449Z</time>
</trkpt>
<trkpt lat="-26.9313717" lon="152.5961751">
<ele>141.631</ele>
<time>2016-07-17T00:54:23.434Z</time>
</trkpt>
<trkpt lat="-26.9312717" lon="152.5964360">
<ele>141.879</ele>
<time>2016-07-17T00:54:24.476Z</time>
</trkpt>
<trkpt lat="-26.9310098" lon="152.5974937">
<ele>141.392</ele>
<time>2016-07-17T00:54:28.519Z</time>
</trkpt>
<trkpt lat="-26.9308986" lon="152.5982855">
<ele>140.622</ele>
<time>2016-07-17T00:54:31.542Z</time>
</trkpt>
<trkpt lat="-26.9307843" lon="152.5990388">
<ele>139.837</ele>
<time>2016-07-17T00:54:34.488Z</time>
</trkpt>
<trkpt lat="-26.9307162" lon="152.5995519">
<ele>138.709</ele>
<time>2016-07-17T00:54:36.502Z</time>
</trkpt>
<trkpt lat="-26.9306500" lon="152.6000474">
<ele>137.177</ele>
<time>2016-07-17T00:54:38.395Z</time>
</trkpt>
<trkpt lat="-26.9305793" lon="152.6006026">
<ele>135.191</ele>
<time>2016-07-17T00:54:40.387Z</time>
</trkpt>
<trkpt lat="-26.9305066" lon="152.6012012">
<ele>132.726</ele>
<time>2016-07-17T00:54:42.389Z</time>
</trkpt>
<trkpt lat="-26.9304182" lon="152.6018262">
<ele>130.515</ele>
<time>2016-07-17T00:54:44.409Z</time>
</trkpt>
<trkpt lat="-26.9302871" lon="152.6027662">
<ele>128.968</ele>
<time>2016-07-17T00:54:47.445Z</time>
</trkpt>
<trkpt lat="-26.9302038" lon="152.6033607">
<ele>126.602</ele>
<time>2016-07-17T00:54:49.407Z</time>
</trkpt>
<trkpt lat="-26.9300832" lon="152.6042770">
<ele>122.803</ele>
<time>2016-07-17T00:54:52.466Z</time>
</trkpt>
<trkpt lat="-26.9299921" lon="152.6051517">
<ele>119.285</ele>
<time>2016-07-17T00:54:55.404Z</time>
</trkpt>
<trkpt lat="-26.9299815" lon="152.6057369">
<ele>117.665</ele>
<time>2016-07-17T00:54:57.344Z</time>
</trkpt>
<trkpt lat="-26.9300219" lon="152.6066440">
<ele>117.646</ele>
<time>2016-07-17T00:55:00.317Z</time>
</trkpt>
<trkpt lat="-26.9301331" lon="152.6075775">
<ele>118.130</ele>
<time>2016-07-17T00:55:03.340Z</time>
</trkpt>
<trkpt lat="-26.9302421" lon="152.6082000">
<ele>118.159</ele>
<time>2016-07-17T00:55:05.338Z</time>
</trkpt>
<trkpt lat="-26.9303446" lon="152.6088274">
<ele>117.644</ele>
<time>2016-07-17T00:55:07.365Z</time>
</trkpt>
<trkpt lat="-26.9305039" lon="152.6097361">
<ele>117.014</ele>
<time>2016-07-17T00:55:10.355Z</time>
</trkpt>
<trkpt lat="-26.9306698" lon="152.6106422">
<ele>116.635</ele>
<time>2016-07-17T00:55:13.402Z</time>
</trkpt>
<trkpt lat="-26.9307459" lon="152.6112048">
<ele>116.166</ele>
<time>2016-07-17T00:55:15.326Z</time>
</trkpt>
<trkpt lat="-26.9308353" lon="152.6117836">
<ele>115.321</ele>
<time>2016-07-17T00:55:17.366Z</time>
</trkpt>
<trkpt lat="-26.9308810" lon="152.6120736">
<ele>114.442</ele>
<time>2016-07-17T00:55:18.408Z</time>
</trkpt>
<trkpt lat="-26.9310673" lon="152.6131504">
<ele>113.618</ele>
<time>2016-07-17T00:55:22.395Z</time>
</trkpt>
<trkpt lat="-26.9311615" lon="152.6136729">
<ele>112.307</ele>
<time>2016-07-17T00:55:24.403Z</time>
</trkpt>
<trkpt lat="-26.9312601" lon="152.6144218">
<ele>110.623</ele>
<time>2016-07-17T00:55:27.268Z</time>
</trkpt>
<trkpt lat="-26.9313696" lon="152.6152117">
<ele>109.388</ele>
<time>2016-07-17T00:55:30.243Z</time>
</trkpt>
<trkpt lat="-26.9313551" lon="152.6160444">
<ele>109.822</ele>
<time>2016-07-17T00:55:33.299Z</time>
</trkpt>
<trkpt lat="-26.9312828" lon="152.6165731">
<ele>112.642</ele>
<time>2016-07-17T00:55:35.287Z</time>
</trkpt>
<trkpt lat="-26.9311431" lon="152.6170835">
<ele>116.817</ele>
<time>2016-07-17T00:55:37.327Z</time>
</trkpt>
<trkpt lat="-26.9310560" lon="152.6173269">
<ele>120.791</ele>
<time>2016-07-17T00:55:38.355Z</time>
</trkpt>
<trkpt lat="-26.9306668" lon="152.6181859">
<ele>123.919</ele>
<time>2016-07-17T00:55:42.232Z</time>
</trkpt>
<trkpt lat="-26.9304527" lon="152.6186366">
<ele>126.088</ele>
<time>2016-07-17T00:55:44.251Z</time>
</trkpt>
<trkpt lat="-26.9302484" lon="152.6190890">
<ele>127.780</ele>
<time>2016-07-17T00:55:46.225Z</time>
</trkpt>
<trkpt lat="-26.9299996" lon="152.6198065">
<ele>129.977</ele>
<time>2016-07-17T00:55:49.201Z</time>
</trkpt>
<trkpt lat="-26.9298835" lon="152.6202957">
<ele>132.693</ele>
<time>2016-07-17T00:55:51.139Z</time>
</trkpt>
<trkpt lat="-26.9297892" lon="152.6210817">
<ele>134.799</ele>
<time>2016-07-17T00:55:54.161Z</time>
</trkpt>
<trkpt lat="-26.9297835" lon="152.6216115">
<ele>135.726</ele>
<time>2016-07-17T00:55:56.180Z</time>
</trkpt>
<trkpt lat="-26.9298560" lon="152.6223920">
<ele>136.385</ele>
<time>2016-07-17T00:55:59.192Z</time>
</trkpt>
<trkpt lat="-26.9299562" lon="152.6228879">
<ele>137.723</ele>
<time>2016-07-17T00:56:01.175Z</time>
</trkpt>
<trkpt lat="-26.9301872" lon="152.6235968">
<ele>140.295</ele>
<time>2016-07-17T00:56:04.135Z</time>
</trkpt>
<trkpt lat="-26.9303794" lon="152.6240677">
<ele>144.095</ele>
<time>2016-07-17T00:56:06.186Z</time>
</trkpt>
<trkpt lat="-26.9306863" lon="152.6247198">
<ele>148.289</ele>
<time>2016-07-17T00:56:09.151Z</time>
</trkpt>
<trkpt lat="-26.9310056" lon="152.6253494">
<ele>151.870</ele>
<time>2016-07-17T00:56:12.104Z</time>
</trkpt>
<trkpt lat="-26.9312165" lon="152.6257972">
<ele>154.302</ele>
<time>2016-07-17T00:56:14.161Z</time>
</trkpt>
<trkpt lat="-26.9314506" lon="152.6264661">
<ele>155.382</ele>
<time>2016-07-17T00:56:17.085Z</time>
</trkpt>
<trkpt lat="-26.9315346" lon="152.6266998">
<ele>155.160</ele>
<time>2016-07-17T00:56:18.117Z</time>
</trkpt>
<trkpt lat="-26.9319202" lon="152.6276126">
<ele>153.819</ele>
<time>2016-07-17T00:56:22.202Z</time>
</trkpt>
<trkpt lat="-26.9321635" lon="152.6280378">
<ele>151.305</ele>
<time>2016-07-17T00:56:24.169Z</time>
</trkpt>
<trkpt lat="-26.9324568" lon="152.6284747">
<ele>147.958</ele>
<time>2016-07-17T00:56:26.217Z</time>
</trkpt>
<trkpt lat="-26.9329410" lon="152.6291057">
<ele>144.842</ele>
<time>2016-07-17T00:56:29.275Z</time>
</trkpt>
<trkpt lat="-26.9332582" lon="152.6295080">
<ele>142.547</ele>
<time>2016-07-17T00:56:31.274Z</time>
</trkpt>
<trkpt lat="-26.9335825" lon="152.6299051">
<ele>140.702</ele>
<time>2016-07-17T00:56:33.307Z</time>
</trkpt>
<trkpt lat="-26.9341318" lon="152.6303936">
<ele>139.255</ele>
<time>2016-07-17T00:56:36.252Z</time>
</trkpt>
<trkpt lat="-26.9347840" lon="152.6307149">
<ele>138.490</ele>
<time>2016-07-17T00:56:39.151Z</time>
</trkpt>
<trkpt lat="-26.9355683" lon="152.6308509">
<ele>138.459</ele>
<time>2016-07-17T00:56:42.315Z</time>
</trkpt>
<trkpt lat="-26.9360570" lon="152.6309132">
<ele>139.190</ele>
<time>2016-07-17T00:56:44.339Z</time>
</trkpt>
<trkpt lat="-26.9367863" lon="152.6310538">
<ele>140.597</ele>
<time>2016-07-17T00:56:47.435Z</time>
</trkpt>
<trkpt lat="-26.9374506" lon="152.6313253">
<ele>142.347</ele>
<time>2016-07-17T00:56:50.346Z</time>
</trkpt>
<trkpt lat="-26.9380896" lon="152.6318122">
<ele>144.474</ele>
<time>2016-07-17T00:56:53.378Z</time>
</trkpt>
<trkpt lat="-26.9384714" lon="152.6322157">
<ele>146.771</ele>
<time>2016-07-17T00:56:55.338Z</time>
</trkpt>
<trkpt lat="-26.9389392" lon="152.6329704">
<ele>147.955</ele>
<time>2016-07-17T00:56:58.360Z</time>
</trkpt>
<trkpt lat="-26.9391516" lon="152.6335402">
<ele>146.370</ele>
<time>2016-07-17T00:57:00.357Z</time>
</trkpt>
<trkpt lat="-26.9392864" lon="152.6341539">
<ele>141.602</ele>
<time>2016-07-17T00:57:02.379Z</time>
</trkpt>
<trkpt lat="-26.9393500" lon="152.6347631">
<ele>135.750</ele>
<time>2016-07-17T00:57:04.343Z</time>
</trkpt>
<trkpt lat="-26.9393571" lon="152.6356777">
<ele>131.442</ele>
<time>2016-07-17T00:57:07.261Z</time>
</trkpt>
<trkpt lat="-26.9393603" lon="152.6363136">
<ele>128.697</ele>
<time>2016-07-17T00:57:09.305Z</time>
</trkpt>
<trkpt lat="-26.9393652" lon="152.6372274">
<ele>126.479</ele>
<time>2016-07-17T00:57:12.401Z</time>
</trkpt>
<trkpt lat="-26.9393925" lon="152.6380031">
<ele>124.970</ele>
<time>2016-07-17T00:57:15.286Z</time>
</trkpt>
<trkpt lat="-26.9393965" lon="152.6385040">
<ele>124.527</ele>
<time>2016-07-17T00:57:17.185Z</time>
</trkpt>
<trkpt lat="-26.9394199" lon="152.6393327">
<ele>124.809</ele>
<time>2016-07-17T00:57:20.178Z</time>
</trkpt>
<trkpt lat="-26.9394399" lon="152.6402413">
<ele>125.958</ele>
<time>2016-07-17T00:57:23.274Z</time>
</trkpt>
<trkpt lat="-26.9394717" lon="152.6411132">
<ele>127.953</ele>
<time>2016-07-17T00:57:26.162Z</time>
</trkpt>
<trkpt lat="-26.9394919" lon="152.6417540">
<ele>128.894</ele>
<time>2016-07-17T00:57:28.088Z</time>
</trkpt>
<trkpt lat="-26.9395248" lon="152.6428618">
<ele>127.461</ele>
<time>2016-07-17T00:57:31.138Z</time>
</trkpt>
<trkpt lat="-26.9395468" lon="152.6436902">
<ele>125.076</ele>
<time>2016-07-17T00:57:33.243Z</time>
</trkpt>
<trkpt lat="-26.9395780" lon="152.6450133">
<ele>121.141</ele>
<time>2016-07-17T00:57:36.457Z</time>
</trkpt>
<trkpt lat="-26.9395901" lon="152.6463686">
<ele>114.607</ele>
<time>2016-07-17T00:57:39.644Z</time>
</trkpt>
<trkpt lat="-26.9396096" lon="152.6471942">
<ele>109.492</ele>
<time>2016-07-17T00:57:41.729Z</time>
</trkpt>
<trkpt lat="-26.9395879" lon="152.6479530">
<ele>109.906</ele>
<time>2016-07-17T00:57:43.743Z</time>
</trkpt>
<trkpt lat="-26.9393848" lon="152.6493254">
<ele>114.859</ele>
<time>2016-07-17T00:57:47.894Z</time>
</trkpt>
<trkpt lat="-26.9391188" lon="152.6501810">
<ele>121.959</ele>
<time>2016-07-17T00:57:50.905Z</time>
</trkpt>
<trkpt lat="-26.9389503" lon="152.6507071">
<ele>129.348</ele>
<time>2016-07-17T00:57:52.930Z</time>
</trkpt>
<trkpt lat="-26.9386937" lon="152.6514230">
<ele>134.976</ele>
<time>2016-07-17T00:57:55.763Z</time>
</trkpt>
<trkpt lat="-26.9385180" lon="152.6519256">
<ele>137.508</ele>
<time>2016-07-17T00:57:57.684Z</time>
</trkpt>
<trkpt lat="-26.9382432" lon="152.6527201">
<ele>137.591</ele>
<time>2016-07-17T00:58:00.613Z</time>
</trkpt>
<trkpt lat="-26.9380437" lon="152.6532950">
<ele>137.542</ele>
<time>2016-07-17T00:58:02.640Z</time>
</trkpt>
<trkpt lat="-26.9377592" lon="152.6541568">
<ele>138.832</ele>
<time>2016-07-17T00:58:05.659Z</time>
</trkpt>
<trkpt lat="-26.9375737" lon="152.6547256">
<ele>139.991</ele>
<time>2016-07-17T00:58:07.676Z</time>
</trkpt>
<trkpt lat="-26.9373887" lon="152.6552796">
<ele>139.231</ele>
<time>2016-07-17T00:58:09.629Z</time>
</trkpt>
<trkpt lat="-26.9370955" lon="152.6561161">
<ele>137.121</ele>
<time>2016-07-17T00:58:12.585Z</time>
</trkpt>
<trkpt lat="-26.9367918" lon="152.6569550">
<ele>134.544</ele>
<time>2016-07-17T00:58:15.640Z</time>
</trkpt>
<trkpt lat="-26.9366341" lon="152.6574728">
<ele>131.666</ele>
<time>2016-07-17T00:58:17.601Z</time>
</trkpt>
<trkpt lat="-26.9364856" lon="152.6579986">
<ele>128.920</ele>
<time>2016-07-17T00:58:19.608Z</time>
</trkpt>
<trkpt lat="-26.9363421" lon="152.6585290">
<ele>126.943</ele>
<time>2016-07-17T00:58:21.666Z</time>
</trkpt>
<trkpt lat="-26.9361449" lon="152.6592735">
<ele>125.983</ele>
<time>2016-07-17T00:58:24.632Z</time>
</trkpt>
<trkpt lat="-26.9360203" lon="152.6597803">
<ele>125.472</ele>
<time>2016-07-17T00:58:26.654Z</time>
</trkpt>
<trkpt lat="-26.9358219" lon="152.6605132">
<ele>124.630</ele>
<time>2016-07-17T00:58:29.601Z</time>
</trkpt>
<trkpt lat="-26.9356149" lon="152.6612474">
<ele>123.506</ele>
<time>2016-07-17T00:58:32.612Z</time>
</trkpt>
<trkpt lat="-26.9354312" lon="152.6619647">
<ele>121.973</ele>
<time>2016-07-17T00:58:35.603Z</time>
</trkpt>
<trkpt lat="-26.9353170" lon="152.6624464">
<ele>119.291</ele>
<time>2016-07-17T00:58:37.593Z</time>
</trkpt>
<trkpt lat="-26.9351897" lon="152.6629350">
<ele>115.683</ele>
<time>2016-07-17T00:58:39.579Z</time>
</trkpt>
<trkpt lat="-26.9350684" lon="152.6634431">
<ele>112.558</ele>
<time>2016-07-17T00:58:41.591Z</time>
</trkpt>
<trkpt lat="-26.9348702" lon="152.6641968">
<ele>110.931</ele>
<time>2016-07-17T00:58:44.573Z</time>
</trkpt>
<trkpt lat="-26.9347343" lon="152.6647030">
<ele>110.049</ele>
<time>2016-07-17T00:58:46.576Z</time>
</trkpt>
<trkpt lat="-26.9346012" lon="152.6652069">
<ele>108.137</ele>
<time>2016-07-17T00:58:48.605Z</time>
</trkpt>
<trkpt lat="-26.9344089" lon="152.6659353">
<ele>104.880</ele>
<time>2016-07-17T00:58:51.605Z</time>
</trkpt>
<trkpt lat="-26.9342728" lon="152.6666534">
<ele>101.812</ele>
<time>2016-07-17T00:58:54.581Z</time>
</trkpt>
<trkpt lat="-26.9342042" lon="152.6671362">
<ele>100.168</ele>
<time>2016-07-17T00:58:56.556Z</time>
</trkpt>
<trkpt lat="-26.9341560" lon="152.6676246">
<ele>99.942</ele>
<time>2016-07-17T00:58:58.431Z</time>
</trkpt>
<trkpt lat="-26.9341436" lon="152.6681970">
<ele>100.527</ele>
<time>2016-07-17T00:59:00.406Z</time>
</trkpt>
<trkpt lat="-26.9341303" lon="152.6691469">
<ele>102.238</ele>
<time>2016-07-17T00:59:03.404Z</time>
</trkpt>
<trkpt lat="-26.9341132" lon="152.6698481">
<ele>106.447</ele>
<time>2016-07-17T00:59:05.385Z</time>
</trkpt>
<trkpt lat="-26.9340520" lon="152.6709905">
<ele>112.318</ele>
<time>2016-07-17T00:59:08.521Z</time>
</trkpt>
<trkpt lat="-26.9340165" lon="152.6717333">
<ele>114.455</ele>
<time>2016-07-17T00:59:10.608Z</time>
</trkpt>
<trkpt lat="-26.9339947" lon="152.6724136">
<ele>110.004</ele>
<time>2016-07-17T00:59:12.665Z</time>
</trkpt>
<trkpt lat="-26.9339718" lon="152.6733396">
<ele>103.425</ele>
<time>2016-07-17T00:59:15.545Z</time>
</trkpt>
<trkpt lat="-26.9339659" lon="152.6739941">
<ele>100.402</ele>
<time>2016-07-17T00:59:17.604Z</time>
</trkpt>
<trkpt lat="-26.9339478" lon="152.6746233">
<ele>101.581</ele>
<time>2016-07-17T00:59:19.580Z</time>
</trkpt>
<trkpt lat="-26.9339237" lon="152.6755760">
<ele>104.493</ele>
<time>2016-07-17T00:59:22.551Z</time>
</trkpt>
<trkpt lat="-26.9338959" lon="152.6762207">
<ele>106.863</ele>
<time>2016-07-17T00:59:24.570Z</time>
</trkpt>
<trkpt lat="-26.9338466" lon="152.6771534">
<ele>108.074</ele>
<time>2016-07-17T00:59:27.533Z</time>
</trkpt>
<trkpt lat="-26.9337951" lon="152.6777729">
<ele>109.105</ele>
<time>2016-07-17T00:59:29.554Z</time>
</trkpt>
<trkpt lat="-26.9336578" lon="152.6786751">
<ele>111.546</ele>
<time>2016-07-17T00:59:32.566Z</time>
</trkpt>
<trkpt lat="-26.9335328" lon="152.6792345">
<ele>115.235</ele>
<time>2016-07-17T00:59:34.501Z</time>
</trkpt>
<trkpt lat="-26.9333396" lon="152.6801044">
<ele>118.683</ele>
<time>2016-07-17T00:59:37.520Z</time>
</trkpt>
<trkpt lat="-26.9331413" lon="152.6809620">
<ele>121.072</ele>
<time>2016-07-17T00:59:40.516Z</time>
</trkpt>
<trkpt lat="-26.9330071" lon="152.6815252">
<ele>122.715</ele>
<time>2016-07-17T00:59:42.533Z</time>
</trkpt>
<trkpt lat="-26.9328477" lon="152.6823593">
<ele>124.001</ele>
<time>2016-07-17T00:59:45.523Z</time>
</trkpt>
<trkpt lat="-26.9327922" lon="152.6829123">
<ele>124.562</ele>
<time>2016-07-17T00:59:47.479Z</time>
</trkpt>
<trkpt lat="-26.9327889" lon="152.6834901">
<ele>123.933</ele>
<time>2016-07-17T00:59:49.491Z</time>
</trkpt>
<trkpt lat="-26.9328256" lon="152.6840819">
<ele>122.315</ele>
<time>2016-07-17T00:59:51.493Z</time>
</trkpt>
<trkpt lat="-26.9329813" lon="152.6849660">
<ele>119.978</ele>
<time>2016-07-17T00:59:54.391Z</time>
</trkpt>
<trkpt lat="-26.9331835" lon="152.6859511">
<ele>116.847</ele>
<time>2016-07-17T00:59:57.473Z</time>
</trkpt>
<trkpt lat="-26.9333693" lon="152.6869089">
<ele>113.473</ele>
<time>2016-07-17T01:00:00.513Z</time>
</trkpt>
<trkpt lat="-26.9334852" lon="152.6874909">
<ele>110.804</ele>
<time>2016-07-17T01:00:02.449Z</time>
</trkpt>
<trkpt lat="-26.9336673" lon="152.6883802">
<ele>109.071</ele>
<time>2016-07-17T01:00:05.368Z</time>
</trkpt>
<trkpt lat="-26.9337950" lon="152.6890281">
<ele>108.123</ele>
<time>2016-07-17T01:00:07.406Z</time>
</trkpt>
<trkpt lat="-26.9339223" lon="152.6896844">
<ele>108.287</ele>
<time>2016-07-17T01:00:09.498Z</time>
</trkpt>
<trkpt lat="-26.9340726" lon="152.6905812">
<ele>109.515</ele>
<time>2016-07-17T01:00:12.425Z</time>
</trkpt>
<trkpt lat="-26.9340896" lon="152.6914642">
<ele>110.464</ele>
<time>2016-07-17T01:00:15.327Z</time>
</trkpt>
<trkpt lat="-26.9340422" lon="152.6920599">
<ele>110.123</ele>
<time>2016-07-17T01:00:17.242Z</time>
</trkpt>
<trkpt lat="-26.9338658" lon="152.6930152">
<ele>109.499</ele>
<time>2016-07-17T01:00:20.293Z</time>
</trkpt>
<trkpt lat="-26.9337260" lon="152.6936368">
<ele>109.650</ele>
<time>2016-07-17T01:00:22.324Z</time>
</trkpt>
<trkpt lat="-26.9335047" lon="152.6945216">
<ele>110.179</ele>
<time>2016-07-17T01:00:25.299Z</time>
</trkpt>
<trkpt lat="-26.9333601" lon="152.6950958">
<ele>110.455</ele>
<time>2016-07-17T01:00:27.233Z</time>
</trkpt>
<trkpt lat="-26.9331455" lon="152.6960012">
<ele>110.548</ele>
<time>2016-07-17T01:00:30.224Z</time>
</trkpt>
<trkpt lat="-26.9330063" lon="152.6966171">
<ele>110.689</ele>
<time>2016-07-17T01:00:32.199Z</time>
</trkpt>
<trkpt lat="-26.9328471" lon="152.6972515">
<ele>110.894</ele>
<time>2016-07-17T01:00:34.221Z</time>
</trkpt>
<trkpt lat="-26.9325654" lon="152.6981612">
<ele>111.498</ele>
<time>2016-07-17T01:00:37.181Z</time>
</trkpt>
<trkpt lat="-26.9323185" lon="152.6987438">
<ele>112.832</ele>
<time>2016-07-17T01:00:39.157Z</time>
</trkpt>
<trkpt lat="-26.9320066" lon="152.6993294">
<ele>114.340</ele>
<time>2016-07-17T01:00:41.224Z</time>
</trkpt>
<trkpt lat="-26.9314376" lon="152.7001045">
<ele>115.850</ele>
<time>2016-07-17T01:00:44.272Z</time>
</trkpt>
<trkpt lat="-26.9310219" lon="152.7005580">
<ele>117.823</ele>
<time>2016-07-17T01:00:46.332Z</time>
</trkpt>
<trkpt lat="-26.9304343" lon="152.7011811">
<ele>119.604</ele>
<time>2016-07-17T01:00:49.359Z</time>
</trkpt>
<trkpt lat="-26.9299234" lon="152.7017976">
<ele>120.404</ele>
<time>2016-07-17T01:00:52.302Z</time>
</trkpt>
<trkpt lat="-26.9296221" lon="152.7022563">
<ele>120.831</ele>
<time>2016-07-17T01:00:54.265Z</time>
</trkpt>
<trkpt lat="-26.9292415" lon="152.7030448">
<ele>122.129</ele>
<time>2016-07-17T01:00:57.266Z</time>
</trkpt>
<trkpt lat="-26.9290458" lon="152.7036003">
<ele>124.975</ele>
<time>2016-07-17T01:00:59.220Z</time>
</trkpt>
<trkpt lat="-26.9288867" lon="152.7041784">
<ele>128.539</ele>
<time>2016-07-17T01:01:01.224Z</time>
</trkpt>
<trkpt lat="-26.9287477" lon="152.7047479">
<ele>131.535</ele>
<time>2016-07-17T01:01:03.218Z</time>
</trkpt>
<trkpt lat="-26.9286039" lon="152.7052977">
<ele>133.567</ele>
<time>2016-07-17T01:01:05.162Z</time>
</trkpt>
<trkpt lat="-26.9284562" lon="152.7058771">
<ele>134.605</ele>
<time>2016-07-17T01:01:07.198Z</time>
</trkpt>
<trkpt lat="-26.9281350" lon="152.7071104">
<ele>134.665</ele>
<time>2016-07-17T01:01:11.332Z</time>
</trkpt>
<trkpt lat="-26.9279812" lon="152.7077163">
<ele>133.940</ele>
<time>2016-07-17T01:01:13.348Z</time>
</trkpt>
<trkpt lat="-26.9278286" lon="152.7083022">
<ele>132.417</ele>
<time>2016-07-17T01:01:15.318Z</time>
</trkpt>
<trkpt lat="-26.9276039" lon="152.7091958">
<ele>129.744</ele>
<time>2016-07-17T01:01:18.314Z</time>
</trkpt>
<trkpt lat="-26.9274503" lon="152.7098012">
<ele>125.828</ele>
<time>2016-07-17T01:01:20.350Z</time>
</trkpt>
<trkpt lat="-26.9272951" lon="152.7103840">
<ele>121.750</ele>
<time>2016-07-17T01:01:22.350Z</time>
</trkpt>
<trkpt lat="-26.9270807" lon="152.7112411">
<ele>118.620</ele>
<time>2016-07-17T01:01:25.312Z</time>
</trkpt>
<trkpt lat="-26.9269592" lon="152.7118195">
<ele>116.534</ele>
<time>2016-07-17T01:01:27.321Z</time>
</trkpt>
<trkpt lat="-26.9268346" lon="152.7123800">
<ele>115.233</ele>
<time>2016-07-17T01:01:29.284Z</time>
</trkpt>
<trkpt lat="-26.9266598" lon="152.7132516">
<ele>114.537</ele>
<time>2016-07-17T01:01:32.333Z</time>
</trkpt>
<trkpt lat="-26.9265507" lon="152.7138156">
<ele>114.107</ele>
<time>2016-07-17T01:01:34.306Z</time>
</trkpt>
<trkpt lat="-26.9263786" lon="152.7146521">
<ele>113.956</ele>
<time>2016-07-17T01:01:37.228Z</time>
</trkpt>
<trkpt lat="-26.9262527" lon="152.7152313">
<ele>114.258</ele>
<time>2016-07-17T01:01:39.191Z</time>
</trkpt>
<trkpt lat="-26.9260356" lon="152.7161466">
<ele>115.146</ele>
<time>2016-07-17T01:01:42.215Z</time>
</trkpt>
<trkpt lat="-26.9257453" lon="152.7170607">
<ele>116.751</ele>
<time>2016-07-17T01:01:45.243Z</time>
</trkpt>
<trkpt lat="-26.9255193" lon="152.7176441">
<ele>118.860</ele>
<time>2016-07-17T01:01:47.224Z</time>
</trkpt>
<trkpt lat="-26.9251742" lon="152.7185411">
<ele>120.993</ele>
<time>2016-07-17T01:01:50.285Z</time>
</trkpt>
<trkpt lat="-26.9249480" lon="152.7191062">
<ele>123.337</ele>
<time>2016-07-17T01:01:52.278Z</time>
</trkpt>
<trkpt lat="-26.9246274" lon="152.7199362">
<ele>125.853</ele>
<time>2016-07-17T01:01:55.213Z</time>
</trkpt>
<trkpt lat="-26.9244087" lon="152.7205104">
<ele>128.368</ele>
<time>2016-07-17T01:01:57.255Z</time>
</trkpt>
<trkpt lat="-26.9241019" lon="152.7213339">
<ele>131.246</ele>
<time>2016-07-17T01:02:00.222Z</time>
</trkpt>
<trkpt lat="-26.9239047" lon="152.7218832">
<ele>134.441</ele>
<time>2016-07-17T01:02:02.193Z</time>
</trkpt>
<trkpt lat="-26.9237182" lon="152.7224819">
<ele>137.122</ele>
<time>2016-07-17T01:02:04.244Z</time>
</trkpt>
<trkpt lat="-26.9235560" lon="152.7231038">
<ele>138.732</ele>
<time>2016-07-17T01:02:06.310Z</time>
</trkpt>
<trkpt lat="-26.9233322" lon="152.7243365">
<ele>139.438</ele>
<time>2016-07-17T01:02:10.307Z</time>
</trkpt>
<trkpt lat="-26.9232355" lon="152.7252582">
<ele>139.898</ele>
<time>2016-07-17T01:02:13.294Z</time>
</trkpt>
<trkpt lat="-26.9231803" lon="152.7261645">
<ele>140.404</ele>
<time>2016-07-17T01:02:16.266Z</time>
</trkpt>
<trkpt lat="-26.9231427" lon="152.7267522">
<ele>140.810</ele>
<time>2016-07-17T01:02:18.262Z</time>
</trkpt>
<trkpt lat="-26.9230880" lon="152.7275982">
<ele>140.902</ele>
<time>2016-07-17T01:02:21.182Z</time>
</trkpt>
<trkpt lat="-26.9230508" lon="152.7281982">
<ele>140.659</ele>
<time>2016-07-17T01:02:23.249Z</time>
</trkpt>
<trkpt lat="-26.9229898" lon="152.7291197">
<ele>140.756</ele>
<time>2016-07-17T01:02:26.299Z</time>
</trkpt>
<trkpt lat="-26.9229556" lon="152.7300283">
<ele>142.055</ele>
<time>2016-07-17T01:02:29.282Z</time>
</trkpt>
<trkpt lat="-26.9229687" lon="152.7306344">
<ele>144.251</ele>
<time>2016-07-17T01:02:31.278Z</time>
</trkpt>
<trkpt lat="-26.9230127" lon="152.7312415">
<ele>146.125</ele>
<time>2016-07-17T01:02:33.282Z</time>
</trkpt>
<trkpt lat="-26.9231032" lon="152.7321429">
<ele>146.854</ele>
<time>2016-07-17T01:02:36.276Z</time>
</trkpt>
<trkpt lat="-26.9232036" lon="152.7330332">
<ele>146.107</ele>
<time>2016-07-17T01:02:39.267Z</time>
</trkpt>
<trkpt lat="-26.9233077" lon="152.7339228">
<ele>144.075</ele>
<time>2016-07-17T01:02:42.280Z</time>
</trkpt>
<trkpt lat="-26.9233502" lon="152.7345109">
<ele>141.712</ele>
<time>2016-07-17T01:02:44.263Z</time>
</trkpt>
<trkpt lat="-26.9233540" lon="152.7353986">
<ele>139.990</ele>
<time>2016-07-17T01:02:47.262Z</time>
</trkpt>
<trkpt lat="-26.9233659" lon="152.7362897">
<ele>138.643</ele>
<time>2016-07-17T01:02:50.307Z</time>
</trkpt>
<trkpt lat="-26.9234136" lon="152.7371552">
<ele>136.662</ele>
<time>2016-07-17T01:02:53.294Z</time>
</trkpt>
<trkpt lat="-26.9234711" lon="152.7377168">
<ele>134.211</ele>
<time>2016-07-17T01:02:55.211Z</time>
</trkpt>
<trkpt lat="-26.9235512" lon="152.7383178">
<ele>132.562</ele>
<time>2016-07-17T01:02:57.234Z</time>
</trkpt>
<trkpt lat="-26.9235995" lon="152.7386212">
<ele>132.760</ele>
<time>2016-07-17T01:02:58.254Z</time>
</trkpt>
<trkpt lat="-26.9238512" lon="152.7398086">
<ele>134.581</ele>
<time>2016-07-17T01:03:02.282Z</time>
</trkpt>
<trkpt lat="-26.9241018" lon="152.7406726">
<ele>136.071</ele>
<time>2016-07-17T01:03:05.306Z</time>
</trkpt>
<trkpt lat="-26.9242844" lon="152.7412284">
<ele>135.834</ele>
<time>2016-07-17T01:03:07.301Z</time>
</trkpt>
<trkpt lat="-26.9244958" lon="152.7418000">
<ele>134.612</ele>
<time>2016-07-17T01:03:09.381Z</time>
</trkpt>
<trkpt lat="-26.9247998" lon="152.7426133">
<ele>133.500</ele>
<time>2016-07-17T01:03:12.367Z</time>
</trkpt>
<trkpt lat="-26.9249734" lon="152.7431230">
<ele>132.466</ele>
<time>2016-07-17T01:03:14.246Z</time>
</trkpt>
<trkpt lat="-26.9252848" lon="152.7439434">
<ele>130.682</ele>
<time>2016-07-17T01:03:17.304Z</time>
</trkpt>
<trkpt lat="-26.9256056" lon="152.7447432">
<ele>127.666</ele>
<time>2016-07-17T01:03:20.280Z</time>
</trkpt>
<trkpt lat="-26.9258219" lon="152.7452747">
<ele>124.354</ele>
<time>2016-07-17T01:03:22.278Z</time>
</trkpt>
<trkpt lat="-26.9261188" lon="152.7460732">
<ele>122.259</ele>
<time>2016-07-17T01:03:25.264Z</time>
</trkpt>
<trkpt lat="-26.9263168" lon="152.7466095">
<ele>121.806</ele>
<time>2016-07-17T01:03:27.266Z</time>
</trkpt>
<trkpt lat="-26.9265269" lon="152.7471611">
<ele>122.312</ele>
<time>2016-07-17T01:03:29.272Z</time>
</trkpt>
<trkpt lat="-26.9268641" lon="152.7480195">
<ele>123.285</ele>
<time>2016-07-17T01:03:32.267Z</time>
</trkpt>
<trkpt lat="-26.9271040" lon="152.7486495">
<ele>125.092</ele>
<time>2016-07-17T01:03:34.322Z</time>
</trkpt>
<trkpt lat="-26.9274730" lon="152.7495985">
<ele>128.003</ele>
<time>2016-07-17T01:03:37.437Z</time>
</trkpt>
<trkpt lat="-26.9276934" lon="152.7501708">
<ele>130.969</ele>
<time>2016-07-17T01:03:39.417Z</time>
</trkpt>
<trkpt lat="-26.9280050" lon="152.7510048">
<ele>131.656</ele>
<time>2016-07-17T01:03:42.365Z</time>
</trkpt>
<trkpt lat="-26.9282048" lon="152.7515462">
<ele>129.349</ele>
<time>2016-07-17T01:03:44.318Z</time>
</trkpt>
<trkpt lat="-26.9285062" lon="152.7523712">
<ele>126.205</ele>
<time>2016-07-17T01:03:47.338Z</time>
</trkpt>
<trkpt lat="-26.9287588" lon="152.7531467">
<ele>124.059</ele>
<time>2016-07-17T01:03:50.189Z</time>
</trkpt>
<trkpt lat="-26.9291387" lon="152.7539226">
<ele>122.747</ele>
<time>2016-07-17T01:03:53.252Z</time>
</trkpt>
<trkpt lat="-26.9294294" lon="152.7544403">
<ele>121.776</ele>
<time>2016-07-17T01:03:55.363Z</time>
</trkpt>
<trkpt lat="-26.9295511" lon="152.7546906">
<ele>120.880</ele>
<time>2016-07-17T01:03:56.355Z</time>
</trkpt>
<trkpt lat="-26.9300981" lon="152.7556659">
<ele>120.152</ele>
<time>2016-07-17T01:04:00.447Z</time>
</trkpt>
<trkpt lat="-26.9305334" lon="152.7563370">
<ele>119.322</ele>
<time>2016-07-17T01:04:03.391Z</time>
</trkpt>
<trkpt lat="-26.9309972" lon="152.7570139">
<ele>118.011</ele>
<time>2016-07-17T01:04:06.283Z</time>
</trkpt>
<trkpt lat="-26.9313698" lon="152.7575139">
<ele>116.910</ele>
<time>2016-07-17T01:04:08.343Z</time>
</trkpt>
<trkpt lat="-26.9317642" lon="152.7579997">
<ele>117.112</ele>
<time>2016-07-17T01:04:10.393Z</time>
</trkpt>
<trkpt lat="-26.9321737" lon="152.7584454">
<ele>118.497</ele>
<time>2016-07-17T01:04:12.433Z</time>
</trkpt>
<trkpt lat="-26.9327592" lon="152.7590959">
<ele>119.637</ele>
<time>2016-07-17T01:04:15.459Z</time>
</trkpt>
<trkpt lat="-26.9331367" lon="152.7594971">
<ele>119.513</ele>
<time>2016-07-17T01:04:17.411Z</time>
</trkpt>
<trkpt lat="-26.9335345" lon="152.7598877">
<ele>118.249</ele>
<time>2016-07-17T01:04:19.330Z</time>
</trkpt>
<trkpt lat="-26.9342227" lon="152.7605192">
<ele>116.470</ele>
<time>2016-07-17T01:04:22.473Z</time>
</trkpt>
<trkpt lat="-26.9346831" lon="152.7609120">
<ele>115.274</ele>
<time>2016-07-17T01:04:24.544Z</time>
</trkpt>
<trkpt lat="-26.9353587" lon="152.7614278">
<ele>115.264</ele>
<time>2016-07-17T01:04:27.522Z</time>
</trkpt>
<trkpt lat="-26.9360455" lon="152.7619204">
<ele>115.370</ele>
<time>2016-07-17T01:04:30.478Z</time>
</trkpt>
<trkpt lat="-26.9365379" lon="152.7622500">
<ele>114.651</ele>
<time>2016-07-17T01:04:32.538Z</time>
</trkpt>
<trkpt lat="-26.9372568" lon="152.7627064">
<ele>113.713</ele>
<time>2016-07-17T01:04:35.546Z</time>
</trkpt>
<trkpt lat="-26.9377335" lon="152.7629858">
<ele>113.333</ele>
<time>2016-07-17T01:04:37.567Z</time>
</trkpt>
<trkpt lat="-26.9384153" lon="152.7634187">
<ele>113.219</ele>
<time>2016-07-17T01:04:40.580Z</time>
</trkpt>
<trkpt lat="-26.9390299" lon="152.7639366">
<ele>112.785</ele>
<time>2016-07-17T01:04:43.577Z</time>
</trkpt>
<trkpt lat="-26.9395396" lon="152.7645915">
<ele>112.035</ele>
<time>2016-07-17T01:04:46.590Z</time>
</trkpt>
<trkpt lat="-26.9399460" lon="152.7653040">
<ele>112.451</ele>
<time>2016-07-17T01:04:49.578Z</time>
</trkpt>
<trkpt lat="-26.9402032" lon="152.7657370">
<ele>114.862</ele>
<time>2016-07-17T01:04:51.495Z</time>
</trkpt>
<trkpt lat="-26.9405987" lon="152.7663893">
<ele>117.281</ele>
<time>2016-07-17T01:04:54.471Z</time>
</trkpt>
<trkpt lat="-26.9409910" lon="152.7670323">
<ele>117.669</ele>
<time>2016-07-17T01:04:57.494Z</time>
</trkpt>
<trkpt lat="-26.9413845" lon="152.7676470">
<ele>116.489</ele>
<time>2016-07-17T01:05:00.471Z</time>
</trkpt>
<trkpt lat="-26.9416626" lon="152.7680441">
<ele>114.709</ele>
<time>2016-07-17T01:05:02.491Z</time>
</trkpt>
<trkpt lat="-26.9418033" lon="152.7682563">
<ele>112.621</ele>
<time>2016-07-17T01:05:03.545Z</time>
</trkpt>
<trkpt lat="-26.9424339" lon="152.7690207">
<ele>110.605</ele>
<time>2016-07-17T01:05:07.614Z</time>
</trkpt>
<trkpt lat="-26.9429302" lon="152.7695733">
<ele>109.091</ele>
<time>2016-07-17T01:05:10.723Z</time>
</trkpt>
<trkpt lat="-26.9434114" lon="152.7700507">
<ele>107.819</ele>
<time>2016-07-17T01:05:13.767Z</time>
</trkpt>
<trkpt lat="-26.9437147" lon="152.7703326">
<ele>106.207</ele>
<time>2016-07-17T01:05:15.741Z</time>
</trkpt>
<trkpt lat="-26.9441961" lon="152.7707409">
<ele>104.056</ele>
<time>2016-07-17T01:05:18.791Z</time>
</trkpt>
<trkpt lat="-26.9445112" lon="152.7709840">
<ele>101.892</ele>
<time>2016-07-17T01:05:20.748Z</time>
</trkpt>
<trkpt lat="-26.9449942" lon="152.7713601">
<ele>100.521</ele>
<time>2016-07-17T01:05:23.777Z</time>
</trkpt>
<trkpt lat="-26.9454775" lon="152.7717108">
<ele>100.094</ele>
<time>2016-07-17T01:05:26.750Z</time>
</trkpt>
<trkpt lat="-26.9458083" lon="152.7719555">
<ele>100.213</ele>
<time>2016-07-17T01:05:28.786Z</time>
</trkpt>
<trkpt lat="-26.9462988" lon="152.7723269">
<ele>100.540</ele>
<time>2016-07-17T01:05:31.849Z</time>
</trkpt>
<trkpt lat="-26.9464625" lon="152.7724506">
<ele>100.858</ele>
<time>2016-07-17T01:05:32.886Z</time>
</trkpt>
<trkpt lat="-26.9470847" lon="152.7729563">
<ele>101.080</ele>
<time>2016-07-17T01:05:36.957Z</time>
</trkpt>
<trkpt lat="-26.9475128" lon="152.7733572">
<ele>101.194</ele>
<time>2016-07-17T01:05:39.997Z</time>
</trkpt>
<trkpt lat="-26.9479091" lon="152.7737576">
<ele>101.053</ele>
<time>2016-07-17T01:05:43.026Z</time>
</trkpt>
<trkpt lat="-26.9482738" lon="152.7741487">
<ele>100.405</ele>
<time>2016-07-17T01:05:45.988Z</time>
</trkpt>
<trkpt lat="-26.9484996" lon="152.7744302">
<ele>99.333</ele>
<time>2016-07-17T01:05:47.985Z</time>
</trkpt>
<trkpt lat="-26.9487231" lon="152.7747175">
<ele>98.357</ele>
<time>2016-07-17T01:05:50.033Z</time>
</trkpt>
<trkpt lat="-26.9490483" lon="152.7751421">
<ele>97.935</ele>
<time>2016-07-17T01:05:53.193Z</time>
</trkpt>
<trkpt lat="-26.9492593" lon="152.7753861">
<ele>98.351</ele>
<time>2016-07-17T01:05:55.370Z</time>
</trkpt>
<trkpt lat="-26.9494292" lon="152.7756049">
<ele>99.509</ele>
<time>2016-07-17T01:05:57.367Z</time>
</trkpt>
<trkpt lat="-26.9496813" lon="152.7759155">
<ele>103.049</ele>
<time>2016-07-17T01:06:00.269Z</time>
</trkpt>
<trkpt lat="-26.9498607" lon="152.7761332">
<ele>109.976</ele>
<time>2016-07-17T01:06:02.292Z</time>
</trkpt>
<trkpt lat="-26.9500655" lon="152.7763089">
<ele>116.924</ele>
<time>2016-07-17T01:06:04.279Z</time>
</trkpt>
<trkpt lat="-26.9504173" lon="152.7764987">
<ele>120.523</ele>
<time>2016-07-17T01:06:07.282Z</time>
</trkpt>
<trkpt lat="-26.9506655" lon="152.7765790">
<ele>121.430</ele>
<time>2016-07-17T01:06:09.331Z</time>
</trkpt>
<trkpt lat="-26.9510229" lon="152.7766860">
<ele>121.203</ele>
<time>2016-07-17T01:06:12.433Z</time>
</trkpt>
<trkpt lat="-26.9512457" lon="152.7767438">
<ele>121.201</ele>
<time>2016-07-17T01:06:14.396Z</time>
</trkpt>
<trkpt lat="-26.9515931" lon="152.7768678">
<ele>122.152</ele>
<time>2016-07-17T01:06:17.502Z</time>
</trkpt>
<trkpt lat="-26.9518255" lon="152.7769441">
<ele>123.587</ele>
<time>2016-07-17T01:06:19.586Z</time>
</trkpt>
<trkpt lat="-26.9521606" lon="152.7770603">
<ele>124.541</ele>
<time>2016-07-17T01:06:22.617Z</time>
</trkpt>
<trkpt lat="-26.9523897" lon="152.7771278">
<ele>123.680</ele>
<time>2016-07-17T01:06:24.654Z</time>
</trkpt>
<trkpt lat="-26.9527269" lon="152.7772357">
<ele>120.699</ele>
<time>2016-07-17T01:06:27.877Z</time>
</trkpt>
<trkpt lat="-26.9529253" lon="152.7773137">
<ele>117.823</ele>
<time>2016-07-17T01:06:29.947Z</time>
</trkpt>
<trkpt lat="-26.9531137" lon="152.7773635">
<ele>116.939</ele>
<time>2016-07-17T01:06:31.860Z</time>
</trkpt>
<trkpt lat="-26.9534008" lon="152.7774415">
<ele>117.380</ele>
<time>2016-07-17T01:06:34.859Z</time>
</trkpt>
<trkpt lat="-26.9536726" lon="152.7775482">
<ele>118.281</ele>
<time>2016-07-17T01:06:38.078Z</time>
</trkpt>
<trkpt lat="-26.9538512" lon="152.7776030">
<ele>119.401</ele>
<time>2016-07-17T01:06:40.419Z</time>
</trkpt>
<trkpt lat="-26.9540098" lon="152.7776539">
<ele>120.369</ele>
<time>2016-07-17T01:06:42.583Z</time>
</trkpt>
<trkpt lat="-26.9542363" lon="152.7777047">
<ele>120.766</ele>
<time>2016-07-17T01:06:45.354Z</time>
</trkpt>
<trkpt lat="-26.9543944" lon="152.7777526">
<ele>120.657</ele>
<time>2016-07-17T01:06:46.976Z</time>
</trkpt>
<trkpt lat="-26.9545812" lon="152.7778155">
<ele>120.389</ele>
<time>2016-07-17T01:06:48.772Z</time>
</trkpt>
<trkpt lat="-26.9549192" lon="152.7779318">
<ele>120.303</ele>
<time>2016-07-17T01:06:51.835Z</time>
</trkpt>
<trkpt lat="-26.9551521" lon="152.7780108">
<ele>120.730</ele>
<time>2016-07-17T01:06:54.035Z</time>
</trkpt>
<trkpt lat="-26.9554532" lon="152.7781143">
<ele>121.681</ele>
<time>2016-07-17T01:06:56.906Z</time>
</trkpt>
<trkpt lat="-26.9557982" lon="152.7782189">
<ele>122.653</ele>
<time>2016-07-17T01:06:59.866Z</time>
</trkpt>
<trkpt lat="-26.9560274" lon="152.7782853">
<ele>125.699</ele>
<time>2016-07-17T01:07:01.735Z</time>
</trkpt>
<trkpt lat="-26.9564127" lon="152.7784019">
<ele>132.330</ele>
<time>2016-07-17T01:07:04.730Z</time>
</trkpt>
<trkpt lat="-26.9568075" lon="152.7785132">
<ele>138.740</ele>
<time>2016-07-17T01:07:07.842Z</time>
</trkpt>
<trkpt lat="-26.9570605" lon="152.7785817">
<ele>141.279</ele>
<time>2016-07-17T01:07:09.917Z</time>
</trkpt>
<trkpt lat="-26.9572927" lon="152.7786457">
<ele>139.535</ele>
<time>2016-07-17T01:07:11.813Z</time>
</trkpt>
<trkpt lat="-26.9576722" lon="152.7787196">
<ele>134.591</ele>
<time>2016-07-17T01:07:14.643Z</time>
</trkpt>
<trkpt lat="-26.9580812" lon="152.7788479">
<ele>130.031</ele>
<time>2016-07-17T01:07:17.702Z</time>
</trkpt>
<trkpt lat="-26.9583584" lon="152.7789374">
<ele>128.376</ele>
<time>2016-07-17T01:07:19.810Z</time>
</trkpt>
<trkpt lat="-26.9587518" lon="152.7790515">
<ele>128.377</ele>
<time>2016-07-17T01:07:22.733Z</time>
</trkpt>
<trkpt lat="-26.9591608" lon="152.7791625">
<ele>128.380</ele>
<time>2016-07-17T01:07:25.582Z</time>
</trkpt>
<trkpt lat="-26.9594676" lon="152.7792421">
<ele>128.229</ele>
<time>2016-07-17T01:07:27.656Z</time>
</trkpt>
<trkpt lat="-26.9599039" lon="152.7793509">
<ele>128.300</ele>
<time>2016-07-17T01:07:30.596Z</time>
</trkpt>
<trkpt lat="-26.9602010" lon="152.7794514">
<ele>128.417</ele>
<time>2016-07-17T01:07:32.652Z</time>
</trkpt>
<trkpt lat="-26.9606233" lon="152.7795983">
<ele>128.329</ele>
<time>2016-07-17T01:07:35.680Z</time>
</trkpt>
<trkpt lat="-26.9608936" lon="152.7797081">
<ele>128.108</ele>
<time>2016-07-17T01:07:37.658Z</time>
</trkpt>
<trkpt lat="-26.9611522" lon="152.7798471">
<ele>127.901</ele>
<time>2016-07-17T01:07:39.582Z</time>
</trkpt>
<trkpt lat="-26.9615703" lon="152.7800802">
<ele>127.712</ele>
<time>2016-07-17T01:07:42.693Z</time>
</trkpt>
<trkpt lat="-26.9618272" lon="152.7802296">
<ele>127.531</ele>
<time>2016-07-17T01:07:44.670Z</time>
</trkpt>
<trkpt lat="-26.9620886" lon="152.7803846">
<ele>127.402</ele>
<time>2016-07-17T01:07:46.697Z</time>
</trkpt>
<trkpt lat="-26.9623460" lon="152.7805288">
<ele>127.120</ele>
<time>2016-07-17T01:07:48.608Z</time>
</trkpt>
<trkpt lat="-26.9626196" lon="152.7806765">
<ele>126.483</ele>
<time>2016-07-17T01:07:50.515Z</time>
</trkpt>
<trkpt lat="-26.9629182" lon="152.7808344">
<ele>125.751</ele>
<time>2016-07-17T01:07:52.492Z</time>
</trkpt>
<trkpt lat="-26.9632236" lon="152.7810027">
<ele>125.254</ele>
<time>2016-07-17T01:07:54.494Z</time>
</trkpt>
<trkpt lat="-26.9635321" lon="152.7811708">
<ele>124.987</ele>
<time>2016-07-17T01:07:56.484Z</time>
</trkpt>
<trkpt lat="-26.9636920" lon="152.7812510">
<ele>124.742</ele>
<time>2016-07-17T01:07:57.437Z</time>
</trkpt>
<trkpt lat="-26.9644112" lon="152.7816576">
<ele>124.400</ele>
<time>2016-07-17T01:08:01.728Z</time>
</trkpt>
<trkpt lat="-26.9647490" lon="152.7818560">
<ele>124.063</ele>
<time>2016-07-17T01:08:03.844Z</time>
</trkpt>
<trkpt lat="-26.9650527" lon="152.7820340">
<ele>123.813</ele>
<time>2016-07-17T01:08:05.789Z</time>
</trkpt>
<trkpt lat="-26.9655281" lon="152.7823271">
<ele>123.624</ele>
<time>2016-07-17T01:08:08.734Z</time>
</trkpt>
<trkpt lat="-26.9658444" lon="152.7825514">
<ele>123.489</ele>
<time>2016-07-17T01:08:10.687Z</time>
</trkpt>
<trkpt lat="-26.9661562" lon="152.7828001">
<ele>123.919</ele>
<time>2016-07-17T01:08:12.646Z</time>
</trkpt>
<trkpt lat="-26.9666243" lon="152.7832049">
<ele>125.583</ele>
<time>2016-07-17T01:08:15.611Z</time>
</trkpt>
<trkpt lat="-26.9670930" lon="152.7836266">
<ele>128.641</ele>
<time>2016-07-17T01:08:18.552Z</time>
</trkpt>
<trkpt lat="-26.9674192" lon="152.7838970">
<ele>132.376</ele>
<time>2016-07-17T01:08:20.484Z</time>
</trkpt>
<trkpt lat="-26.9677615" lon="152.7841951">
<ele>135.603</ele>
<time>2016-07-17T01:08:22.518Z</time>
</trkpt>
<trkpt lat="-26.9682703" lon="152.7846405">
<ele>138.088</ele>
<time>2016-07-17T01:08:25.522Z</time>
</trkpt>
<trkpt lat="-26.9687678" lon="152.7850986">
<ele>140.599</ele>
<time>2016-07-17T01:08:28.501Z</time>
</trkpt>
<trkpt lat="-26.9692786" lon="152.7855355">
<ele>143.022</ele>
<time>2016-07-17T01:08:31.482Z</time>
</trkpt>
<trkpt lat="-26.9696182" lon="152.7858346">
<ele>144.599</ele>
<time>2016-07-17T01:08:33.491Z</time>
</trkpt>
<trkpt lat="-26.9701114" lon="152.7862933">
<ele>145.190</ele>
<time>2016-07-17T01:08:36.480Z</time>
</trkpt>
<trkpt lat="-26.9706140" lon="152.7867340">
<ele>145.219</ele>
<time>2016-07-17T01:08:39.443Z</time>
</trkpt>
<trkpt lat="-26.9709595" lon="152.7870316">
<ele>145.008</ele>
<time>2016-07-17T01:08:41.459Z</time>
</trkpt>
<trkpt lat="-26.9714938" lon="152.7874237">
<ele>144.723</ele>
<time>2016-07-17T01:08:44.445Z</time>
</trkpt>
<trkpt lat="-26.9720181" lon="152.7878230">
<ele>144.246</ele>
<time>2016-07-17T01:08:47.434Z</time>
</trkpt>
<trkpt lat="-26.9723817" lon="152.7880768">
<ele>143.194</ele>
<time>2016-07-17T01:08:49.455Z</time>
</trkpt>
<trkpt lat="-26.9729205" lon="152.7884558">
<ele>141.448</ele>
<time>2016-07-17T01:08:52.472Z</time>
</trkpt>
<trkpt lat="-26.9732803" lon="152.7887047">
<ele>139.611</ele>
<time>2016-07-17T01:08:54.492Z</time>
</trkpt>
<trkpt lat="-26.9738173" lon="152.7890905">
<ele>138.444</ele>
<time>2016-07-17T01:08:57.539Z</time>
</trkpt>
<trkpt lat="-26.9743711" lon="152.7894511">
<ele>138.099</ele>
<time>2016-07-17T01:09:00.617Z</time>
</trkpt>
<trkpt lat="-26.9747301" lon="152.7897023">
<ele>137.970</ele>
<time>2016-07-17T01:09:02.716Z</time>
</trkpt>
<trkpt lat="-26.9752188" lon="152.7900494">
<ele>137.589</ele>
<time>2016-07-17T01:09:05.664Z</time>
</trkpt>
<trkpt lat="-26.9755508" lon="152.7902782">
<ele>137.142</ele>
<time>2016-07-17T01:09:07.611Z</time>
</trkpt>
<trkpt lat="-26.9760612" lon="152.7906325">
<ele>136.956</ele>
<time>2016-07-17T01:09:10.528Z</time>
</trkpt>
<trkpt lat="-26.9764161" lon="152.7908849">
<ele>137.177</ele>
<time>2016-07-17T01:09:12.568Z</time>
</trkpt>
<trkpt lat="-26.9769355" lon="152.7912475">
<ele>137.753</ele>
<time>2016-07-17T01:09:15.615Z</time>
</trkpt>
<trkpt lat="-26.9772655" lon="152.7914806">
<ele>138.552</ele>
<time>2016-07-17T01:09:17.550Z</time>
</trkpt>
<trkpt lat="-26.9777819" lon="152.7918431">
<ele>139.603</ele>
<time>2016-07-17T01:09:20.514Z</time>
</trkpt>
<trkpt lat="-26.9781419" lon="152.7921054">
<ele>140.704</ele>
<time>2016-07-17T01:09:22.640Z</time>
</trkpt>
<trkpt lat="-26.9786489" lon="152.7924585">
<ele>141.392</ele>
<time>2016-07-17T01:09:25.640Z</time>
</trkpt>
<trkpt lat="-26.9789913" lon="152.7927019">
<ele>141.319</ele>
<time>2016-07-17T01:09:27.661Z</time>
</trkpt>
<trkpt lat="-26.9794949" lon="152.7930553">
<ele>140.556</ele>
<time>2016-07-17T01:09:30.462Z</time>
</trkpt>
<trkpt lat="-26.9800517" lon="152.7934405">
<ele>139.891</ele>
<time>2016-07-17T01:09:33.219Z</time>
</trkpt>
<trkpt lat="-26.9804963" lon="152.7937227">
<ele>140.554</ele>
<time>2016-07-17T01:09:35.084Z</time>
</trkpt>
<trkpt lat="-26.9812841" lon="152.7942034">
<ele>142.927</ele>
<time>2016-07-17T01:09:38.154Z</time>
</trkpt>
<trkpt lat="-26.9818425" lon="152.7945275">
<ele>146.680</ele>
<time>2016-07-17T01:09:40.314Z</time>
</trkpt>
<trkpt lat="-26.9823583" lon="152.7947776">
<ele>150.822</ele>
<time>2016-07-17T01:09:42.427Z</time>
</trkpt>
<trkpt lat="-26.9830752" lon="152.7950661">
<ele>153.064</ele>
<time>2016-07-17T01:09:45.625Z</time>
</trkpt>
<trkpt lat="-26.9834922" lon="152.7952311">
<ele>151.658</ele>
<time>2016-07-17T01:09:47.691Z</time>
</trkpt>
<trkpt lat="-26.9839058" lon="152.7953833">
<ele>148.024</ele>
<time>2016-07-17T01:09:49.837Z</time>
</trkpt>
<trkpt lat="-26.9844484" lon="152.7956559">
<ele>144.863</ele>
<time>2016-07-17T01:09:53.178Z</time>
</trkpt>
<trkpt lat="-26.9848895" lon="152.7959205">
<ele>143.221</ele>
<time>2016-07-17T01:09:56.375Z</time>
</trkpt>
<trkpt lat="-26.9852791" lon="152.7961737">
<ele>142.213</ele>
<time>2016-07-17T01:09:59.461Z</time>
</trkpt>
<trkpt lat="-26.9855235" lon="152.7963614">
<ele>141.085</ele>
<time>2016-07-17T01:10:01.554Z</time>
</trkpt>
<trkpt lat="-26.9858880" lon="152.7966472">
<ele>140.197</ele>
<time>2016-07-17T01:10:04.774Z</time>
</trkpt>
<trkpt lat="-26.9861022" lon="152.7968322">
<ele>139.939</ele>
<time>2016-07-17T01:10:06.620Z</time>
</trkpt>
<trkpt lat="-26.9863162" lon="152.7970395">
<ele>140.045</ele>
<time>2016-07-17T01:10:08.462Z</time>
</trkpt>
<trkpt lat="-26.9865435" lon="152.7972720">
<ele>140.286</ele>
<time>2016-07-17T01:10:10.345Z</time>
</trkpt>
<trkpt lat="-26.9867775" lon="152.7975119">
<ele>140.653</ele>
<time>2016-07-17T01:10:12.243Z</time>
</trkpt>
<trkpt lat="-26.9871305" lon="152.7979086">
<ele>141.192</ele>
<time>2016-07-17T01:10:15.190Z</time>
</trkpt>
<trkpt lat="-26.9874904" lon="152.7983065">
<ele>142.011</ele>
<time>2016-07-17T01:10:18.310Z</time>
</trkpt>
<trkpt lat="-26.9877184" lon="152.7985548">
<ele>142.980</ele>
<time>2016-07-17T01:10:20.247Z</time>
</trkpt>
<trkpt lat="-26.9880634" lon="152.7989491">
<ele>143.387</ele>
<time>2016-07-17T01:10:23.173Z</time>
</trkpt>
<trkpt lat="-26.9883022" lon="152.7992192">
<ele>142.892</ele>
<time>2016-07-17T01:10:25.238Z</time>
</trkpt>
<trkpt lat="-26.9885309" lon="152.7994789">
<ele>142.274</ele>
<time>2016-07-17T01:10:27.247Z</time>
</trkpt>
<trkpt lat="-26.9888521" lon="152.7998887">
<ele>142.237</ele>
<time>2016-07-17T01:10:30.242Z</time>
</trkpt>
<trkpt lat="-26.9890490" lon="152.8001647">
<ele>142.378</ele>
<time>2016-07-17T01:10:32.175Z</time>
</trkpt>
<trkpt lat="-26.9892380" lon="152.8004661">
<ele>142.197</ele>
<time>2016-07-17T01:10:34.210Z</time>
</trkpt>
<trkpt lat="-26.9894217" lon="152.8007612">
<ele>141.860</ele>
<time>2016-07-17T01:10:36.236Z</time>
</trkpt>
<trkpt lat="-26.9897007" lon="152.8011835">
<ele>141.566</ele>
<time>2016-07-17T01:10:39.023Z</time>
</trkpt>
<trkpt lat="-26.9899220" lon="152.8014838">
<ele>141.055</ele>
<time>2016-07-17T01:10:41.035Z</time>
</trkpt>
<trkpt lat="-26.9902754" lon="152.8019128">
<ele>140.159</ele>
<time>2016-07-17T01:10:44.165Z</time>
</trkpt>
<trkpt lat="-26.9905144" lon="152.8021756">
<ele>139.325</ele>
<time>2016-07-17T01:10:46.254Z</time>
</trkpt>
<trkpt lat="-26.9908429" lon="152.8025505">
<ele>139.068</ele>
<time>2016-07-17T01:10:49.195Z</time>
</trkpt>
<trkpt lat="-26.9910609" lon="152.8028161">
<ele>139.573</ele>
<time>2016-07-17T01:10:51.128Z</time>
</trkpt>
<trkpt lat="-26.9912863" lon="152.8030842">
<ele>140.873</ele>
<time>2016-07-17T01:10:53.015Z</time>
</trkpt>
<trkpt lat="-26.9915181" lon="152.8033785">
<ele>142.555</ele>
<time>2016-07-17T01:10:54.981Z</time>
</trkpt>
<trkpt lat="-26.9918533" lon="152.8038600">
<ele>144.145</ele>
<time>2016-07-17T01:10:57.823Z</time>
</trkpt>
<trkpt lat="-26.9920735" lon="152.8042106">
<ele>145.511</ele>
<time>2016-07-17T01:10:59.706Z</time>
</trkpt>
<trkpt lat="-26.9922873" lon="152.8046118">
<ele>146.827</ele>
<time>2016-07-17T01:11:01.688Z</time>
</trkpt>
<trkpt lat="-26.9924714" lon="152.8050356">
<ele>148.450</ele>
<time>2016-07-17T01:11:03.645Z</time>
</trkpt>
<trkpt lat="-26.9927205" lon="152.8057195">
<ele>150.281</ele>
<time>2016-07-17T01:11:06.590Z</time>
</trkpt>
<trkpt lat="-26.9928326" lon="152.8062076">
<ele>152.173</ele>
<time>2016-07-17T01:11:08.551Z</time>
</trkpt>
<trkpt lat="-26.9929449" lon="152.8069700">
<ele>154.159</ele>
<time>2016-07-17T01:11:11.532Z</time>
</trkpt>
<trkpt lat="-26.9929813" lon="152.8077499">
<ele>155.644</ele>
<time>2016-07-17T01:11:14.594Z</time>
</trkpt>
<trkpt lat="-26.9929332" lon="152.8084956">
<ele>156.189</ele>
<time>2016-07-17T01:11:17.610Z</time>
</trkpt>
<trkpt lat="-26.9928697" lon="152.8089925">
<ele>155.814</ele>
<time>2016-07-17T01:11:19.661Z</time>
</trkpt>
<trkpt lat="-26.9927257" lon="152.8097065">
<ele>154.729</ele>
<time>2016-07-17T01:11:22.669Z</time>
</trkpt>
<trkpt lat="-26.9926364" lon="152.8104218">
<ele>153.829</ele>
<time>2016-07-17T01:11:25.612Z</time>
</trkpt>
<trkpt lat="-26.9926405" lon="152.8109171">
<ele>153.757</ele>
<time>2016-07-17T01:11:27.651Z</time>
</trkpt>
<trkpt lat="-26.9926852" lon="152.8113914">
<ele>154.060</ele>
<time>2016-07-17T01:11:29.658Z</time>
</trkpt>
<trkpt lat="-26.9927229" lon="152.8118643">
<ele>154.095</ele>
<time>2016-07-17T01:11:31.682Z</time>
</trkpt>
<trkpt lat="-26.9925342" lon="152.8125823">
<ele>153.444</ele>
<time>2016-07-17T01:11:35.005Z</time>
</trkpt>
<trkpt lat="-26.9923303" lon="152.8129825">
<ele>151.917</ele>
<time>2016-07-17T01:11:37.138Z</time>
</trkpt>
<trkpt lat="-26.9919940" lon="152.8134774">
<ele>150.012</ele>
<time>2016-07-17T01:11:40.142Z</time>
</trkpt>
<trkpt lat="-26.9917936" lon="152.8138139">
<ele>148.414</ele>
<time>2016-07-17T01:11:42.091Z</time>
</trkpt>
<trkpt lat="-26.9916697" lon="152.8141803">
<ele>147.330</ele>
<time>2016-07-17T01:11:43.960Z</time>
</trkpt>
<trkpt lat="-26.9916199" lon="152.8146056">
<ele>146.774</ele>
<time>2016-07-17T01:11:46.011Z</time>
</trkpt>
<trkpt lat="-26.9916447" lon="152.8150216">
<ele>146.665</ele>
<time>2016-07-17T01:11:47.998Z</time>
</trkpt>
<trkpt lat="-26.9917445" lon="152.8154256">
<ele>146.400</ele>
<time>2016-07-17T01:11:49.943Z</time>
</trkpt>
<trkpt lat="-26.9919657" lon="152.8158239">
<ele>145.134</ele>
<time>2016-07-17T01:11:52.083Z</time>
</trkpt>
<trkpt lat="-26.9922746" lon="152.8160976">
<ele>142.730</ele>
<time>2016-07-17T01:11:54.082Z</time>
</trkpt>
<trkpt lat="-26.9926192" lon="152.8163127">
<ele>139.558</ele>
<time>2016-07-17T01:11:56.073Z</time>
</trkpt>
<trkpt lat="-26.9931860" lon="152.8165373">
<ele>135.892</ele>
<time>2016-07-17T01:11:59.024Z</time>
</trkpt>
<trkpt lat="-26.9937519" lon="152.8167579">
<ele>131.545</ele>
<time>2016-07-17T01:12:01.874Z</time>
</trkpt>
<trkpt lat="-26.9941427" lon="152.8169678">
<ele>126.264</ele>
<time>2016-07-17T01:12:03.922Z</time>
</trkpt>
<trkpt lat="-26.9946939" lon="152.8173315">
<ele>120.674</ele>
<time>2016-07-17T01:12:06.939Z</time>
</trkpt>
<trkpt lat="-26.9951721" lon="152.8178168">
<ele>115.329</ele>
<time>2016-07-17T01:12:09.779Z</time>
</trkpt>
<trkpt lat="-26.9955609" lon="152.8185027">
<ele>109.817</ele>
<time>2016-07-17T01:12:12.821Z</time>
</trkpt>
<trkpt lat="-26.9957449" lon="152.8189947">
<ele>104.765</ele>
<time>2016-07-17T01:12:14.860Z</time>
</trkpt>
<trkpt lat="-26.9959991" lon="152.8196912">
<ele>101.184</ele>
<time>2016-07-17T01:12:17.742Z</time>
</trkpt>
<trkpt lat="-26.9963720" lon="152.8203592">
<ele>98.863</ele>
<time>2016-07-17T01:12:20.697Z</time>
</trkpt>
<trkpt lat="-26.9968243" lon="152.8209885">
<ele>97.405</ele>
<time>2016-07-17T01:12:23.785Z</time>
</trkpt>
<trkpt lat="-26.9971451" lon="152.8213864">
<ele>96.794</ele>
<time>2016-07-17T01:12:25.849Z</time>
</trkpt>
<trkpt lat="-26.9975760" lon="152.8219958">
<ele>96.533</ele>
<time>2016-07-17T01:12:28.811Z</time>
</trkpt>
<trkpt lat="-26.9978904" lon="152.8224031">
<ele>94.672</ele>
<time>2016-07-17T01:12:30.855Z</time>
</trkpt>
<trkpt lat="-26.9981854" lon="152.8228203">
<ele>89.766</ele>
<time>2016-07-17T01:12:32.849Z</time>
</trkpt>
<trkpt lat="-26.9984920" lon="152.8232242">
<ele>83.698</ele>
<time>2016-07-17T01:12:34.814Z</time>
</trkpt>
<trkpt lat="-26.9989165" lon="152.8238610">
<ele>78.938</ele>
<time>2016-07-17T01:12:37.767Z</time>
</trkpt>
<trkpt lat="-26.9992230" lon="152.8245797">
<ele>75.705</ele>
<time>2016-07-17T01:12:40.743Z</time>
</trkpt>
<trkpt lat="-26.9994285" lon="152.8253582">
<ele>73.756</ele>
<time>2016-07-17T01:12:43.805Z</time>
</trkpt>
<trkpt lat="-26.9995069" lon="152.8258727">
<ele>74.112</ele>
<time>2016-07-17T01:12:45.800Z</time>
</trkpt>
<trkpt lat="-26.9995085" lon="152.8266455">
<ele>76.988</ele>
<time>2016-07-17T01:12:48.824Z</time>
</trkpt>
<trkpt lat="-26.9994651" lon="152.8273980">
<ele>80.167</ele>
<time>2016-07-17T01:12:51.878Z</time>
</trkpt>
<trkpt lat="-26.9994914" lon="152.8278948">
<ele>81.519</ele>
<time>2016-07-17T01:12:53.931Z</time>
</trkpt>
<trkpt lat="-26.9995643" lon="152.8283780">
<ele>80.908</ele>
<time>2016-07-17T01:12:55.953Z</time>
</trkpt>
<trkpt lat="-26.9998572" lon="152.8290589">
<ele>78.883</ele>
<time>2016-07-17T01:12:59.024Z</time>
</trkpt>
<trkpt lat="-27.0001123" lon="152.8294528">
<ele>76.139</ele>
<time>2016-07-17T01:13:00.987Z</time>
</trkpt>
<trkpt lat="-27.0006515" lon="152.8299257">
<ele>73.256</ele>
<time>2016-07-17T01:13:03.982Z</time>
</trkpt>
<trkpt lat="-27.0010731" lon="152.8301661">
<ele>70.340</ele>
<time>2016-07-17T01:13:06.030Z</time>
</trkpt>
<trkpt lat="-27.0015096" lon="152.8303635">
<ele>67.525</ele>
<time>2016-07-17T01:13:08.079Z</time>
</trkpt>
<trkpt lat="-27.0019451" lon="152.8305899">
<ele>65.184</ele>
<time>2016-07-17T01:13:10.214Z</time>
</trkpt>
<trkpt lat="-27.0023677" lon="152.8307995">
<ele>63.187</ele>
<time>2016-07-17T01:13:12.298Z</time>
</trkpt>
<trkpt lat="-27.0029707" lon="152.8310703">
<ele>61.743</ele>
<time>2016-07-17T01:13:15.238Z</time>
</trkpt>
<trkpt lat="-27.0033805" lon="152.8312698">
<ele>61.910</ele>
<time>2016-07-17T01:13:17.290Z</time>
</trkpt>
<trkpt lat="-27.0037871" lon="152.8314762">
<ele>63.536</ele>
<time>2016-07-17T01:13:19.394Z</time>
</trkpt>
<trkpt lat="-27.0041799" lon="152.8316463">
<ele>65.092</ele>
<time>2016-07-17T01:13:21.410Z</time>
</trkpt>
<trkpt lat="-27.0047585" lon="152.8319110">
<ele>65.283</ele>
<time>2016-07-17T01:13:24.321Z</time>
</trkpt>
<trkpt lat="-27.0051480" lon="152.8321074">
<ele>63.852</ele>
<time>2016-07-17T01:13:26.299Z</time>
</trkpt>
<trkpt lat="-27.0055078" lon="152.8323889">
<ele>61.579</ele>
<time>2016-07-17T01:13:28.369Z</time>
</trkpt>
<trkpt lat="-27.0058139" lon="152.8327443">
<ele>59.638</ele>
<time>2016-07-17T01:13:30.485Z</time>
</trkpt>
<trkpt lat="-27.0060539" lon="152.8331219">
<ele>58.594</ele>
<time>2016-07-17T01:13:32.468Z</time>
</trkpt>
<trkpt lat="-27.0063083" lon="152.8337504">
<ele>58.058</ele>
<time>2016-07-17T01:13:35.365Z</time>
</trkpt>
<trkpt lat="-27.0063944" lon="152.8342272">
<ele>57.467</ele>
<time>2016-07-17T01:13:37.405Z</time>
</trkpt>
<trkpt lat="-27.0064420" lon="152.8349379">
<ele>57.170</ele>
<time>2016-07-17T01:13:40.402Z</time>
</trkpt>
<trkpt lat="-27.0064869" lon="152.8354218">
<ele>57.557</ele>
<time>2016-07-17T01:13:42.432Z</time>
</trkpt>
<trkpt lat="-27.0065683" lon="152.8358889">
<ele>57.979</ele>
<time>2016-07-17T01:13:44.420Z</time>
</trkpt>
<trkpt lat="-27.0067995" lon="152.8365662">
<ele>57.832</ele>
<time>2016-07-17T01:13:47.485Z</time>
</trkpt>
<trkpt lat="-27.0071529" lon="152.8371374">
<ele>58.496</ele>
<time>2016-07-17T01:13:50.390Z</time>
</trkpt>
<trkpt lat="-27.0076237" lon="152.8376581">
<ele>61.372</ele>
<time>2016-07-17T01:13:53.435Z</time>
</trkpt>
<trkpt lat="-27.0080835" lon="152.8381441">
<ele>65.387</ele>
<time>2016-07-17T01:13:56.342Z</time>
</trkpt>
<trkpt lat="-27.0083879" lon="152.8384775">
<ele>68.581</ele>
<time>2016-07-17T01:13:58.285Z</time>
</trkpt>
<trkpt lat="-27.0087031" lon="152.8388287">
<ele>70.216</ele>
<time>2016-07-17T01:14:00.324Z</time>
</trkpt>
<trkpt lat="-27.0091778" lon="152.8393304">
<ele>70.565</ele>
<time>2016-07-17T01:14:03.432Z</time>
</trkpt>
<trkpt lat="-27.0094640" lon="152.8396481">
<ele>70.524</ele>
<time>2016-07-17T01:14:05.378Z</time>
</trkpt>
<trkpt lat="-27.0098893" lon="152.8401151">
<ele>70.957</ele>
<time>2016-07-17T01:14:08.262Z</time>
</trkpt>
<trkpt lat="-27.0103912" lon="152.8405385">
<ele>72.120</ele>
<time>2016-07-17T01:14:11.243Z</time>
</trkpt>
<trkpt lat="-27.0107495" lon="152.8408133">
<ele>73.457</ele>
<time>2016-07-17T01:14:13.240Z</time>
</trkpt>
<trkpt lat="-27.0111423" lon="152.8410586">
<ele>74.335</ele>
<time>2016-07-17T01:14:15.288Z</time>
</trkpt>
<trkpt lat="-27.0117596" lon="152.8413387">
<ele>74.670</ele>
<time>2016-07-17T01:14:18.400Z</time>
</trkpt>
<trkpt lat="-27.0121725" lon="152.8414632">
<ele>74.710</ele>
<time>2016-07-17T01:14:20.470Z</time>
</trkpt>
<trkpt lat="-27.0125660" lon="152.8415803">
<ele>73.930</ele>
<time>2016-07-17T01:14:22.431Z</time>
</trkpt>
<trkpt lat="-27.0129598" lon="152.8416837">
<ele>71.828</ele>
<time>2016-07-17T01:14:24.380Z</time>
</trkpt>
<trkpt lat="-27.0135937" lon="152.8418131">
<ele>69.349</ele>
<time>2016-07-17T01:14:27.547Z</time>
</trkpt>
<trkpt lat="-27.0139938" lon="152.8418970">
<ele>67.710</ele>
<time>2016-07-17T01:14:29.580Z</time>
</trkpt>
<trkpt lat="-27.0143927" lon="152.8419789">
<ele>67.025</ele>
<time>2016-07-17T01:14:31.638Z</time>
</trkpt>
<trkpt lat="-27.0147867" lon="152.8420561">
<ele>66.774</ele>
<time>2016-07-17T01:14:33.677Z</time>
</trkpt>
<trkpt lat="-27.0153568" lon="152.8422320">
<ele>66.465</ele>
<time>2016-07-17T01:14:36.741Z</time>
</trkpt>
<trkpt lat="-27.0157192" lon="152.8423694">
<ele>66.043</ele>
<time>2016-07-17T01:14:38.768Z</time>
</trkpt>
<trkpt lat="-27.0162484" lon="152.8426241">
<ele>65.418</ele>
<time>2016-07-17T01:14:41.894Z</time>
</trkpt>
<trkpt lat="-27.0167402" lon="152.8428915">
<ele>64.076</ele>
<time>2016-07-17T01:14:44.955Z</time>
</trkpt>
<trkpt lat="-27.0170634" lon="152.8430863">
<ele>62.091</ele>
<time>2016-07-17T01:14:47.052Z</time>
</trkpt>
<trkpt lat="-27.0174901" lon="152.8434098">
<ele>60.436</ele>
<time>2016-07-17T01:14:50.054Z</time>
</trkpt>
<trkpt lat="-27.0179014" lon="152.8437564">
<ele>59.696</ele>
<time>2016-07-17T01:14:53.125Z</time>
</trkpt>
<trkpt lat="-27.0182774" lon="152.8441075">
<ele>59.484</ele>
<time>2016-07-17T01:14:56.039Z</time>
</trkpt>
<trkpt lat="-27.0186338" lon="152.8445022">
<ele>59.305</ele>
<time>2016-07-17T01:14:58.962Z</time>
</trkpt>
<trkpt lat="-27.0188614" lon="152.8447866">
<ele>58.886</ele>
<time>2016-07-17T01:15:00.940Z</time>
</trkpt>
<trkpt lat="-27.0191886" lon="152.8452383">
<ele>58.275</ele>
<time>2016-07-17T01:15:03.967Z</time>
</trkpt>
<trkpt lat="-27.0193949" lon="152.8455534">
<ele>57.723</ele>
<time>2016-07-17T01:15:05.918Z</time>
</trkpt>
<trkpt lat="-27.0195993" lon="152.8458575">
<ele>57.298</ele>
<time>2016-07-17T01:15:07.636Z</time>
</trkpt>
<trkpt lat="-27.0199765" lon="152.8463622">
<ele>56.902</ele>
<time>2016-07-17T01:15:10.201Z</time>
</trkpt>
<trkpt lat="-27.0203028" lon="152.8467225">
<ele>56.849</ele>
<time>2016-07-17T01:15:12.030Z</time>
</trkpt>
<trkpt lat="-27.0206732" lon="152.8471194">
<ele>58.355</ele>
<time>2016-07-17T01:15:14.031Z</time>
</trkpt>
<trkpt lat="-27.0213053" lon="152.8476210">
<ele>61.610</ele>
<time>2016-07-17T01:15:17.272Z</time>
</trkpt>
<trkpt lat="-27.0217309" lon="152.8478848">
<ele>64.699</ele>
<time>2016-07-17T01:15:19.473Z</time>
</trkpt>
<trkpt lat="-27.0222945" lon="152.8482372">
<ele>66.117</ele>
<time>2016-07-17T01:15:22.686Z</time>
</trkpt>
<trkpt lat="-27.0226446" lon="152.8484353">
<ele>65.378</ele>
<time>2016-07-17T01:15:24.709Z</time>
</trkpt>
<trkpt lat="-27.0231734" lon="152.8487297">
<ele>62.659</ele>
<time>2016-07-17T01:15:27.875Z</time>
</trkpt>
<trkpt lat="-27.0233426" lon="152.8488280">
<ele>59.739</ele>
<time>2016-07-17T01:15:28.906Z</time>
</trkpt>
<trkpt lat="-27.0239603" lon="152.8492900">
<ele>58.182</ele>
<time>2016-07-17T01:15:32.930Z</time>
</trkpt>
<trkpt lat="-27.0242474" lon="152.8495556">
<ele>57.643</ele>
<time>2016-07-17T01:15:34.938Z</time>
</trkpt>
<trkpt lat="-27.0246170" lon="152.8499935">
<ele>57.257</ele>
<time>2016-07-17T01:15:37.791Z</time>
</trkpt>
<trkpt lat="-27.0249769" lon="152.8504809">
<ele>56.816</ele>
<time>2016-07-17T01:15:40.675Z</time>
</trkpt>
<trkpt lat="-27.0252093" lon="152.8508159">
<ele>56.388</ele>
<time>2016-07-17T01:15:42.573Z</time>
</trkpt>
<trkpt lat="-27.0255767" lon="152.8513462">
<ele>55.917</ele>
<time>2016-07-17T01:15:45.540Z</time>
</trkpt>
<trkpt lat="-27.0260013" lon="152.8518410">
<ele>55.537</ele>
<time>2016-07-17T01:15:48.536Z</time>
</trkpt>
<trkpt lat="-27.0264892" lon="152.8522872">
<ele>55.152</ele>
<time>2016-07-17T01:15:51.366Z</time>
</trkpt>
<trkpt lat="-27.0270693" lon="152.8526776">
<ele>54.541</ele>
<time>2016-07-17T01:15:54.022Z</time>
</trkpt>
<trkpt lat="-27.0278018" lon="152.8530639">
<ele>54.753</ele>
<time>2016-07-17T01:15:56.819Z</time>
</trkpt>
<trkpt lat="-27.0283836" lon="152.8532540">
<ele>57.516</ele>
<time>2016-07-17T01:15:58.818Z</time>
</trkpt>
<trkpt lat="-27.0289831" lon="152.8533714">
<ele>62.452</ele>
<time>2016-07-17T01:16:00.774Z</time>
</trkpt>
<trkpt lat="-27.0296081" lon="152.8534318">
<ele>67.540</ele>
<time>2016-07-17T01:16:02.759Z</time>
</trkpt>
<trkpt lat="-27.0305595" lon="152.8535893">
<ele>71.882</ele>
<time>2016-07-17T01:16:05.845Z</time>
</trkpt>
<trkpt lat="-27.0314519" lon="152.8539047">
<ele>75.254</ele>
<time>2016-07-17T01:16:09.108Z</time>
</trkpt>
<trkpt lat="-27.0321842" lon="152.8542982">
<ele>76.804</ele>
<time>2016-07-17T01:16:12.238Z</time>
</trkpt>
<trkpt lat="-27.0326392" lon="152.8545790">
<ele>75.678</ele>
<time>2016-07-17T01:16:14.458Z</time>
</trkpt>
<trkpt lat="-27.0330522" lon="152.8548260">
<ele>72.363</ele>
<time>2016-07-17T01:16:16.584Z</time>
</trkpt>
<trkpt lat="-27.0336220" lon="152.8551625">
<ele>68.842</ele>
<time>2016-07-17T01:16:19.913Z</time>
</trkpt>
<trkpt lat="-27.0339771" lon="152.8553633">
<ele>65.382</ele>
<time>2016-07-17T01:16:22.220Z</time>
</trkpt>
<trkpt lat="-27.0344411" lon="152.8556188">
<ele>60.770</ele>
<time>2016-07-17T01:16:25.548Z</time>
</trkpt>
<trkpt lat="-27.0348461" lon="152.8558542">
<ele>55.777</ele>
<time>2016-07-17T01:16:28.803Z</time>
</trkpt>
<trkpt lat="-27.0351054" lon="152.8560094">
<ele>52.014</ele>
<time>2016-07-17T01:16:31.088Z</time>
</trkpt>
<trkpt lat="-27.0353569" lon="152.8561733">
<ele>49.853</ele>
<time>2016-07-17T01:16:33.590Z</time>
</trkpt>
<trkpt lat="-27.0356553" lon="152.8564054">
<ele>49.148</ele>
<time>2016-07-17T01:16:36.705Z</time>
</trkpt>
<trkpt lat="-27.0359272" lon="152.8566337">
<ele>49.371</ele>
<time>2016-07-17T01:16:39.648Z</time>
</trkpt>
<trkpt lat="-27.0361080" lon="152.8568001">
<ele>50.007</ele>
<time>2016-07-17T01:16:41.796Z</time>
</trkpt>
<trkpt lat="-27.0363009" lon="152.8569814">
<ele>50.702</ele>
<time>2016-07-17T01:16:44.168Z</time>
</trkpt>
<trkpt lat="-27.0365408" lon="152.8572203">
<ele>51.330</ele>
<time>2016-07-17T01:16:46.978Z</time>
</trkpt>
<trkpt lat="-27.0366962" lon="152.8573539">
<ele>51.910</ele>
<time>2016-07-17T01:16:48.531Z</time>
</trkpt>
<trkpt lat="-27.0369578" lon="152.8576079">
<ele>52.408</ele>
<time>2016-07-17T01:16:51.130Z</time>
</trkpt>
<trkpt lat="-27.0371569" lon="152.8578010">
<ele>52.962</ele>
<time>2016-07-17T01:16:53.066Z</time>
</trkpt>
<trkpt lat="-27.0373653" lon="152.8579884">
<ele>53.908</ele>
<time>2016-07-17T01:16:54.987Z</time>
</trkpt>
<trkpt lat="-27.0375651" lon="152.8581757">
<ele>55.212</ele>
<time>2016-07-17T01:16:56.824Z</time>
</trkpt>
<trkpt lat="-27.0376794" lon="152.8582697">
<ele>56.688</ele>
<time>2016-07-17T01:16:57.811Z</time>
</trkpt>
<trkpt lat="-27.0381455" lon="152.8586681">
<ele>58.080</ele>
<time>2016-07-17T01:17:01.963Z</time>
</trkpt>
<trkpt lat="-27.0383674" lon="152.8588441">
<ele>59.061</ele>
<time>2016-07-17T01:17:03.992Z</time>
</trkpt>
<trkpt lat="-27.0387105" lon="152.8591206">
<ele>59.665</ele>
<time>2016-07-17T01:17:07.404Z</time>
</trkpt>
<trkpt lat="-27.0389237" lon="152.8592814">
<ele>60.167</ele>
<time>2016-07-17T01:17:09.611Z</time>
</trkpt>
<trkpt lat="-27.0391180" lon="152.8594229">
<ele>60.574</ele>
<time>2016-07-17T01:17:11.833Z</time>
</trkpt>
<trkpt lat="-27.0394000" lon="152.8596673">
<ele>60.793</ele>
<time>2016-07-17T01:17:15.677Z</time>
</trkpt>
<trkpt lat="-27.0395617" lon="152.8598235">
<ele>60.822</ele>
<time>2016-07-17T01:17:18.237Z</time>
</trkpt>
<trkpt lat="-27.0396877" lon="152.8599710">
<ele>60.748</ele>
<time>2016-07-17T01:17:20.689Z</time>
</trkpt>
<trkpt lat="-27.0398017" lon="152.8601391">
<ele>60.558</ele>
<time>2016-07-17T01:17:23.467Z</time>
</trkpt>
<trkpt lat="-27.0399325" lon="152.8603763">
<ele>60.148</ele>
<time>2016-07-17T01:17:27.909Z</time>
</trkpt>
<trkpt lat="-27.0400672" lon="152.8604403">
<ele>59.443</ele>
<time>2016-07-17T01:17:30.085Z</time>
</trkpt>
<trkpt lat="-27.0402336" lon="152.8604212">
<ele>58.607</ele>
<time>2016-07-17T01:17:32.112Z</time>
</trkpt>
<trkpt lat="-27.0403970" lon="152.8604644">
<ele>57.992</ele>
<time>2016-07-17T01:17:34.035Z</time>
</trkpt>
<trkpt lat="-27.0404729" lon="152.8605345">
<ele>57.734</ele>
<time>2016-07-17T01:17:35.131Z</time>
</trkpt>
<trkpt lat="-27.0405348" lon="152.8606621">
<ele>57.665</ele>
<time>2016-07-17T01:17:36.500Z</time>
</trkpt>
<trkpt lat="-27.0406566" lon="152.8608141">
<ele>57.889</ele>
<time>2016-07-17T01:17:38.262Z</time>
</trkpt>
<trkpt lat="-27.0407818" lon="152.8609385">
<ele>58.784</ele>
<time>2016-07-17T01:17:39.761Z</time>
</trkpt>
<trkpt lat="-27.0410306" lon="152.8610740">
<ele>60.455</ele>
<time>2016-07-17T01:17:42.070Z</time>
</trkpt>
<trkpt lat="-27.0413472" lon="152.8611154">
<ele>62.609</ele>
<time>2016-07-17T01:17:44.554Z</time>
</trkpt>
<trkpt lat="-27.0417211" lon="152.8611661">
<ele>65.202</ele>
<time>2016-07-17T01:17:47.345Z</time>
</trkpt>
<trkpt lat="-27.0419803" lon="152.8612069">
<ele>68.380</ele>
<time>2016-07-17T01:17:49.145Z</time>
</trkpt>
<trkpt lat="-27.0423957" lon="152.8612833">
<ele>71.720</ele>
<time>2016-07-17T01:17:51.820Z</time>
</trkpt>
<trkpt lat="-27.0427943" lon="152.8615435">
<ele>74.261</ele>
<time>2016-07-17T01:17:54.519Z</time>
</trkpt>
<trkpt lat="-27.0431754" lon="152.8619108">
<ele>75.447</ele>
<time>2016-07-17T01:17:57.255Z</time>
</trkpt>
<trkpt lat="-27.0434488" lon="152.8621890">
<ele>74.891</ele>
<time>2016-07-17T01:17:59.236Z</time>
</trkpt>
<trkpt lat="-27.0437992" lon="152.8626673">
<ele>72.624</ele>
<time>2016-07-17T01:18:02.202Z</time>
</trkpt>
<trkpt lat="-27.0441116" lon="152.8631817">
<ele>69.844</ele>
<time>2016-07-17T01:18:05.217Z</time>
</trkpt>
<trkpt lat="-27.0444210" lon="152.8636579">
<ele>67.869</ele>
<time>2016-07-17T01:18:08.079Z</time>
</trkpt>
<trkpt lat="-27.0447280" lon="152.8641812">
<ele>66.756</ele>
<time>2016-07-17T01:18:11.085Z</time>
</trkpt>
<trkpt lat="-27.0449075" lon="152.8645414">
<ele>66.013</ele>
<time>2016-07-17T01:18:12.909Z</time>
</trkpt>
<trkpt lat="-27.0451220" lon="152.8648896">
<ele>65.210</ele>
<time>2016-07-17T01:18:14.721Z</time>
</trkpt>
<trkpt lat="-27.0455599" lon="152.8653959">
<ele>64.301</ele>
<time>2016-07-17T01:18:17.613Z</time>
</trkpt>
<trkpt lat="-27.0458922" lon="152.8657430">
<ele>64.376</ele>
<time>2016-07-17T01:18:19.733Z</time>
</trkpt>
<trkpt lat="-27.0463706" lon="152.8662444">
<ele>66.109</ele>
<time>2016-07-17T01:18:22.948Z</time>
</trkpt>
<trkpt lat="-27.0466723" lon="152.8665549">
<ele>68.176</ele>
<time>2016-07-17T01:18:25.020Z</time>
</trkpt>
<trkpt lat="-27.0470883" lon="152.8669962">
<ele>68.925</ele>
<time>2016-07-17T01:18:28.001Z</time>
</trkpt>
<trkpt lat="-27.0473673" lon="152.8672909">
<ele>67.651</ele>
<time>2016-07-17T01:18:29.997Z</time>
</trkpt>
<trkpt lat="-27.0477925" lon="152.8677237">
<ele>64.759</ele>
<time>2016-07-17T01:18:32.941Z</time>
</trkpt>
<trkpt lat="-27.0481670" lon="152.8682152">
<ele>61.876</ele>
<time>2016-07-17T01:18:35.855Z</time>
</trkpt>
<trkpt lat="-27.0484975" lon="152.8688032">
<ele>60.204</ele>
<time>2016-07-17T01:18:39.047Z</time>
</trkpt>
<trkpt lat="-27.0488358" lon="152.8693232">
<ele>59.246</ele>
<time>2016-07-17T01:18:42.012Z</time>
</trkpt>
<trkpt lat="-27.0491164" lon="152.8696185">
<ele>57.958</ele>
<time>2016-07-17T01:18:43.996Z</time>
</trkpt>
<trkpt lat="-27.0496252" lon="152.8699671">
<ele>56.396</ele>
<time>2016-07-17T01:18:47.125Z</time>
</trkpt>
<trkpt lat="-27.0499614" lon="152.8701568">
<ele>55.597</ele>
<time>2016-07-17T01:18:49.059Z</time>
</trkpt>
<trkpt lat="-27.0504784" lon="152.8704059">
<ele>55.902</ele>
<time>2016-07-17T01:18:51.838Z</time>
</trkpt>
<trkpt lat="-27.0510903" lon="152.8705069">
<ele>56.510</ele>
<time>2016-07-17T01:18:54.752Z</time>
</trkpt>
<trkpt lat="-27.0515163" lon="152.8705516">
<ele>56.673</ele>
<time>2016-07-17T01:18:56.753Z</time>
</trkpt>
<trkpt lat="-27.0521567" lon="152.8706424">
<ele>56.058</ele>
<time>2016-07-17T01:18:59.762Z</time>
</trkpt>
<trkpt lat="-27.0528088" lon="152.8707498">
<ele>54.219</ele>
<time>2016-07-17T01:19:02.852Z</time>
</trkpt>
<trkpt lat="-27.0534606" lon="152.8708301">
<ele>50.871</ele>
<time>2016-07-17T01:19:06.072Z</time>
</trkpt>
<trkpt lat="-27.0540753" lon="152.8709268">
<ele>46.602</ele>
<time>2016-07-17T01:19:09.274Z</time>
</trkpt>
<trkpt lat="-27.0546295" lon="152.8709909">
<ele>42.917</ele>
<time>2016-07-17T01:19:11.860Z</time>
</trkpt>
<trkpt lat="-27.0550236" lon="152.8710519">
<ele>41.046</ele>
<time>2016-07-17T01:19:13.523Z</time>
</trkpt>
<trkpt lat="-27.0557442" lon="152.8711402">
<ele>40.967</ele>
<time>2016-07-17T01:19:16.089Z</time>
</trkpt>
<trkpt lat="-27.0563513" lon="152.8711924">
<ele>42.530</ele>
<time>2016-07-17T01:19:18.126Z</time>
</trkpt>
<trkpt lat="-27.0573668" lon="152.8713391">
<ele>45.777</ele>
<time>2016-07-17T01:19:21.503Z</time>
</trkpt>
<trkpt lat="-27.0579985" lon="152.8714326">
<ele>49.604</ele>
<time>2016-07-17T01:19:23.744Z</time>
</trkpt>
<trkpt lat="-27.0588144" lon="152.8715406">
<ele>52.267</ele>
<time>2016-07-17T01:19:26.975Z</time>
</trkpt>
<trkpt lat="-27.0593150" lon="152.8716190">
<ele>52.109</ele>
<time>2016-07-17T01:19:29.028Z</time>
</trkpt>
<trkpt lat="-27.0600289" lon="152.8716885">
<ele>47.920</ele>
<time>2016-07-17T01:19:31.940Z</time>
</trkpt>
<trkpt lat="-27.0607617" lon="152.8715843">
<ele>41.259</ele>
<time>2016-07-17T01:19:34.888Z</time>
</trkpt>
<trkpt lat="-27.0614797" lon="152.8713061">
<ele>35.744</ele>
<time>2016-07-17T01:19:37.833Z</time>
</trkpt>
<trkpt lat="-27.0618930" lon="152.8710098">
<ele>33.067</ele>
<time>2016-07-17T01:19:39.733Z</time>
</trkpt>
<trkpt lat="-27.0622949" lon="152.8706101">
<ele>32.555</ele>
<time>2016-07-17T01:19:41.829Z</time>
</trkpt>
<trkpt lat="-27.0629233" lon="152.8701010">
<ele>33.095</ele>
<time>2016-07-17T01:19:44.829Z</time>
</trkpt>
<trkpt lat="-27.0636445" lon="152.8698723">
<ele>34.263</ele>
<time>2016-07-17T01:19:47.500Z</time>
</trkpt>
<trkpt lat="-27.0642031" lon="152.8698005">
<ele>36.017</ele>
<time>2016-07-17T01:19:49.522Z</time>
</trkpt>
<trkpt lat="-27.0647913" lon="152.8696893">
<ele>38.698</ele>
<time>2016-07-17T01:19:51.778Z</time>
</trkpt>
<trkpt lat="-27.0655742" lon="152.8695447">
<ele>42.262</ele>
<time>2016-07-17T01:19:55.116Z</time>
</trkpt>
<trkpt lat="-27.0660392" lon="152.8694982">
<ele>45.321</ele>
<time>2016-07-17T01:19:57.051Z</time>
</trkpt>
<trkpt lat="-27.0667292" lon="152.8696243">
<ele>46.698</ele>
<time>2016-07-17T01:19:59.714Z</time>
</trkpt>
<trkpt lat="-27.0672158" lon="152.8698181">
<ele>47.333</ele>
<time>2016-07-17T01:20:01.562Z</time>
</trkpt>
<trkpt lat="-27.0677522" lon="152.8700674">
<ele>49.407</ele>
<time>2016-07-17T01:20:03.637Z</time>
</trkpt>
<trkpt lat="-27.0685186" lon="152.8704271">
<ele>53.326</ele>
<time>2016-07-17T01:20:06.648Z</time>
</trkpt>
<trkpt lat="-27.0690217" lon="152.8706308">
<ele>56.136</ele>
<time>2016-07-17T01:20:08.602Z</time>
</trkpt>
<trkpt lat="-27.0698414" lon="152.8708494">
<ele>54.864</ele>
<time>2016-07-17T01:20:11.709Z</time>
</trkpt>
<trkpt lat="-27.0706477" lon="152.8709703">
<ele>50.248</ele>
<time>2016-07-17T01:20:14.745Z</time>
</trkpt>
<trkpt lat="-27.0714372" lon="152.8709942">
<ele>45.608</ele>
<time>2016-07-17T01:20:17.707Z</time>
</trkpt>
<trkpt lat="-27.0720010" lon="152.8710037">
<ele>43.950</ele>
<time>2016-07-17T01:20:19.871Z</time>
</trkpt>
<trkpt lat="-27.0727686" lon="152.8710412">
<ele>46.434</ele>
<time>2016-07-17T01:20:22.914Z</time>
</trkpt>
<trkpt lat="-27.0732429" lon="152.8711830">
<ele>51.340</ele>
<time>2016-07-17T01:20:24.856Z</time>
</trkpt>
<trkpt lat="-27.0737089" lon="152.8714322">
<ele>54.960</ele>
<time>2016-07-17T01:20:26.912Z</time>
</trkpt>
<trkpt lat="-27.0743631" lon="152.8718979">
<ele>54.826</ele>
<time>2016-07-17T01:20:30.022Z</time>
</trkpt>
<trkpt lat="-27.0750212" lon="152.8722586">
<ele>50.337</ele>
<time>2016-07-17T01:20:32.934Z</time>
</trkpt>
<trkpt lat="-27.0755198" lon="152.8723902">
<ele>42.776</ele>
<time>2016-07-17T01:20:34.924Z</time>
</trkpt>
<trkpt lat="-27.0760185" lon="152.8724220">
<ele>35.596</ele>
<time>2016-07-17T01:20:36.803Z</time>
</trkpt>
<trkpt lat="-27.0767820" lon="152.8722758">
<ele>31.618</ele>
<time>2016-07-17T01:20:39.578Z</time>
</trkpt>
<trkpt lat="-27.0776417" lon="152.8720092">
<ele>31.473</ele>
<time>2016-07-17T01:20:42.808Z</time>
</trkpt>
<trkpt lat="-27.0781804" lon="152.8717862">
<ele>35.449</ele>
<time>2016-07-17T01:20:44.994Z</time>
</trkpt>
<trkpt lat="-27.0789029" lon="152.8715411">
<ele>42.088</ele>
<time>2016-07-17T01:20:47.850Z</time>
</trkpt>
<trkpt lat="-27.0796571" lon="152.8712708">
<ele>47.798</ele>
<time>2016-07-17T01:20:50.650Z</time>
</trkpt>
<trkpt lat="-27.0805060" lon="152.8709882">
<ele>51.638</ele>
<time>2016-07-17T01:20:53.728Z</time>
</trkpt>
<trkpt lat="-27.0807926" lon="152.8708869">
<ele>56.345</ele>
<time>2016-07-17T01:20:54.783Z</time>
</trkpt>
<trkpt lat="-27.0818810" lon="152.8705238">
<ele>62.428</ele>
<time>2016-07-17T01:20:59.137Z</time>
</trkpt>
<trkpt lat="-27.0826330" lon="152.8702787">
<ele>67.108</ele>
<time>2016-07-17T01:21:02.553Z</time>
</trkpt>
<trkpt lat="-27.0832735" lon="152.8700457">
<ele>68.279</ele>
<time>2016-07-17T01:21:05.546Z</time>
</trkpt>
<trkpt lat="-27.0836691" lon="152.8698301">
<ele>66.234</ele>
<time>2016-07-17T01:21:07.368Z</time>
</trkpt>
<trkpt lat="-27.0841786" lon="152.8693241">
<ele>62.759</ele>
<time>2016-07-17T01:21:10.011Z</time>
</trkpt>
<trkpt lat="-27.0845157" lon="152.8688955">
<ele>59.994</ele>
<time>2016-07-17T01:21:12.001Z</time>
</trkpt>
<trkpt lat="-27.0850426" lon="152.8681922">
<ele>59.203</ele>
<time>2016-07-17T01:21:15.407Z</time>
</trkpt>
<trkpt lat="-27.0853580" lon="152.8677884">
<ele>60.606</ele>
<time>2016-07-17T01:21:17.469Z</time>
</trkpt>
<trkpt lat="-27.0858015" lon="152.8671892">
<ele>63.026</ele>
<time>2016-07-17T01:21:20.621Z</time>
</trkpt>
<trkpt lat="-27.0862277" lon="152.8665609">
<ele>63.879</ele>
<time>2016-07-17T01:21:24.418Z</time>
</trkpt>
<trkpt lat="-27.0864699" lon="152.8662204">
<ele>62.051</ele>
<time>2016-07-17T01:21:26.496Z</time>
</trkpt>
<trkpt lat="-27.0868925" lon="152.8658969">
<ele>57.861</ele>
<time>2016-07-17T01:21:29.050Z</time>
</trkpt>
<trkpt lat="-27.0874867" lon="152.8657414">
<ele>51.156</ele>
<time>2016-07-17T01:21:31.949Z</time>
</trkpt>
<trkpt lat="-27.0879104" lon="152.8657037">
<ele>43.528</ele>
<time>2016-07-17T01:21:33.805Z</time>
</trkpt>
<trkpt lat="-27.0884681" lon="152.8653588">
<ele>38.128</ele>
<time>2016-07-17T01:21:36.367Z</time>
</trkpt>
<trkpt lat="-27.0888434" lon="152.8649864">
<ele>35.681</ele>
<time>2016-07-17T01:21:38.417Z</time>
</trkpt>
<trkpt lat="-27.0892137" lon="152.8645713">
<ele>36.151</ele>
<time>2016-07-17T01:21:40.724Z</time>
</trkpt>
<trkpt lat="-27.0897185" lon="152.8639881">
<ele>40.565</ele>
<time>2016-07-17T01:21:44.148Z</time>
</trkpt>
<trkpt lat="-27.0901426" lon="152.8634651">
<ele>47.590</ele>
<time>2016-07-17T01:21:47.466Z</time>
</trkpt>
<trkpt lat="-27.0905442" lon="152.8629796">
<ele>53.166</ele>
<time>2016-07-17T01:21:50.768Z</time>
</trkpt>
<trkpt lat="-27.0909716" lon="152.8627756">
<ele>55.123</ele>
<time>2016-07-17T01:21:53.331Z</time>
</trkpt>
<trkpt lat="-27.0915659" lon="152.8627609">
<ele>54.628</ele>
<time>2016-07-17T01:21:56.715Z</time>
</trkpt>
<trkpt lat="-27.0920775" lon="152.8626932">
<ele>53.453</ele>
<time>2016-07-17T01:21:59.511Z</time>
</trkpt>
<trkpt lat="-27.0925496" lon="152.8624581">
<ele>52.228</ele>
<time>2016-07-17T01:22:01.950Z</time>
</trkpt>
<trkpt lat="-27.0928374" lon="152.8621709">
<ele>50.004</ele>
<time>2016-07-17T01:22:03.556Z</time>
</trkpt>
<trkpt lat="-27.0933158" lon="152.8615728">
<ele>46.574</ele>
<time>2016-07-17T01:22:06.478Z</time>
</trkpt>
<trkpt lat="-27.0936531" lon="152.8611203">
<ele>44.170</ele>
<time>2016-07-17T01:22:08.628Z</time>
</trkpt>
<trkpt lat="-27.0941758" lon="152.8605740">
<ele>44.569</ele>
<time>2016-07-17T01:22:11.643Z</time>
</trkpt>
<trkpt lat="-27.0948473" lon="152.8601795">
<ele>46.820</ele>
<time>2016-07-17T01:22:15.569Z</time>
</trkpt>
<trkpt lat="-27.0952272" lon="152.8600351">
<ele>50.028</ele>
<time>2016-07-17T01:22:17.839Z</time>
</trkpt>
<trkpt lat="-27.0957147" lon="152.8599431">
<ele>53.733</ele>
<time>2016-07-17T01:22:20.184Z</time>
</trkpt>
<trkpt lat="-27.0960367" lon="152.8600683">
<ele>56.147</ele>
<time>2016-07-17T01:22:21.633Z</time>
</trkpt>
<trkpt lat="-27.0964011" lon="152.8603236">
<ele>56.204</ele>
<time>2016-07-17T01:22:23.341Z</time>
</trkpt>
<trkpt lat="-27.0970776" lon="152.8608287">
<ele>55.511</ele>
<time>2016-07-17T01:22:26.686Z</time>
</trkpt>
<trkpt lat="-27.0976712" lon="152.8613556">
<ele>55.589</ele>
<time>2016-07-17T01:22:30.331Z</time>
</trkpt>
<trkpt lat="-27.0981850" lon="152.8617895">
<ele>55.667</ele>
<time>2016-07-17T01:22:33.569Z</time>
</trkpt>
<trkpt lat="-27.0987233" lon="152.8619305">
<ele>53.685</ele>
<time>2016-07-17T01:22:36.037Z</time>
</trkpt>
<trkpt lat="-27.0993247" lon="152.8618303">
<ele>49.390</ele>
<time>2016-07-17T01:22:38.559Z</time>
</trkpt>
<trkpt lat="-27.1000587" lon="152.8616743">
<ele>45.133</ele>
<time>2016-07-17T01:22:41.519Z</time>
</trkpt>
<trkpt lat="-27.1005664" lon="152.8616016">
<ele>43.820</ele>
<time>2016-07-17T01:22:43.593Z</time>
</trkpt>
<trkpt lat="-27.1013190" lon="152.8615574">
<ele>46.929</ele>
<time>2016-07-17T01:22:46.899Z</time>
</trkpt>
<trkpt lat="-27.1017976" lon="152.8615649">
<ele>53.089</ele>
<time>2016-07-17T01:22:49.183Z</time>
</trkpt>
<trkpt lat="-27.1024625" lon="152.8615910">
<ele>58.704</ele>
<time>2016-07-17T01:22:52.259Z</time>
</trkpt>
<trkpt lat="-27.1028293" lon="152.8617399">
<ele>61.194</ele>
<time>2016-07-17T01:22:53.884Z</time>
</trkpt>
<trkpt lat="-27.1033302" lon="152.8622583">
<ele>60.779</ele>
<time>2016-07-17T01:22:56.550Z</time>
</trkpt>
<trkpt lat="-27.1037697" lon="152.8625459">
<ele>60.550</ele>
<time>2016-07-17T01:22:58.566Z</time>
</trkpt>
<trkpt lat="-27.1044706" lon="152.8629883">
<ele>63.162</ele>
<time>2016-07-17T01:23:02.105Z</time>
</trkpt>
<trkpt lat="-27.1048948" lon="152.8632525">
<ele>67.302</ele>
<time>2016-07-17T01:23:04.295Z</time>
</trkpt>
<trkpt lat="-27.1052748" lon="152.8634321">
<ele>69.552</ele>
<time>2016-07-17T01:23:06.037Z</time>
</trkpt>
<trkpt lat="-27.1059503" lon="152.8634700">
<ele>68.900</ele>
<time>2016-07-17T01:23:08.686Z</time>
</trkpt>
<trkpt lat="-27.1064471" lon="152.8634347">
<ele>67.379</ele>
<time>2016-07-17T01:23:10.519Z</time>
</trkpt>
<trkpt lat="-27.1072357" lon="152.8633620">
<ele>67.018</ele>
<time>2016-07-17T01:23:13.375Z</time>
</trkpt>
<trkpt lat="-27.1081216" lon="152.8632664">
<ele>67.550</ele>
<time>2016-07-17T01:23:16.674Z</time>
</trkpt>
<trkpt lat="-27.1086594" lon="152.8632275">
<ele>66.660</ele>
<time>2016-07-17T01:23:18.794Z</time>
</trkpt>
<trkpt lat="-27.1094391" lon="152.8631785">
<ele>63.159</ele>
<time>2016-07-17T01:23:22.071Z</time>
</trkpt>
<trkpt lat="-27.1101736" lon="152.8631376">
<ele>58.413</ele>
<time>2016-07-17T01:23:25.487Z</time>
</trkpt>
<trkpt lat="-27.1106050" lon="152.8630815">
<ele>53.218</ele>
<time>2016-07-17T01:23:27.425Z</time>
</trkpt>
<trkpt lat="-27.1109980" lon="152.8629528">
<ele>47.392</ele>
<time>2016-07-17T01:23:29.206Z</time>
</trkpt>
<trkpt lat="-27.1113791" lon="152.8627223">
<ele>42.275</ele>
<time>2016-07-17T01:23:30.992Z</time>
</trkpt>
<trkpt lat="-27.1119112" lon="152.8621721">
<ele>39.366</ele>
<time>2016-07-17T01:23:34.050Z</time>
</trkpt>
<trkpt lat="-27.1124285" lon="152.8615753">
<ele>38.836</ele>
<time>2016-07-17T01:23:37.303Z</time>
</trkpt>
<trkpt lat="-27.1127764" lon="152.8612621">
<ele>39.752</ele>
<time>2016-07-17T01:23:39.210Z</time>
</trkpt>
<trkpt lat="-27.1133661" lon="152.8609225">
<ele>40.534</ele>
<time>2016-07-17T01:23:42.065Z</time>
</trkpt>
<trkpt lat="-27.1140230" lon="152.8605335">
<ele>40.123</ele>
<time>2016-07-17T01:23:45.637Z</time>
</trkpt>
<trkpt lat="-27.1144103" lon="152.8602950">
<ele>38.927</ele>
<time>2016-07-17T01:23:47.879Z</time>
</trkpt>
<trkpt lat="-27.1148472" lon="152.8598831">
<ele>37.510</ele>
<time>2016-07-17T01:23:50.867Z</time>
</trkpt>
<trkpt lat="-27.1150690" lon="152.8594817">
<ele>35.351</ele>
<time>2016-07-17T01:23:53.213Z</time>
</trkpt>
<trkpt lat="-27.1154540" lon="152.8590153">
<ele>32.322</ele>
<time>2016-07-17T01:23:56.419Z</time>
</trkpt>
<trkpt lat="-27.1157720" lon="152.8588105">
<ele>29.638</ele>
<time>2016-07-17T01:23:58.362Z</time>
</trkpt>
<trkpt lat="-27.1162599" lon="152.8587616">
<ele>28.096</ele>
<time>2016-07-17T01:24:00.748Z</time>
</trkpt>
<trkpt lat="-27.1166207" lon="152.8587005">
<ele>27.321</ele>
<time>2016-07-17T01:24:02.471Z</time>
</trkpt>
<trkpt lat="-27.1170025" lon="152.8585291">
<ele>26.987</ele>
<time>2016-07-17T01:24:04.344Z</time>
</trkpt>
<trkpt lat="-27.1176236" lon="152.8582267">
<ele>27.587</ele>
<time>2016-07-17T01:24:07.275Z</time>
</trkpt>
<trkpt lat="-27.1180573" lon="152.8581308">
<ele>29.688</ele>
<time>2016-07-17T01:24:09.153Z</time>
</trkpt>
<trkpt lat="-27.1187937" lon="152.8581131">
<ele>32.768</ele>
<time>2016-07-17T01:24:12.566Z</time>
</trkpt>
<trkpt lat="-27.1192525" lon="152.8581326">
<ele>36.844</ele>
<time>2016-07-17T01:24:14.814Z</time>
</trkpt>
<trkpt lat="-27.1196927" lon="152.8581514">
<ele>41.874</ele>
<time>2016-07-17T01:24:17.058Z</time>
</trkpt>
<trkpt lat="-27.1202831" lon="152.8580649">
<ele>45.787</ele>
<time>2016-07-17T01:24:21.030Z</time>
</trkpt>
<trkpt lat="-27.1208480" lon="152.8579583">
<ele>46.493</ele>
<time>2016-07-17T01:24:27.014Z</time>
</trkpt>
<trkpt lat="-27.1212502" lon="152.8579034">
<ele>43.692</ele>
<time>2016-07-17T01:24:31.252Z</time>
</trkpt>
<trkpt lat="-27.1214028" lon="152.8579032">
<ele>37.645</ele>
<time>2016-07-17T01:24:32.985Z</time>
</trkpt>
<trkpt lat="-27.1215638" lon="152.8580043">
<ele>29.899</ele>
<time>2016-07-17T01:24:34.927Z</time>
</trkpt>
<trkpt lat="-27.1216667" lon="152.8581945">
<ele>23.203</ele>
<time>2016-07-17T01:24:36.859Z</time>
</trkpt>
<trkpt lat="-27.1217271" lon="152.8584081">
<ele>18.970</ele>
<time>2016-07-17T01:24:38.374Z</time>
</trkpt>
<trkpt lat="-27.1218253" lon="152.8587971">
<ele>16.510</ele>
<time>2016-07-17T01:24:41.066Z</time>
</trkpt>
<trkpt lat="-27.1219019" lon="152.8590479">
<ele>14.942</ele>
<time>2016-07-17T01:24:43.043Z</time>
</trkpt>
<trkpt lat="-27.1217938" lon="152.8594478">
<ele>13.888</ele>
<time>2016-07-17T01:24:46.489Z</time>
</trkpt>
<trkpt lat="-27.1217347" lon="152.8599444">
<ele>13.831</ele>
<time>2016-07-17T01:24:49.766Z</time>
</trkpt>
<trkpt lat="-27.1218565" lon="152.8601787">
<ele>15.530</ele>
<time>2016-07-17T01:24:51.361Z</time>
</trkpt>
<trkpt lat="-27.1220077" lon="152.8603094">
<ele>18.455</ele>
<time>2016-07-17T01:24:52.670Z</time>
</trkpt>
<trkpt lat="-27.1222678" lon="152.8602957">
<ele>21.714</ele>
<time>2016-07-17T01:24:54.679Z</time>
</trkpt>
<trkpt lat="-27.1227470" lon="152.8601885">
<ele>25.176</ele>
<time>2016-07-17T01:25:00.030Z</time>
</trkpt>
<trkpt lat="-27.1230425" lon="152.8601313">
<ele>29.159</ele>
<time>2016-07-17T01:25:02.753Z</time>
</trkpt>
<trkpt lat="-27.1233049" lon="152.8600796">
<ele>33.215</ele>
<time>2016-07-17T01:25:04.391Z</time>
</trkpt>
<trkpt lat="-27.1235404" lon="152.8600529">
<ele>35.917</ele>
<time>2016-07-17T01:25:05.789Z</time>
</trkpt>
<trkpt lat="-27.1237501" lon="152.8600648">
<ele>36.557</ele>
<time>2016-07-17T01:25:06.912Z</time>
</trkpt>
<trkpt lat="-27.1238634" lon="152.8603169">
<ele>36.051</ele>
<time>2016-07-17T01:25:08.228Z</time>
</trkpt>
<trkpt lat="-27.1239081" lon="152.8606636">
<ele>36.140</ele>
<time>2016-07-17T01:25:09.805Z</time>
</trkpt>
<trkpt lat="-27.1239874" lon="152.8612739">
<ele>38.620</ele>
<time>2016-07-17T01:25:12.460Z</time>
</trkpt>
<trkpt lat="-27.1240647" lon="152.8619263">
<ele>43.240</ele>
<time>2016-07-17T01:25:15.122Z</time>
</trkpt>
<trkpt lat="-27.1241608" lon="152.8626188">
<ele>47.560</ele>
<time>2016-07-17T01:25:17.809Z</time>
</trkpt>
<trkpt lat="-27.1242525" lon="152.8633731">
<ele>49.606</ele>
<time>2016-07-17T01:25:20.680Z</time>
</trkpt>
<trkpt lat="-27.1243509" lon="152.8641552">
<ele>48.886</ele>
<time>2016-07-17T01:25:23.683Z</time>
</trkpt>
<trkpt lat="-27.1244236" lon="152.8646886">
<ele>46.207</ele>
<time>2016-07-17T01:25:25.748Z</time>
</trkpt>
<trkpt lat="-27.1244907" lon="152.8652068">
<ele>43.434</ele>
<time>2016-07-17T01:25:27.860Z</time>
</trkpt>
<trkpt lat="-27.1245490" lon="152.8657187">
<ele>42.054</ele>
<time>2016-07-17T01:25:30.037Z</time>
</trkpt>
<trkpt lat="-27.1246164" lon="152.8662360">
<ele>42.148</ele>
<time>2016-07-17T01:25:32.349Z</time>
</trkpt>
<trkpt lat="-27.1246987" lon="152.8669284">
<ele>43.141</ele>
<time>2016-07-17T01:25:35.301Z</time>
</trkpt>
<trkpt lat="-27.1247595" lon="152.8673639">
<ele>44.708</ele>
<time>2016-07-17T01:25:37.070Z</time>
</trkpt>
<trkpt lat="-27.1248125" lon="152.8678105">
<ele>46.522</ele>
<time>2016-07-17T01:25:38.790Z</time>
</trkpt>
<trkpt lat="-27.1249115" lon="152.8685463">
<ele>47.853</ele>
<time>2016-07-17T01:25:41.496Z</time>
</trkpt>
<trkpt lat="-27.1249839" lon="152.8690661">
<ele>48.308</ele>
<time>2016-07-17T01:25:43.378Z</time>
</trkpt>
<trkpt lat="-27.1250541" lon="152.8696123">
<ele>48.221</ele>
<time>2016-07-17T01:25:45.346Z</time>
</trkpt>
<trkpt lat="-27.1251548" lon="152.8704532">
<ele>47.845</ele>
<time>2016-07-17T01:25:48.387Z</time>
</trkpt>
<trkpt lat="-27.1252270" lon="152.8710114">
<ele>46.493</ele>
<time>2016-07-17T01:25:50.416Z</time>
</trkpt>
<trkpt lat="-27.1252993" lon="152.8715655">
<ele>43.889</ele>
<time>2016-07-17T01:25:52.427Z</time>
</trkpt>
<trkpt lat="-27.1253762" lon="152.8721126">
<ele>41.356</ele>
<time>2016-07-17T01:25:54.421Z</time>
</trkpt>
<trkpt lat="-27.1254427" lon="152.8726621">
<ele>40.007</ele>
<time>2016-07-17T01:25:56.442Z</time>
</trkpt>
<trkpt lat="-27.1255339" lon="152.8734931">
<ele>39.647</ele>
<time>2016-07-17T01:25:59.528Z</time>
</trkpt>
<trkpt lat="-27.1256023" lon="152.8740312">
<ele>40.247</ele>
<time>2016-07-17T01:26:01.518Z</time>
</trkpt>
<trkpt lat="-27.1257178" lon="152.8748356">
<ele>41.714</ele>
<time>2016-07-17T01:26:04.493Z</time>
</trkpt>
<trkpt lat="-27.1257963" lon="152.8756406">
<ele>43.195</ele>
<time>2016-07-17T01:26:07.532Z</time>
</trkpt>
<trkpt lat="-27.1258709" lon="152.8761974">
<ele>43.992</ele>
<time>2016-07-17T01:26:09.618Z</time>
</trkpt>
<trkpt lat="-27.1259343" lon="152.8767359">
<ele>43.790</ele>
<time>2016-07-17T01:26:11.635Z</time>
</trkpt>
<trkpt lat="-27.1259929" lon="152.8772594">
<ele>42.131</ele>
<time>2016-07-17T01:26:13.604Z</time>
</trkpt>
<trkpt lat="-27.1260363" lon="152.8778160">
<ele>39.189</ele>
<time>2016-07-17T01:26:15.699Z</time>
</trkpt>
<trkpt lat="-27.1260813" lon="152.8786006">
<ele>36.226</ele>
<time>2016-07-17T01:26:18.651Z</time>
</trkpt>
<trkpt lat="-27.1260962" lon="152.8791479">
<ele>34.455</ele>
<time>2016-07-17T01:26:20.696Z</time>
</trkpt>
<trkpt lat="-27.1260953" lon="152.8796818">
<ele>34.285</ele>
<time>2016-07-17T01:26:22.646Z</time>
</trkpt>
<trkpt lat="-27.1261083" lon="152.8804697">
<ele>35.435</ele>
<time>2016-07-17T01:26:25.517Z</time>
</trkpt>
<trkpt lat="-27.1261502" lon="152.8810637">
<ele>37.078</ele>
<time>2016-07-17T01:26:27.721Z</time>
</trkpt>
<trkpt lat="-27.1261899" lon="152.8817382">
<ele>38.305</ele>
<time>2016-07-17T01:26:30.221Z</time>
</trkpt>
<trkpt lat="-27.1262017" lon="152.8821520">
<ele>36.828</ele>
<time>2016-07-17T01:26:31.752Z</time>
</trkpt>
<trkpt lat="-27.1263476" lon="152.8822987">
<ele>30.690</ele>
<time>2016-07-17T01:26:32.566Z</time>
</trkpt>
<trkpt lat="-27.1265326" lon="152.8823101">
<ele>22.700</ele>
<time>2016-07-17T01:26:33.335Z</time>
</trkpt>
<trkpt lat="-27.1269224" lon="152.8822522">
<ele>17.847</ele>
<time>2016-07-17T01:26:34.970Z</time>
</trkpt>
<trkpt lat="-27.1275807" lon="152.8821396">
<ele>18.144</ele>
<time>2016-07-17T01:26:37.737Z</time>
</trkpt>
<trkpt lat="-27.1283039" lon="152.8819879">
<ele>23.106</ele>
<time>2016-07-17T01:26:40.794Z</time>
</trkpt>
<trkpt lat="-27.1289333" lon="152.8818475">
<ele>29.905</ele>
<time>2016-07-17T01:26:43.461Z</time>
</trkpt>
<trkpt lat="-27.1295234" lon="152.8816491">
<ele>34.779</ele>
<time>2016-07-17T01:26:46.162Z</time>
</trkpt>
<trkpt lat="-27.1299009" lon="152.8813864">
<ele>36.629</ele>
<time>2016-07-17T01:26:48.199Z</time>
</trkpt>
<trkpt lat="-27.1304216" lon="152.8808427">
<ele>37.504</ele>
<time>2016-07-17T01:26:51.342Z</time>
</trkpt>
<trkpt lat="-27.1307343" lon="152.8803869">
<ele>39.882</ele>
<time>2016-07-17T01:26:53.473Z</time>
</trkpt>
<trkpt lat="-27.1309937" lon="152.8799376">
<ele>44.234</ele>
<time>2016-07-17T01:26:55.427Z</time>
</trkpt>
<trkpt lat="-27.1313349" lon="152.8791768">
<ele>48.614</ele>
<time>2016-07-17T01:26:58.496Z</time>
</trkpt>
<trkpt lat="-27.1316552" lon="152.8784392">
<ele>52.334</ele>
<time>2016-07-17T01:27:01.451Z</time>
</trkpt>
<trkpt lat="-27.1320768" lon="152.8777961">
<ele>56.081</ele>
<time>2016-07-17T01:27:04.377Z</time>
</trkpt>
<trkpt lat="-27.1324477" lon="152.8773415">
<ele>59.017</ele>
<time>2016-07-17T01:27:06.575Z</time>
</trkpt>
<trkpt lat="-27.1327958" lon="152.8769378">
<ele>60.015</ele>
<time>2016-07-17T01:27:08.535Z</time>
</trkpt>
<trkpt lat="-27.1333595" lon="152.8764132">
<ele>59.667</ele>
<time>2016-07-17T01:27:11.452Z</time>
</trkpt>
<trkpt lat="-27.1338345" lon="152.8761251">
<ele>58.980</ele>
<time>2016-07-17T01:27:13.551Z</time>
</trkpt>
<trkpt lat="-27.1343252" lon="152.8758779">
<ele>58.957</ele>
<time>2016-07-17T01:27:15.573Z</time>
</trkpt>
<trkpt lat="-27.1349586" lon="152.8755085">
<ele>59.876</ele>
<time>2016-07-17T01:27:18.346Z</time>
</trkpt>
<trkpt lat="-27.1353587" lon="152.8752200">
<ele>61.049</ele>
<time>2016-07-17T01:27:20.272Z</time>
</trkpt>
<trkpt lat="-27.1357519" lon="152.8749533">
<ele>62.453</ele>
<time>2016-07-17T01:27:22.229Z</time>
</trkpt>
<trkpt lat="-27.1361469" lon="152.8747964">
<ele>64.448</ele>
<time>2016-07-17T01:27:24.120Z</time>
</trkpt>
<trkpt lat="-27.1365924" lon="152.8747128">
<ele>66.323</ele>
<time>2016-07-17T01:27:26.233Z</time>
</trkpt>
<trkpt lat="-27.1370121" lon="152.8747944">
<ele>67.975</ele>
<time>2016-07-17T01:27:28.235Z</time>
</trkpt>
<trkpt lat="-27.1375950" lon="152.8748283">
<ele>70.008</ele>
<time>2016-07-17T01:27:31.058Z</time>
</trkpt>
<trkpt lat="-27.1381894" lon="152.8745751">
<ele>71.874</ele>
<time>2016-07-17T01:27:34.170Z</time>
</trkpt>
<trkpt lat="-27.1387383" lon="152.8741074">
<ele>72.817</ele>
<time>2016-07-17T01:27:37.366Z</time>
</trkpt>
<trkpt lat="-27.1389246" lon="152.8739179">
<ele>73.297</ele>
<time>2016-07-17T01:27:38.484Z</time>
</trkpt>
<trkpt lat="-27.1395861" lon="152.8731009">
<ele>73.951</ele>
<time>2016-07-17T01:27:42.616Z</time>
</trkpt>
<trkpt lat="-27.1398542" lon="152.8726597">
<ele>74.592</ele>
<time>2016-07-17T01:27:44.569Z</time>
</trkpt>
<trkpt lat="-27.1400734" lon="152.8721886">
<ele>74.212</ele>
<time>2016-07-17T01:27:46.537Z</time>
</trkpt>
<trkpt lat="-27.1403456" lon="152.8714189">
<ele>72.388</ele>
<time>2016-07-17T01:27:49.601Z</time>
</trkpt>
<trkpt lat="-27.1405129" lon="152.8708996">
<ele>70.181</ele>
<time>2016-07-17T01:27:51.630Z</time>
</trkpt>
<trkpt lat="-27.1407684" lon="152.8704891">
<ele>67.625</ele>
<time>2016-07-17T01:27:53.507Z</time>
</trkpt>
<trkpt lat="-27.1411017" lon="152.8701358">
<ele>63.364</ele>
<time>2016-07-17T01:27:55.479Z</time>
</trkpt>
<trkpt lat="-27.1415082" lon="152.8698993">
<ele>57.844</ele>
<time>2016-07-17T01:27:57.475Z</time>
</trkpt>
<trkpt lat="-27.1421895" lon="152.8697887">
<ele>53.195</ele>
<time>2016-07-17T01:28:00.503Z</time>
</trkpt>
<trkpt lat="-27.1427026" lon="152.8698386">
<ele>50.774</ele>
<time>2016-07-17T01:28:02.687Z</time>
</trkpt>
<trkpt lat="-27.1432614" lon="152.8699363">
<ele>51.355</ele>
<time>2016-07-17T01:28:04.889Z</time>
</trkpt>
<trkpt lat="-27.1438109" lon="152.8700124">
<ele>54.583</ele>
<time>2016-07-17T01:28:06.962Z</time>
</trkpt>
<trkpt lat="-27.1445242" lon="152.8702105">
<ele>58.256</ele>
<time>2016-07-17T01:28:09.781Z</time>
</trkpt>
<trkpt lat="-27.1452522" lon="152.8706350">
<ele>60.329</ele>
<time>2016-07-17T01:28:12.897Z</time>
</trkpt>
<trkpt lat="-27.1459751" lon="152.8711148">
<ele>60.934</ele>
<time>2016-07-17T01:28:15.955Z</time>
</trkpt>
<trkpt lat="-27.1463955" lon="152.8714144">
<ele>60.970</ele>
<time>2016-07-17T01:28:17.833Z</time>
</trkpt>
<trkpt lat="-27.1467163" lon="152.8718349">
<ele>60.748</ele>
<time>2016-07-17T01:28:19.771Z</time>
</trkpt>
<trkpt lat="-27.1472567" lon="152.8725823">
<ele>60.259</ele>
<time>2016-07-17T01:28:22.957Z</time>
</trkpt>
<trkpt lat="-27.1476371" lon="152.8731282">
<ele>60.558</ele>
<time>2016-07-17T01:28:25.037Z</time>
</trkpt>
<trkpt lat="-27.1481700" lon="152.8738759">
<ele>62.618</ele>
<time>2016-07-17T01:28:27.980Z</time>
</trkpt>
<trkpt lat="-27.1484802" lon="152.8743167">
<ele>65.349</ele>
<time>2016-07-17T01:28:29.916Z</time>
</trkpt>
<trkpt lat="-27.1488899" lon="152.8749035">
<ele>66.759</ele>
<time>2016-07-17T01:28:32.725Z</time>
</trkpt>
<trkpt lat="-27.1491405" lon="152.8752688">
<ele>66.441</ele>
<time>2016-07-17T01:28:34.621Z</time>
</trkpt>
<trkpt lat="-27.1496092" lon="152.8757500">
<ele>65.812</ele>
<time>2016-07-17T01:28:37.619Z</time>
</trkpt>
<trkpt lat="-27.1499473" lon="152.8760479">
<ele>67.214</ele>
<time>2016-07-17T01:28:39.637Z</time>
</trkpt>
<trkpt lat="-27.1504069" lon="152.8764397">
<ele>72.034</ele>
<time>2016-07-17T01:28:42.468Z</time>
</trkpt>
<trkpt lat="-27.1507066" lon="152.8767024">
<ele>78.506</ele>
<time>2016-07-17T01:28:44.403Z</time>
</trkpt>
<trkpt lat="-27.1511373" lon="152.8771226">
<ele>83.948</ele>
<time>2016-07-17T01:28:47.387Z</time>
</trkpt>
<trkpt lat="-27.1515080" lon="152.8774697">
<ele>87.642</ele>
<time>2016-07-17T01:28:50.101Z</time>
</trkpt>
<trkpt lat="-27.1517579" lon="152.8776539">
<ele>89.570</ele>
<time>2016-07-17T01:28:51.921Z</time>
</trkpt>
<trkpt lat="-27.1520191" lon="152.8777655">
<ele>89.176</ele>
<time>2016-07-17T01:28:53.786Z</time>
</trkpt>
<trkpt lat="-27.1524744" lon="152.8778986">
<ele>86.864</ele>
<time>2016-07-17T01:28:56.979Z</time>
</trkpt>
<trkpt lat="-27.1528935" lon="152.8780966">
<ele>84.263</ele>
<time>2016-07-17T01:28:59.942Z</time>
</trkpt>
<trkpt lat="-27.1531626" lon="152.8782669">
<ele>82.017</ele>
<time>2016-07-17T01:29:01.933Z</time>
</trkpt>
<trkpt lat="-27.1535946" lon="152.8786273">
<ele>79.511</ele>
<time>2016-07-17T01:29:05.238Z</time>
</trkpt>
<trkpt lat="-27.1538784" lon="152.8788776">
<ele>77.085</ele>
<time>2016-07-17T01:29:07.319Z</time>
</trkpt>
<trkpt lat="-27.1542908" lon="152.8792207">
<ele>75.334</ele>
<time>2016-07-17T01:29:10.292Z</time>
</trkpt>
<trkpt lat="-27.1545453" lon="152.8794114">
<ele>73.643</ele>
<time>2016-07-17T01:29:12.135Z</time>
</trkpt>
<trkpt lat="-27.1549908" lon="152.8795833">
<ele>70.996</ele>
<time>2016-07-17T01:29:15.154Z</time>
</trkpt>
<trkpt lat="-27.1552769" lon="152.8796538">
<ele>66.886</ele>
<time>2016-07-17T01:29:17.110Z</time>
</trkpt>
<trkpt lat="-27.1556730" lon="152.8797298">
<ele>62.188</ele>
<time>2016-07-17T01:29:19.975Z</time>
</trkpt>
<trkpt lat="-27.1560637" lon="152.8798304">
<ele>58.639</ele>
<time>2016-07-17T01:29:22.940Z</time>
</trkpt>
<trkpt lat="-27.1563709" lon="152.8799361">
<ele>57.077</ele>
<time>2016-07-17T01:29:25.202Z</time>
</trkpt>
<trkpt lat="-27.1566788" lon="152.8800509">
<ele>57.310</ele>
<time>2016-07-17T01:29:27.319Z</time>
</trkpt>
<trkpt lat="-27.1570981" lon="152.8802235">
<ele>58.723</ele>
<time>2016-07-17T01:29:30.249Z</time>
</trkpt>
<trkpt lat="-27.1573727" lon="152.8803655">
<ele>59.976</ele>
<time>2016-07-17T01:29:32.273Z</time>
</trkpt>
<trkpt lat="-27.1576280" lon="152.8805334">
<ele>60.141</ele>
<time>2016-07-17T01:29:34.287Z</time>
</trkpt>
<trkpt lat="-27.1578275" lon="152.8806881">
<ele>59.506</ele>
<time>2016-07-17T01:29:36.000Z</time>
</trkpt>
<trkpt lat="-27.1581298" lon="152.8809789">
<ele>58.471</ele>
<time>2016-07-17T01:29:38.988Z</time>
</trkpt>
<trkpt lat="-27.1583893" lon="152.8812891">
<ele>57.062</ele>
<time>2016-07-17T01:29:41.906Z</time>
</trkpt>
<trkpt lat="-27.1585573" lon="152.8815001">
<ele>55.462</ele>
<time>2016-07-17T01:29:43.856Z</time>
</trkpt>
<trkpt lat="-27.1586635" lon="152.8817697">
<ele>54.134</ele>
<time>2016-07-17T01:29:45.880Z</time>
</trkpt>
<trkpt lat="-27.1587751" lon="152.8821787">
<ele>53.281</ele>
<time>2016-07-17T01:29:48.860Z</time>
</trkpt>
<trkpt lat="-27.1588184" lon="152.8824034">
<ele>52.632</ele>
<time>2016-07-17T01:29:50.539Z</time>
</trkpt>
<trkpt lat="-27.1588030" lon="152.8826216">
<ele>51.976</ele>
<time>2016-07-17T01:29:52.291Z</time>
</trkpt>
<trkpt lat="-27.1587104" lon="152.8828388">
<ele>51.447</ele>
<time>2016-07-17T01:29:54.377Z</time>
</trkpt>
<trkpt lat="-27.1584123" lon="152.8831275">
<ele>51.274</ele>
<time>2016-07-17T01:29:57.850Z</time>
</trkpt>
<trkpt lat="-27.1581543" lon="152.8832917">
<ele>51.763</ele>
<time>2016-07-17T01:30:00.108Z</time>
</trkpt>
<trkpt lat="-27.1578650" lon="152.8834279">
<ele>52.969</ele>
<time>2016-07-17T01:30:02.291Z</time>
</trkpt>
<trkpt lat="-27.1576193" lon="152.8835517">
<ele>54.266</ele>
<time>2016-07-17T01:30:04.197Z</time>
</trkpt>
<trkpt lat="-27.1574122" lon="152.8836630">
<ele>54.895</ele>
<time>2016-07-17T01:30:05.928Z</time>
</trkpt>
<trkpt lat="-27.1571120" lon="152.8838402">
<ele>54.790</ele>
<time>2016-07-17T01:30:08.720Z</time>
</trkpt>
<trkpt lat="-27.1569507" lon="152.8840113">
<ele>54.411</ele>
<time>2016-07-17T01:30:10.634Z</time>
</trkpt>
<trkpt lat="-27.1567517" lon="152.8843478">
<ele>54.159</ele>
<time>2016-07-17T01:30:13.714Z</time>
</trkpt>
<trkpt lat="-27.1565453" lon="152.8847815">
<ele>54.047</ele>
<time>2016-07-17T01:30:17.113Z</time>
</trkpt>
<trkpt lat="-27.1564679" lon="152.8850615">
<ele>53.578</ele>
<time>2016-07-17T01:30:19.064Z</time>
</trkpt>
<trkpt lat="-27.1563373" lon="152.8854727">
<ele>52.518</ele>
<time>2016-07-17T01:30:22.029Z</time>
</trkpt>
<trkpt lat="-27.1561575" lon="152.8858685">
<ele>51.563</ele>
<time>2016-07-17T01:30:25.078Z</time>
</trkpt>
<trkpt lat="-27.1559406" lon="152.8863428">
<ele>51.475</ele>
<time>2016-07-17T01:30:28.409Z</time>
</trkpt>
<trkpt lat="-27.1557797" lon="152.8867306">
<ele>52.100</ele>
<time>2016-07-17T01:30:30.670Z</time>
</trkpt>
<trkpt lat="-27.1556426" lon="152.8870921">
<ele>53.735</ele>
<time>2016-07-17T01:30:32.611Z</time>
</trkpt>
<trkpt lat="-27.1554285" lon="152.8876139">
<ele>56.562</ele>
<time>2016-07-17T01:30:35.531Z</time>
</trkpt>
<trkpt lat="-27.1551934" lon="152.8882601">
<ele>59.197</ele>
<time>2016-07-17T01:30:38.846Z</time>
</trkpt>
<trkpt lat="-27.1550376" lon="152.8886330">
<ele>61.481</ele>
<time>2016-07-17T01:30:40.734Z</time>
</trkpt>
<trkpt lat="-27.1549083" lon="152.8889597">
<ele>64.873</ele>
<time>2016-07-17T01:30:42.522Z</time>
</trkpt>
<trkpt lat="-27.1546816" lon="152.8895014">
<ele>68.911</ele>
<time>2016-07-17T01:30:45.613Z</time>
</trkpt>
<trkpt lat="-27.1544879" lon="152.8900360">
<ele>71.952</ele>
<time>2016-07-17T01:30:48.613Z</time>
</trkpt>
<trkpt lat="-27.1544105" lon="152.8902886">
<ele>72.957</ele>
<time>2016-07-17T01:30:50.190Z</time>
</trkpt>
<trkpt lat="-27.1543363" lon="152.8905295">
<ele>71.528</ele>
<time>2016-07-17T01:30:52.163Z</time>
</trkpt>
<trkpt lat="-27.1542653" lon="152.8905981">
<ele>68.501</ele>
<time>2016-07-17T01:30:53.149Z</time>
</trkpt>
<trkpt lat="-27.1541482" lon="152.8905788">
<ele>65.548</ele>
<time>2016-07-17T01:30:54.762Z</time>
</trkpt>
<trkpt lat="-27.1539704" lon="152.8904935">
<ele>63.830</ele>
<time>2016-07-17T01:30:58.850Z</time>
</trkpt>
<trkpt lat="-27.1535451" lon="152.8903335">
<ele>63.378</ele>
<time>2016-07-17T01:31:03.631Z</time>
</trkpt>
<trkpt lat="-27.1532107" lon="152.8901932">
<ele>63.591</ele>
<time>2016-07-17T01:31:05.974Z</time>
</trkpt>
<trkpt lat="-27.1528567" lon="152.8900502">
<ele>63.616</ele>
<time>2016-07-17T01:31:08.130Z</time>
</trkpt>
<trkpt lat="-27.1524402" lon="152.8900197">
<ele>62.316</ele>
<time>2016-07-17T01:31:10.399Z</time>
</trkpt>
<trkpt lat="-27.1518372" lon="152.8900442">
<ele>59.728</ele>
<time>2016-07-17T01:31:13.478Z</time>
</trkpt>
<trkpt lat="-27.1514316" lon="152.8901242">
<ele>57.652</ele>
<time>2016-07-17T01:31:15.537Z</time>
</trkpt>
<trkpt lat="-27.1508776" lon="152.8902366">
<ele>58.397</ele>
<time>2016-07-17T01:31:18.444Z</time>
</trkpt>
<trkpt lat="-27.1502922" lon="152.8902457">
<ele>61.955</ele>
<time>2016-07-17T01:31:21.502Z</time>
</trkpt>
<trkpt lat="-27.1498879" lon="152.8902230">
<ele>65.205</ele>
<time>2016-07-17T01:31:23.637Z</time>
</trkpt>
<trkpt lat="-27.1493649" lon="152.8902639">
<ele>65.323</ele>
<time>2016-07-17T01:31:26.674Z</time>
</trkpt>
<trkpt lat="-27.1491109" lon="152.8904257">
<ele>61.999</ele>
<time>2016-07-17T01:31:28.548Z</time>
</trkpt>
<trkpt lat="-27.1487830" lon="152.8908738">
<ele>56.994</ele>
<time>2016-07-17T01:31:31.718Z</time>
</trkpt>
<trkpt lat="-27.1486027" lon="152.8912359">
<ele>54.666</ele>
<time>2016-07-17T01:31:33.817Z</time>
</trkpt>
<trkpt lat="-27.1483225" lon="152.8917307">
<ele>58.572</ele>
<time>2016-07-17T01:31:36.837Z</time>
</trkpt>
<trkpt lat="-27.1480800" lon="152.8919750">
<ele>66.809</ele>
<time>2016-07-17T01:31:38.816Z</time>
</trkpt>
<trkpt lat="-27.1476642" lon="152.8922952">
<ele>74.207</ele>
<time>2016-07-17T01:31:41.895Z</time>
</trkpt>
<trkpt lat="-27.1474456" lon="152.8925271">
<ele>77.435</ele>
<time>2016-07-17T01:31:43.779Z</time>
</trkpt>
<trkpt lat="-27.1472958" lon="152.8929942">
<ele>76.533</ele>
<time>2016-07-17T01:31:46.588Z</time>
</trkpt>
<trkpt lat="-27.1473305" lon="152.8933768">
<ele>73.818</ele>
<time>2016-07-17T01:31:48.515Z</time>
</trkpt>
<trkpt lat="-27.1473908" lon="152.8938788">
<ele>72.041</ele>
<time>2016-07-17T01:31:50.641Z</time>
</trkpt>
<trkpt lat="-27.1474707" lon="152.8943942">
<ele>72.395</ele>
<time>2016-07-17T01:31:52.655Z</time>
</trkpt>
<trkpt lat="-27.1475887" lon="152.8951852">
<ele>73.999</ele>
<time>2016-07-17T01:31:55.693Z</time>
</trkpt>
<trkpt lat="-27.1477057" lon="152.8959699">
<ele>74.787</ele>
<time>2016-07-17T01:31:58.660Z</time>
</trkpt>
<trkpt lat="-27.1477954" lon="152.8965949">
<ele>72.263</ele>
<time>2016-07-17T01:32:00.828Z</time>
</trkpt>
<trkpt lat="-27.1478783" lon="152.8972365">
<ele>66.608</ele>
<time>2016-07-17T01:32:02.897Z</time>
</trkpt>
<trkpt lat="-27.1479233" lon="152.8978448">
<ele>61.602</ele>
<time>2016-07-17T01:32:04.860Z</time>
</trkpt>
<trkpt lat="-27.1480602" lon="152.8986981">
<ele>59.682</ele>
<time>2016-07-17T01:32:07.751Z</time>
</trkpt>
<trkpt lat="-27.1481895" lon="152.8995903">
<ele>59.085</ele>
<time>2016-07-17T01:32:10.812Z</time>
</trkpt>
<trkpt lat="-27.1482994" lon="152.9004732">
<ele>56.943</ele>
<time>2016-07-17T01:32:13.763Z</time>
</trkpt>
<trkpt lat="-27.1483806" lon="152.9011191">
<ele>53.060</ele>
<time>2016-07-17T01:32:15.846Z</time>
</trkpt>
<trkpt lat="-27.1485094" lon="152.9020513">
<ele>50.567</ele>
<time>2016-07-17T01:32:18.864Z</time>
</trkpt>
<trkpt lat="-27.1486295" lon="152.9029332">
<ele>51.194</ele>
<time>2016-07-17T01:32:21.745Z</time>
</trkpt>
<trkpt lat="-27.1487667" lon="152.9038927">
<ele>53.129</ele>
<time>2016-07-17T01:32:24.755Z</time>
</trkpt>
<trkpt lat="-27.1489115" lon="152.9048955">
<ele>54.380</ele>
<time>2016-07-17T01:32:27.820Z</time>
</trkpt>
<trkpt lat="-27.1490371" lon="152.9058431">
<ele>54.721</ele>
<time>2016-07-17T01:32:30.850Z</time>
</trkpt>
<trkpt lat="-27.1491115" lon="152.9063974">
<ele>53.714</ele>
<time>2016-07-17T01:32:32.801Z</time>
</trkpt>
<trkpt lat="-27.1491622" lon="152.9069142">
<ele>50.713</ele>
<time>2016-07-17T01:32:34.737Z</time>
</trkpt>
<trkpt lat="-27.1492814" lon="152.9076649">
<ele>46.837</ele>
<time>2016-07-17T01:32:37.713Z</time>
</trkpt>
<trkpt lat="-27.1493465" lon="152.9081495">
<ele>43.745</ele>
<time>2016-07-17T01:32:39.706Z</time>
</trkpt>
<trkpt lat="-27.1494282" lon="152.9088684">
<ele>41.612</ele>
<time>2016-07-17T01:32:42.691Z</time>
</trkpt>
<trkpt lat="-27.1495020" lon="152.9093544">
<ele>40.270</ele>
<time>2016-07-17T01:32:44.699Z</time>
</trkpt>
<trkpt lat="-27.1495776" lon="152.9098333">
<ele>40.182</ele>
<time>2016-07-17T01:32:46.682Z</time>
</trkpt>
<trkpt lat="-27.1496501" lon="152.9105416">
<ele>41.645</ele>
<time>2016-07-17T01:32:49.586Z</time>
</trkpt>
<trkpt lat="-27.1497180" lon="152.9110549">
<ele>44.186</ele>
<time>2016-07-17T01:32:51.653Z</time>
</trkpt>
<trkpt lat="-27.1497852" lon="152.9115649">
<ele>46.966</ele>
<time>2016-07-17T01:32:53.683Z</time>
</trkpt>
<trkpt lat="-27.1498782" lon="152.9122718">
<ele>49.348</ele>
<time>2016-07-17T01:32:56.674Z</time>
</trkpt>
<trkpt lat="-27.1499748" lon="152.9129135">
<ele>51.118</ele>
<time>2016-07-17T01:32:59.578Z</time>
</trkpt>
<trkpt lat="-27.1499871" lon="152.9133854">
<ele>52.357</ele>
<time>2016-07-17T01:33:01.605Z</time>
</trkpt>
<trkpt lat="-27.1499759" lon="152.9141795">
<ele>53.525</ele>
<time>2016-07-17T01:33:04.719Z</time>
</trkpt>
<trkpt lat="-27.1499731" lon="152.9149965">
<ele>54.975</ele>
<time>2016-07-17T01:33:07.836Z</time>
</trkpt>
<trkpt lat="-27.1499597" lon="152.9157248">
<ele>56.149</ele>
<time>2016-07-17T01:33:10.715Z</time>
</trkpt>
<trkpt lat="-27.1499242" lon="152.9165121">
<ele>56.059</ele>
<time>2016-07-17T01:33:13.800Z</time>
</trkpt>
<trkpt lat="-27.1499115" lon="152.9170312">
<ele>54.221</ele>
<time>2016-07-17T01:33:15.825Z</time>
</trkpt>
<trkpt lat="-27.1499093" lon="152.9177665">
<ele>50.711</ele>
<time>2016-07-17T01:33:18.781Z</time>
</trkpt>
<trkpt lat="-27.1498954" lon="152.9184797">
<ele>46.486</ele>
<time>2016-07-17T01:33:21.750Z</time>
</trkpt>
<trkpt lat="-27.1497963" lon="152.9191722">
<ele>42.924</ele>
<time>2016-07-17T01:33:24.717Z</time>
</trkpt>
<trkpt lat="-27.1496832" lon="152.9196254">
<ele>40.466</ele>
<time>2016-07-17T01:33:26.719Z</time>
</trkpt>
<trkpt lat="-27.1495237" lon="152.9202983">
<ele>38.745</ele>
<time>2016-07-17T01:33:29.707Z</time>
</trkpt>
<trkpt lat="-27.1494285" lon="152.9209651">
<ele>37.771</ele>
<time>2016-07-17T01:33:32.656Z</time>
</trkpt>
<trkpt lat="-27.1494448" lon="152.9214114">
<ele>37.689</ele>
<time>2016-07-17T01:33:34.632Z</time>
</trkpt>
<trkpt lat="-27.1494789" lon="152.9216400">
<ele>38.090</ele>
<time>2016-07-17T01:33:35.666Z</time>
</trkpt>
<trkpt lat="-27.1497617" lon="152.9225024">
<ele>38.558</ele>
<time>2016-07-17T01:33:39.707Z</time>
</trkpt>
<trkpt lat="-27.1499827" lon="152.9228828">
<ele>39.372</ele>
<time>2016-07-17T01:33:41.647Z</time>
</trkpt>
<trkpt lat="-27.1503690" lon="152.9234604">
<ele>40.735</ele>
<time>2016-07-17T01:33:44.695Z</time>
</trkpt>
<trkpt lat="-27.1505762" lon="152.9238928">
<ele>41.967</ele>
<time>2016-07-17T01:33:46.700Z</time>
</trkpt>
<trkpt lat="-27.1507372" lon="152.9243740">
<ele>42.145</ele>
<time>2016-07-17T01:33:48.723Z</time>
</trkpt>
<trkpt lat="-27.1508149" lon="152.9248954">
<ele>40.737</ele>
<time>2016-07-17T01:33:50.793Z</time>
</trkpt>
<trkpt lat="-27.1509103" lon="152.9256222">
<ele>38.290</ele>
<time>2016-07-17T01:33:53.836Z</time>
</trkpt>
<trkpt lat="-27.1510025" lon="152.9262460">
<ele>35.984</ele>
<time>2016-07-17T01:33:56.775Z</time>
</trkpt>
<trkpt lat="-27.1510313" lon="152.9264369">
<ele>33.873</ele>
<time>2016-07-17T01:33:57.752Z</time>
</trkpt>
<trkpt lat="-27.1511475" lon="152.9271503">
<ele>31.693</ele>
<time>2016-07-17T01:34:01.922Z</time>
</trkpt>
<trkpt lat="-27.1512334" lon="152.9275154">
<ele>29.132</ele>
<time>2016-07-17T01:34:04.757Z</time>
</trkpt>
<trkpt lat="-27.1513140" lon="152.9277324">
<ele>24.844</ele>
<time>2016-07-17T01:34:07.221Z</time>
</trkpt>
<trkpt lat="-27.1513791" lon="152.9278270">
<ele>18.605</ele>
<time>2016-07-17T01:34:09.000Z</time>
</trkpt>
<trkpt lat="-27.1513791" lon="152.9278270">
<ele>12.846</ele>
<time>2016-07-17T01:34:13.000Z</time>
</trkpt>
<trkpt lat="-27.1513791" lon="152.9278270">
<ele>10.088</ele>
<time>2016-07-17T01:34:23.498Z</time>
</trkpt>
<trkpt lat="-27.1515698" lon="152.9278988">
<ele>10.375</ele>
<time>2016-07-17T01:34:28.361Z</time>
</trkpt>
<trkpt lat="-27.1517154" lon="152.9277481">
<ele>11.027</ele>
<time>2016-07-17T01:34:30.358Z</time>
</trkpt>
<trkpt lat="-27.1520895" lon="152.9272179">
<ele>10.067</ele>
<time>2016-07-17T01:34:34.905Z</time>
</trkpt>
<trkpt lat="-27.1523950" lon="152.9268206">
<ele>9.691</ele>
<time>2016-07-17T01:34:37.807Z</time>
</trkpt>
<trkpt lat="-27.1528207" lon="152.9262609">
<ele>12.185</ele>
<time>2016-07-17T01:34:41.263Z</time>
</trkpt>
<trkpt lat="-27.1530847" lon="152.9259181">
<ele>15.718</ele>
<time>2016-07-17T01:34:43.344Z</time>
</trkpt>
<trkpt lat="-27.1534909" lon="152.9254314">
<ele>17.536</ele>
<time>2016-07-17T01:34:46.547Z</time>
</trkpt>
<trkpt lat="-27.1537514" lon="152.9251504">
<ele>17.335</ele>
<time>2016-07-17T01:34:48.523Z</time>
</trkpt>
<trkpt lat="-27.1542064" lon="152.9248076">
<ele>16.295</ele>
<time>2016-07-17T01:34:51.485Z</time>
</trkpt>
<trkpt lat="-27.1547082" lon="152.9245743">
<ele>15.507</ele>
<time>2016-07-17T01:34:54.355Z</time>
</trkpt>
<trkpt lat="-27.1552558" lon="152.9243920">
<ele>15.634</ele>
<time>2016-07-17T01:34:57.374Z</time>
</trkpt>
<trkpt lat="-27.1556215" lon="152.9242892">
<ele>17.625</ele>
<time>2016-07-17T01:34:59.412Z</time>
</trkpt>
<trkpt lat="-27.1561490" lon="152.9241078">
<ele>21.406</ele>
<time>2016-07-17T01:35:02.539Z</time>
</trkpt>
<trkpt lat="-27.1564811" lon="152.9239875">
<ele>25.145</ele>
<time>2016-07-17T01:35:04.548Z</time>
</trkpt>
<trkpt lat="-27.1569739" lon="152.9238376">
<ele>27.545</ele>
<time>2016-07-17T01:35:07.454Z</time>
</trkpt>
<trkpt lat="-27.1573164" lon="152.9236994">
<ele>28.879</ele>
<time>2016-07-17T01:35:09.509Z</time>
</trkpt>
<trkpt lat="-27.1578327" lon="152.9235187">
<ele>29.786</ele>
<time>2016-07-17T01:35:12.548Z</time>
</trkpt>
<trkpt lat="-27.1581597" lon="152.9234117">
<ele>31.029</ele>
<time>2016-07-17T01:35:14.485Z</time>
</trkpt>
<trkpt lat="-27.1585038" lon="152.9232951">
<ele>33.228</ele>
<time>2016-07-17T01:35:16.502Z</time>
</trkpt>
<trkpt lat="-27.1590036" lon="152.9231329">
<ele>35.828</ele>
<time>2016-07-17T01:35:19.348Z</time>
</trkpt>
<trkpt lat="-27.1595198" lon="152.9229504">
<ele>37.810</ele>
<time>2016-07-17T01:35:22.216Z</time>
</trkpt>
<trkpt lat="-27.1600402" lon="152.9227080">
<ele>39.267</ele>
<time>2016-07-17T01:35:25.151Z</time>
</trkpt>
<trkpt lat="-27.1603885" lon="152.9225138">
<ele>40.966</ele>
<time>2016-07-17T01:35:27.188Z</time>
</trkpt>
<trkpt lat="-27.1607121" lon="152.9223092">
<ele>42.776</ele>
<time>2016-07-17T01:35:29.134Z</time>
</trkpt>
<trkpt lat="-27.1611976" lon="152.9219837">
<ele>43.826</ele>
<time>2016-07-17T01:35:32.089Z</time>
</trkpt>
<trkpt lat="-27.1615263" lon="152.9217667">
<ele>43.713</ele>
<time>2016-07-17T01:35:34.111Z</time>
</trkpt>
<trkpt lat="-27.1618429" lon="152.9215329">
<ele>42.934</ele>
<time>2016-07-17T01:35:36.208Z</time>
</trkpt>
<trkpt lat="-27.1621637" lon="152.9213072">
<ele>42.111</ele>
<time>2016-07-17T01:35:38.363Z</time>
</trkpt>
<trkpt lat="-27.1623141" lon="152.9212085">
<ele>41.143</ele>
<time>2016-07-17T01:35:39.342Z</time>
</trkpt>
<trkpt lat="-27.1629022" lon="152.9208243">
<ele>39.616</ele>
<time>2016-07-17T01:35:43.023Z</time>
</trkpt>
<trkpt lat="-27.1633790" lon="152.9205009">
<ele>37.878</ele>
<time>2016-07-17T01:35:45.910Z</time>
</trkpt>
<trkpt lat="-27.1638975" lon="152.9202123">
<ele>37.233</ele>
<time>2016-07-17T01:35:48.916Z</time>
</trkpt>
<trkpt lat="-27.1642534" lon="152.9200538">
<ele>38.446</ele>
<time>2016-07-17T01:35:50.929Z</time>
</trkpt>
<trkpt lat="-27.1645839" lon="152.9198866">
<ele>40.525</ele>
<time>2016-07-17T01:35:52.838Z</time>
</trkpt>
<trkpt lat="-27.1651158" lon="152.9196381">
<ele>41.770</ele>
<time>2016-07-17T01:35:55.911Z</time>
</trkpt>
<trkpt lat="-27.1654564" lon="152.9194821">
<ele>41.482</ele>
<time>2016-07-17T01:35:57.905Z</time>
</trkpt>
<trkpt lat="-27.1659591" lon="152.9192450">
<ele>40.230</ele>
<time>2016-07-17T01:36:00.888Z</time>
</trkpt>
<trkpt lat="-27.1662975" lon="152.9191094">
<ele>39.038</ele>
<time>2016-07-17T01:36:02.824Z</time>
</trkpt>
<trkpt lat="-27.1666401" lon="152.9189574">
<ele>38.761</ele>
<time>2016-07-17T01:36:04.806Z</time>
</trkpt>
<trkpt lat="-27.1671503" lon="152.9187314">
<ele>39.731</ele>
<time>2016-07-17T01:36:07.749Z</time>
</trkpt>
<trkpt lat="-27.1675039" lon="152.9185838">
<ele>41.291</ele>
<time>2016-07-17T01:36:09.778Z</time>
</trkpt>
<trkpt lat="-27.1680003" lon="152.9183735">
<ele>42.540</ele>
<time>2016-07-17T01:36:12.637Z</time>
</trkpt>
<trkpt lat="-27.1685049" lon="152.9181478">
<ele>43.266</ele>
<time>2016-07-17T01:36:15.516Z</time>
</trkpt>
<trkpt lat="-27.1688469" lon="152.9179883">
<ele>44.191</ele>
<time>2016-07-17T01:36:17.507Z</time>
</trkpt>
<trkpt lat="-27.1692052" lon="152.9178300">
<ele>45.811</ele>
<time>2016-07-17T01:36:19.585Z</time>
</trkpt>
<trkpt lat="-27.1697151" lon="152.9176504">
<ele>47.375</ele>
<time>2016-07-17T01:36:22.416Z</time>
</trkpt>
<trkpt lat="-27.1702774" lon="152.9175792">
<ele>48.149</ele>
<time>2016-07-17T01:36:25.244Z</time>
</trkpt>
<trkpt lat="-27.1708740" lon="152.9176135">
<ele>48.541</ele>
<time>2016-07-17T01:36:28.133Z</time>
</trkpt>
<trkpt lat="-27.1714845" lon="152.9178278">
<ele>48.974</ele>
<time>2016-07-17T01:36:31.264Z</time>
</trkpt>
<trkpt lat="-27.1718404" lon="152.9180490">
<ele>49.391</ele>
<time>2016-07-17T01:36:33.317Z</time>
</trkpt>
<trkpt lat="-27.1721534" lon="152.9183028">
<ele>49.269</ele>
<time>2016-07-17T01:36:35.322Z</time>
</trkpt>
<trkpt lat="-27.1724250" lon="152.9186096">
<ele>48.296</ele>
<time>2016-07-17T01:36:37.353Z</time>
</trkpt>
<trkpt lat="-27.1727745" lon="152.9190717">
<ele>46.830</ele>
<time>2016-07-17T01:36:40.262Z</time>
</trkpt>
<trkpt lat="-27.1731501" lon="152.9195239">
<ele>44.873</ele>
<time>2016-07-17T01:36:43.267Z</time>
</trkpt>
<trkpt lat="-27.1735130" lon="152.9199630">
<ele>42.122</ele>
<time>2016-07-17T01:36:46.235Z</time>
</trkpt>
<trkpt lat="-27.1738859" lon="152.9203864">
<ele>38.905</ele>
<time>2016-07-17T01:36:49.171Z</time>
</trkpt>
<trkpt lat="-27.1742762" lon="152.9208044">
<ele>35.764</ele>
<time>2016-07-17T01:36:52.107Z</time>
</trkpt>
<trkpt lat="-27.1745223" lon="152.9210932">
<ele>32.879</ele>
<time>2016-07-17T01:36:54.038Z</time>
</trkpt>
<trkpt lat="-27.1749079" lon="152.9215413">
<ele>30.186</ele>
<time>2016-07-17T01:36:57.034Z</time>
</trkpt>
<trkpt lat="-27.1753012" lon="152.9219888">
<ele>27.528</ele>
<time>2016-07-17T01:37:00.019Z</time>
</trkpt>
<trkpt lat="-27.1755363" lon="152.9222744">
<ele>25.090</ele>
<time>2016-07-17T01:37:01.891Z</time>
</trkpt>
<trkpt lat="-27.1758019" lon="152.9225728">
<ele>23.354</ele>
<time>2016-07-17T01:37:03.957Z</time>
</trkpt>
<trkpt lat="-27.1760467" lon="152.9228562">
<ele>22.619</ele>
<time>2016-07-17T01:37:05.900Z</time>
</trkpt>
<trkpt lat="-27.1763020" lon="152.9231541">
<ele>22.695</ele>
<time>2016-07-17T01:37:07.933Z</time>
</trkpt>
<trkpt lat="-27.1766724" lon="152.9235815">
<ele>23.585</ele>
<time>2016-07-17T01:37:10.863Z</time>
</trkpt>
<trkpt lat="-27.1770501" lon="152.9240235">
<ele>25.431</ele>
<time>2016-07-17T01:37:13.936Z</time>
</trkpt>
<trkpt lat="-27.1774019" lon="152.9244512">
<ele>27.544</ele>
<time>2016-07-17T01:37:17.115Z</time>
</trkpt>
<trkpt lat="-27.1777033" lon="152.9248314">
<ele>28.886</ele>
<time>2016-07-17T01:37:20.364Z</time>
</trkpt>
<trkpt lat="-27.1778982" lon="152.9250609">
<ele>29.018</ele>
<time>2016-07-17T01:37:22.736Z</time>
</trkpt>
<trkpt lat="-27.1780564" lon="152.9252578">
<ele>27.930</ele>
<time>2016-07-17T01:37:24.942Z</time>
</trkpt>
<trkpt lat="-27.1781748" lon="152.9254412">
<ele>26.152</ele>
<time>2016-07-17T01:37:26.837Z</time>
</trkpt>
<trkpt lat="-27.1783584" lon="152.9257453">
<ele>24.511</ele>
<time>2016-07-17T01:37:29.617Z</time>
</trkpt>
<trkpt lat="-27.1785623" lon="152.9258511">
<ele>23.432</ele>
<time>2016-07-17T01:37:31.159Z</time>
</trkpt>
<trkpt lat="-27.1787788" lon="152.9260577">
<ele>22.976</ele>
<time>2016-07-17T01:37:32.893Z</time>
</trkpt>
<trkpt lat="-27.1790123" lon="152.9263199">
<ele>23.362</ele>
<time>2016-07-17T01:37:34.744Z</time>
</trkpt>
<trkpt lat="-27.1792742" lon="152.9266092">
<ele>24.840</ele>
<time>2016-07-17T01:37:36.747Z</time>
</trkpt>
<trkpt lat="-27.1794140" lon="152.9267575">
<ele>27.384</ele>
<time>2016-07-17T01:37:37.802Z</time>
</trkpt>
<trkpt lat="-27.1799107" lon="152.9273214">
<ele>30.432</ele>
<time>2016-07-17T01:37:41.665Z</time>
</trkpt>
<trkpt lat="-27.1803575" lon="152.9276815">
<ele>32.954</ele>
<time>2016-07-17T01:37:44.625Z</time>
</trkpt>
<trkpt lat="-27.1808345" lon="152.9279959">
<ele>33.974</ele>
<time>2016-07-17T01:37:47.671Z</time>
</trkpt>
<trkpt lat="-27.1813125" lon="152.9282512">
<ele>33.267</ele>
<time>2016-07-17T01:37:50.706Z</time>
</trkpt>
<trkpt lat="-27.1817732" lon="152.9285025">
<ele>31.515</ele>
<time>2016-07-17T01:37:53.685Z</time>
</trkpt>
<trkpt lat="-27.1822543" lon="152.9287455">
<ele>29.871</ele>
<time>2016-07-17T01:37:56.744Z</time>
</trkpt>
<trkpt lat="-27.1827253" lon="152.9289869">
<ele>29.191</ele>
<time>2016-07-17T01:37:59.854Z</time>
</trkpt>
<trkpt lat="-27.1831645" lon="152.9292248">
<ele>29.695</ele>
<time>2016-07-17T01:38:03.231Z</time>
</trkpt>
<trkpt lat="-27.1834234" lon="152.9293402">
<ele>30.863</ele>
<time>2016-07-17T01:38:05.337Z</time>
</trkpt>
<trkpt lat="-27.1837632" lon="152.9295384">
<ele>31.833</ele>
<time>2016-07-17T01:38:08.218Z</time>
</trkpt>
<trkpt lat="-27.1841146" lon="152.9297383">
<ele>32.261</ele>
<time>2016-07-17T01:38:10.822Z</time>
</trkpt>
<trkpt lat="-27.1845250" lon="152.9300029">
<ele>32.574</ele>
<time>2016-07-17T01:38:13.759Z</time>
</trkpt>
<trkpt lat="-27.1847878" lon="152.9302157">
<ele>33.594</ele>
<time>2016-07-17T01:38:15.822Z</time>
</trkpt>
<trkpt lat="-27.1850791" lon="152.9305803">
<ele>35.369</ele>
<time>2016-07-17T01:38:18.632Z</time>
</trkpt>
<trkpt lat="-27.1853632" lon="152.9310061">
<ele>36.628</ele>
<time>2016-07-17T01:38:21.454Z</time>
</trkpt>
<trkpt lat="-27.1855806" lon="152.9315451">
<ele>36.471</ele>
<time>2016-07-17T01:38:24.364Z</time>
</trkpt>
<trkpt lat="-27.1857193" lon="152.9321510">
<ele>35.512</ele>
<time>2016-07-17T01:38:27.409Z</time>
</trkpt>
<trkpt lat="-27.1857661" lon="152.9325540">
<ele>34.485</ele>
<time>2016-07-17T01:38:29.540Z</time>
</trkpt>
<trkpt lat="-27.1857881" lon="152.9329182">
<ele>33.020</ele>
<time>2016-07-17T01:38:31.780Z</time>
</trkpt>
<trkpt lat="-27.1857920" lon="152.9332491">
<ele>30.101</ele>
<time>2016-07-17T01:38:34.479Z</time>
</trkpt>
<trkpt lat="-27.1857569" lon="152.9335722">
<ele>25.812</ele>
<time>2016-07-17T01:38:40.616Z</time>
</trkpt>
<trkpt lat="-27.1857342" lon="152.9336979">
<ele>20.914</ele>
<time>2016-07-17T01:38:42.755Z</time>
</trkpt>
<trkpt lat="-27.1856764" lon="152.9337767">
<ele>16.030</ele>
<time>2016-07-17T01:38:44.177Z</time>
</trkpt>
<trkpt lat="-27.1856036" lon="152.9339018">
<ele>12.308</ele>
<time>2016-07-17T01:38:46.274Z</time>
</trkpt>
<trkpt lat="-27.1855640" lon="152.9341395">
<ele>10.989</ele>
<time>2016-07-17T01:38:49.530Z</time>
</trkpt>
<trkpt lat="-27.1857230" lon="152.9342474">
<ele>11.855</ele>
<time>2016-07-17T01:38:52.105Z</time>
</trkpt>
<trkpt lat="-27.1859517" lon="152.9342340">
<ele>13.599</ele>
<time>2016-07-17T01:38:54.908Z</time>
</trkpt>
<trkpt lat="-27.1860924" lon="152.9343768">
<ele>15.100</ele>
<time>2016-07-17T01:38:56.927Z</time>
</trkpt>
<trkpt lat="-27.1861620" lon="152.9347434">
<ele>16.148</ele>
<time>2016-07-17T01:38:59.463Z</time>
</trkpt>
<trkpt lat="-27.1862481" lon="152.9352445">
<ele>17.196</ele>
<time>2016-07-17T01:39:02.553Z</time>
</trkpt>
<trkpt lat="-27.1862984" lon="152.9355693">
<ele>18.896</ele>
<time>2016-07-17T01:39:04.467Z</time>
</trkpt>
<trkpt lat="-27.1864011" lon="152.9360724">
<ele>21.030</ele>
<time>2016-07-17T01:39:07.327Z</time>
</trkpt>
<trkpt lat="-27.1864327" lon="152.9362559">
<ele>23.306</ele>
<time>2016-07-17T01:39:08.286Z</time>
</trkpt>
<trkpt lat="-27.1865836" lon="152.9370443">
<ele>26.104</ele>
<time>2016-07-17T01:39:12.281Z</time>
</trkpt>
<trkpt lat="-27.1866598" lon="152.9376445">
<ele>29.507</ele>
<time>2016-07-17T01:39:15.302Z</time>
</trkpt>
<trkpt lat="-27.1867780" lon="152.9381960">
<ele>32.745</ele>
<time>2016-07-17T01:39:18.232Z</time>
</trkpt>
<trkpt lat="-27.1869219" lon="152.9385487">
<ele>34.750</ele>
<time>2016-07-17T01:39:20.201Z</time>
</trkpt>
<trkpt lat="-27.1871287" lon="152.9388704">
<ele>35.179</ele>
<time>2016-07-17T01:39:22.146Z</time>
</trkpt>
<trkpt lat="-27.1874602" lon="152.9393371">
<ele>35.250</ele>
<time>2016-07-17T01:39:25.073Z</time>
</trkpt>
<trkpt lat="-27.1876576" lon="152.9396374">
<ele>36.910</ele>
<time>2016-07-17T01:39:27.001Z</time>
</trkpt>
<trkpt lat="-27.1879890" lon="152.9400714">
<ele>40.427</ele>
<time>2016-07-17T01:39:30.073Z</time>
</trkpt>
<trkpt lat="-27.1882348" lon="152.9403195">
<ele>43.980</ele>
<time>2016-07-17T01:39:32.138Z</time>
</trkpt>
<trkpt lat="-27.1887733" lon="152.9407227">
<ele>46.990</ele>
<time>2016-07-17T01:39:36.288Z</time>
</trkpt>
<trkpt lat="-27.1890629" lon="152.9408815">
<ele>50.335</ele>
<time>2016-07-17T01:39:38.447Z</time>
</trkpt>
<trkpt lat="-27.1893238" lon="152.9410218">
<ele>53.534</ele>
<time>2016-07-17T01:39:40.471Z</time>
</trkpt>
<trkpt lat="-27.1895802" lon="152.9411378">
<ele>55.445</ele>
<time>2016-07-17T01:39:42.411Z</time>
</trkpt>
<trkpt lat="-27.1899476" lon="152.9413639">
<ele>55.999</ele>
<time>2016-07-17T01:39:45.172Z</time>
</trkpt>
<trkpt lat="-27.1903204" lon="152.9417139">
<ele>55.883</ele>
<time>2016-07-17T01:39:48.149Z</time>
</trkpt>
<trkpt lat="-27.1905288" lon="152.9420269">
<ele>55.863</ele>
<time>2016-07-17T01:39:50.196Z</time>
</trkpt>
<trkpt lat="-27.1907872" lon="152.9425264">
<ele>56.544</ele>
<time>2016-07-17T01:39:53.353Z</time>
</trkpt>
<trkpt lat="-27.1910585" lon="152.9429116">
<ele>57.778</ele>
<time>2016-07-17T01:39:56.178Z</time>
</trkpt>
<trkpt lat="-27.1912964" lon="152.9431324">
<ele>58.788</ele>
<time>2016-07-17T01:39:58.171Z</time>
</trkpt>
<trkpt lat="-27.1915604" lon="152.9433373">
<ele>59.129</ele>
<time>2016-07-17T01:40:00.323Z</time>
</trkpt>
<trkpt lat="-27.1917869" lon="152.9435275">
<ele>58.971</ele>
<time>2016-07-17T01:40:02.365Z</time>
</trkpt>
<trkpt lat="-27.1921049" lon="152.9437889">
<ele>58.308</ele>
<time>2016-07-17T01:40:05.354Z</time>
</trkpt>
<trkpt lat="-27.1924067" lon="152.9440274">
<ele>56.840</ele>
<time>2016-07-17T01:40:08.203Z</time>
</trkpt>
<trkpt lat="-27.1927168" lon="152.9442946">
<ele>54.871</ele>
<time>2016-07-17T01:40:11.229Z</time>
</trkpt>
<trkpt lat="-27.1929348" lon="152.9444535">
<ele>53.299</ele>
<time>2016-07-17T01:40:13.277Z</time>
</trkpt>
<trkpt lat="-27.1932464" lon="152.9447103">
<ele>52.556</ele>
<time>2016-07-17T01:40:16.539Z</time>
</trkpt>
<trkpt lat="-27.1935082" lon="152.9449307">
<ele>52.305</ele>
<time>2016-07-17T01:40:19.575Z</time>
</trkpt>
<trkpt lat="-27.1936587" lon="152.9450736">
<ele>52.090</ele>
<time>2016-07-17T01:40:21.335Z</time>
</trkpt>
<trkpt lat="-27.1937988" lon="152.9452793">
<ele>51.915</ele>
<time>2016-07-17T01:40:23.216Z</time>
</trkpt>
<trkpt lat="-27.1939154" lon="152.9456847">
<ele>52.200</ele>
<time>2016-07-17T01:40:26.137Z</time>
</trkpt>
<trkpt lat="-27.1939755" lon="152.9459875">
<ele>53.370</ele>
<time>2016-07-17T01:40:28.167Z</time>
</trkpt>
<trkpt lat="-27.1940261" lon="152.9462799">
<ele>55.149</ele>
<time>2016-07-17T01:40:30.079Z</time>
</trkpt>
<trkpt lat="-27.1940571" lon="152.9465858">
<ele>56.553</ele>
<time>2016-07-17T01:40:32.024Z</time>
</trkpt>
<trkpt lat="-27.1941313" lon="152.9470703">
<ele>57.109</ele>
<time>2016-07-17T01:40:35.115Z</time>
</trkpt>
<trkpt lat="-27.1942219" lon="152.9475183">
<ele>57.281</ele>
<time>2016-07-17T01:40:37.954Z</time>
</trkpt>
<trkpt lat="-27.1943194" lon="152.9478347">
<ele>57.676</ele>
<time>2016-07-17T01:40:39.952Z</time>
</trkpt>
<trkpt lat="-27.1944443" lon="152.9481631">
<ele>58.435</ele>
<time>2016-07-17T01:40:42.045Z</time>
</trkpt>
<trkpt lat="-27.1945701" lon="152.9484770">
<ele>59.221</ele>
<time>2016-07-17T01:40:43.973Z</time>
</trkpt>
<trkpt lat="-27.1947489" lon="152.9489912">
<ele>59.757</ele>
<time>2016-07-17T01:40:46.998Z</time>
</trkpt>
<trkpt lat="-27.1948541" lon="152.9493292">
<ele>60.393</ele>
<time>2016-07-17T01:40:48.929Z</time>
</trkpt>
<trkpt lat="-27.1951049" lon="152.9497877">
<ele>61.605</ele>
<time>2016-07-17T01:40:51.822Z</time>
</trkpt>
<trkpt lat="-27.1952921" lon="152.9500787">
<ele>63.067</ele>
<time>2016-07-17T01:40:53.746Z</time>
</trkpt>
<trkpt lat="-27.1954961" lon="152.9503798">
<ele>63.884</ele>
<time>2016-07-17T01:40:55.797Z</time>
</trkpt>
<trkpt lat="-27.1957835" lon="152.9508160">
<ele>63.525</ele>
<time>2016-07-17T01:40:58.781Z</time>
</trkpt>
<trkpt lat="-27.1959639" lon="152.9511002">
<ele>62.353</ele>
<time>2016-07-17T01:41:00.703Z</time>
</trkpt>
<trkpt lat="-27.1961687" lon="152.9513928">
<ele>61.259</ele>
<time>2016-07-17T01:41:02.785Z</time>
</trkpt>
<trkpt lat="-27.1964462" lon="152.9517990">
<ele>60.740</ele>
<time>2016-07-17T01:41:05.659Z</time>
</trkpt>
<trkpt lat="-27.1967422" lon="152.9522276">
<ele>60.612</ele>
<time>2016-07-17T01:41:08.651Z</time>
</trkpt>
<trkpt lat="-27.1969672" lon="152.9527227">
<ele>60.552</ele>
<time>2016-07-17T01:41:11.686Z</time>
</trkpt>
<trkpt lat="-27.1970383" lon="152.9532422">
<ele>60.244</ele>
<time>2016-07-17T01:41:14.592Z</time>
</trkpt>
<trkpt lat="-27.1969527" lon="152.9537731">
<ele>59.614</ele>
<time>2016-07-17T01:41:17.657Z</time>
</trkpt>
<trkpt lat="-27.1968047" lon="152.9542430">
<ele>58.953</ele>
<time>2016-07-17T01:41:20.563Z</time>
</trkpt>
<trkpt lat="-27.1967466" lon="152.9545700">
<ele>58.562</ele>
<time>2016-07-17T01:41:22.450Z</time>
</trkpt>
<trkpt lat="-27.1967077" lon="152.9551164">
<ele>58.368</ele>
<time>2016-07-17T01:41:25.477Z</time>
</trkpt>
<trkpt lat="-27.1967108" lon="152.9554791">
<ele>58.143</ele>
<time>2016-07-17T01:41:27.497Z</time>
</trkpt>
<trkpt lat="-27.1967512" lon="152.9558112">
<ele>57.503</ele>
<time>2016-07-17T01:41:29.434Z</time>
</trkpt>
<trkpt lat="-27.1968376" lon="152.9561306">
<ele>56.141</ele>
<time>2016-07-17T01:41:31.399Z</time>
</trkpt>
<trkpt lat="-27.1969606" lon="152.9564368">
<ele>54.222</ele>
<time>2016-07-17T01:41:33.392Z</time>
</trkpt>
<trkpt lat="-27.1970739" lon="152.9567336">
<ele>52.108</ele>
<time>2016-07-17T01:41:35.386Z</time>
</trkpt>
<trkpt lat="-27.1971818" lon="152.9570125">
<ele>49.889</ele>
<time>2016-07-17T01:41:37.337Z</time>
</trkpt>
<trkpt lat="-27.1974412" lon="152.9574233">
<ele>47.713</ele>
<time>2016-07-17T01:41:41.101Z</time>
</trkpt>
<trkpt lat="-27.1978008" lon="152.9574660">
<ele>45.063</ele>
<time>2016-07-17T01:41:44.143Z</time>
</trkpt>
<trkpt lat="-27.1980600" lon="152.9574307">
<ele>41.564</ele>
<time>2016-07-17T01:41:46.035Z</time>
</trkpt>
<trkpt lat="-27.1985451" lon="152.9573858">
<ele>38.460</ele>
<time>2016-07-17T01:41:49.288Z</time>
</trkpt>
<trkpt lat="-27.1990088" lon="152.9573982">
<ele>36.941</ele>
<time>2016-07-17T01:41:52.334Z</time>
</trkpt>
<trkpt lat="-27.1994386" lon="152.9574124">
<ele>36.400</ele>
<time>2016-07-17T01:41:55.200Z</time>
</trkpt>
<trkpt lat="-27.1995889" lon="152.9574287">
<ele>35.974</ele>
<time>2016-07-17T01:41:56.212Z</time>
</trkpt>
<trkpt lat="-27.2001622" lon="152.9575681">
<ele>35.458</ele>
<time>2016-07-17T01:42:00.299Z</time>
</trkpt>
<trkpt lat="-27.2005374" lon="152.9577541">
<ele>34.915</ele>
<time>2016-07-17T01:42:03.278Z</time>
</trkpt>
<trkpt lat="-27.2007575" lon="152.9578799">
<ele>34.285</ele>
<time>2016-07-17T01:42:05.136Z</time>
</trkpt>
<trkpt lat="-27.2010927" lon="152.9580491">
<ele>33.782</ele>
<time>2016-07-17T01:42:07.961Z</time>
</trkpt>
<trkpt lat="-27.2013098" lon="152.9581934">
<ele>33.964</ele>
<time>2016-07-17T01:42:09.994Z</time>
</trkpt>
<trkpt lat="-27.2014862" lon="152.9583661">
<ele>34.870</ele>
<time>2016-07-17T01:42:11.966Z</time>
</trkpt>
<trkpt lat="-27.2017309" lon="152.9586510">
<ele>35.778</ele>
<time>2016-07-17T01:42:15.029Z</time>
</trkpt>
<trkpt lat="-27.2019412" lon="152.9589144">
<ele>36.185</ele>
<time>2016-07-17T01:42:17.918Z</time>
</trkpt>
<trkpt lat="-27.2021460" lon="152.9591641">
<ele>36.221</ele>
<time>2016-07-17T01:42:20.946Z</time>
</trkpt>
<trkpt lat="-27.2022686" lon="152.9593098">
<ele>36.267</ele>
<time>2016-07-17T01:42:22.989Z</time>
</trkpt>
<trkpt lat="-27.2023713" lon="152.9594343">
<ele>36.480</ele>
<time>2016-07-17T01:42:24.911Z</time>
</trkpt>
<trkpt lat="-27.2025155" lon="152.9596060">
<ele>36.695</ele>
<time>2016-07-17T01:42:27.589Z</time>
</trkpt>
<trkpt lat="-27.2026609" lon="152.9597670">
<ele>36.925</ele>
<time>2016-07-17T01:42:29.768Z</time>
</trkpt>
<trkpt lat="-27.2028021" lon="152.9599515">
<ele>37.421</ele>
<time>2016-07-17T01:42:31.848Z</time>
</trkpt>
<trkpt lat="-27.2030151" lon="152.9601926">
<ele>38.294</ele>
<time>2016-07-17T01:42:34.764Z</time>
</trkpt>
<trkpt lat="-27.2032177" lon="152.9604056">
<ele>39.266</ele>
<time>2016-07-17T01:42:37.809Z</time>
</trkpt>
<trkpt lat="-27.2033515" lon="152.9605879">
<ele>39.564</ele>
<time>2016-07-17T01:42:40.713Z</time>
</trkpt>
<trkpt lat="-27.2034383" lon="152.9606844">
<ele>38.657</ele>
<time>2016-07-17T01:42:43.000Z</time>
</trkpt>
<trkpt lat="-27.2034383" lon="152.9606844">
<ele>37.165</ele>
<time>2016-07-17T01:42:48.000Z</time>
</trkpt>
<trkpt lat="-27.2034383" lon="152.9606844">
<ele>36.259</ele>
<time>2016-07-17T01:43:24.239Z</time>
</trkpt>
<trkpt lat="-27.2036017" lon="152.9607912">
<ele>36.301</ele>
<time>2016-07-17T01:43:33.367Z</time>
</trkpt>
<trkpt lat="-27.2037475" lon="152.9607197">
<ele>36.750</ele>
<time>2016-07-17T01:43:35.792Z</time>
</trkpt>
<trkpt lat="-27.2037785" lon="152.9604710">
<ele>37.086</ele>
<time>2016-07-17T01:43:37.881Z</time>
</trkpt>
<trkpt lat="-27.2038338" lon="152.9601573">
<ele>37.392</ele>
<time>2016-07-17T01:43:40.122Z</time>
</trkpt>
<trkpt lat="-27.2039010" lon="152.9597910">
<ele>38.116</ele>
<time>2016-07-17T01:43:42.477Z</time>
</trkpt>
<trkpt lat="-27.2040166" lon="152.9591946">
<ele>39.251</ele>
<time>2016-07-17T01:43:45.867Z</time>
</trkpt>
<trkpt lat="-27.2041303" lon="152.9585637">
<ele>40.144</ele>
<time>2016-07-17T01:43:48.891Z</time>
</trkpt>
<trkpt lat="-27.2043623" lon="152.9579144">
<ele>40.432</ele>
<time>2016-07-17T01:43:51.900Z</time>
</trkpt>
<trkpt lat="-27.2045360" lon="152.9574777">
<ele>40.226</ele>
<time>2016-07-17T01:43:53.901Z</time>
</trkpt>
<trkpt lat="-27.2049291" lon="152.9566376">
<ele>39.623</ele>
<time>2016-07-17T01:43:57.908Z</time>
</trkpt>
<trkpt lat="-27.2051273" lon="152.9562519">
<ele>38.171</ele>
<time>2016-07-17T01:43:59.939Z</time>
</trkpt>
<trkpt lat="-27.2052824" lon="152.9558651">
<ele>35.504</ele>
<time>2016-07-17T01:44:01.977Z</time>
</trkpt>
<trkpt lat="-27.2055223" lon="152.9553667">
<ele>32.403</ele>
<time>2016-07-17T01:44:05.265Z</time>
</trkpt>
<trkpt lat="-27.2058196" lon="152.9551078">
<ele>29.327</ele>
<time>2016-07-17T01:44:07.830Z</time>
</trkpt>
<trkpt lat="-27.2061248" lon="152.9550373">
<ele>26.021</ele>
<time>2016-07-17T01:44:09.603Z</time>
</trkpt>
<trkpt lat="-27.2065156" lon="152.9549713">
<ele>23.255</ele>
<time>2016-07-17T01:44:11.544Z</time>
</trkpt>
<trkpt lat="-27.2072251" lon="152.9548628">
<ele>22.395</ele>
<time>2016-07-17T01:44:14.542Z</time>
</trkpt>
<trkpt lat="-27.2080022" lon="152.9547031">
<ele>24.664</ele>
<time>2016-07-17T01:44:17.653Z</time>
</trkpt>
<trkpt lat="-27.2087198" lon="152.9545791">
<ele>30.043</ele>
<time>2016-07-17T01:44:20.654Z</time>
</trkpt>
<trkpt lat="-27.2094181" lon="152.9544812">
<ele>35.976</ele>
<time>2016-07-17T01:44:23.756Z</time>
</trkpt>
<trkpt lat="-27.2098463" lon="152.9544113">
<ele>39.629</ele>
<time>2016-07-17T01:44:25.726Z</time>
</trkpt>
<trkpt lat="-27.2104996" lon="152.9542874">
<ele>40.513</ele>
<time>2016-07-17T01:44:28.923Z</time>
</trkpt>
<trkpt lat="-27.2110940" lon="152.9542017">
<ele>39.839</ele>
<time>2016-07-17T01:44:32.296Z</time>
</trkpt>
<trkpt lat="-27.2114368" lon="152.9541466">
<ele>38.394</ele>
<time>2016-07-17T01:44:34.554Z</time>
</trkpt>
<trkpt lat="-27.2118927" lon="152.9540622">
<ele>36.099</ele>
<time>2016-07-17T01:44:38.063Z</time>
</trkpt>
<trkpt lat="-27.2120798" lon="152.9539046">
<ele>32.722</ele>
<time>2016-07-17T01:44:39.635Z</time>
</trkpt>
<trkpt lat="-27.2121050" lon="152.9534616">
<ele>28.925</ele>
<time>2016-07-17T01:44:41.926Z</time>
</trkpt>
<trkpt lat="-27.2120001" lon="152.9528392">
<ele>26.299</ele>
<time>2016-07-17T01:44:44.593Z</time>
</trkpt>
<trkpt lat="-27.2119136" lon="152.9523387">
<ele>26.545</ele>
<time>2016-07-17T01:44:46.707Z</time>
</trkpt>
<trkpt lat="-27.2118497" lon="152.9518748">
<ele>29.767</ele>
<time>2016-07-17T01:44:48.769Z</time>
</trkpt>
<trkpt lat="-27.2117828" lon="152.9514333">
<ele>33.834</ele>
<time>2016-07-17T01:44:50.813Z</time>
</trkpt>
<trkpt lat="-27.2116860" lon="152.9508179">
<ele>36.142</ele>
<time>2016-07-17T01:44:54.356Z</time>
</trkpt>
<trkpt lat="-27.2116225" lon="152.9503237">
<ele>36.177</ele>
<time>2016-07-17T01:44:58.614Z</time>
</trkpt>
<trkpt lat="-27.2116792" lon="152.9500739">
<ele>33.953</ele>
<time>2016-07-17T01:45:00.643Z</time>
</trkpt>
<trkpt lat="-27.2119952" lon="152.9499870">
<ele>29.872</ele>
<time>2016-07-17T01:45:02.755Z</time>
</trkpt>
<trkpt lat="-27.2123226" lon="152.9499367">
<ele>26.015</ele>
<time>2016-07-17T01:45:04.596Z</time>
</trkpt>
<trkpt lat="-27.2127228" lon="152.9498701">
<ele>24.391</ele>
<time>2016-07-17T01:45:06.539Z</time>
</trkpt>
<trkpt lat="-27.2133722" lon="152.9497373">
<ele>24.989</ele>
<time>2016-07-17T01:45:09.499Z</time>
</trkpt>
<trkpt lat="-27.2140555" lon="152.9496373">
<ele>27.166</ele>
<time>2016-07-17T01:45:12.578Z</time>
</trkpt>
<trkpt lat="-27.2147160" lon="152.9495245">
<ele>30.093</ele>
<time>2016-07-17T01:45:15.522Z</time>
</trkpt>
<trkpt lat="-27.2154053" lon="152.9493949">
<ele>32.644</ele>
<time>2016-07-17T01:45:18.536Z</time>
</trkpt>
<trkpt lat="-27.2158599" lon="152.9493297">
<ele>34.303</ele>
<time>2016-07-17T01:45:20.536Z</time>
</trkpt>
<trkpt lat="-27.2163049" lon="152.9492511">
<ele>35.370</ele>
<time>2016-07-17T01:45:22.480Z</time>
</trkpt>
<trkpt lat="-27.2167471" lon="152.9491859">
<ele>35.632</ele>
<time>2016-07-17T01:45:24.287Z</time>
</trkpt>
<trkpt lat="-27.2175063" lon="152.9490424">
<ele>34.923</ele>
<time>2016-07-17T01:45:27.128Z</time>
</trkpt>
<trkpt lat="-27.2183837" lon="152.9488534">
<ele>34.168</ele>
<time>2016-07-17T01:45:30.240Z</time>
</trkpt>
<trkpt lat="-27.2189546" lon="152.9487410">
<ele>35.125</ele>
<time>2016-07-17T01:45:32.346Z</time>
</trkpt>
<trkpt lat="-27.2194675" lon="152.9486609">
<ele>38.077</ele>
<time>2016-07-17T01:45:34.377Z</time>
</trkpt>
<trkpt lat="-27.2199364" lon="152.9485888">
<ele>40.737</ele>
<time>2016-07-17T01:45:36.311Z</time>
</trkpt>
<trkpt lat="-27.2204131" lon="152.9485240">
<ele>41.104</ele>
<time>2016-07-17T01:45:38.282Z</time>
</trkpt>
<trkpt lat="-27.2211254" lon="152.9483858">
<ele>39.842</ele>
<time>2016-07-17T01:45:41.246Z</time>
</trkpt>
<trkpt lat="-27.2215799" lon="152.9482843">
<ele>38.654</ele>
<time>2016-07-17T01:45:43.147Z</time>
</trkpt>
<trkpt lat="-27.2220589" lon="152.9482194">
<ele>38.549</ele>
<time>2016-07-17T01:45:45.111Z</time>
</trkpt>
<trkpt lat="-27.2230494" lon="152.9480413">
<ele>40.015</ele>
<time>2016-07-17T01:45:49.153Z</time>
</trkpt>
<trkpt lat="-27.2235470" lon="152.9479543">
<ele>42.844</ele>
<time>2016-07-17T01:45:51.171Z</time>
</trkpt>
<trkpt lat="-27.2240659" lon="152.9478885">
<ele>45.640</ele>
<time>2016-07-17T01:45:53.354Z</time>
</trkpt>
<trkpt lat="-27.2245274" lon="152.9478171">
<ele>47.442</ele>
<time>2016-07-17T01:45:55.420Z</time>
</trkpt>
<trkpt lat="-27.2249705" lon="152.9477571">
<ele>48.811</ele>
<time>2016-07-17T01:45:57.491Z</time>
</trkpt>
<trkpt lat="-27.2255820" lon="152.9476257">
<ele>49.829</ele>
<time>2016-07-17T01:46:00.422Z</time>
</trkpt>
<trkpt lat="-27.2261392" lon="152.9472856">
<ele>49.690</ele>
<time>2016-07-17T01:46:03.192Z</time>
</trkpt>
<trkpt lat="-27.2266496" lon="152.9466766">
<ele>48.535</ele>
<time>2016-07-17T01:46:06.282Z</time>
</trkpt>
<trkpt lat="-27.2269571" lon="152.9462698">
<ele>47.678</ele>
<time>2016-07-17T01:46:08.312Z</time>
</trkpt>
<trkpt lat="-27.2274680" lon="152.9457963">
<ele>47.741</ele>
<time>2016-07-17T01:46:11.153Z</time>
</trkpt>
<trkpt lat="-27.2279070" lon="152.9456149">
<ele>47.601</ele>
<time>2016-07-17T01:46:13.003Z</time>
</trkpt>
<trkpt lat="-27.2286737" lon="152.9454534">
<ele>46.301</ele>
<time>2016-07-17T01:46:15.869Z</time>
</trkpt>
<trkpt lat="-27.2295322" lon="152.9453326">
<ele>45.610</ele>
<time>2016-07-17T01:46:18.858Z</time>
</trkpt>
<trkpt lat="-27.2301100" lon="152.9452276">
<ele>47.901</ele>
<time>2016-07-17T01:46:20.926Z</time>
</trkpt>
<trkpt lat="-27.2309232" lon="152.9451071">
<ele>52.260</ele>
<time>2016-07-17T01:46:23.987Z</time>
</trkpt>
<trkpt lat="-27.2313923" lon="152.9449650">
<ele>55.992</ele>
<time>2016-07-17T01:46:25.978Z</time>
</trkpt>
<trkpt lat="-27.2320584" lon="152.9447996">
<ele>57.967</ele>
<time>2016-07-17T01:46:28.761Z</time>
</trkpt>
<trkpt lat="-27.2325390" lon="152.9446236">
<ele>58.102</ele>
<time>2016-07-17T01:46:30.704Z</time>
</trkpt>
<trkpt lat="-27.2330652" lon="152.9444586">
<ele>56.671</ele>
<time>2016-07-17T01:46:32.749Z</time>
</trkpt>
<trkpt lat="-27.2335925" lon="152.9443228">
<ele>54.921</ele>
<time>2016-07-17T01:46:34.800Z</time>
</trkpt>
<trkpt lat="-27.2345854" lon="152.9441178">
<ele>53.926</ele>
<time>2016-07-17T01:46:38.809Z</time>
</trkpt>
<trkpt lat="-27.2352775" lon="152.9439854">
<ele>53.073</ele>
<time>2016-07-17T01:46:41.737Z</time>
</trkpt>
<trkpt lat="-27.2357390" lon="152.9439647">
<ele>51.331</ele>
<time>2016-07-17T01:46:43.790Z</time>
</trkpt>
<trkpt lat="-27.2361441" lon="152.9439440">
<ele>48.221</ele>
<time>2016-07-17T01:46:45.672Z</time>
</trkpt>
<trkpt lat="-27.2367789" lon="152.9440390">
<ele>44.014</ele>
<time>2016-07-17T01:46:48.718Z</time>
</trkpt>
<trkpt lat="-27.2371776" lon="152.9441306">
<ele>39.764</ele>
<time>2016-07-17T01:46:50.772Z</time>
</trkpt>
<trkpt lat="-27.2375070" lon="152.9442157">
<ele>36.633</ele>
<time>2016-07-17T01:46:52.600Z</time>
</trkpt>
<trkpt lat="-27.2380293" lon="152.9443365">
<ele>34.743</ele>
<time>2016-07-17T01:46:55.610Z</time>
</trkpt>
<trkpt lat="-27.2385376" lon="152.9445240">
<ele>33.072</ele>
<time>2016-07-17T01:46:58.854Z</time>
</trkpt>
<trkpt lat="-27.2387734" lon="152.9447017">
<ele>30.841</ele>
<time>2016-07-17T01:47:00.752Z</time>
</trkpt>
<trkpt lat="-27.2391353" lon="152.9449818">
<ele>28.722</ele>
<time>2016-07-17T01:47:03.644Z</time>
</trkpt>
<trkpt lat="-27.2396062" lon="152.9451436">
<ele>27.482</ele>
<time>2016-07-17T01:47:06.697Z</time>
</trkpt>
<trkpt lat="-27.2399671" lon="152.9451556">
<ele>27.215</ele>
<time>2016-07-17T01:47:08.676Z</time>
</trkpt>
<trkpt lat="-27.2405304" lon="152.9449861">
<ele>27.709</ele>
<time>2016-07-17T01:47:11.669Z</time>
</trkpt>
<trkpt lat="-27.2409168" lon="152.9448147">
<ele>28.419</ele>
<time>2016-07-17T01:47:13.739Z</time>
</trkpt>
<trkpt lat="-27.2414732" lon="152.9446447">
<ele>28.877</ele>
<time>2016-07-17T01:47:16.680Z</time>
</trkpt>
<trkpt lat="-27.2418514" lon="152.9446104">
<ele>29.163</ele>
<time>2016-07-17T01:47:18.605Z</time>
</trkpt>
<trkpt lat="-27.2424460" lon="152.9446491">
<ele>29.539</ele>
<time>2016-07-17T01:47:21.454Z</time>
</trkpt>
<trkpt lat="-27.2431157" lon="152.9447152">
<ele>30.195</ele>
<time>2016-07-17T01:47:24.302Z</time>
</trkpt>
<trkpt lat="-27.2439555" lon="152.9448229">
<ele>31.845</ele>
<time>2016-07-17T01:47:27.451Z</time>
</trkpt>
<trkpt lat="-27.2445418" lon="152.9449258">
<ele>35.684</ele>
<time>2016-07-17T01:47:29.560Z</time>
</trkpt>
<trkpt lat="-27.2450466" lon="152.9450281">
<ele>40.916</ele>
<time>2016-07-17T01:47:31.518Z</time>
</trkpt>
<trkpt lat="-27.2452898" lon="152.9450567">
<ele>44.027</ele>
<time>2016-07-17T01:47:32.507Z</time>
</trkpt>
<trkpt lat="-27.2462217" lon="152.9449616">
<ele>42.746</ele>
<time>2016-07-17T01:47:36.452Z</time>
</trkpt>
<trkpt lat="-27.2466694" lon="152.9448339">
<ele>38.667</ele>
<time>2016-07-17T01:47:38.429Z</time>
</trkpt>
<trkpt lat="-27.2471037" lon="152.9446928">
<ele>34.566</ele>
<time>2016-07-17T01:47:40.481Z</time>
</trkpt>
<trkpt lat="-27.2476611" lon="152.9443894">
<ele>31.923</ele>
<time>2016-07-17T01:47:43.413Z</time>
</trkpt>
<trkpt lat="-27.2479575" lon="152.9440923">
<ele>30.487</ele>
<time>2016-07-17T01:47:45.261Z</time>
</trkpt>
<trkpt lat="-27.2483912" lon="152.9435003">
<ele>29.404</ele>
<time>2016-07-17T01:47:48.300Z</time>
</trkpt>
<trkpt lat="-27.2486372" lon="152.9430655">
<ele>28.836</ele>
<time>2016-07-17T01:47:50.303Z</time>
</trkpt>
<trkpt lat="-27.2489967" lon="152.9424627">
<ele>29.173</ele>
<time>2016-07-17T01:47:53.215Z</time>
</trkpt>
<trkpt lat="-27.2492523" lon="152.9420885">
<ele>29.510</ele>
<time>2016-07-17T01:47:55.257Z</time>
</trkpt>
<trkpt lat="-27.2495890" lon="152.9415888">
<ele>28.607</ele>
<time>2016-07-17T01:47:58.188Z</time>
</trkpt>
<trkpt lat="-27.2498303" lon="152.9411081">
<ele>26.501</ele>
<time>2016-07-17T01:48:01.136Z</time>
</trkpt>
<trkpt lat="-27.2499340" lon="152.9408265">
<ele>24.120</ele>
<time>2016-07-17T01:48:03.045Z</time>
</trkpt>
<trkpt lat="-27.2502311" lon="152.9405308">
<ele>22.104</ele>
<time>2016-07-17T01:48:06.073Z</time>
</trkpt>
<trkpt lat="-27.2505689" lon="152.9404189">
<ele>20.336</ele>
<time>2016-07-17T01:48:08.845Z</time>
</trkpt>
<trkpt lat="-27.2509535" lon="152.9402705">
<ele>18.682</ele>
<time>2016-07-17T01:48:11.838Z</time>
</trkpt>
<trkpt lat="-27.2513505" lon="152.9399635">
<ele>17.728</ele>
<time>2016-07-17T01:48:15.026Z</time>
</trkpt>
<trkpt lat="-27.2517834" lon="152.9398190">
<ele>18.748</ele>
<time>2016-07-17T01:48:17.946Z</time>
</trkpt>
<trkpt lat="-27.2521047" lon="152.9398120">
<ele>22.258</ele>
<time>2016-07-17T01:48:20.099Z</time>
</trkpt>
<trkpt lat="-27.2525141" lon="152.9398235">
<ele>27.159</ele>
<time>2016-07-17T01:48:23.020Z</time>
</trkpt>
<trkpt lat="-27.2528745" lon="152.9397470">
<ele>31.680</ele>
<time>2016-07-17T01:48:25.980Z</time>
</trkpt>
<trkpt lat="-27.2530646" lon="152.9396613">
<ele>35.160</ele>
<time>2016-07-17T01:48:27.958Z</time>
</trkpt>
<trkpt lat="-27.2532128" lon="152.9395814">
<ele>37.753</ele>
<time>2016-07-17T01:48:30.126Z</time>
</trkpt>
<trkpt lat="-27.2533073" lon="152.9395201">
<ele>39.527</ele>
<time>2016-07-17T01:48:31.957Z</time>
</trkpt>
<trkpt lat="-27.2534086" lon="152.9394683">
<ele>40.474</ele>
<time>2016-07-17T01:48:35.212Z</time>
</trkpt>
<trkpt lat="-27.2535077" lon="152.9395389">
<ele>40.855</ele>
<time>2016-07-17T01:48:38.345Z</time>
</trkpt>
<trkpt lat="-27.2535888" lon="152.9396812">
<ele>41.221</ele>
<time>2016-07-17T01:48:41.115Z</time>
</trkpt>
<trkpt lat="-27.2536380" lon="152.9398035">
<ele>41.986</ele>
<time>2016-07-17T01:48:43.000Z</time>
</trkpt>
<trkpt lat="-27.2536380" lon="152.9398035">
<ele>42.866</ele>
<time>2016-07-17T01:48:48.000Z</time>
</trkpt>
<trkpt lat="-27.2536380" lon="152.9398035">
<ele>43.319</ele>
<time>2016-07-17T01:49:03.038Z</time>
</trkpt>
<trkpt lat="-27.2537499" lon="152.9399930">
<ele>43.260</ele>
<time>2016-07-17T01:49:11.897Z</time>
</trkpt>
<trkpt lat="-27.2538338" lon="152.9401613">
<ele>43.072</ele>
<time>2016-07-17T01:49:13.747Z</time>
</trkpt>
<trkpt lat="-27.2539480" lon="152.9403714">
<ele>43.587</ele>
<time>2016-07-17T01:49:15.592Z</time>
</trkpt>
<trkpt lat="-27.2541301" lon="152.9408219">
<ele>45.860</ele>
<time>2016-07-17T01:49:18.961Z</time>
</trkpt>
<trkpt lat="-27.2543094" lon="152.9412684">
<ele>49.836</ele>
<time>2016-07-17T01:49:22.007Z</time>
</trkpt>
<trkpt lat="-27.2544016" lon="152.9415864">
<ele>53.898</ele>
<time>2016-07-17T01:49:23.974Z</time>
</trkpt>
<trkpt lat="-27.2545306" lon="152.9420781">
<ele>56.366</ele>
<time>2016-07-17T01:49:26.890Z</time>
</trkpt>
<trkpt lat="-27.2546642" lon="152.9426080">
<ele>56.905</ele>
<time>2016-07-17T01:49:29.892Z</time>
</trkpt>
<trkpt lat="-27.2547489" lon="152.9429673">
<ele>56.040</ele>
<time>2016-07-17T01:49:31.907Z</time>
</trkpt>
<trkpt lat="-27.2548650" lon="152.9434730">
<ele>54.258</ele>
<time>2016-07-17T01:49:34.785Z</time>
</trkpt>
<trkpt lat="-27.2550006" lon="152.9439917">
<ele>51.872</ele>
<time>2016-07-17T01:49:37.758Z</time>
</trkpt>
<trkpt lat="-27.2550765" lon="152.9443529">
<ele>49.194</ele>
<time>2016-07-17T01:49:39.797Z</time>
</trkpt>
<trkpt lat="-27.2551645" lon="152.9448893">
<ele>46.396</ele>
<time>2016-07-17T01:49:42.838Z</time>
</trkpt>
<trkpt lat="-27.2551688" lon="152.9453912">
<ele>43.078</ele>
<time>2016-07-17T01:49:45.655Z</time>
</trkpt>
<trkpt lat="-27.2551818" lon="152.9459274">
<ele>38.771</ele>
<time>2016-07-17T01:49:48.599Z</time>
</trkpt>
<trkpt lat="-27.2551886" lon="152.9462945">
<ele>34.365</ele>
<time>2016-07-17T01:49:50.609Z</time>
</trkpt>
<trkpt lat="-27.2551775" lon="152.9468143">
<ele>31.358</ele>
<time>2016-07-17T01:49:53.537Z</time>
</trkpt>
<trkpt lat="-27.2551631" lon="152.9471496">
<ele>30.153</ele>
<time>2016-07-17T01:49:55.466Z</time>
</trkpt>
<trkpt lat="-27.2551952" lon="152.9476724">
<ele>30.336</ele>
<time>2016-07-17T01:49:58.438Z</time>
</trkpt>
<trkpt lat="-27.2553177" lon="152.9482128">
<ele>31.386</ele>
<time>2016-07-17T01:50:01.574Z</time>
</trkpt>
<trkpt lat="-27.2553978" lon="152.9485278">
<ele>32.786</ele>
<time>2016-07-17T01:50:03.429Z</time>
</trkpt>
<trkpt lat="-27.2556564" lon="152.9489898">
<ele>34.092</ele>
<time>2016-07-17T01:50:06.487Z</time>
</trkpt>
<trkpt lat="-27.2560084" lon="152.9493483">
<ele>34.914</ele>
<time>2016-07-17T01:50:09.405Z</time>
</trkpt>
<trkpt lat="-27.2563004" lon="152.9495588">
<ele>35.035</ele>
<time>2016-07-17T01:50:11.476Z</time>
</trkpt>
<trkpt lat="-27.2565818" lon="152.9497425">
<ele>34.466</ele>
<time>2016-07-17T01:50:13.395Z</time>
</trkpt>
<trkpt lat="-27.2570280" lon="152.9500212">
<ele>33.494</ele>
<time>2016-07-17T01:50:16.368Z</time>
</trkpt>
<trkpt lat="-27.2573276" lon="152.9502502">
<ele>32.218</ele>
<time>2016-07-17T01:50:18.435Z</time>
</trkpt>
<trkpt lat="-27.2577294" lon="152.9506202">
<ele>30.295</ele>
<time>2016-07-17T01:50:21.404Z</time>
</trkpt>
<trkpt lat="-27.2579769" lon="152.9509012">
<ele>27.962</ele>
<time>2016-07-17T01:50:23.448Z</time>
</trkpt>
<trkpt lat="-27.2582073" lon="152.9512120">
<ele>26.101</ele>
<time>2016-07-17T01:50:25.588Z</time>
</trkpt>
<trkpt lat="-27.2583951" lon="152.9515046">
<ele>24.852</ele>
<time>2016-07-17T01:50:27.554Z</time>
</trkpt>
<trkpt lat="-27.2585546" lon="152.9517898">
<ele>23.952</ele>
<time>2016-07-17T01:50:29.445Z</time>
</trkpt>
<trkpt lat="-27.2587873" lon="152.9522260">
<ele>23.328</ele>
<time>2016-07-17T01:50:32.313Z</time>
</trkpt>
<trkpt lat="-27.2590419" lon="152.9526725">
<ele>22.822</ele>
<time>2016-07-17T01:50:35.231Z</time>
</trkpt>
<trkpt lat="-27.2592165" lon="152.9529932">
<ele>22.325</ele>
<time>2016-07-17T01:50:37.243Z</time>
</trkpt>
<trkpt lat="-27.2594773" lon="152.9534702">
<ele>21.844</ele>
<time>2016-07-17T01:50:40.304Z</time>
</trkpt>
<trkpt lat="-27.2597115" lon="152.9539048">
<ele>20.911</ele>
<time>2016-07-17T01:50:43.246Z</time>
</trkpt>
<trkpt lat="-27.2598513" lon="152.9541679">
<ele>19.294</ele>
<time>2016-07-17T01:50:45.210Z</time>
</trkpt>
<trkpt lat="-27.2599649" lon="152.9544031">
<ele>17.735</ele>
<time>2016-07-17T01:50:47.059Z</time>
</trkpt>
<trkpt lat="-27.2600733" lon="152.9546257">
<ele>17.021</ele>
<time>2016-07-17T01:50:48.843Z</time>
</trkpt>
<trkpt lat="-27.2601763" lon="152.9548266">
<ele>17.174</ele>
<time>2016-07-17T01:50:50.458Z</time>
</trkpt>
<trkpt lat="-27.2604005" lon="152.9552332">
<ele>17.759</ele>
<time>2016-07-17T01:50:53.773Z</time>
</trkpt>
<trkpt lat="-27.2606153" lon="152.9555995">
<ele>18.287</ele>
<time>2016-07-17T01:50:56.727Z</time>
</trkpt>
<trkpt lat="-27.2608494" lon="152.9559940">
<ele>18.541</ele>
<time>2016-07-17T01:50:59.763Z</time>
</trkpt>
<trkpt lat="-27.2611458" lon="152.9563597">
<ele>18.148</ele>
<time>2016-07-17T01:51:02.776Z</time>
</trkpt>
<trkpt lat="-27.2614718" lon="152.9566862">
<ele>16.506</ele>
<time>2016-07-17T01:51:05.725Z</time>
</trkpt>
<trkpt lat="-27.2618068" lon="152.9569827">
<ele>13.563</ele>
<time>2016-07-17T01:51:08.722Z</time>
</trkpt>
<trkpt lat="-27.2620296" lon="152.9571837">
<ele>10.222</ele>
<time>2016-07-17T01:51:10.902Z</time>
</trkpt>
<trkpt lat="-27.2622862" lon="152.9574249">
<ele>7.676</ele>
<time>2016-07-17T01:51:13.860Z</time>
</trkpt>
<trkpt lat="-27.2623979" lon="152.9575385">
<ele>6.179</ele>
<time>2016-07-17T01:51:15.913Z</time>
</trkpt>
<trkpt lat="-27.2624749" lon="152.9576169">
<ele>5.161</ele>
<time>2016-07-17T01:51:18.000Z</time>
</trkpt>
<trkpt lat="-27.2624749" lon="152.9576169">
<ele>4.415</ele>
<time>2016-07-17T01:51:20.000Z</time>
</trkpt>
<trkpt lat="-27.2624749" lon="152.9576169">
<ele>4.099</ele>
<time>2016-07-17T01:51:38.901Z</time>
</trkpt>
<trkpt lat="-27.2625880" lon="152.9577370">
<ele>4.243</ele>
<time>2016-07-17T01:51:43.344Z</time>
</trkpt>
<trkpt lat="-27.2628112" lon="152.9576598">
<ele>5.002</ele>
<time>2016-07-17T01:51:46.920Z</time>
</trkpt>
<trkpt lat="-27.2629565" lon="152.9574438">
<ele>6.268</ele>
<time>2016-07-17T01:51:49.815Z</time>
</trkpt>
<trkpt lat="-27.2631853" lon="152.9572458">
<ele>7.361</ele>
<time>2016-07-17T01:51:52.776Z</time>
</trkpt>
<trkpt lat="-27.2633758" lon="152.9571238">
<ele>7.747</ele>
<time>2016-07-17T01:51:54.769Z</time>
</trkpt>
<trkpt lat="-27.2635747" lon="152.9570202">
<ele>7.431</ele>
<time>2016-07-17T01:51:56.577Z</time>
</trkpt>
<trkpt lat="-27.2638160" lon="152.9569064">
<ele>6.645</ele>
<time>2016-07-17T01:51:58.548Z</time>
</trkpt>
<trkpt lat="-27.2642043" lon="152.9567330">
<ele>5.818</ele>
<time>2016-07-17T01:52:01.584Z</time>
</trkpt>
<trkpt lat="-27.2644548" lon="152.9566207">
<ele>5.314</ele>
<time>2016-07-17T01:52:03.598Z</time>
</trkpt>
<trkpt lat="-27.2646905" lon="152.9565088">
<ele>5.166</ele>
<time>2016-07-17T01:52:05.533Z</time>
</trkpt>
<trkpt lat="-27.2650621" lon="152.9563435">
<ele>5.188</ele>
<time>2016-07-17T01:52:08.466Z</time>
</trkpt>
<trkpt lat="-27.2654673" lon="152.9561980">
<ele>5.331</ele>
<time>2016-07-17T01:52:11.485Z</time>
</trkpt>
<trkpt lat="-27.2658796" lon="152.9562033">
<ele>5.739</ele>
<time>2016-07-17T01:52:14.420Z</time>
</trkpt>
<trkpt lat="-27.2661475" lon="152.9562860">
<ele>6.358</ele>
<time>2016-07-17T01:52:16.417Z</time>
</trkpt>
<trkpt lat="-27.2665207" lon="152.9564626">
<ele>6.626</ele>
<time>2016-07-17T01:52:19.401Z</time>
</trkpt>
<trkpt lat="-27.2667597" lon="152.9565370">
<ele>5.736</ele>
<time>2016-07-17T01:52:21.431Z</time>
</trkpt>
<trkpt lat="-27.2669841" lon="152.9565300">
<ele>3.636</ele>
<time>2016-07-17T01:52:23.439Z</time>
</trkpt>
<trkpt lat="-27.2671932" lon="152.9564774">
<ele>1.427</ele>
<time>2016-07-17T01:52:25.370Z</time>
</trkpt>
<trkpt lat="-27.2674265" lon="152.9562867">
<ele>0.064</ele>
<time>2016-07-17T01:52:27.890Z</time>
</trkpt>
<trkpt lat="-27.2675452" lon="152.9559724">
<ele>0.000</ele>
<time>2016-07-17T01:52:30.365Z</time>
</trkpt>
<trkpt lat="-27.2675909" lon="152.9555584">
<ele>0.000</ele>
<time>2016-07-17T01:52:33.351Z</time>
</trkpt>
<trkpt lat="-27.2675929" lon="152.9552895">
<ele>0.000</ele>
<time>2016-07-17T01:52:35.374Z</time>
</trkpt>
<trkpt lat="-27.2675998" lon="152.9549098">
<ele>0.543</ele>
<time>2016-07-17T01:52:38.374Z</time>
</trkpt>
<trkpt lat="-27.2676060" lon="152.9546761">
<ele>2.664</ele>
<time>2016-07-17T01:52:40.295Z</time>
</trkpt>
<trkpt lat="-27.2676327" lon="152.9543221">
<ele>5.281</ele>
<time>2016-07-17T01:52:43.123Z</time>
</trkpt>
<trkpt lat="-27.2677014" lon="152.9540633">
<ele>8.118</ele>
<time>2016-07-17T01:52:45.172Z</time>
</trkpt>
<trkpt lat="-27.2680403" lon="152.9536484">
<ele>11.311</ele>
<time>2016-07-17T01:52:49.255Z</time>
</trkpt>
<trkpt lat="-27.2683840" lon="152.9534880">
<ele>14.798</ele>
<time>2016-07-17T01:52:52.194Z</time>
</trkpt>
<trkpt lat="-27.2687785" lon="152.9533521">
<ele>17.948</ele>
<time>2016-07-17T01:52:55.324Z</time>
</trkpt>
<trkpt lat="-27.2690277" lon="152.9532677">
<ele>20.087</ele>
<time>2016-07-17T01:52:57.272Z</time>
</trkpt>
<trkpt lat="-27.2692813" lon="152.9531687">
<ele>20.846</ele>
<time>2016-07-17T01:52:59.243Z</time>
</trkpt>
<trkpt lat="-27.2696697" lon="152.9530039">
<ele>20.313</ele>
<time>2016-07-17T01:53:02.222Z</time>
</trkpt>
<trkpt lat="-27.2699396" lon="152.9528797">
<ele>18.924</ele>
<time>2016-07-17T01:53:04.250Z</time>
</trkpt>
<trkpt lat="-27.2702136" lon="152.9527620">
<ele>17.400</ele>
<time>2016-07-17T01:53:06.323Z</time>
</trkpt>
<trkpt lat="-27.2704296" lon="152.9526701">
<ele>16.313</ele>
<time>2016-07-17T01:53:07.992Z</time>
</trkpt>
<trkpt lat="-27.2708558" lon="152.9524849">
<ele>15.692</ele>
<time>2016-07-17T01:53:11.348Z</time>
</trkpt>
<trkpt lat="-27.2711068" lon="152.9523873">
<ele>15.185</ele>
<time>2016-07-17T01:53:13.320Z</time>
</trkpt>
<trkpt lat="-27.2713533" lon="152.9522856">
<ele>14.597</ele>
<time>2016-07-17T01:53:15.308Z</time>
</trkpt>
<trkpt lat="-27.2715890" lon="152.9521894">
<ele>14.005</ele>
<time>2016-07-17T01:53:17.277Z</time>
</trkpt>
<trkpt lat="-27.2719390" lon="152.9520741">
<ele>13.405</ele>
<time>2016-07-17T01:53:20.185Z</time>
</trkpt>
<trkpt lat="-27.2721782" lon="152.9519935">
<ele>12.659</ele>
<time>2016-07-17T01:53:22.173Z</time>
</trkpt>
<trkpt lat="-27.2725295" lon="152.9518471">
<ele>11.900</ele>
<time>2016-07-17T01:53:25.300Z</time>
</trkpt>
<trkpt lat="-27.2728333" lon="152.9517516">
<ele>11.175</ele>
<time>2016-07-17T01:53:28.288Z</time>
</trkpt>
<trkpt lat="-27.2730187" lon="152.9517343">
<ele>10.325</ele>
<time>2016-07-17T01:53:30.276Z</time>
</trkpt>
<trkpt lat="-27.2732877" lon="152.9517174">
<ele>9.489</ele>
<time>2016-07-17T01:53:33.235Z</time>
</trkpt>
<trkpt lat="-27.2734530" lon="152.9516348">
<ele>9.095</ele>
<time>2016-07-17T01:53:35.145Z</time>
</trkpt>
<trkpt lat="-27.2736953" lon="152.9514360">
<ele>9.238</ele>
<time>2016-07-17T01:53:38.086Z</time>
</trkpt>
<trkpt lat="-27.2739009" lon="152.9513006">
<ele>10.073</ele>
<time>2016-07-17T01:53:40.163Z</time>
</trkpt>
<trkpt lat="-27.2742144" lon="152.9511142">
<ele>11.636</ele>
<time>2016-07-17T01:53:43.046Z</time>
</trkpt>
<trkpt lat="-27.2744720" lon="152.9509991">
<ele>13.226</ele>
<time>2016-07-17T01:53:45.054Z</time>
</trkpt>
<trkpt lat="-27.2748962" lon="152.9508321">
<ele>14.251</ele>
<time>2016-07-17T01:53:48.094Z</time>
</trkpt>
<trkpt lat="-27.2753334" lon="152.9506641">
<ele>14.844</ele>
<time>2016-07-17T01:53:51.091Z</time>
</trkpt>
<trkpt lat="-27.2757774" lon="152.9504904">
<ele>14.965</ele>
<time>2016-07-17T01:53:54.131Z</time>
</trkpt>
<trkpt lat="-27.2760629" lon="152.9503808">
<ele>14.456</ele>
<time>2016-07-17T01:53:56.084Z</time>
</trkpt>
<trkpt lat="-27.2763647" lon="152.9502658">
<ele>13.632</ele>
<time>2016-07-17T01:53:58.117Z</time>
</trkpt>
<trkpt lat="-27.2767959" lon="152.9500628">
<ele>13.175</ele>
<time>2016-07-17T01:54:01.059Z</time>
</trkpt>
<trkpt lat="-27.2772367" lon="152.9498344">
<ele>13.343</ele>
<time>2016-07-17T01:54:04.077Z</time>
</trkpt>
<trkpt lat="-27.2775469" lon="152.9496753">
<ele>13.530</ele>
<time>2016-07-17T01:54:06.217Z</time>
</trkpt>
<trkpt lat="-27.2779565" lon="152.9494674">
<ele>13.103</ele>
<time>2016-07-17T01:54:09.061Z</time>
</trkpt>
<trkpt lat="-27.2783963" lon="152.9492805">
<ele>12.190</ele>
<time>2016-07-17T01:54:12.004Z</time>
</trkpt>
<trkpt lat="-27.2788858" lon="152.9491933">
<ele>11.315</ele>
<time>2016-07-17T01:54:15.037Z</time>
</trkpt>
<trkpt lat="-27.2791784" lon="152.9491967">
<ele>10.927</ele>
<time>2016-07-17T01:54:16.818Z</time>
</trkpt>
<trkpt lat="-27.2795373" lon="152.9492223">
<ele>11.253</ele>
<time>2016-07-17T01:54:19.013Z</time>
</trkpt>
<trkpt lat="-27.2800137" lon="152.9493460">
<ele>11.926</ele>
<time>2016-07-17T01:54:22.022Z</time>
</trkpt>
<trkpt lat="-27.2803085" lon="152.9494429">
<ele>12.421</ele>
<time>2016-07-17T01:54:23.939Z</time>
</trkpt>
<trkpt lat="-27.2805996" lon="152.9495671">
<ele>12.843</ele>
<time>2016-07-17T01:54:25.896Z</time>
</trkpt>
<trkpt lat="-27.2810225" lon="152.9497831">
<ele>13.608</ele>
<time>2016-07-17T01:54:28.850Z</time>
</trkpt>
<trkpt lat="-27.2812995" lon="152.9499215">
<ele>14.711</ele>
<time>2016-07-17T01:54:30.814Z</time>
</trkpt>
<trkpt lat="-27.2815814" lon="152.9500244">
<ele>15.619</ele>
<time>2016-07-17T01:54:32.809Z</time>
</trkpt>
<trkpt lat="-27.2819606" lon="152.9501661">
<ele>15.818</ele>
<time>2016-07-17T01:54:35.675Z</time>
</trkpt>
<trkpt lat="-27.2823122" lon="152.9502905">
<ele>14.950</ele>
<time>2016-07-17T01:54:38.625Z</time>
</trkpt>
<trkpt lat="-27.2825200" lon="152.9503710">
<ele>13.066</ele>
<time>2016-07-17T01:54:40.724Z</time>
</trkpt>
<trkpt lat="-27.2826758" lon="152.9504376">
<ele>10.762</ele>
<time>2016-07-17T01:54:42.885Z</time>
</trkpt>
<trkpt lat="-27.2827864" lon="152.9504884">
<ele>8.739</ele>
<time>2016-07-17T01:54:45.000Z</time>
</trkpt>
<trkpt lat="-27.2827864" lon="152.9504884">
<ele>7.430</ele>
<time>2016-07-17T01:54:48.000Z</time>
</trkpt>
<trkpt lat="-27.2827864" lon="152.9504884">
<ele>6.983</ele>
<time>2016-07-17T01:54:54.070Z</time>
</trkpt>
<trkpt lat="-27.2829592" lon="152.9505486">
<ele>7.246</ele>
<time>2016-07-17T01:54:58.089Z</time>
</trkpt>
<trkpt lat="-27.2831717" lon="152.9506260">
<ele>8.421</ele>
<time>2016-07-17T01:55:00.281Z</time>
</trkpt>
<trkpt lat="-27.2834462" lon="152.9507265">
<ele>10.564</ele>
<time>2016-07-17T01:55:02.504Z</time>
</trkpt>
<trkpt lat="-27.2837585" lon="152.9508396">
<ele>13.111</ele>
<time>2016-07-17T01:55:04.790Z</time>
</trkpt>
<trkpt lat="-27.2840619" lon="152.9509520">
<ele>15.408</ele>
<time>2016-07-17T01:55:06.844Z</time>
</trkpt>
<trkpt lat="-27.2843525" lon="152.9510629">
<ele>16.994</ele>
<time>2016-07-17T01:55:08.738Z</time>
</trkpt>
<trkpt lat="-27.2848060" lon="152.9512411">
<ele>17.566</ele>
<time>2016-07-17T01:55:11.691Z</time>
</trkpt>
<trkpt lat="-27.2852591" lon="152.9513987">
<ele>17.161</ele>
<time>2016-07-17T01:55:14.610Z</time>
</trkpt>
<trkpt lat="-27.2857120" lon="152.9515669">
<ele>16.347</ele>
<time>2016-07-17T01:55:17.544Z</time>
</trkpt>
<trkpt lat="-27.2861784" lon="152.9517340">
<ele>15.863</ele>
<time>2016-07-17T01:55:20.540Z</time>
</trkpt>
<trkpt lat="-27.2864811" lon="152.9518490">
<ele>15.936</ele>
<time>2016-07-17T01:55:22.462Z</time>
</trkpt>
<trkpt lat="-27.2867886" lon="152.9519858">
<ele>16.341</ele>
<time>2016-07-17T01:55:24.430Z</time>
</trkpt>
<trkpt lat="-27.2869474" lon="152.9520471">
<ele>16.781</ele>
<time>2016-07-17T01:55:25.415Z</time>
</trkpt>
<trkpt lat="-27.2876161" lon="152.9523346">
<ele>17.156</ele>
<time>2016-07-17T01:55:29.452Z</time>
</trkpt>
<trkpt lat="-27.2879445" lon="152.9524531">
<ele>17.682</ele>
<time>2016-07-17T01:55:31.396Z</time>
</trkpt>
<trkpt lat="-27.2882798" lon="152.9525722">
<ele>18.345</ele>
<time>2016-07-17T01:55:33.404Z</time>
</trkpt>
<trkpt lat="-27.2887448" lon="152.9527415">
<ele>18.627</ele>
<time>2016-07-17T01:55:36.226Z</time>
</trkpt>
<trkpt lat="-27.2892149" lon="152.9529170">
<ele>18.279</ele>
<time>2016-07-17T01:55:39.136Z</time>
</trkpt>
<trkpt lat="-27.2897000" lon="152.9531036">
<ele>17.734</ele>
<time>2016-07-17T01:55:42.217Z</time>
</trkpt>
<trkpt lat="-27.2901567" lon="152.9532795">
<ele>17.307</ele>
<time>2016-07-17T01:55:45.314Z</time>
</trkpt>
<trkpt lat="-27.2905398" lon="152.9534345">
<ele>16.904</ele>
<time>2016-07-17T01:55:48.280Z</time>
</trkpt>
<trkpt lat="-27.2907612" lon="152.9535255">
<ele>16.162</ele>
<time>2016-07-17T01:55:50.424Z</time>
</trkpt>
<trkpt lat="-27.2909253" lon="152.9535920">
<ele>14.869</ele>
<time>2016-07-17T01:55:52.645Z</time>
</trkpt>
<trkpt lat="-27.2910148" lon="152.9536283">
<ele>13.379</ele>
<time>2016-07-17T01:55:54.000Z</time>
</trkpt>
<trkpt lat="-27.2910148" lon="152.9536283">
<ele>12.220</ele>
<time>2016-07-17T01:55:58.000Z</time>
</trkpt>
<trkpt lat="-27.2910148" lon="152.9536283">
<ele>11.674</ele>
<time>2016-07-17T01:56:22.018Z</time>
</trkpt>
<trkpt lat="-27.2911972" lon="152.9536983">
<ele>11.729</ele>
<time>2016-07-17T01:56:32.671Z</time>
</trkpt>
<trkpt lat="-27.2914124" lon="152.9537847">
<ele>11.999</ele>
<time>2016-07-17T01:56:35.458Z</time>
</trkpt>
<trkpt lat="-27.2916438" lon="152.9538653">
<ele>12.451</ele>
<time>2016-07-17T01:56:37.416Z</time>
</trkpt>
<trkpt lat="-27.2919310" lon="152.9539705">
<ele>13.610</ele>
<time>2016-07-17T01:56:39.596Z</time>
</trkpt>
<trkpt lat="-27.2923810" lon="152.9541480">
<ele>15.419</ele>
<time>2016-07-17T01:56:42.811Z</time>
</trkpt>
<trkpt lat="-27.2926540" lon="152.9542898">
<ele>16.956</ele>
<time>2016-07-17T01:56:44.599Z</time>
</trkpt>
<trkpt lat="-27.2930567" lon="152.9546415">
<ele>17.729</ele>
<time>2016-07-17T01:56:47.501Z</time>
</trkpt>
<trkpt lat="-27.2933156" lon="152.9549162">
<ele>18.719</ele>
<time>2016-07-17T01:56:49.473Z</time>
</trkpt>
<trkpt lat="-27.2936478" lon="152.9553558">
<ele>20.706</ele>
<time>2016-07-17T01:56:52.342Z</time>
</trkpt>
<trkpt lat="-27.2940077" lon="152.9557821">
<ele>22.755</ele>
<time>2016-07-17T01:56:55.316Z</time>
</trkpt>
<trkpt lat="-27.2942346" lon="152.9560554">
<ele>23.779</ele>
<time>2016-07-17T01:56:57.240Z</time>
</trkpt>
<trkpt lat="-27.2945808" lon="152.9564662">
<ele>23.937</ele>
<time>2016-07-17T01:57:00.133Z</time>
</trkpt>
<trkpt lat="-27.2948253" lon="152.9567433">
<ele>23.941</ele>
<time>2016-07-17T01:57:02.097Z</time>
</trkpt>
<trkpt lat="-27.2950614" lon="152.9570164">
<ele>24.456</ele>
<time>2016-07-17T01:57:04.050Z</time>
</trkpt>
<trkpt lat="-27.2952780" lon="152.9572824">
<ele>25.505</ele>
<time>2016-07-17T01:57:05.955Z</time>
</trkpt>
<trkpt lat="-27.2956207" lon="152.9576559">
<ele>26.614</ele>
<time>2016-07-17T01:57:08.803Z</time>
</trkpt>
<trkpt lat="-27.2960534" lon="152.9579479">
<ele>27.701</ele>
<time>2016-07-17T01:57:11.697Z</time>
</trkpt>
<trkpt lat="-27.2965522" lon="152.9581766">
<ele>28.918</ele>
<time>2016-07-17T01:57:14.626Z</time>
</trkpt>
<trkpt lat="-27.2970621" lon="152.9584116">
<ele>30.513</ele>
<time>2016-07-17T01:57:17.560Z</time>
</trkpt>
<trkpt lat="-27.2975702" lon="152.9586572">
<ele>32.789</ele>
<time>2016-07-17T01:57:20.516Z</time>
</trkpt>
<trkpt lat="-27.2980286" lon="152.9589428">
<ele>35.211</ele>
<time>2016-07-17T01:57:23.369Z</time>
</trkpt>
<trkpt lat="-27.2983068" lon="152.9591580">
<ele>36.717</ele>
<time>2016-07-17T01:57:25.270Z</time>
</trkpt>
<trkpt lat="-27.2985787" lon="152.9593744">
<ele>37.031</ele>
<time>2016-07-17T01:57:27.210Z</time>
</trkpt>
<trkpt lat="-27.2987059" lon="152.9594826">
<ele>36.547</ele>
<time>2016-07-17T01:57:28.180Z</time>
</trkpt>
<trkpt lat="-27.2991844" lon="152.9599071">
<ele>35.751</ele>
<time>2016-07-17T01:57:32.000Z</time>
</trkpt>
<trkpt lat="-27.2993980" lon="152.9601126">
<ele>34.823</ele>
<time>2016-07-17T01:57:34.000Z</time>
</trkpt>
<trkpt lat="-27.2995791" lon="152.9602848">
<ele>33.649</ele>
<time>2016-07-17T01:57:36.000Z</time>
</trkpt>
<trkpt lat="-27.2997261" lon="152.9604173">
<ele>32.066</ele>
<time>2016-07-17T01:57:38.340Z</time>
</trkpt>
<trkpt lat="-27.2998104" lon="152.9604908">
<ele>30.028</ele>
<time>2016-07-17T01:57:40.000Z</time>
</trkpt>
<trkpt lat="-27.2998104" lon="152.9604908">
<ele>28.024</ele>
<time>2016-07-17T01:57:47.000Z</time>
</trkpt>
<trkpt lat="-27.2998104" lon="152.9604908">
<ele>26.956</ele>
<time>2016-07-17T01:57:47.100Z</time>
</trkpt>
<trkpt lat="-27.2999702" lon="152.9606088">
<ele>27.035</ele>
<time>2016-07-17T01:57:57.346Z</time>
</trkpt>
<trkpt lat="-27.3000716" lon="152.9606731">
<ele>27.563</ele>
<time>2016-07-17T01:57:58.901Z</time>
</trkpt>
<trkpt lat="-27.3002248" lon="152.9607653">
<ele>27.931</ele>
<time>2016-07-17T01:58:00.607Z</time>
</trkpt>
<trkpt lat="-27.3004540" lon="152.9608835">
<ele>28.173</ele>
<time>2016-07-17T01:58:02.675Z</time>
</trkpt>
<trkpt lat="-27.3007438" lon="152.9609936">
<ele>28.811</ele>
<time>2016-07-17T01:58:04.885Z</time>
</trkpt>
<trkpt lat="-27.3010882" lon="152.9611196">
<ele>30.589</ele>
<time>2016-07-17T01:58:07.178Z</time>
</trkpt>
<trkpt lat="-27.3016177" lon="152.9612730">
<ele>33.319</ele>
<time>2016-07-17T01:58:10.360Z</time>
</trkpt>
<trkpt lat="-27.3019422" lon="152.9613796">
<ele>35.649</ele>
<time>2016-07-17T01:58:12.294Z</time>
</trkpt>
<trkpt lat="-27.3022565" lon="152.9614867">
<ele>36.420</ele>
<time>2016-07-17T01:58:14.276Z</time>
</trkpt>
<trkpt lat="-27.3026989" lon="152.9616518">
<ele>35.104</ele>
<time>2016-07-17T01:58:17.174Z</time>
</trkpt>
<trkpt lat="-27.3029840" lon="152.9617891">
<ele>31.949</ele>
<time>2016-07-17T01:58:19.112Z</time>
</trkpt>
<trkpt lat="-27.3032524" lon="152.9619673">
<ele>28.128</ele>
<time>2016-07-17T01:58:21.042Z</time>
</trkpt>
<trkpt lat="-27.3036249" lon="152.9622980">
<ele>24.924</ele>
<time>2016-07-17T01:58:24.015Z</time>
</trkpt>
<trkpt lat="-27.3038511" lon="152.9625262">
<ele>23.093</ele>
<time>2016-07-17T01:58:25.985Z</time>
</trkpt>
<trkpt lat="-27.3041800" lon="152.9628386">
<ele>22.255</ele>
<time>2016-07-17T01:58:28.762Z</time>
</trkpt>
<trkpt lat="-27.3044312" lon="152.9630351">
<ele>21.523</ele>
<time>2016-07-17T01:58:30.690Z</time>
</trkpt>
<trkpt lat="-27.3046980" lon="152.9632195">
<ele>21.050</ele>
<time>2016-07-17T01:58:32.712Z</time>
</trkpt>
<trkpt lat="-27.3049528" lon="152.9633682">
<ele>21.325</ele>
<time>2016-07-17T01:58:34.825Z</time>
</trkpt>
<trkpt lat="-27.3052568" lon="152.9635628">
<ele>22.024</ele>
<time>2016-07-17T01:58:37.766Z</time>
</trkpt>
<trkpt lat="-27.3054016" lon="152.9637169">
<ele>22.055</ele>
<time>2016-07-17T01:58:39.772Z</time>
</trkpt>
<trkpt lat="-27.3055558" lon="152.9637557">
<ele>20.925</ele>
<time>2016-07-17T01:58:41.185Z</time>
</trkpt>
<trkpt lat="-27.3058570" lon="152.9637443">
<ele>19.662</ele>
<time>2016-07-17T01:58:43.411Z</time>
</trkpt>
<trkpt lat="-27.3063271" lon="152.9637815">
<ele>19.701</ele>
<time>2016-07-17T01:58:46.512Z</time>
</trkpt>
<trkpt lat="-27.3067730" lon="152.9637931">
<ele>21.487</ele>
<time>2016-07-17T01:58:49.415Z</time>
</trkpt>
<trkpt lat="-27.3070585" lon="152.9637821">
<ele>24.152</ele>
<time>2016-07-17T01:58:51.342Z</time>
</trkpt>
<trkpt lat="-27.3073411" lon="152.9637683">
<ele>26.331</ele>
<time>2016-07-17T01:58:53.252Z</time>
</trkpt>
<trkpt lat="-27.3077689" lon="152.9637465">
<ele>27.500</ele>
<time>2016-07-17T01:58:56.109Z</time>
</trkpt>
<trkpt lat="-27.3080576" lon="152.9637143">
<ele>28.016</ele>
<time>2016-07-17T01:58:58.090Z</time>
</trkpt>
<trkpt lat="-27.3084086" lon="152.9636711">
<ele>28.650</ele>
<time>2016-07-17T01:59:00.726Z</time>
</trkpt>
<trkpt lat="-27.3086416" lon="152.9636313">
<ele>29.716</ele>
<time>2016-07-17T01:59:03.216Z</time>
</trkpt>
<trkpt lat="-27.3088023" lon="152.9636036">
<ele>30.330</ele>
<time>2016-07-17T01:59:05.674Z</time>
</trkpt>
<trkpt lat="-27.3089003" lon="152.9635838">
<ele>29.823</ele>
<time>2016-07-17T01:59:08.000Z</time>
</trkpt>
<trkpt lat="-27.3089003" lon="152.9635838">
<ele>28.834</ele>
<time>2016-07-17T01:59:14.000Z</time>
</trkpt>
<trkpt lat="-27.3089003" lon="152.9635838">
<ele>28.270</ele>
<time>2016-07-17T01:59:30.982Z</time>
</trkpt>
<trkpt lat="-27.3091216" lon="152.9635448">
<ele>28.436</ele>
<time>2016-07-17T01:59:36.581Z</time>
</trkpt>
<trkpt lat="-27.3092270" lon="152.9635290">
<ele>29.145</ele>
<time>2016-07-17T01:59:37.783Z</time>
</trkpt>
<trkpt lat="-27.3096283" lon="152.9634543">
<ele>30.080</ele>
<time>2016-07-17T01:59:41.552Z</time>
</trkpt>
<trkpt lat="-27.3100243" lon="152.9633871">
<ele>31.234</ele>
<time>2016-07-17T01:59:44.722Z</time>
</trkpt>
<trkpt lat="-27.3101591" lon="152.9633590">
<ele>32.786</ele>
<time>2016-07-17T01:59:45.736Z</time>
</trkpt>
<trkpt lat="-27.3107188" lon="152.9632570">
<ele>34.478</ele>
<time>2016-07-17T01:59:49.751Z</time>
</trkpt>
<trkpt lat="-27.3110067" lon="152.9632194">
<ele>35.794</ele>
<time>2016-07-17T01:59:51.663Z</time>
</trkpt>
<trkpt lat="-27.3114608" lon="152.9631464">
<ele>36.556</ele>
<time>2016-07-17T01:59:54.589Z</time>
</trkpt>
<trkpt lat="-27.3119536" lon="152.9630986">
<ele>36.879</ele>
<time>2016-07-17T01:59:57.636Z</time>
</trkpt>
<trkpt lat="-27.3122912" lon="152.9630941">
<ele>36.603</ele>
<time>2016-07-17T01:59:59.661Z</time>
</trkpt>
<trkpt lat="-27.3126340" lon="152.9631269">
<ele>35.639</ele>
<time>2016-07-17T02:00:01.685Z</time>
</trkpt>
<trkpt lat="-27.3129675" lon="152.9631837">
<ele>34.335</ele>
<time>2016-07-17T02:00:03.694Z</time>
</trkpt>
<trkpt lat="-27.3134482" lon="152.9633025">
<ele>33.206</ele>
<time>2016-07-17T02:00:06.735Z</time>
</trkpt>
<trkpt lat="-27.3139044" lon="152.9633865">
<ele>32.315</ele>
<time>2016-07-17T02:00:09.837Z</time>
</trkpt>
<trkpt lat="-27.3143112" lon="152.9634651">
<ele>31.441</ele>
<time>2016-07-17T02:00:12.892Z</time>
</trkpt>
<trkpt lat="-27.3146636" lon="152.9635540">
<ele>30.548</ele>
<time>2016-07-17T02:00:15.524Z</time>
</trkpt>
<trkpt lat="-27.3151044" lon="152.9636661">
<ele>29.882</ele>
<time>2016-07-17T02:00:18.469Z</time>
</trkpt>
<trkpt lat="-27.3154495" lon="152.9637328">
<ele>30.441</ele>
<time>2016-07-17T02:00:20.579Z</time>
</trkpt>
<trkpt lat="-27.3159342" lon="152.9638096">
<ele>32.834</ele>
<time>2016-07-17T02:00:23.589Z</time>
</trkpt>
<trkpt lat="-27.3162399" lon="152.9638217">
<ele>35.795</ele>
<time>2016-07-17T02:00:25.515Z</time>
</trkpt>
<trkpt lat="-27.3167293" lon="152.9637971">
<ele>37.785</ele>
<time>2016-07-17T02:00:28.600Z</time>
</trkpt>
<trkpt lat="-27.3171889" lon="152.9637760">
<ele>38.597</ele>
<time>2016-07-17T02:00:31.491Z</time>
</trkpt>
<trkpt lat="-27.3175091" lon="152.9637701">
<ele>38.397</ele>
<time>2016-07-17T02:00:33.506Z</time>
</trkpt>
<trkpt lat="-27.3178164" lon="152.9637591">
<ele>37.554</ele>
<time>2016-07-17T02:00:35.458Z</time>
</trkpt>
<trkpt lat="-27.3182834" lon="152.9637435">
<ele>36.705</ele>
<time>2016-07-17T02:00:38.427Z</time>
</trkpt>
<trkpt lat="-27.3187445" lon="152.9637277">
<ele>35.901</ele>
<time>2016-07-17T02:00:41.346Z</time>
</trkpt>
<trkpt lat="-27.3190672" lon="152.9637167">
<ele>34.678</ele>
<time>2016-07-17T02:00:43.376Z</time>
</trkpt>
<trkpt lat="-27.3193846" lon="152.9637059">
<ele>32.803</ele>
<time>2016-07-17T02:00:45.347Z</time>
</trkpt>
<trkpt lat="-27.3197094" lon="152.9636945">
<ele>30.400</ele>
<time>2016-07-17T02:00:47.302Z</time>
</trkpt>
<trkpt lat="-27.3202342" lon="152.9636970">
<ele>27.756</ele>
<time>2016-07-17T02:00:50.326Z</time>
</trkpt>
<trkpt lat="-27.3207631" lon="152.9636798">
<ele>25.333</ele>
<time>2016-07-17T02:00:53.339Z</time>
</trkpt>
<trkpt lat="-27.3212671" lon="152.9636712">
<ele>23.242</ele>
<time>2016-07-17T02:00:56.390Z</time>
</trkpt>
<trkpt lat="-27.3217025" lon="152.9636599">
<ele>21.076</ele>
<time>2016-07-17T02:00:59.252Z</time>
</trkpt>
<trkpt lat="-27.3219944" lon="152.9636526">
<ele>18.706</ele>
<time>2016-07-17T02:01:01.270Z</time>
</trkpt>
<trkpt lat="-27.3224074" lon="152.9636434">
<ele>16.855</ele>
<time>2016-07-17T02:01:04.218Z</time>
</trkpt>
<trkpt lat="-27.3227969" lon="152.9636582">
<ele>16.170</ele>
<time>2016-07-17T02:01:07.119Z</time>
</trkpt>
<trkpt lat="-27.3230573" lon="152.9636686">
<ele>16.669</ele>
<time>2016-07-17T02:01:09.109Z</time>
</trkpt>
<trkpt lat="-27.3234414" lon="152.9636669">
<ele>17.836</ele>
<time>2016-07-17T02:01:12.107Z</time>
</trkpt>
<trkpt lat="-27.3238040" lon="152.9636831">
<ele>19.303</ele>
<time>2016-07-17T02:01:15.003Z</time>
</trkpt>
<trkpt lat="-27.3241791" lon="152.9637149">
<ele>21.093</ele>
<time>2016-07-17T02:01:18.041Z</time>
</trkpt>
<trkpt lat="-27.3243901" lon="152.9638101">
<ele>23.351</ele>
<time>2016-07-17T02:01:20.209Z</time>
</trkpt>
<trkpt lat="-27.3246367" lon="152.9639475">
<ele>25.724</ele>
<time>2016-07-17T02:01:23.577Z</time>
</trkpt>
<trkpt lat="-27.3247725" lon="152.9637478">
<ele>27.122</ele>
<time>2016-07-17T02:01:26.258Z</time>
</trkpt>
<trkpt lat="-27.3248533" lon="152.9635924">
<ele>27.062</ele>
<time>2016-07-17T02:01:27.648Z</time>
</trkpt>
<trkpt lat="-27.3250164" lon="152.9633527">
<ele>26.809</ele>
<time>2016-07-17T02:01:29.593Z</time>
</trkpt>
<trkpt lat="-27.3252360" lon="152.9631090">
<ele>27.806</ele>
<time>2016-07-17T02:01:31.628Z</time>
</trkpt>
<trkpt lat="-27.3254910" lon="152.9629235">
<ele>29.915</ele>
<time>2016-07-17T02:01:33.570Z</time>
</trkpt>
<trkpt lat="-27.3259144" lon="152.9627406">
<ele>31.981</ele>
<time>2016-07-17T02:01:36.427Z</time>
</trkpt>
<trkpt lat="-27.3263949" lon="152.9626445">
<ele>33.169</ele>
<time>2016-07-17T02:01:39.419Z</time>
</trkpt>
<trkpt lat="-27.3267306" lon="152.9625851">
<ele>33.235</ele>
<time>2016-07-17T02:01:41.380Z</time>
</trkpt>
<trkpt lat="-27.3270883" lon="152.9625280">
<ele>32.393</ele>
<time>2016-07-17T02:01:43.355Z</time>
</trkpt>
<trkpt lat="-27.3275873" lon="152.9624553">
<ele>30.911</ele>
<time>2016-07-17T02:01:45.988Z</time>
</trkpt>
<trkpt lat="-27.3282529" lon="152.9622554">
<ele>28.758</ele>
<time>2016-07-17T02:01:49.392Z</time>
</trkpt>
<trkpt lat="-27.3286469" lon="152.9621583">
<ele>26.063</ele>
<time>2016-07-17T02:01:51.394Z</time>
</trkpt>
<trkpt lat="-27.3292100" lon="152.9620418">
<ele>23.367</ele>
<time>2016-07-17T02:01:54.275Z</time>
</trkpt>
<trkpt lat="-27.3296024" lon="152.9619713">
<ele>21.320</ele>
<time>2016-07-17T02:01:56.295Z</time>
</trkpt>
<trkpt lat="-27.3299919" lon="152.9618996">
<ele>20.641</ele>
<time>2016-07-17T02:01:58.306Z</time>
</trkpt>
<trkpt lat="-27.3307786" lon="152.9617597">
<ele>21.365</ele>
<time>2016-07-17T02:02:02.301Z</time>
</trkpt>
<trkpt lat="-27.3311716" lon="152.9616882">
<ele>22.472</ele>
<time>2016-07-17T02:02:04.232Z</time>
</trkpt>
<trkpt lat="-27.3317807" lon="152.9615795">
<ele>22.799</ele>
<time>2016-07-17T02:02:07.143Z</time>
</trkpt>
<trkpt lat="-27.3322296" lon="152.9615128">
<ele>22.057</ele>
<time>2016-07-17T02:02:09.223Z</time>
</trkpt>
<trkpt lat="-27.3328625" lon="152.9614486">
<ele>20.831</ele>
<time>2016-07-17T02:02:12.208Z</time>
</trkpt>
<trkpt lat="-27.3334475" lon="152.9614006">
<ele>19.906</ele>
<time>2016-07-17T02:02:15.156Z</time>
</trkpt>
<trkpt lat="-27.3338059" lon="152.9613612">
<ele>19.566</ele>
<time>2016-07-17T02:02:17.092Z</time>
</trkpt>
<trkpt lat="-27.3343403" lon="152.9612786">
<ele>19.931</ele>
<time>2016-07-17T02:02:20.004Z</time>
</trkpt>
<trkpt lat="-27.3349061" lon="152.9611827">
<ele>21.317</ele>
<time>2016-07-17T02:02:23.030Z</time>
</trkpt>
<trkpt lat="-27.3352732" lon="152.9611097">
<ele>23.695</ele>
<time>2016-07-17T02:02:24.996Z</time>
</trkpt>
<trkpt lat="-27.3358194" lon="152.9609787">
<ele>26.176</ele>
<time>2016-07-17T02:02:27.963Z</time>
</trkpt>
<trkpt lat="-27.3361810" lon="152.9609022">
<ele>27.816</ele>
<time>2016-07-17T02:02:29.941Z</time>
</trkpt>
<trkpt lat="-27.3367202" lon="152.9608155">
<ele>27.933</ele>
<time>2016-07-17T02:02:32.904Z</time>
</trkpt>
<trkpt lat="-27.3370854" lon="152.9607722">
<ele>26.573</ele>
<time>2016-07-17T02:02:34.998Z</time>
</trkpt>
<trkpt lat="-27.3375545" lon="152.9607029">
<ele>24.687</ele>
<time>2016-07-17T02:02:38.052Z</time>
</trkpt>
<trkpt lat="-27.3378802" lon="152.9606469">
<ele>23.055</ele>
<time>2016-07-17T02:02:41.117Z</time>
</trkpt>
<trkpt lat="-27.3380093" lon="152.9606368">
<ele>21.250</ele>
<time>2016-07-17T02:02:43.000Z</time>
</trkpt>
<trkpt lat="-27.3380093" lon="152.9606368">
<ele>19.015</ele>
<time>2016-07-17T02:02:46.000Z</time>
</trkpt>
<trkpt lat="-27.3380093" lon="152.9606368">
<ele>17.499</ele>
<time>2016-07-17T02:03:13.307Z</time>
</trkpt>
<trkpt lat="-27.3382342" lon="152.9606263">
<ele>17.867</ele>
<time>2016-07-17T02:03:16.947Z</time>
</trkpt>
<trkpt lat="-27.3387207" lon="152.9606533">
<ele>19.513</ele>
<time>2016-07-17T02:03:20.635Z</time>
</trkpt>
<trkpt lat="-27.3390782" lon="152.9607824">
<ele>22.115</ele>
<time>2016-07-17T02:03:23.012Z</time>
</trkpt>
<trkpt lat="-27.3396142" lon="152.9609641">
<ele>25.612</ele>
<time>2016-07-17T02:03:26.420Z</time>
</trkpt>
<trkpt lat="-27.3401528" lon="152.9610791">
<ele>28.032</ele>
<time>2016-07-17T02:03:29.519Z</time>
</trkpt>
<trkpt lat="-27.3403379" lon="152.9611025">
<ele>27.557</ele>
<time>2016-07-17T02:03:30.519Z</time>
</trkpt>
<trkpt lat="-27.3410779" lon="152.9611676">
<ele>25.270</ele>
<time>2016-07-17T02:03:34.471Z</time>
</trkpt>
<trkpt lat="-27.3416315" lon="152.9612156">
<ele>22.245</ele>
<time>2016-07-17T02:03:37.399Z</time>
</trkpt>
<trkpt lat="-27.3420060" lon="152.9612507">
<ele>18.698</ele>
<time>2016-07-17T02:03:39.374Z</time>
</trkpt>
<trkpt lat="-27.3423808" lon="152.9612815">
<ele>15.565</ele>
<time>2016-07-17T02:03:41.357Z</time>
</trkpt>
<trkpt lat="-27.3429353" lon="152.9613401">
<ele>13.748</ele>
<time>2016-07-17T02:03:44.361Z</time>
</trkpt>
<trkpt lat="-27.3434591" lon="152.9614458">
<ele>13.082</ele>
<time>2016-07-17T02:03:47.330Z</time>
</trkpt>
<trkpt lat="-27.3437889" lon="152.9615751">
<ele>13.343</ele>
<time>2016-07-17T02:03:49.312Z</time>
</trkpt>
<trkpt lat="-27.3442562" lon="152.9618307">
<ele>14.363</ele>
<time>2016-07-17T02:03:52.312Z</time>
</trkpt>
<trkpt lat="-27.3446720" lon="152.9621494">
<ele>15.729</ele>
<time>2016-07-17T02:03:55.323Z</time>
</trkpt>
<trkpt lat="-27.3449171" lon="152.9623695">
<ele>16.960</ele>
<time>2016-07-17T02:03:57.238Z</time>
</trkpt>
<trkpt lat="-27.3452454" lon="152.9627757">
<ele>17.927</ele>
<time>2016-07-17T02:04:00.378Z</time>
</trkpt>
<trkpt lat="-27.3454258" lon="152.9630312">
<ele>18.772</ele>
<time>2016-07-17T02:04:02.846Z</time>
</trkpt>
<trkpt lat="-27.3455784" lon="152.9632099">
<ele>19.557</ele>
<time>2016-07-17T02:04:05.236Z</time>
</trkpt>
<trkpt lat="-27.3457324" lon="152.9634039">
<ele>19.511</ele>
<time>2016-07-17T02:04:07.798Z</time>
</trkpt>
<trkpt lat="-27.3461084" lon="152.9630153">
<ele>18.158</ele>
<time>2016-07-17T02:04:12.282Z</time>
</trkpt>
<trkpt lat="-27.3464045" lon="152.9627015">
<ele>16.590</ele>
<time>2016-07-17T02:04:15.340Z</time>
</trkpt>
<trkpt lat="-27.3465956" lon="152.9625206">
<ele>16.401</ele>
<time>2016-07-17T02:04:17.288Z</time>
</trkpt>
<trkpt lat="-27.3467785" lon="152.9623470">
<ele>17.759</ele>
<time>2016-07-17T02:04:19.171Z</time>
</trkpt>
<trkpt lat="-27.3470550" lon="152.9620745">
<ele>19.357</ele>
<time>2016-07-17T02:04:22.082Z</time>
</trkpt>
<trkpt lat="-27.3472414" lon="152.9618905">
<ele>20.007</ele>
<time>2016-07-17T02:04:24.068Z</time>
</trkpt>
<trkpt lat="-27.3475270" lon="152.9616390">
<ele>19.660</ele>
<time>2016-07-17T02:04:27.096Z</time>
</trkpt>
<trkpt lat="-27.3477039" lon="152.9614034">
<ele>18.597</ele>
<time>2016-07-17T02:04:29.358Z</time>
</trkpt>
<trkpt lat="-27.3479239" lon="152.9609609">
<ele>17.257</ele>
<time>2016-07-17T02:04:32.886Z</time>
</trkpt>
<trkpt lat="-27.3479994" lon="152.9606931">
<ele>15.852</ele>
<time>2016-07-17T02:04:34.784Z</time>
</trkpt>
<trkpt lat="-27.3480431" lon="152.9602683">
<ele>14.413</ele>
<time>2016-07-17T02:04:37.578Z</time>
</trkpt>
<trkpt lat="-27.3480063" lon="152.9599628">
<ele>13.013</ele>
<time>2016-07-17T02:04:39.587Z</time>
</trkpt>
<trkpt lat="-27.3479316" lon="152.9595290">
<ele>11.805</ele>
<time>2016-07-17T02:04:42.632Z</time>
</trkpt>
<trkpt lat="-27.3478721" lon="152.9591321">
<ele>10.610</ele>
<time>2016-07-17T02:04:45.545Z</time>
</trkpt>
<trkpt lat="-27.3478415" lon="152.9589034">
<ele>9.321</ele>
<time>2016-07-17T02:04:47.229Z</time>
</trkpt>
<trkpt lat="-27.3477982" lon="152.9585965">
<ele>8.415</ele>
<time>2016-07-17T02:04:49.464Z</time>
</trkpt>
<trkpt lat="-27.3477605" lon="152.9583290">
<ele>8.534</ele>
<time>2016-07-17T02:04:51.379Z</time>
</trkpt>
<trkpt lat="-27.3477321" lon="152.9579074">
<ele>9.550</ele>
<time>2016-07-17T02:04:54.322Z</time>
</trkpt>
<trkpt lat="-27.3477602" lon="152.9576265">
<ele>11.136</ele>
<time>2016-07-17T02:04:56.285Z</time>
</trkpt>
<trkpt lat="-27.3478720" lon="152.9572143">
<ele>13.174</ele>
<time>2016-07-17T02:04:59.643Z</time>
</trkpt>
<trkpt lat="-27.3479755" lon="152.9569959">
<ele>15.597</ele>
<time>2016-07-17T02:05:02.582Z</time>
</trkpt>
<trkpt lat="-27.3480751" lon="152.9568337">
<ele>18.017</ele>
<time>2016-07-17T02:05:06.002Z</time>
</trkpt>
<trkpt lat="-27.3481489" lon="152.9567350">
<ele>19.844</ele>
<time>2016-07-17T02:05:07.637Z</time>
</trkpt>
<trkpt lat="-27.3482929" lon="152.9565781">
<ele>20.885</ele>
<time>2016-07-17T02:05:09.651Z</time>
</trkpt>
<trkpt lat="-27.3485508" lon="152.9562990">
<ele>21.773</ele>
<time>2016-07-17T02:05:12.609Z</time>
</trkpt>
<trkpt lat="-27.3487524" lon="152.9560780">
<ele>23.150</ele>
<time>2016-07-17T02:05:14.612Z</time>
</trkpt>
<trkpt lat="-27.3489522" lon="152.9558566">
<ele>24.738</ele>
<time>2016-07-17T02:05:16.531Z</time>
</trkpt>
<trkpt lat="-27.3493399" lon="152.9556084">
<ele>25.769</ele>
<time>2016-07-17T02:05:19.527Z</time>
</trkpt>
<trkpt lat="-27.3497594" lon="152.9554391">
<ele>25.872</ele>
<time>2016-07-17T02:05:22.495Z</time>
</trkpt>
<trkpt lat="-27.3501757" lon="152.9552726">
<ele>25.069</ele>
<time>2016-07-17T02:05:25.429Z</time>
</trkpt>
<trkpt lat="-27.3505998" lon="152.9551033">
<ele>23.826</ele>
<time>2016-07-17T02:05:28.387Z</time>
</trkpt>
<trkpt lat="-27.3508784" lon="152.9549920">
<ele>23.454</ele>
<time>2016-07-17T02:05:30.347Z</time>
</trkpt>
<trkpt lat="-27.3511561" lon="152.9548811">
<ele>24.605</ele>
<time>2016-07-17T02:05:32.342Z</time>
</trkpt>
<trkpt lat="-27.3514215" lon="152.9547751">
<ele>26.448</ele>
<time>2016-07-17T02:05:34.248Z</time>
</trkpt>
<trkpt lat="-27.3517009" lon="152.9546635">
<ele>28.207</ele>
<time>2016-07-17T02:05:36.231Z</time>
</trkpt>
<trkpt lat="-27.3519893" lon="152.9545796">
<ele>29.431</ele>
<time>2016-07-17T02:05:38.227Z</time>
</trkpt>
<trkpt lat="-27.3524031" lon="152.9544155">
<ele>29.379</ele>
<time>2016-07-17T02:05:41.265Z</time>
</trkpt>
<trkpt lat="-27.3527740" lon="152.9543091">
<ele>27.805</ele>
<time>2016-07-17T02:05:44.114Z</time>
</trkpt>
<trkpt lat="-27.3531375" lon="152.9542857">
<ele>25.537</ele>
<time>2016-07-17T02:05:46.928Z</time>
</trkpt>
<trkpt lat="-27.3535344" lon="152.9543523">
<ele>24.489</ele>
<time>2016-07-17T02:05:49.951Z</time>
</trkpt>
<trkpt lat="-27.3537859" lon="152.9544526">
<ele>25.920</ele>
<time>2016-07-17T02:05:51.913Z</time>
</trkpt>
<trkpt lat="-27.3541412" lon="152.9546694">
<ele>28.851</ele>
<time>2016-07-17T02:05:54.902Z</time>
</trkpt>
<trkpt lat="-27.3544321" lon="152.9549588">
<ele>31.426</ele>
<time>2016-07-17T02:05:57.899Z</time>
</trkpt>
<trkpt lat="-27.3545612" lon="152.9551053">
<ele>32.733</ele>
<time>2016-07-17T02:05:59.418Z</time>
</trkpt>
<trkpt lat="-27.3546829" lon="152.9553731">
<ele>32.798</ele>
<time>2016-07-17T02:06:01.676Z</time>
</trkpt>
<trkpt lat="-27.3548149" lon="152.9557688">
<ele>31.878</ele>
<time>2016-07-17T02:06:04.664Z</time>
</trkpt>
<trkpt lat="-27.3548529" lon="152.9561887">
<ele>30.135</ele>
<time>2016-07-17T02:06:07.483Z</time>
</trkpt>
<trkpt lat="-27.3548850" lon="152.9566617">
<ele>27.536</ele>
<time>2016-07-17T02:06:10.678Z</time>
</trkpt>
<trkpt lat="-27.3548942" lon="152.9569320">
<ele>24.197</ele>
<time>2016-07-17T02:06:12.697Z</time>
</trkpt>
<trkpt lat="-27.3548781" lon="152.9572563">
<ele>20.725</ele>
<time>2016-07-17T02:06:15.757Z</time>
</trkpt>
<trkpt lat="-27.3548577" lon="152.9573949">
<ele>17.409</ele>
<time>2016-07-17T02:06:17.639Z</time>
</trkpt>
<trkpt lat="-27.3550016" lon="152.9573424">
<ele>14.431</ele>
<time>2016-07-17T02:06:20.413Z</time>
</trkpt>
<trkpt lat="-27.3551972" lon="152.9573300">
<ele>12.525</ele>
<time>2016-07-17T02:06:23.315Z</time>
</trkpt>
<trkpt lat="-27.3553964" lon="152.9573116">
<ele>12.013</ele>
<time>2016-07-17T02:06:25.455Z</time>
</trkpt>
<trkpt lat="-27.3556063" lon="152.9572450">
<ele>12.618</ele>
<time>2016-07-17T02:06:27.529Z</time>
</trkpt>
<trkpt lat="-27.3559099" lon="152.9571353">
<ele>13.832</ele>
<time>2016-07-17T02:06:30.461Z</time>
</trkpt>
<trkpt lat="-27.3561725" lon="152.9569572">
<ele>14.921</ele>
<time>2016-07-17T02:06:33.317Z</time>
</trkpt>
<trkpt lat="-27.3563403" lon="152.9568264">
<ele>15.445</ele>
<time>2016-07-17T02:06:35.250Z</time>
</trkpt>
<trkpt lat="-27.3564975" lon="152.9567039">
<ele>15.470</ele>
<time>2016-07-17T02:06:37.151Z</time>
</trkpt>
<trkpt lat="-27.3566327" lon="152.9565985">
<ele>15.211</ele>
<time>2016-07-17T02:06:39.000Z</time>
</trkpt>
<trkpt lat="-27.3566327" lon="152.9565985">
<ele>14.891</ele>
<time>2016-07-17T02:06:45.000Z</time>
</trkpt>
<trkpt lat="-27.3566327" lon="152.9565985">
<ele>14.695</ele>
<time>2016-07-17T02:06:49.427Z</time>
</trkpt>
<trkpt lat="-27.3568185" lon="152.9565659">
<ele>14.701</ele>
<time>2016-07-17T02:06:58.194Z</time>
</trkpt>
<trkpt lat="-27.3568711" lon="152.9566555">
<ele>14.795</ele>
<time>2016-07-17T02:07:01.000Z</time>
</trkpt>
<trkpt lat="-27.3568711" lon="152.9566555">
<ele>14.850</ele>
<time>2016-07-17T02:07:07.000Z</time>
</trkpt>
</trkseg>
</trk>
<extensions>
<fpdata xmlns="http://www.motionx.com/GPX-Extensions/1/1" sfv="10" origin="MotionXGPSFull 24.1 Build 5049R64">
<bin enc="base64">
RgIAAAACAAAAW5Xak6ji1UEBAAAAyv61dbri1UEAAHwk5SjMQFAUAABTEc4B9E84LUiX
M0AygNBsZ7MtQAAAAAASAAAAQmxhY2tidXR0IFBpZSBSdW4AFQAAADE3IEp1bCAyMDE2
ICA3OjA4IGFtAAAAAADv/rV1uuLVQdxoJX+64tVBCyHeAJ3oBi2naKBALAAAAAEAAACW
EwEKWCBjQP8b1L9xVzvA9E84LUiXM0AAAAAAAAAkQAAAAAAAAChAAAAAAACDsUAAAAAA
AAAAAAAAAADNzMzMzPxfQCbm2R4ZqitAAQAAAHA3anXTb6K/AQAAAAEAAADf3+2cig61
P7FueOJmlMO/AQAAAAEAAAACAAAAoG/X9x+WQ0AAAAAAAAAAAAEAAAAWAAAAQmxhY2ti
dXR0X1BpZV9SdW4uZ3B4AAEAAADf4VN8uuLVQQoAAAABAAAAEgAAAEJsYWNrYnV0dCBQ
aWUgUnVuAAAAAAAMAAAAAAAAAAAAAAAYAQAA1QDAErri1UEAAAAAAAAAAAAAAAAAAAAA
/yVEvAIAAAAAAAAAAAAAAAEAAAAnAAAAMjQuMSBCdWlsZCA1MDQ5UjY0LCBNWEFFIDgu
MSBiLiA2MjZSNjQAAAAAAKp5AAABAAAAARgAAABPoopXS+iKVwRagRyUqOLVQVqBHJSo
4tVBAAAAoP568D8AAAAAAnSV2pOo4tVBAmiMOqri1UEAAOAoHWuaQAAAAAACbtnMPqri
1UFSmkYeq+LVQQAAkJtcMaRAAAAAAALRlQkgq+LVQRl0hp6s4tVBAADoxqESsEAAAAAA
AklniaGs4tVBaEFHM63i1UEAAGQvmVmyQAAAAAAChc/KOa3i1UHb+0YEruLVQQAAvOCJ
g7VAAAAAAAIfEQoTruLVQScuxx2u4tVBAADcVH6utUAAAAAAApkQymOu4tVBOUfG9q7i
1UEAAFwvb/q3QAAAAAACw/MJBq/i1UGnXAYHr+LVQQAA7NJg/rdAAAAAAALEzMkfr+LV
QTlEB/+w4tVBAADAsFZ7v0AAAAAAAk2hSAGx4tVBKLQGA7Hi1UEAACz8ToK/QAAAAAAC
A83L97Li1UEGvgfltOLVQQAAHGCfm8NAAAAAAAJxrUmVteLVQScux6e14tVBAACIYZrA
w0AAAAAAAgD/CKm14tVBSkdGJbji1UEAABzyFLnIQAAAAAACUDfIKLji1UEtzQemuOLV
QQAA1h2Us8lAAAAAAAK4ksmwuOLVQdB6CAC54tVBAAAG7hFSykAAAAAAAmEaiAW54tVB
IeUGJrni1UEAAIaDD5PKQAAAAAAC8S6KK7ni1UF2MghaueLVQQAAkIoL8MpAAAAAAAI2
lEtcueLVQa3ehmu54tVBAAB+H4IOy0AAAAAAAtXOx3O54tVBiA/Khrni1UEAAOSghjTL
QAAAAAACpDLPiLni1UGWWYmcueLVQQAAyO76W8tAAAAAAALdl8qhueLVQdL+htG54tVB
AACyvHO7y0AAAAAAAoeIDtm54tVBPq9JDbri1UEAACAK6iPMQAAAAAACpIpLELri1UHS
F8kSuuLVQQAAfCTlKMxAAAAAAAAAAAA=
</bin>
</fpdata>
</extensions>
</gpx>